# Wetter Temperatur Luftdruck Luftfeuchtigkeit Sichtweite Windgeschwindigkeit Windrichtung Zeit
1 Clouds 9 1017 96 1225 2.88 222 13:22 22.04.2021
2 Clouds 9 1017 96 1225 2.88 222 12:52 22.04.2021
3 Clouds 9 1017 96 1225 2.88 222 12:31 22.04.2021
4 Rain 9 1016 96 141 1.28 244 11:50 22.04.2021
5 Rain 9 1017 96 258 3.1 238 11:27 22.04.2021
6 Rain 9 1017 96 258 3.1 238 10:59 22.04.2021
7 Rain 9 1017 96 258 3.1 238 10:40 22.04.2021
8 Rain 11 1017 93 947 3.91 199 10:19 22.04.2021
9 Rain 11 1017 93 947 3.91 199 09:36 22.04.2021
10 Rain 12 1016 91 948 4.07 186 08:51 22.04.2021
11 Clouds 12 1018 90 2433 3.59 195 08:23 22.04.2021
12 Clouds 11 1018 91 1590 3.05 194 07:49 22.04.2021
13 Clouds 11 1018 91 1590 3.05 194 07:31 22.04.2021
14 Clouds 11 1019 90 2175 2.5 202 06:44 22.04.2021
15 Clouds 11 1019 89 3307 1.61 206 06:18 22.04.2021
16 Rain 10 1019 86 4107 0.36 176 05:23 22.04.2021
17 Clouds 7 1019 93 4658 0.86 15 02:25 22.04.2021
18 Clouds 7 1019 93 4769 0.8 81 23:59 21.04.2021
19 Rain 7 1019 93 4769 0.8 81 23:39 21.04.2021
20 Rain 7 1019 93 2346 1.32 69 23:19 21.04.2021
21 Rain 7 1019 93 2346 1.32 69 22:40 21.04.2021
22 Clouds 7 1019 89 6940 1.76 21 22:19 21.04.2021
23 Rain 7 1019 89 6940 1.76 21 21:41 21.04.2021
24 Rain 8 1019 85 10000 2.11 41 21:22 21.04.2021
25 Rain 8 1019 85 10000 2.11 41 20:32 21.04.2021
26 Rain 7 1019 82 10000 2.67 40 19:51 21.04.2021
27 Rain 8 1018 83 10000 2.71 53 19:28 21.04.2021
28 Clouds 8 1018 83 10000 2.71 53 18:57 21.04.2021
29 Rain 8 1018 83 10000 2.71 53 18:39 21.04.2021
30 Rain 9 1018 88 10000 2.81 37 18:19 21.04.2021
31 Rain 9 1018 88 10000 2.81 37 17:43 21.04.2021
32 Rain 8 1019 95 4358 1.43 57 17:22 21.04.2021
33 Rain 8 1019 95 4358 1.43 57 16:40 21.04.2021
34 Rain 9 1017 94 1957 1.63 27 15:52 21.04.2021
35 Rain 9 1017 97 3992 1.49 9 15:28 21.04.2021
36 Clouds 9 1017 97 3992 1.49 9 14:46 21.04.2021
37 Rain 10 1015 96 872 1.76 332 14:27 21.04.2021
38 Rain 10 1015 96 575 0.21 353 13:51 21.04.2021
39 Clouds 10 1015 98 926 1.54 271 13:23 21.04.2021
40 Rain 10 1015 98 926 1.54 271 12:52 21.04.2021
41 Clouds 11 1014 93 3011 2.71 240 12:28 21.04.2021
42 Clouds 11 1014 93 3011 2.71 240 11:47 21.04.2021
43 Clouds 11 1015 93 1368 0.46 312 11:25 21.04.2021
44 Clouds 11 1015 93 1368 0.46 312 10:42 21.04.2021
45 Clouds 11 1016 93 1500 1.55 235 09:59 21.04.2021
46 Clouds 11 1016 93 1500 1.55 235 09:35 21.04.2021
47 Clouds 11 1017 96 1734 2.17 220 08:54 21.04.2021
48 Clouds 10 1017 97 734 1.4 191 08:27 21.04.2021
49 Clouds 10 1017 97 734 1.4 191 07:59 21.04.2021
50 Rain 9 1016 99 241 2.63 191 07:29 21.04.2021
51 Rain 9 1016 98 167 1.22 214 06:25 21.04.2021
52 Rain 9 1016 98 587 0.83 261 04:41 21.04.2021
53 Rain 9 1015 96 2144 0.73 110 00:51 21.04.2021
54 Rain 9 1015 96 2039 0.7 104 23:48 20.04.2021
55 Rain 9 1016 97 1615 0.96 105 22:59 20.04.2021
56 Rain 9 1016 97 1615 0.96 105 22:38 20.04.2021
57 Rain 8 1016 96 425 0.74 31 22:18 20.04.2021
58 Clouds 8 1016 96 425 0.74 31 21:45 20.04.2021
59 Rain 9 1017 95 1087 1.19 19 21:24 20.04.2021
60 Rain 9 1017 95 1087 1.19 19 20:42 20.04.2021
61 Clouds 8 1017 96 266 1.56 22 20:23 20.04.2021
62 Rain 8 1018 94 4293 1.32 11 19:52 20.04.2021
63 Rain 8 1017 96 266 1.56 22 19:34 20.04.2021
64 Clouds 8 1019 95 455 1.16 35 18:55 20.04.2021
65 Clouds 8 1019 95 455 1.16 35 18:35 20.04.2021
66 Clouds 8 1019 92 1096 2.07 11 17:45 20.04.2021
67 Clouds 8 1020 91 1892 2.39 1 17:22 20.04.2021
68 Clouds 8 1020 91 1892 2.39 1 16:44 20.04.2021
69 Clouds 9 1019 80 6114 2.24 12 15:51 20.04.2021
70 Clouds 10 1018 78 7451 1.81 33 15:27 20.04.2021
71 Clouds 10 1018 78 7451 1.81 33 14:57 20.04.2021
72 Clouds 12 1017 69 6979 1.21 14 14:28 20.04.2021
73 Clouds 11 1017 75 3825 0.84 65 13:37 20.04.2021
74 Clouds 13 1016 66 10000 0.08 102 13:18 20.04.2021
75 Clouds 13 1016 66 10000 0.08 102 12:40 20.04.2021
76 Clouds 14 1016 60 10000 0.58 182 12:19 20.04.2021
77 Clouds 14 1016 60 10000 0.58 182 11:40 20.04.2021
78 Clouds 14 1017 61 10000 0.88 188 11:20 20.04.2021
79 Clouds 14 1017 61 10000 0.88 188 10:42 20.04.2021
80 Clouds 13 1018 66 9881 1.87 192 10:22 20.04.2021
81 Clouds 14 1017 67 10000 2.68 197 09:22 20.04.2021
82 Clouds 14 1017 67 10000 2.68 197 08:54 20.04.2021
83 Clouds 14 1017 66 10000 1.82 209 08:19 20.04.2021
84 Clouds 15 1016 63 10000 1.74 216 07:39 20.04.2021
85 Clouds 15 1017 64 10000 0.34 333 06:36 20.04.2021
86 Clouds 14 1018 55 10000 1.79 23 05:37 20.04.2021
87 Clouds 11 1019 55 10000 3.43 30 04:41 20.04.2021
88 Clouds 4 1024 53 10000 6.39 29 00:53 20.04.2021
89 Clouds 4 1025 54 10000 6.51 29 00:27 20.04.2021
90 Clouds 4 1025 54 10000 6.51 29 23:34 19.04.2021
91 Clear 4 1025 57 10000 6.55 27 22:56 19.04.2021
92 Clear 4 1025 59 10000 6.28 28 22:29 19.04.2021
93 Clear 4 1025 59 10000 6.28 28 21:47 19.04.2021
94 Clear 4 1025 61 10000 6.14 26 21:25 19.04.2021
95 Clear 4 1025 61 10000 6.14 26 20:42 19.04.2021
96 Clouds 4 1026 62 10000 6.06 26 20:22 19.04.2021
97 Clouds 4 1026 62 10000 6.06 26 19:54 19.04.2021
98 Clouds 5 1025 62 10000 5.99 26 19:36 19.04.2021
99 Clouds 5 1025 63 10000 5.83 27 19:18 19.04.2021
100 Clouds 5 1025 63 10000 5.83 27 18:44 19.04.2021
101 Clouds 6 1024 64 10000 5.51 27 18:21 19.04.2021
102 Clouds 6 1024 64 10000 5.51 27 17:46 19.04.2021
103 Clouds 6 1023 65 10000 5.11 28 17:26 19.04.2021
104 Clouds 6 1023 65 10000 5.11 28 16:45 19.04.2021
105 Clouds 7 1022 65 10000 4.68 31 16:26 19.04.2021
106 Clouds 7 1022 65 10000 4.68 31 15:44 19.04.2021
107 Clouds 9 1020 65 10000 2.68 39 15:24 19.04.2021
108 Clouds 9 1020 65 10000 2.68 39 14:52 19.04.2021
109 Clouds 9 1020 65 10000 2.68 39 14:32 19.04.2021
110 Clouds 13 1017 69 10000 0.1 87 13:53 19.04.2021
111 Clouds 14 1016 71 10000 0.26 195 13:28 19.04.2021
112 Clouds 14 1016 71 10000 0.26 195 12:48 19.04.2021
113 Clouds 14 1017 70 10000 0.14 120 12:28 19.04.2021
114 Clouds 14 1017 70 10000 0.14 120 11:59 19.04.2021
115 Clouds 14 1017 70 10000 0.14 120 11:59 19.04.2021
116 Clouds 14 1017 70 10000 0.14 120 11:39 19.04.2021
117 Clouds 15 1017 70 10000 0.74 158 11:19 19.04.2021
118 Clouds 15 1017 70 10000 0.74 158 11:19 19.04.2021
119 Clouds 15 1017 70 10000 0.74 158 11:19 19.04.2021
120 Clouds 15 1017 70 10000 0.74 158 10:41 19.04.2021
121 Clouds 15 1017 69 10000 1.18 165 10:18 19.04.2021
122 Clouds 15 1017 69 10000 1.18 165 09:42 19.04.2021
123 Clouds 15 1017 67 10000 1.46 176 09:23 19.04.2021
124 Clouds 15 1017 67 10000 1.46 176 08:34 19.04.2021
125 Clouds 14 1018 70 7968 0.67 230 07:50 19.04.2021
126 Clouds 13 1018 67 7874 0.76 312 07:21 19.04.2021
127 Clouds 13 1018 67 7874 0.76 312 06:47 19.04.2021
128 Clear 10 1020 60 10000 3.62 23 04:40 19.04.2021
129 Clear 2 1027 63 10000 6.35 27 01:49 19.04.2021
130 Clear 3 1026 65 10000 6.13 27 00:41 19.04.2021
131 Clear 4 1025 68 10000 5.47 23 23:21 18.04.2021
132 Clear 4 1025 68 10000 5.47 23 22:58 18.04.2021
133 Clear 4 1025 68 10000 5.47 23 22:33 18.04.2021
134 Clear 4 1026 70 10000 4.99 22 21:53 18.04.2021
135 Clear 4 1026 71 10000 4.85 25 21:28 18.04.2021
136 Clouds 4 1025 73 10000 4.8 27 20:44 18.04.2021
137 Clear 4 1026 73 10000 5.04 27 20:25 18.04.2021
138 Clear 4 1026 73 10000 5.04 27 19:57 18.04.2021
139 Clear 4 1026 73 10000 5.04 27 19:39 18.04.2021
140 Clear 5 1026 72 10000 4.96 28 19:18 18.04.2021
141 Clear 5 1026 72 10000 4.96 28 18:45 18.04.2021
142 Clouds 5 1026 74 10000 5 27 18:25 18.04.2021
143 Clouds 5 1026 74 10000 5 27 17:46 18.04.2021
144 Clouds 5 1026 76 10000 4.88 24 17:27 18.04.2021
145 Clouds 5 1026 76 10000 4.88 24 16:46 18.04.2021
146 Clouds 5 1026 76 10000 4.88 24 16:46 18.04.2021
147 Clouds 6 1025 79 10000 4.4 29 16:27 18.04.2021
148 Clouds 6 1025 79 10000 4.4 29 15:44 18.04.2021
149 Clouds 7 1023 84 10000 2.26 36 15:25 18.04.2021
150 Clouds 7 1023 84 10000 2.26 36 14:52 18.04.2021
151 Clouds 10 1021 88 10000 1.05 43 14:23 18.04.2021
152 Clouds 10 1021 88 10000 1.05 43 13:56 18.04.2021
153 Rain 10 1021 88 10000 1.05 43 13:34 18.04.2021
154 Rain 10 1021 91 2953 0.85 58 12:51 18.04.2021
155 Rain 11 1020 93 943 1.12 190 12:28 18.04.2021
156 Rain 11 1020 93 943 1.12 190 11:43 18.04.2021
157 Rain 12 1019 87 2128 1.08 272 11:21 18.04.2021
158 Clouds 12 1019 87 2128 1.08 272 10:48 18.04.2021
159 Clouds 13 1020 86 3871 0.86 219 10:23 18.04.2021
160 Clouds 13 1020 86 3871 0.86 219 09:53 18.04.2021
161 Clouds 13 1020 86 3871 0.86 219 09:34 18.04.2021
162 Clouds 13 1021 84 7428 0.69 193 08:57 18.04.2021
163 Clouds 12 1022 88 5408 0.92 204 08:35 18.04.2021
164 Clouds 12 1022 87 4177 1.1 197 07:59 18.04.2021
165 Clouds 12 1022 87 4177 1.1 197 07:38 18.04.2021
166 Clouds 12 1022 82 6676 0.2 29 05:42 18.04.2021
167 Clouds 11 1023 82 9965 0.92 6 05:24 18.04.2021
168 Clouds 8 1023 92 7717 1.79 1 02:56 18.04.2021
169 Clouds 8 1022 94 5151 0.77 5 02:22 18.04.2021
170 Clouds 8 1021 95 3078 0.4 337 00:38 18.04.2021
171 Rain 8 1020 96 1959 0.56 189 23:38 17.04.2021
172 Rain 8 1020 96 1961 1.01 131 22:51 17.04.2021
173 Clouds 8 1020 96 1961 1.01 131 22:31 17.04.2021
174 Clouds 8 1021 97 1385 1.47 102 21:50 17.04.2021
175 Clouds 8 1021 97 1385 1.47 102 21:30 17.04.2021
176 Clouds 8 1022 95 1256 1.76 75 20:48 17.04.2021
177 Clouds 9 1022 95 1154 2.04 113 20:27 17.04.2021
178 Rain 9 1022 95 1154 2.04 113 19:45 17.04.2021
179 Rain 9 1022 94 1756 2.27 110 19:21 17.04.2021
180 Rain 9 1022 94 1756 2.27 110 18:56 17.04.2021
181 Rain 9 1022 94 1756 2.27 110 18:36 17.04.2021
182 Clouds 9 1022 93 5434 1.86 85 17:57 17.04.2021
183 Rain 9 1022 93 5434 1.86 85 17:39 17.04.2021
184 Rain 8 1022 95 4317 1.78 58 16:53 17.04.2021
185 Rain 9 1021 92 10000 1.25 44 16:28 17.04.2021
186 Rain 9 1021 92 10000 1.25 44 16:28 17.04.2021
187 Rain 9 1021 92 10000 1.25 44 15:42 17.04.2021
188 Rain 9 1021 96 3536 1.19 113 14:50 17.04.2021
189 Rain 9 1021 97 2250 0.8 119 14:30 17.04.2021
190 Rain 10 1020 96 1751 0.94 104 13:47 17.04.2021
191 Rain 10 1020 96 860 0.95 49 13:20 17.04.2021
192 Rain 10 1020 96 860 0.95 49 12:39 17.04.2021
193 Rain 9 1020 97 488 1.36 49 12:18 17.04.2021
194 Rain 9 1020 97 488 1.36 49 11:39 17.04.2021
195 Rain 10 1019 96 341 1.87 206 11:21 17.04.2021
196 Rain 10 1019 96 341 1.87 206 10:41 17.04.2021
197 Rain 13 1018 81 10000 0.67 246 10:23 17.04.2021
198 Rain 13 1019 82 2103 2.43 219 09:22 17.04.2021
199 Clouds 15 1019 78 4373 3.03 224 08:38 17.04.2021
200 Clouds 14 1019 77 6635 2.72 217 08:19 17.04.2021
201 Clouds 14 1020 79 10000 1.44 235 06:43 17.04.2021
202 Clouds 10 1021 95 1800 0.95 153 03:51 17.04.2021
203 Clouds 9 1020 96 1682 1.66 140 02:58 17.04.2021
204 Rain 9 1018 88 4949 1.54 17 00:46 17.04.2021
205 Rain 10 1018 84 10000 2.28 39 00:24 17.04.2021
206 Clouds 10 1018 84 10000 2.28 39 23:46 16.04.2021
207 Clouds 10 1019 84 10000 2.32 42 23:23 16.04.2021
208 Clouds 10 1019 84 10000 2.32 42 22:43 16.04.2021
209 Rain 10 1019 81 10000 2.56 39 22:20 16.04.2021
210 Clouds 10 1019 81 10000 2.56 39 21:50 16.04.2021
211 Clouds 10 1019 81 10000 2.56 39 21:50 16.04.2021
212 Rain 11 1020 79 10000 2.71 29 21:29 16.04.2021
213 Clouds 11 1020 79 10000 2.71 29 20:48 16.04.2021
214 Rain 10 1020 81 10000 2.63 28 20:24 16.04.2021
215 Clouds 11 1020 82 10000 2.87 21 19:50 16.04.2021
216 Clouds 10 1021 87 9807 3.48 23 19:28 16.04.2021
217 Clouds 10 1022 82 10000 1.78 19 18:28 16.04.2021
218 Clouds 10 1022 82 10000 1.78 19 17:55 16.04.2021
219 Clouds 10 1022 82 10000 1.78 19 17:36 16.04.2021
220 Clouds 9 1022 83 10000 3.1 27 17:18 16.04.2021
221 Rain 9 1022 83 10000 3.1 27 16:41 16.04.2021
222 Rain 11 1020 91 10000 2.93 46 16:22 16.04.2021
223 Clouds 11 1020 91 10000 2.93 46 15:43 16.04.2021
224 Clouds 11 1021 93 2163 1.45 111 15:18 16.04.2021
225 Clouds 11 1021 93 2163 1.45 111 14:41 16.04.2021
226 Clouds 13 1019 85 6544 1.38 188 13:59 16.04.2021
227 Clouds 13 1019 85 6544 1.38 188 13:41 16.04.2021
228 Clouds 14 1018 78 5066 0.74 188 13:19 16.04.2021
229 Clouds 14 1018 78 5066 0.74 188 12:46 16.04.2021
230 Clouds 16 1017 62 9340 1.27 241 12:25 16.04.2021
231 Clouds 16 1017 62 9340 1.27 241 11:49 16.04.2021
232 Clouds 17 1017 60 8813 1.72 256 11:25 16.04.2021
233 Clouds 17 1017 60 8813 1.72 256 10:46 16.04.2021
234 Clouds 17 1018 57 10000 1.32 263 10:26 16.04.2021
235 Clouds 17 1018 57 10000 1.32 263 09:52 16.04.2021
236 Clouds 17 1019 59 10000 0.63 252 09:24 16.04.2021
237 Clouds 17 1019 59 10000 0.63 252 08:46 16.04.2021
238 Clouds 17 1019 46 10000 0.99 276 08:28 16.04.2021
239 Clouds 17 1019 46 10000 0.99 276 07:52 16.04.2021
240 Clouds 17 1019 46 10000 0.99 276 07:33 16.04.2021
241 Clouds 16 1020 49 10000 0.73 315 06:56 16.04.2021
242 Clouds 15 1020 52 10000 1.25 20 05:33 16.04.2021
243 Clouds 10 1022 63 10000 4.36 27 04:19 16.04.2021
244 Clouds 7 1023 61 10000 5.35 25 00:55 16.04.2021
245 Clouds 7 1023 61 10000 5.35 25 00:36 16.04.2021
246 Clouds 7 1023 61 10000 5.38 25 00:18 16.04.2021
247 Clouds 7 1023 61 10000 5.38 25 23:36 15.04.2021
248 Clouds 7 1023 61 10000 5.22 28 22:53 15.04.2021
249 Clouds 7 1023 61 10000 5.22 28 22:33 15.04.2021
250 Clouds 8 1023 62 10000 5.15 26 21:59 15.04.2021
251 Clouds 8 1023 62 10000 5.15 26 21:41 15.04.2021
252 Clouds 8 1023 64 10000 4.99 28 21:20 15.04.2021
253 Clouds 8 1023 64 10000 4.99 28 20:42 15.04.2021
254 Clouds 10 1023 78 10000 3.68 32 20:21 15.04.2021
255 Clouds 10 1023 78 10000 3.68 32 19:44 15.04.2021
256 Clouds 11 1023 76 9454 2.54 32 19:24 15.04.2021
257 Clouds 11 1023 76 9454 2.54 32 18:42 15.04.2021
258 Clouds 11 1023 74 10000 3.28 32 18:21 15.04.2021
259 Clouds 11 1023 74 10000 3.28 32 17:55 15.04.2021
260 Clouds 11 1023 74 10000 3.28 32 17:36 15.04.2021
261 Clouds 10 1023 80 10000 3.75 22 16:57 15.04.2021
262 Clouds 10 1023 80 10000 3.75 22 16:57 15.04.2021
263 Clouds 10 1023 80 10000 3.75 22 16:39 15.04.2021
264 Clouds 11 1022 88 9593 3.53 28 16:20 15.04.2021
265 Clouds 11 1022 88 9593 3.53 28 15:44 15.04.2021
266 Clouds 11 1021 88 2547 0.52 23 15:25 15.04.2021
267 Clouds 11 1021 88 2547 0.52 23 15:25 15.04.2021
268 Clouds 11 1021 88 2547 0.52 23 14:40 15.04.2021
269 Clouds 14 1019 76 10000 1.06 250 14:22 15.04.2021
270 Clouds 14 1019 74 10000 1.13 283 13:42 15.04.2021
271 Clouds 15 1019 69 10000 2.51 328 13:18 15.04.2021
272 Rain 15 1019 69 10000 2.51 328 12:40 15.04.2021
273 Clouds 15 1019 66 10000 1.91 284 12:21 15.04.2021
274 Clouds 15 1019 66 10000 1.91 284 11:45 15.04.2021
275 Clouds 17 1018 54 10000 1.47 256 11:23 15.04.2021
276 Clouds 17 1018 54 10000 1.47 256 10:50 15.04.2021
277 Clouds 18 1019 53 10000 0.44 141 10:28 15.04.2021
278 Clouds 18 1019 53 10000 0.44 141 09:49 15.04.2021
279 Clouds 17 1021 54 10000 0.15 126 09:25 15.04.2021
280 Clouds 17 1021 54 10000 0.15 126 08:49 15.04.2021
281 Clouds 17 1021 55 10000 0.91 312 08:21 15.04.2021
282 Clouds 16 1022 56 10000 1.03 341 07:25 15.04.2021
283 Clouds 16 1022 56 10000 1.03 341 06:49 15.04.2021
284 Clouds 16 1022 56 10000 1.03 341 06:30 15.04.2021
285 Clouds 13 1023 55 10000 3.23 27 04:52 15.04.2021
286 Clouds 7 1026 60 10000 5.89 28 02:51 15.04.2021
287 Clouds 7 1026 64 10000 5.42 27 23:44 14.04.2021
288 Clear 7 1026 64 10000 5.43 29 23:25 14.04.2021
289 Clear 7 1026 64 10000 5.43 29 22:47 14.04.2021
290 Clear 7 1027 64 10000 5.53 26 22:27 14.04.2021
291 Clear 7 1027 64 10000 5.53 26 21:53 14.04.2021
292 Clear 7 1027 64 10000 5.53 26 21:32 14.04.2021
293 Clear 7 1026 65 10000 5.05 28 20:58 14.04.2021
294 Clear 7 1026 65 10000 5.08 27 20:35 14.04.2021
295 Clouds 8 1026 66 10000 5.23 28 19:55 14.04.2021
296 Clouds 8 1026 66 10000 5.23 28 19:55 14.04.2021
297 Clouds 8 1026 66 10000 5.23 28 19:37 14.04.2021
298 Clouds 8 1026 68 10000 5.12 28 19:18 14.04.2021
299 Clouds 8 1026 68 10000 5.12 28 18:47 14.04.2021
300 Clouds 8 1026 70 10000 4.76 26 18:18 14.04.2021
301 Clouds 8 1026 70 10000 4.76 26 17:51 14.04.2021
302 Clouds 9 1025 73 10000 4.59 23 17:23 14.04.2021
303 Clouds 9 1025 73 10000 4.59 23 16:42 14.04.2021
304 Clouds 11 1023 80 10000 4.25 19 16:21 14.04.2021
305 Clouds 11 1023 80 10000 4.25 19 15:39 14.04.2021
306 Clouds 11 1022 83 7837 3.55 11 15:18 14.04.2021
307 Rain 11 1022 83 7837 3.55 11 14:41 14.04.2021
308 Rain 14 1019 71 9666 1.17 329 14:21 14.04.2021
309 Clouds 14 1019 71 9666 1.17 329 13:47 14.04.2021
310 Clouds 15 1018 66 10000 1.21 45 12:47 14.04.2021
311 Clouds 14 1021 73 10000 2.47 48 12:24 14.04.2021
312 Clouds 14 1021 73 10000 2.47 48 11:42 14.04.2021
313 Clouds 14 1022 78 7447 0.32 259 11:23 14.04.2021
314 Clouds 14 1022 78 7447 0.32 259 10:35 14.04.2021
315 Clouds 17 1020 60 10000 1.66 248 09:56 14.04.2021
316 Clouds 17 1020 60 10000 1.66 248 09:38 14.04.2021
317 Clouds 17 1020 57 10000 0.25 179 09:18 14.04.2021
318 Clouds 17 1020 57 10000 0.25 179 08:33 14.04.2021
319 Clouds 18 1021 45 10000 0.12 193 07:51 14.04.2021
320 Clouds 17 1021 45 10000 0.49 347 06:39 14.04.2021
321 Clouds 16 1022 47 10000 1.22 14 05:52 14.04.2021
322 Clouds 7 1026 59 10000 5.57 28 02:57 14.04.2021
323 Clouds 7 1025 60 10000 5.47 27 01:28 14.04.2021
324 Clouds 7 1025 60 10000 5.47 27 00:34 14.04.2021
325 Clouds 7 1025 60 10000 5.48 27 23:39 13.04.2021
326 Clouds 7 1026 61 10000 5.33 28 22:55 13.04.2021
327 Clouds 7 1026 61 10000 5.33 28 22:37 13.04.2021
328 Clouds 7 1026 61 10000 5.41 28 22:18 13.04.2021
329 Clouds 7 1026 61 10000 5.41 28 21:40 13.04.2021
330 Clouds 8 1027 62 10000 5.35 26 21:20 13.04.2021
331 Clouds 8 1027 61 10000 5.4 26 20:39 13.04.2021
332 Clouds 8 1027 61 10000 5.31 27 20:20 13.04.2021
333 Clouds 8 1027 61 10000 5.2 28 19:27 13.04.2021
334 Clouds 8 1027 61 10000 5.2 28 19:27 13.04.2021
335 Clouds 8 1027 61 10000 5.2 28 18:59 13.04.2021
336 Clouds 8 1027 61 10000 5.2 28 18:35 13.04.2021
337 Clouds 8 1027 62 10000 5.05 29 17:45 13.04.2021
338 Clouds 9 1026 61 10000 4.91 31 17:23 13.04.2021
339 Clouds 9 1026 61 10000 4.91 31 16:57 13.04.2021
340 Clouds 9 1026 61 10000 4.91 31 16:39 13.04.2021
341 Clouds 10 1024 61 10000 4.18 30 16:19 13.04.2021
342 Clouds 10 1024 61 10000 4.18 30 15:40 13.04.2021
343 Clouds 12 1022 61 10000 2.11 37 14:59 13.04.2021
344 Clouds 12 1022 61 10000 2.11 37 14:41 13.04.2021
345 Clouds 16 1018 57 10000 0.72 165 14:18 13.04.2021
346 Clouds 16 1018 57 10000 0.72 165 13:41 13.04.2021
347 Clouds 18 1018 48 10000 1.17 164 13:22 13.04.2021
348 Clouds 18 1018 48 10000 1.17 164 12:53 13.04.2021
349 Clouds 18 1018 49 10000 1.08 156 12:23 13.04.2021
350 Clouds 18 1018 49 10000 1.08 156 11:48 13.04.2021
351 Clouds 18 1019 50 10000 0.86 150 11:28 13.04.2021
352 Clouds 18 1019 50 10000 0.86 150 10:44 13.04.2021
353 Clouds 18 1020 48 9073 0.68 166 10:20 13.04.2021
354 Clouds 18 1020 48 9073 0.68 166 09:52 13.04.2021
355 Clouds 18 1021 52 8926 0.31 251 09:27 13.04.2021
356 Clouds 18 1021 51 8934 0.67 269 08:49 13.04.2021
357 Clouds 17 1021 58 10000 1 304 08:24 13.04.2021
358 Clouds 17 1021 58 10000 1 304 07:52 13.04.2021
359 Clouds 17 1021 58 10000 1 304 07:32 13.04.2021
360 Clear 14 1023 61 10000 2.53 20 06:28 13.04.2021
361 Clear 9 1027 62 10000 5.16 27 03:55 13.04.2021
362 Clear 5 1029 62 10000 6.13 26 01:35 13.04.2021
363 Clear 5 1028 63 10000 5.82 27 23:58 12.04.2021
364 Clear 5 1028 63 10000 5.82 27 23:33 12.04.2021
365 Clear 5 1029 65 10000 5.86 27 22:59 12.04.2021
366 Clear 5 1029 65 10000 5.86 27 22:37 12.04.2021
367 Clear 5 1029 68 10000 5.64 25 21:56 12.04.2021
368 Clear 5 1029 68 10000 5.64 25 21:36 12.04.2021
369 Clear 6 1029 71 10000 5.33 24 21:18 12.04.2021
370 Clear 6 1029 72 10000 5.25 24 20:37 12.04.2021
371 Clouds 7 1029 74 10000 4.98 29 20:19 12.04.2021
372 Clouds 7 1029 74 10000 4.98 29 19:42 12.04.2021
373 Clouds 7 1029 77 10000 4.59 32 19:21 12.04.2021
374 Clouds 7 1029 77 10000 4.59 32 19:21 12.04.2021
375 Clouds 7 1029 77 10000 4.59 32 18:53 12.04.2021
376 Clouds 7 1029 77 10000 4.59 32 18:53 12.04.2021
377 Clouds 7 1029 77 10000 4.59 32 18:35 12.04.2021
378 Clouds 8 1028 81 10000 4.16 33 17:59 12.04.2021
379 Clouds 8 1028 81 10000 4.16 33 17:41 12.04.2021
380 Clouds 9 1027 86 10000 3.25 34 17:19 12.04.2021
381 Clouds 9 1027 86 10000 3.25 34 16:42 12.04.2021
382 Clouds 9 1027 91 5484 2.83 40 16:24 12.04.2021
383 Clouds 9 1027 91 5484 2.83 40 15:45 12.04.2021
384 Rain 9 1026 93 1876 1.32 39 15:21 12.04.2021
385 Rain 9 1026 93 1876 1.32 39 14:49 12.04.2021
386 Rain 12 1023 86 10000 1.12 93 14:29 12.04.2021
387 Rain 12 1023 87 4472 0.48 74 13:43 12.04.2021
388 Clouds 11 1023 89 4185 1.88 58 13:21 12.04.2021
389 Clouds 11 1023 89 4185 1.88 58 12:44 12.04.2021
390 Clouds 12 1023 87 3268 0.91 20 12:23 12.04.2021
391 Clouds 12 1023 87 3268 0.91 20 11:51 12.04.2021
392 Clouds 12 1023 85 2376 2.24 302 10:54 12.04.2021
393 Clouds 13 1023 79 4511 1.89 270 10:28 12.04.2021
394 Clouds 13 1023 79 4511 1.89 270 09:59 12.04.2021
395 Clouds 13 1023 79 4511 1.89 270 09:40 12.04.2021
396 Clouds 14 1024 74 5052 1.65 248 08:59 12.04.2021
397 Clouds 14 1024 74 5052 1.65 248 08:30 12.04.2021
398 Clouds 16 1023 51 10000 1.63 238 07:31 12.04.2021
399 Clouds 15 1024 49 10000 0.95 275 06:57 12.04.2021
400 Clouds 14 1024 50 10000 1.14 15 05:51 12.04.2021
401 Clouds 9 1027 61 10000 4.33 30 03:58 12.04.2021
402 Clouds 7 1027 65 10000 5.01 29 00:51 12.04.2021
403 Clouds 7 1027 66 10000 4.87 26 00:24 12.04.2021
404 Clouds 7 1027 66 10000 4.87 26 00:24 12.04.2021
405 Clouds 7 1027 66 10000 4.87 26 23:46 11.04.2021
406 Clouds 8 1027 65 10000 4.91 29 23:23 11.04.2021
407 Clouds 8 1027 65 10000 4.91 29 22:45 11.04.2021
408 Clouds 8 1028 64 10000 4.67 26 22:22 11.04.2021
409 Clouds 8 1028 64 10000 4.67 26 21:46 11.04.2021
410 Clouds 7 1029 65 10000 4.78 29 21:27 11.04.2021
411 Clouds 7 1029 65 10000 4.78 29 20:52 11.04.2021
412 Clouds 9 1027 71 10000 3.88 27 20:28 11.04.2021
413 Clouds 9 1027 71 10000 3.88 27 19:54 11.04.2021
414 Clouds 9 1027 71 10000 3.88 27 19:36 11.04.2021
415 Clouds 9 1027 70 10000 4.12 30 19:18 11.04.2021
416 Clouds 9 1027 70 10000 4.12 30 18:42 11.04.2021
417 Clouds 8 1028 70 10000 4.3 33 18:24 11.04.2021
418 Clouds 8 1028 70 10000 4.3 33 17:45 11.04.2021
419 Clouds 8 1027 71 10000 4.14 31 17:26 11.04.2021
420 Clouds 8 1027 71 10000 4.14 31 16:50 11.04.2021
421 Clouds 10 1026 73 10000 3.28 29 16:23 11.04.2021
422 Clouds 10 1026 73 10000 3.28 29 15:54 11.04.2021
423 Clouds 11 1024 73 10000 2.48 33 15:27 11.04.2021
424 Clouds 11 1024 73 10000 2.48 33 15:27 11.04.2021
425 Clouds 11 1024 73 10000 2.48 33 15:27 11.04.2021
426 Clouds 11 1024 73 10000 2.48 33 14:55 11.04.2021
427 Clouds 11 1024 73 10000 2.48 33 14:31 11.04.2021
428 Clouds 12 1023 71 6439 2.84 6 13:52 11.04.2021
429 Clouds 12 1023 71 6439 2.84 6 13:31 11.04.2021
430 Clouds 14 1021 62 10000 2.14 316 12:54 11.04.2021
431 Clouds 16 1020 42 10000 1.65 232 12:21 11.04.2021
432 Clouds 16 1020 42 10000 1.65 232 11:52 11.04.2021
433 Clouds 16 1020 40 10000 1.72 177 11:24 11.04.2021
434 Clouds 16 1020 40 10000 1.72 177 10:49 11.04.2021
435 Clouds 16 1020 40 10000 1.72 177 10:31 11.04.2021
436 Clear 16 1021 42 10000 1.12 152 09:57 11.04.2021
437 Clear 16 1021 42 10000 1.12 152 09:33 11.04.2021
438 Clear 16 1022 43 10000 0.41 193 08:54 11.04.2021
439 Clouds 16 1022 32 10000 0.87 236 08:25 11.04.2021
440 Clouds 16 1022 30 10000 0.73 320 07:22 11.04.2021
441 Clouds 16 1022 30 10000 0.73 320 06:51 11.04.2021
442 Clouds 14 1023 33 10000 2.08 8 05:42 11.04.2021
443 Clouds 12 1024 38 10000 3.63 19 05:20 11.04.2021
444 Clouds 12 1024 38 10000 3.63 19 04:34 11.04.2021
445 Clear 4 1029 45 10000 6.38 27 01:56 11.04.2021
446 Clear 4 1029 46 10000 6.29 27 00:39 11.04.2021
447 Clear 4 1029 47 10000 6.22 27 23:48 10.04.2021
448 Clear 4 1029 47 10000 6.08 27 23:26 10.04.2021
449 Clear 4 1029 47 10000 6.08 27 22:43 10.04.2021
450 Clear 5 1029 48 10000 5.92 27 22:21 10.04.2021
451 Clear 5 1029 48 10000 5.92 27 21:41 10.04.2021
452 Clear 5 1029 48 10000 5.76 27 21:21 10.04.2021
453 Clear 5 1029 48 10000 5.76 27 20:46 10.04.2021
454 Clouds 5 1029 51 10000 5.68 29 20:24 10.04.2021
455 Clouds 5 1029 51 10000 5.68 29 19:45 10.04.2021
456 Clouds 6 1029 51 10000 5.56 29 19:25 10.04.2021
457 Clouds 6 1029 51 10000 5.56 29 18:52 10.04.2021
458 Clouds 6 1029 51 10000 5.56 29 18:31 10.04.2021
459 Clouds 6 1029 51 10000 5.56 29 18:30 10.04.2021
460 Clouds 6 1029 52 10000 5.36 30 17:40 10.04.2021
461 Clouds 6 1028 53 10000 5.01 32 17:20 10.04.2021
462 Clouds 6 1028 53 10000 5.01 32 16:30 10.04.2021
463 Clouds 7 1026 55 10000 4.21 31 15:55 10.04.2021
464 Clouds 10 1023 55 10000 1.78 49 15:29 10.04.2021
465 Clouds 10 1023 55 10000 1.78 49 14:45 10.04.2021
466 Clouds 14 1020 52 10000 0.28 342 14:21 10.04.2021
467 Clouds 14 1020 52 10000 0.28 342 13:43 10.04.2021
468 Clouds 16 1019 40 10000 0.58 213 12:55 10.04.2021
469 Clouds 16 1019 40 10000 0.58 213 12:34 10.04.2021
470 Clouds 16 1019 36 10000 1.14 191 11:52 10.04.2021
471 Clouds 16 1020 34 10000 1.26 182 11:26 10.04.2021
472 Clouds 16 1020 34 10000 1.26 182 10:53 10.04.2021
473 Clouds 16 1020 34 10000 1.26 182 10:31 10.04.2021
474 Clouds 16 1021 39 10000 1.07 171 09:52 10.04.2021
475 Clouds 15 1021 35 10000 0.79 196 09:28 10.04.2021
476 Clouds 15 1021 35 10000 0.79 196 08:49 10.04.2021
477 Clear 15 1021 29 10000 0.83 223 08:29 10.04.2021
478 Clear 15 1021 29 10000 0.83 223 07:50 10.04.2021
479 Clear 15 1022 32 10000 0.61 343 07:21 10.04.2021
480 Clear 13 1023 36 10000 1.93 16 06:26 10.04.2021
481 Clear 11 1024 42 10000 3.7 25 04:40 10.04.2021
482 Clear 3 1029 47 10000 6.53 28 02:53 10.04.2021
483 Clear 3 1029 47 10000 6.53 28 02:34 10.04.2021
484 Clouds 3 1028 52 10000 6.56 26 00:50 10.04.2021
485 Clouds 3 1029 54 10000 6.5 26 00:29 10.04.2021
486 Clouds 3 1029 54 10000 6.5 26 23:44 09.04.2021
487 Clear 3 1029 56 10000 6.3 26 23:18 09.04.2021
488 Clear 3 1029 56 10000 6.3 26 22:42 09.04.2021
489 Clear 3 1029 57 10000 6.06 26 22:22 09.04.2021
490 Clear 3 1029 57 10000 6.06 26 21:39 09.04.2021
491 Clear 4 1029 58 10000 5.87 26 21:19 09.04.2021
492 Clear 4 1029 58 10000 5.87 26 20:45 09.04.2021
493 Clouds 4 1028 59 10000 5.59 27 20:23 09.04.2021
494 Clouds 4 1028 59 10000 5.59 27 19:57 09.04.2021
495 Clouds 4 1028 59 10000 5.59 27 19:38 09.04.2021
496 Clouds 5 1028 59 10000 5.39 28 19:20 09.04.2021
497 Clouds 5 1028 59 10000 5.39 28 18:41 09.04.2021
498 Clouds 5 1027 61 10000 5.24 29 18:19 09.04.2021
499 Clouds 5 1027 61 10000 5.24 29 17:41 09.04.2021
500 Clouds 6 1026 61 10000 4.87 28 16:57 09.04.2021
501 Clouds 6 1026 61 10000 4.87 28 16:38 09.04.2021
502 Clouds 6 1024 61 10000 3.89 28 15:57 09.04.2021
503 Clouds 6 1024 61 10000 3.89 28 15:38 09.04.2021
504 Clouds 9 1021 60 10000 1.38 19 15:19 09.04.2021
505 Clouds 9 1021 60 10000 1.38 19 14:41 09.04.2021
506 Clouds 13 1018 57 10000 1.58 224 13:57 09.04.2021
507 Clouds 13 1018 57 10000 1.58 224 13:38 09.04.2021
508 Clouds 14 1017 49 10000 2.58 217 13:19 09.04.2021
509 Clouds 14 1017 49 10000 2.58 217 12:39 09.04.2021
510 Clouds 15 1017 43 10000 2.93 212 11:48 09.04.2021
511 Clouds 15 1017 41 10000 2.21 203 11:23 09.04.2021
512 Clouds 15 1017 41 10000 2.21 203 10:49 09.04.2021
513 Clouds 15 1017 41 10000 2.21 203 10:30 09.04.2021
514 Clouds 14 1018 41 10000 1.84 194 09:51 09.04.2021
515 Clouds 14 1019 44 10000 2 190 09:25 09.04.2021
516 Clouds 14 1019 44 10000 2 190 08:53 09.04.2021
517 Clear 13 1020 47 10000 1.53 188 08:22 09.04.2021
518 Clear 13 1021 48 10000 0.37 275 07:21 09.04.2021
519 Clear 11 1021 51 10000 1.11 347 06:21 09.04.2021
520 Clear 6 1024 65 10000 4.33 22 03:54 09.04.2021
521 Clear 6 1024 65 10000 4.33 22 03:54 09.04.2021
522 Clear 3 1026 67 10000 5.48 29 02:18 09.04.2021
523 Clear 3 1026 68 10000 5.4 27 00:38 09.04.2021
524 Clear 3 1025 67 10000 5.2 27 00:19 09.04.2021
525 Clear 3 1025 67 10000 5.2 27 23:30 08.04.2021
526 Clear 3 1025 68 10000 4.94 29 22:46 08.04.2021
527 Clear 4 1025 69 10000 4.82 33 22:26 08.04.2021
528 Clear 4 1025 69 10000 4.82 33 21:57 08.04.2021
529 Clear 4 1025 69 10000 4.82 33 21:38 08.04.2021
530 Clear 4 1026 71 10000 4.8 30 21:19 08.04.2021
531 Clear 4 1026 71 10000 4.8 30 20:53 08.04.2021
532 Clear 4 1026 71 10000 4.8 30 20:32 08.04.2021
533 Clouds 5 1025 74 10000 4.06 31 19:55 08.04.2021
534 Clouds 5 1025 73 10000 4.04 33 19:24 08.04.2021
535 Clouds 5 1025 73 10000 4.04 33 18:52 08.04.2021
536 Clouds 5 1024 75 10000 4 34 18:24 08.04.2021
537 Clouds 5 1024 75 10000 4 34 17:52 08.04.2021
538 Clouds 6 1023 76 10000 3.88 35 17:26 08.04.2021
539 Clouds 6 1023 76 10000 3.88 35 16:57 08.04.2021
540 Clouds 6 1023 76 10000 3.88 35 16:36 08.04.2021
541 Clouds 6 1022 80 9425 3.44 34 15:55 08.04.2021
542 Clouds 6 1022 80 9425 3.44 34 15:36 08.04.2021
543 Clouds 8 1020 80 9770 0.86 93 15:18 08.04.2021
544 Clouds 8 1020 80 9770 0.86 93 14:39 08.04.2021
545 Clouds 13 1016 70 10000 2.27 217 14:19 08.04.2021
546 Clouds 13 1016 70 10000 2.27 217 13:43 08.04.2021
547 Clouds 14 1016 67 8333 3.19 225 13:23 08.04.2021
548 Clouds 14 1016 67 8333 3.19 225 12:49 08.04.2021
549 Clouds 14 1016 67 8333 3.19 225 12:30 08.04.2021
550 Clouds 15 1015 68 8116 3.6 223 11:47 08.04.2021
551 Clouds 15 1015 68 8693 3.79 219 11:21 08.04.2021
552 Clouds 15 1015 68 8693 3.79 219 10:43 08.04.2021
553 Clouds 15 1016 68 8831 3.36 204 10:24 08.04.2021
554 Clouds 15 1016 68 8831 3.36 204 09:43 08.04.2021
555 Clouds 14 1017 66 10000 2.36 197 08:53 08.04.2021
556 Clouds 14 1017 66 10000 2.36 197 08:35 08.04.2021
557 Clear 14 1018 68 10000 1.8 222 07:59 08.04.2021
558 Clear 14 1018 68 10000 1.8 222 07:40 08.04.2021
559 Clouds 11 1020 67 10000 1.99 32 04:51 08.04.2021
560 Clouds 4 1023 70 10000 5.14 26 01:25 08.04.2021
561 Clouds 4 1023 70 10000 5.14 26 00:30 08.04.2021
562 Clouds 4 1024 70 10000 5.13 26 23:47 07.04.2021
563 Clouds 4 1024 72 10000 4.95 27 23:24 07.04.2021
564 Clouds 4 1024 72 10000 4.95 27 22:55 07.04.2021
565 Clouds 4 1024 72 10000 4.95 27 22:35 07.04.2021
566 Clouds 4 1025 73 10000 4.92 28 21:58 07.04.2021
567 Clouds 4 1025 73 10000 4.92 28 21:34 07.04.2021
568 Clouds 5 1025 74 10000 4.95 28 20:51 07.04.2021
569 Clouds 5 1026 73 10000 4.9 30 20:28 07.04.2021
570 Clouds 5 1025 72 10000 5.09 28 19:50 07.04.2021
571 Clouds 5 1025 72 10000 5.09 28 19:31 07.04.2021
572 Clouds 5 1026 75 10000 4.91 28 18:57 07.04.2021
573 Clouds 5 1026 75 10000 4.91 28 18:39 07.04.2021
574 Clouds 6 1025 80 10000 4.37 29 18:18 07.04.2021
575 Clouds 6 1025 80 10000 4.37 29 17:43 07.04.2021
576 Clouds 7 1025 82 10000 3.94 28 17:24 07.04.2021
577 Clouds 7 1025 82 10000 3.94 28 16:45 07.04.2021
578 Clouds 7 1024 82 10000 3.46 32 16:21 07.04.2021
579 Clouds 7 1024 82 10000 3.46 32 15:53 07.04.2021
580 Clouds 8 1023 82 10000 1.43 41 15:25 07.04.2021
581 Clouds 8 1023 82 10000 1.43 41 14:42 07.04.2021
582 Clouds 11 1021 89 2870 1.74 169 14:19 07.04.2021
583 Clouds 11 1021 89 2870 1.74 169 13:38 07.04.2021
584 Clouds 11 1020 89 3059 2.72 197 13:20 07.04.2021
585 Clouds 11 1020 89 3059 2.72 197 12:43 07.04.2021
586 Clouds 11 1020 90 2700 1.64 205 12:18 07.04.2021
587 Clouds 11 1020 90 2700 1.64 205 11:43 07.04.2021
588 Clouds 11 1020 89 2203 1.75 168 11:22 07.04.2021
589 Clouds 11 1020 89 2203 1.75 168 10:50 07.04.2021
590 Clouds 11 1021 86 1983 1.75 187 09:50 07.04.2021
591 Clouds 12 1021 75 4934 2.19 222 09:28 07.04.2021
592 Clouds 12 1021 75 4934 2.19 222 08:53 07.04.2021
593 Clouds 13 1020 74 5126 2.99 207 08:31 07.04.2021
594 Clouds 13 1021 69 6298 3.14 200 07:54 07.04.2021
595 Clouds 12 1021 70 10000 3.18 191 07:29 07.04.2021
596 Clouds 12 1021 70 10000 3.18 191 06:43 07.04.2021
597 Clouds 12 1021 71 10000 2.99 187 05:42 07.04.2021
598 Clouds 9 1021 95 1462 1.59 166 03:18 07.04.2021
599 Clouds 9 1018 97 389 3.64 197 23:50 06.04.2021
600 Clouds 9 1018 92 3281 1.34 116 23:23 06.04.2021
601 Rain 9 1018 92 3281 1.34 116 22:57 06.04.2021
602 Rain 9 1020 93 2348 1.47 98 22:21 06.04.2021
603 Clouds 9 1020 93 2348 1.47 98 21:57 06.04.2021
604 Clouds 9 1020 93 2348 1.47 98 21:38 06.04.2021
605 Clouds 10 1021 93 3475 2.27 206 21:19 06.04.2021
606 Clouds 10 1021 93 3475 2.27 206 20:45 06.04.2021
607 Rain 10 1020 90 5173 2.07 98 20:21 06.04.2021
608 Clouds 10 1020 91 2070 1.05 118 19:47 06.04.2021
609 Rain 10 1021 92 2090 0.7 143 19:29 06.04.2021
610 Clouds 10 1021 92 2090 0.7 143 18:45 06.04.2021
611 Clouds 10 1021 92 1268 0.68 131 18:23 06.04.2021
612 Clouds 10 1021 92 1268 0.68 131 17:45 06.04.2021
613 Clouds 10 1021 92 2042 0.79 84 17:27 06.04.2021
614 Clouds 10 1021 92 2042 0.79 84 16:55 06.04.2021
615 Clouds 10 1021 92 2042 0.79 84 16:37 06.04.2021
616 Clouds 10 1021 94 1693 0.78 103 15:31 06.04.2021
617 Clouds 10 1021 95 1378 2.09 186 14:58 06.04.2021
618 Clouds 10 1021 95 1378 2.09 186 14:39 06.04.2021
619 Clouds 11 1020 95 1844 2.16 237 14:18 06.04.2021
620 Clouds 11 1020 95 1844 2.16 237 13:41 06.04.2021
621 Rain 11 1018 96 1820 2.38 181 13:23 06.04.2021
622 Clouds 11 1018 96 1820 2.38 181 12:41 06.04.2021
623 Clouds 12 1019 90 935 2.21 220 12:21 06.04.2021
624 Clouds 12 1019 90 935 2.21 220 11:49 06.04.2021
625 Clouds 13 1019 82 4138 2.51 214 11:21 06.04.2021
626 Clouds 13 1019 82 4138 2.51 214 10:47 06.04.2021
627 Clouds 13 1020 81 4549 2.5 216 10:27 06.04.2021
628 Clouds 13 1020 81 4549 2.5 216 09:49 06.04.2021
629 Clouds 13 1020 79 4010 3.09 212 09:29 06.04.2021
630 Clouds 13 1020 79 4010 3.09 212 08:43 06.04.2021
631 Clouds 13 1021 77 4282 2.37 220 07:59 06.04.2021
632 Clouds 14 1022 75 4862 2.22 212 06:55 06.04.2021
633 Clouds 14 1021 76 6307 1.56 203 05:40 06.04.2021
634 Clouds 10 1022 91 4506 1.06 351 02:57 06.04.2021
635 Clouds 10 1021 90 4203 0.24 84 00:44 06.04.2021
636 Clouds 10 1021 91 2177 0.16 285 00:21 06.04.2021
637 Clouds 10 1021 91 2177 0.16 285 23:43 05.04.2021
638 Clouds 10 1021 92 4009 0.96 268 23:19 05.04.2021
639 Clouds 10 1021 92 4009 0.96 268 22:48 05.04.2021
640 Clouds 10 1022 92 4536 0.85 323 22:26 05.04.2021
641 Clouds 10 1022 92 4536 0.85 323 21:43 05.04.2021
642 Clouds 10 1023 92 4506 0.74 28 21:21 05.04.2021
643 Clouds 10 1023 91 3767 0.72 15 20:43 05.04.2021
644 Clouds 10 1023 88 5084 1.62 338 20:25 05.04.2021
645 Clouds 10 1023 88 5084 1.62 338 19:43 05.04.2021
646 Clouds 9 1023 80 10000 2.78 35 19:22 05.04.2021
647 Clouds 9 1023 80 10000 2.78 35 18:54 05.04.2021
648 Clouds 9 1023 80 10000 2.78 35 18:36 05.04.2021
649 Clouds 9 1024 83 10000 2.85 38 18:18 05.04.2021
650 Clouds 9 1024 83 10000 2.85 38 17:42 05.04.2021
651 Clouds 9 1024 91 10000 2.99 69 17:19 05.04.2021
652 Clouds 9 1024 91 10000 2.99 69 16:43 05.04.2021
653 Clouds 10 1023 92 2426 1.43 115 16:20 05.04.2021
654 Clouds 10 1023 92 2426 1.43 115 15:52 05.04.2021
655 Clouds 11 1021 87 5082 0.67 123 15:29 05.04.2021
656 Clouds 11 1021 87 5082 0.67 123 14:50 05.04.2021
657 Clouds 12 1020 85 7286 1.59 165 14:28 05.04.2021
658 Clouds 12 1020 86 2861 2.15 173 13:31 05.04.2021
659 Clouds 13 1019 82 4333 3.05 197 12:50 05.04.2021
660 Clouds 13 1019 83 4717 2.46 180 12:27 05.04.2021
661 Clouds 13 1019 83 4717 2.46 180 11:56 05.04.2021
662 Rain 13 1019 83 4717 2.46 180 11:34 05.04.2021
663 Rain 13 1020 85 3647 2.59 193 10:59 05.04.2021
664 Rain 13 1020 85 3647 2.59 193 10:59 05.04.2021
665 Clouds 13 1020 85 3647 2.59 193 10:41 05.04.2021
666 Clouds 12 1021 88 2380 2.8 189 10:22 05.04.2021
667 Clouds 12 1021 88 2380 2.8 189 09:47 05.04.2021
668 Clouds 12 1021 88 4558 3.26 186 09:22 05.04.2021
669 Clouds 12 1021 88 4558 3.26 186 08:43 05.04.2021
670 Clouds 14 1021 67 6915 2.88 217 08:24 05.04.2021
671 Clouds 14 1021 67 6915 2.88 217 07:36 05.04.2021
672 Clouds 13 1021 60 10000 1.29 32 05:23 05.04.2021
673 Clouds 8 1024 76 10000 4.54 28 01:41 05.04.2021
674 Clouds 7 1023 77 10000 3.74 33 00:49 05.04.2021
675 Clouds 8 1023 82 9230 4.08 27 23:51 04.04.2021
676 Clouds 8 1023 79 10000 2.22 23 23:24 04.04.2021
677 Clouds 8 1023 79 10000 2.22 23 22:51 04.04.2021
678 Clouds 8 1023 79 10000 2.22 23 22:30 04.04.2021
679 Clouds 9 1024 80 9068 2.43 21 21:28 04.04.2021
680 Clouds 9 1024 80 9068 2.43 21 20:58 04.04.2021
681 Clouds 9 1024 78 10000 3.38 18 20:30 04.04.2021
682 Clouds 9 1024 75 10000 3.07 18 19:58 04.04.2021
683 Clouds 9 1024 75 10000 3.07 18 19:37 04.04.2021
684 Clouds 9 1025 77 10000 3.32 16 19:18 04.04.2021
685 Clouds 9 1025 77 10000 3.32 16 18:44 04.04.2021
686 Clouds 9 1024 73 7708 2.3 23 18:24 04.04.2021
687 Clouds 9 1024 73 7708 2.3 23 17:45 04.04.2021
688 Clouds 10 1023 68 10000 1.73 44 17:24 04.04.2021
689 Clouds 10 1023 68 10000 1.73 44 16:47 04.04.2021
690 Clouds 11 1022 67 10000 1.35 59 16:21 04.04.2021
691 Clouds 11 1022 67 10000 1.35 59 15:36 04.04.2021
692 Clouds 11 1020 63 10000 0.8 151 14:50 04.04.2021
693 Clouds 15 1017 54 10000 1.69 183 14:28 04.04.2021
694 Clouds 15 1017 54 10000 1.69 183 13:53 04.04.2021
695 Clouds 17 1016 45 10000 1.53 197 13:25 04.04.2021
696 Clouds 17 1016 45 10000 1.53 197 12:50 04.04.2021
697 Clouds 17 1016 41 10000 1.38 177 12:27 04.04.2021
698 Clouds 17 1016 41 10000 1.38 177 11:43 04.04.2021
699 Clouds 18 1017 42 10000 1.54 180 11:25 04.04.2021
700 Clouds 18 1017 42 10000 1.54 180 10:46 04.04.2021
701 Clouds 17 1017 44 10000 1.21 182 09:59 04.04.2021
702 Clouds 17 1018 46 10000 0.88 203 09:27 04.04.2021
703 Clouds 17 1018 46 10000 0.88 203 08:59 04.04.2021
704 Clouds 17 1018 46 10000 0.88 203 08:41 04.04.2021
705 Clear 16 1019 49 10000 0.49 248 08:23 04.04.2021
706 Clear 16 1019 38 10000 1.35 18 06:39 04.04.2021
707 Clear 16 1019 38 10000 1.35 18 06:39 04.04.2021
708 Clear 14 1020 39 10000 2.58 20 05:34 04.04.2021
709 Clear 3 1026 44 10000 6.47 25 01:49 04.04.2021
710 Clear 3 1026 46 10000 6.49 29 00:44 04.04.2021
711 Clear 3 1027 47 10000 6.2 26 23:59 03.04.2021
712 Clear 3 1027 47 10000 6.2 26 23:39 03.04.2021
713 Clear 3 1027 48 10000 6.42 27 22:54 03.04.2021
714 Clear 3 1027 50 10000 6.23 26 22:24 03.04.2021
715 Clear 3 1027 50 10000 6.23 26 21:59 03.04.2021
716 Clear 3 1027 50 10000 6.23 26 21:39 03.04.2021
717 Clear 3 1028 52 10000 6.15 25 21:20 03.04.2021
718 Clear 3 1028 52 10000 6.15 25 20:38 03.04.2021
719 Clear 3 1028 51 10000 6.2 27 20:18 03.04.2021
720 Clear 3 1028 51 10000 6.2 27 19:43 03.04.2021
721 Clear 3 1028 50 10000 6.11 27 19:18 03.04.2021
722 Clear 3 1028 50 10000 6.11 27 18:44 03.04.2021
723 Clear 3 1028 50 10000 5.74 28 17:58 03.04.2021
724 Clear 3 1028 50 10000 5.74 28 17:39 03.04.2021
725 Clear 4 1026 50 10000 5.44 30 17:20 03.04.2021
726 Clear 4 1026 50 10000 5.44 30 16:43 03.04.2021
727 Clear 4 1024 51 10000 5.03 31 16:21 03.04.2021
728 Clear 4 1024 51 10000 5.03 31 15:41 03.04.2021
729 Clear 7 1021 49 10000 2.79 39 15:19 03.04.2021
730 Clear 7 1021 49 10000 2.79 39 14:37 03.04.2021
731 Clear 12 1017 46 10000 0.32 121 14:19 03.04.2021
732 Clear 12 1017 46 10000 0.32 121 13:46 03.04.2021
733 Clear 13 1016 36 10000 0.61 173 13:20 03.04.2021
734 Clear 13 1016 36 10000 0.61 173 12:47 03.04.2021
735 Clear 14 1016 31 10000 0.95 167 12:20 03.04.2021
736 Clear 14 1016 31 10000 0.95 167 11:35 03.04.2021
737 Clear 14 1016 33 10000 1.07 171 10:50 03.04.2021
738 Clear 14 1016 33 10000 1.07 171 10:31 03.04.2021
739 Clear 13 1016 33 10000 0.92 165 09:51 03.04.2021
740 Clear 13 1017 32 10000 0.4 163 09:28 03.04.2021
741 Clear 13 1017 32 10000 0.4 163 08:47 03.04.2021
742 Clear 12 1017 30 10000 0.14 333 08:28 03.04.2021
743 Clear 11 1018 27 10000 0.71 10 07:28 03.04.2021
744 Clear 10 1019 33 10000 1.94 25 05:50 03.04.2021
745 Clear 2 1025 43 10000 5.43 30 03:50 03.04.2021
746 Clear -1 1028 41 10000 6.46 29 02:51 03.04.2021
747 Clear -1 1028 41 10000 6.52 28 02:25 03.04.2021
748 Clear -1 1027 43 10000 6.15 28 00:21 03.04.2021
749 Clear -1 1027 43 10000 6.15 28 23:49 02.04.2021
750 Clear -1 1027 44 10000 6.05 28 23:24 02.04.2021
751 Clear -1 1027 44 10000 6.05 28 22:53 02.04.2021
752 Clear -1 1027 44 10000 6.05 28 22:34 02.04.2021
753 Clear 0 1027 44 10000 5.79 30 21:46 02.04.2021
754 Clear 0 1027 44 10000 5.6 31 21:24 02.04.2021
755 Clear 0 1027 44 10000 5.6 31 20:52 02.04.2021
756 Clear 0 1027 44 10000 5.6 31 20:33 02.04.2021
757 Clear 0 1026 45 10000 5.44 30 19:59 02.04.2021
758 Clear 0 1026 45 10000 5.44 30 19:39 02.04.2021
759 Clear 1 1026 45 10000 5.38 31 19:21 02.04.2021
760 Clear 1 1026 45 10000 5.38 31 18:39 02.04.2021
761 Clear 1 1025 46 10000 5.21 31 18:20 02.04.2021
762 Clear 1 1025 46 10000 5.21 31 17:40 02.04.2021
763 Clear 1 1024 48 10000 5.07 32 16:53 02.04.2021
764 Clear 2 1022 50 10000 4.34 34 16:22 02.04.2021
765 Clear 2 1022 50 10000 4.34 34 15:42 02.04.2021
766 Clear 4 1018 52 10000 1.76 74 14:57 02.04.2021
767 Clear 4 1018 52 10000 1.76 74 14:33 02.04.2021
768 Clear 10 1012 49 10000 3.45 191 13:44 02.04.2021
769 Clear 12 1011 42 10000 4.56 193 13:25 02.04.2021
770 Clear 12 1011 42 10000 4.56 193 12:42 02.04.2021
771 Clear 13 1010 40 10000 4.81 192 12:20 02.04.2021
772 Clear 13 1010 40 10000 4.81 192 11:57 02.04.2021
773 Clear 13 1010 39 10000 4.54 190 11:21 02.04.2021
774 Clear 13 1010 39 10000 4.54 190 10:51 02.04.2021
775 Clear 13 1010 39 10000 4.54 190 10:32 02.04.2021
776 Clear 13 1011 38 10000 4.06 186 09:53 02.04.2021
777 Clear 12 1012 37 10000 3.47 183 09:27 02.04.2021
778 Clear 12 1012 37 10000 3.47 183 08:59 02.04.2021
779 Clear 13 1011 30 10000 3.78 190 08:34 02.04.2021
780 Clear 12 1012 34 10000 2.94 192 07:42 02.04.2021
781 Clear 11 1013 33 10000 2.06 209 06:58 02.04.2021
782 Clear 10 1014 39 10000 0.94 272 05:59 02.04.2021
783 Clear 1 1020 55 10000 5.24 29 02:51 02.04.2021
784 Clear 2 1018 59 10000 5.12 31 00:54 02.04.2021
785 Clear 2 1018 61 10000 5.07 29 00:24 02.04.2021
786 Clear 2 1018 61 10000 5.07 29 23:41 01.04.2021
787 Clear 2 1018 64 10000 4.75 29 23:21 01.04.2021
788 Clear 3 1018 67 10000 4.49 31 22:22 01.04.2021
789 Clear 3 1018 67 10000 4.49 31 22:22 01.04.2021
790 Clear 3 1018 67 10000 4.49 31 21:52 01.04.2021
791 Clear 3 1017 69 10000 4.23 32 21:29 01.04.2021
792 Clear 3 1017 69 10000 4.23 32 20:59 01.04.2021
793 Clear 3 1017 65 10000 4.47 32 20:33 01.04.2021
794 Clouds 4 1017 66 10000 4.27 31 19:57 01.04.2021
795 Clouds 4 1017 66 10000 4.27 31 19:39 01.04.2021
796 Clouds 4 1017 66 10000 4.23 35 18:51 01.04.2021
797 Clouds 4 1017 66 10000 3.95 34 18:19 01.04.2021
798 Clouds 4 1017 66 10000 3.95 34 17:58 01.04.2021
799 Clouds 4 1017 66 10000 3.95 34 17:38 01.04.2021
800 Clouds 5 1016 66 10000 3.74 37 17:19 01.04.2021
801 Clouds 5 1016 66 10000 3.74 37 16:41 01.04.2021
802 Clouds 5 1016 66 10000 3.74 37 16:41 01.04.2021
803 Clouds 5 1014 65 10000 2.91 46 15:49 01.04.2021
804 Clouds 7 1012 63 10000 1.22 119 15:23 01.04.2021
805 Clouds 7 1012 63 10000 1.22 119 14:55 01.04.2021
806 Clouds 7 1012 63 10000 1.22 119 14:37 01.04.2021
807 Clouds 12 1009 55 10000 3.23 189 14:19 01.04.2021
808 Clouds 12 1008 56 10000 3.6 194 13:32 01.04.2021
809 Clouds 14 1007 52 10000 4.11 193 12:58 01.04.2021
810 Clouds 14 1007 52 10000 4.11 193 12:39 01.04.2021
811 Clouds 14 1006 51 10000 3.2 192 12:20 01.04.2021
812 Clouds 14 1006 51 10000 3.2 192 11:43 01.04.2021
813 Clear 14 1007 44 10000 2.16 187 11:18 01.04.2021
814 Clear 14 1007 44 10000 2.16 187 10:46 01.04.2021
815 Clear 14 1008 44 10000 1.71 181 10:27 01.04.2021
816 Clear 14 1008 44 10000 1.71 181 09:32 01.04.2021
817 Clear 14 1009 44 10000 1.55 186 08:58 01.04.2021
818 Clear 14 1009 44 10000 1.55 186 08:32 01.04.2021
819 Clear 13 1010 34 10000 0.6 308 07:22 01.04.2021
820 Clear 13 1010 34 10000 0.6 308 06:57 01.04.2021
821 Clear 11 1010 39 10000 1.64 13 06:20 01.04.2021
822 Clear 1 1018 52 10000 6.1 26 03:23 01.04.2021
823 Clear 2 1018 56 10000 5.94 25 00:23 01.04.2021
824 Clear 2 1018 56 10000 5.94 25 23:44 31.03.2021
825 Clear 2 1017 56 10000 5.81 24 22:56 31.03.2021
826 Clear 2 1017 56 10000 5.81 24 22:38 31.03.2021
827 Clear 2 1017 58 10000 5.63 24 22:19 31.03.2021
828 Clear 2 1017 58 10000 5.63 24 21:43 31.03.2021
829 Clear 3 1018 60 10000 5.51 27 21:19 31.03.2021
830 Clear 3 1018 60 10000 5.51 27 20:42 31.03.2021
831 Clouds 3 1018 62 10000 5.29 26 20:22 31.03.2021
832 Clouds 4 1017 57 10000 5.16 26 19:43 31.03.2021
833 Clouds 4 1017 58 10000 4.79 29 19:21 31.03.2021
834 Clouds 4 1017 58 10000 4.79 29 18:58 31.03.2021
835 Clouds 4 1017 58 10000 4.79 29 18:40 31.03.2021
836 Clouds 4 1017 58 10000 4.79 29 18:40 31.03.2021
837 Clouds 5 1016 60 10000 4.47 34 17:51 31.03.2021
838 Clouds 5 1016 60 10000 4.47 34 17:30 31.03.2021
839 Clouds 5 1016 63 10000 3.71 40 16:56 31.03.2021
840 Clouds 5 1016 63 10000 3.71 40 16:37 31.03.2021
841 Clouds 6 1014 63 10000 2.49 49 16:18 31.03.2021
842 Clouds 6 1014 63 10000 2.49 49 15:43 31.03.2021
843 Clouds 9 1011 63 10000 1.38 151 15:19 31.03.2021
844 Clouds 9 1011 63 10000 1.38 151 14:42 31.03.2021
845 Clouds 13 1008 56 10000 3.06 194 14:19 31.03.2021
846 Clouds 13 1008 56 10000 3.06 194 13:39 31.03.2021
847 Clouds 15 1007 59 10000 2.34 195 12:42 31.03.2021
848 Clouds 15 1008 57 10000 1.71 191 12:20 31.03.2021
849 Clouds 15 1008 57 10000 1.71 191 11:47 31.03.2021
850 Clouds 15 1009 59 10000 0.81 175 11:20 31.03.2021
851 Clouds 15 1009 59 10000 0.81 175 10:46 31.03.2021
852 Clear 14 1010 57 10000 0.82 181 10:24 31.03.2021
853 Clear 14 1010 57 10000 0.82 181 09:38 31.03.2021
854 Clouds 14 1011 55 10000 0.55 220 08:55 31.03.2021
855 Clouds 14 1010 57 10000 0.58 216 08:34 31.03.2021
856 Clear 14 1011 54 10000 0.56 206 07:52 31.03.2021
857 Clear 13 1011 50 10000 0.42 244 06:39 31.03.2021
858 Clear 6 1015 62 10000 4.56 27 03:51 31.03.2021
859 Clouds 4 1014 62 10000 5.27 26 01:38 31.03.2021
860 Clouds 5 1013 63 10000 4.95 25 00:48 31.03.2021
861 Clouds 5 1013 64 10000 4.72 27 00:19 31.03.2021
862 Clouds 5 1013 64 10000 4.72 27 23:39 30.03.2021
863 Clouds 5 1014 65 10000 4.55 29 22:59 30.03.2021
864 Clouds 5 1014 65 10000 4.55 29 22:40 30.03.2021
865 Clouds 6 1014 66 10000 4.29 31 22:21 30.03.2021
866 Clouds 6 1014 66 10000 4.29 31 21:48 30.03.2021
867 Clouds 6 1015 67 10000 4.17 32 21:20 30.03.2021
868 Clouds 7 1014 66 10000 4.25 33 20:52 30.03.2021
869 Clouds 7 1015 68 10000 4.08 31 20:28 30.03.2021
870 Clouds 7 1015 68 10000 4.08 31 19:51 30.03.2021
871 Clouds 9 1014 69 10000 3.61 34 19:27 30.03.2021
872 Clouds 9 1014 69 10000 3.61 34 18:40 30.03.2021
873 Clouds 9 1014 69 10000 3.12 39 17:58 30.03.2021
874 Clouds 9 1014 69 10000 3.12 39 17:38 30.03.2021
875 Clouds 10 1013 68 10000 2.58 39 17:20 30.03.2021
876 Clouds 10 1013 68 10000 2.58 39 16:45 30.03.2021
877 Clouds 11 1011 70 10000 1.09 30 16:23 30.03.2021
878 Clouds 12 1010 69 10000 0.99 226 15:21 30.03.2021
879 Clouds 12 1010 69 10000 0.99 226 14:57 30.03.2021
880 Clouds 14 1009 66 10000 2.9 216 14:22 30.03.2021
881 Clouds 14 1009 66 10000 2.9 216 13:59 30.03.2021
882 Clouds 14 1009 66 10000 2.9 216 13:37 30.03.2021
883 Clouds 15 1008 65 10000 3.34 218 12:49 30.03.2021
884 Clouds 16 1008 65 10000 2.75 220 12:28 30.03.2021
885 Clouds 16 1008 65 10000 2.75 220 11:56 30.03.2021
886 Clouds 16 1009 67 10000 2.97 221 11:23 30.03.2021
887 Clouds 16 1009 67 10000 2.97 221 10:46 30.03.2021
888 Clouds 15 1010 69 10000 3.09 213 10:28 30.03.2021
889 Clouds 15 1010 69 10000 3.09 213 09:50 30.03.2021
890 Clouds 15 1010 69 10000 3.09 213 09:31 30.03.2021
891 Clouds 15 1011 67 10000 2.66 217 08:56 30.03.2021
892 Clouds 15 1011 67 10000 2.66 217 08:38 30.03.2021
893 Clear 15 1012 66 10000 2.23 209 07:52 30.03.2021
894 Clear 14 1012 65 10000 1.54 232 07:22 30.03.2021
895 Clear 13 1013 63 10000 0.84 307 05:49 30.03.2021
896 Clear 11 1013 60 10000 2.07 21 05:19 30.03.2021
897 Clouds 5 1017 68 10000 4.97 28 00:40 30.03.2021
898 Clouds 6 1017 71 10000 4.4 33 23:36 29.03.2021
899 Clouds 6 1017 73 10000 4.19 36 22:54 29.03.2021
900 Clouds 7 1016 71 10000 4.49 39 22:32 29.03.2021
901 Clouds 7 1017 76 10000 3.93 42 21:51 29.03.2021
902 Clouds 7 1017 76 10000 3.93 42 21:31 29.03.2021
903 Clouds 7 1018 79 10000 3.27 42 20:50 29.03.2021
904 Clouds 9 1018 82 10000 1.89 58 20:28 29.03.2021
905 Clouds 9 1018 82 10000 1.89 58 19:50 29.03.2021
906 Clouds 9 1019 82 7533 1.73 55 19:25 29.03.2021
907 Clouds 9 1019 82 7533 1.73 55 18:44 29.03.2021
908 Clouds 9 1019 77 10000 2.18 54 18:26 29.03.2021
909 Clouds 9 1019 77 10000 2.18 54 17:51 29.03.2021
910 Clouds 9 1019 77 10000 2.18 54 17:32 29.03.2021
911 Clouds 9 1018 78 10000 1.73 70 16:45 29.03.2021
912 Clouds 10 1017 84 10000 1.87 73 16:24 29.03.2021
913 Clouds 10 1017 84 10000 1.87 73 15:37 29.03.2021
914 Clouds 11 1016 88 8109 0.95 114 15:18 29.03.2021
915 Clouds 11 1016 88 8109 0.95 114 14:46 29.03.2021
916 Clouds 12 1015 87 7824 1.19 154 13:55 29.03.2021
917 Clouds 12 1015 87 7824 1.19 154 13:33 29.03.2021
918 Clouds 13 1014 89 2209 3.1 199 12:57 29.03.2021
919 Clouds 13 1014 89 2209 3.1 199 12:39 29.03.2021
920 Clouds 14 1014 85 2149 2.58 214 11:43 29.03.2021
921 Clouds 14 1014 83 4458 4.03 218 11:25 29.03.2021
922 Clouds 14 1014 83 4458 4.03 218 10:45 29.03.2021
923 Clouds 15 1014 81 4026 3.66 222 10:19 29.03.2021
924 Clouds 15 1014 81 4026 3.66 222 09:32 29.03.2021
925 Clouds 14 1016 79 4260 3.42 218 08:34 29.03.2021
926 Rain 14 1017 79 4161 3.45 208 07:54 29.03.2021
927 Rain 14 1018 84 6665 3.03 205 06:57 29.03.2021
928 Rain 13 1018 87 3557 2.54 196 06:22 29.03.2021
929 Clouds 10 1018 94 3893 0.86 274 02:33 29.03.2021
930 Clouds 10 1018 94 2186 1.2 216 00:30 29.03.2021
931 Clouds 10 1018 94 2533 1.31 183 23:58 28.03.2021
932 Clouds 10 1019 94 2175 0.94 165 23:25 28.03.2021
933 Clouds 10 1019 94 2175 0.94 165 22:48 28.03.2021
934 Clouds 11 1019 93 4190 0.65 118 22:28 28.03.2021
935 Clouds 11 1019 93 4190 0.65 118 21:47 28.03.2021
936 Clouds 10 1020 93 4201 0.25 90 21:25 28.03.2021
937 Clouds 10 1020 93 4201 0.25 90 20:56 28.03.2021
938 Clouds 10 1020 93 4201 0.25 90 20:38 28.03.2021
939 Clouds 10 1021 90 3736 0.92 31 20:18 28.03.2021
940 Clouds 10 1021 90 3736 0.92 31 19:41 28.03.2021
941 Clouds 10 1020 83 10000 1.87 59 19:21 28.03.2021
942 Clouds 10 1020 83 10000 1.87 59 18:49 28.03.2021
943 Clouds 11 1021 86 9629 2.69 31 18:22 28.03.2021
944 Clouds 11 1021 86 9629 2.69 31 17:41 28.03.2021
945 Clouds 11 1021 87 8012 1.97 3 17:18 28.03.2021
946 Clouds 11 1021 87 8012 1.97 3 16:40 28.03.2021
947 Clouds 11 1020 88 8244 1.82 38 16:21 28.03.2021
948 Clouds 12 1019 87 4843 0.66 48 15:25 28.03.2021
949 Clouds 12 1019 87 4843 0.66 48 14:50 28.03.2021
950 Clouds 14 1017 81 5076 0.38 196 14:26 28.03.2021
951 Clouds 14 1017 81 5076 0.38 196 13:38 28.03.2021
952 Clouds 14 1017 79 5087 0.34 195 12:59 28.03.2021
953 Clouds 14 1017 79 5087 0.34 195 12:37 28.03.2021
954 Clouds 15 1017 77 5033 1.35 240 12:18 28.03.2021
955 Clouds 15 1017 77 5033 1.35 240 11:39 28.03.2021
956 Clouds 17 1016 63 3248 2.38 210 10:56 28.03.2021
957 Clouds 17 1016 63 3248 2.38 210 10:37 28.03.2021
958 Clouds 17 1016 61 5239 1.85 191 10:18 28.03.2021
959 Clouds 18 1015 55 5007 2.27 197 09:43 28.03.2021
960 Clouds 18 1016 55 6267 1.83 194 09:23 28.03.2021
961 Clouds 18 1016 55 6267 1.83 194 08:38 28.03.2021
962 Clouds 17 1017 54 10000 1.15 204 07:44 28.03.2021
963 Clouds 15 1018 59 10000 1.97 24 06:22 28.03.2021
964 Clouds 11 1020 70 10000 4.02 20 03:51 28.03.2021
965 Clouds 10 1019 73 10000 4.03 12 00:48 28.03.2021
966 Clouds 10 1019 68 10000 3.89 14 00:18 28.03.2021
967 Clouds 10 1019 68 10000 3.89 14 23:37 27.03.2021
968 Clouds 10 1019 64 10000 4.21 27 22:50 27.03.2021
969 Clouds 10 1019 64 10000 4.21 27 22:31 27.03.2021
970 Clouds 9 1021 61 10000 4.37 22 21:46 27.03.2021
971 Clouds 8 1022 59 10000 4.82 28 21:21 27.03.2021
972 Clouds 8 1022 59 10000 4.82 28 20:59 27.03.2021
973 Clouds 8 1022 59 10000 4.82 28 20:37 27.03.2021
974 Clouds 8 1023 58 10000 5.41 26 20:19 27.03.2021
975 Clear 8 1023 59 10000 5.33 27 19:41 27.03.2021
976 Clear 8 1023 58 10000 5.26 28 19:22 27.03.2021
977 Clear 8 1023 58 10000 5.26 28 18:47 27.03.2021
978 Clear 8 1024 58 10000 5.4 31 18:22 27.03.2021
979 Clear 8 1024 58 10000 5.4 31 17:37 27.03.2021
980 Clear 8 1024 58 10000 5.4 31 17:37 27.03.2021
981 Clear 8 1024 59 10000 5.27 28 17:18 27.03.2021
982 Clear 8 1024 59 10000 5.27 28 16:47 27.03.2021
983 Clouds 9 1024 59 10000 4.87 31 16:26 27.03.2021
984 Clouds 9 1024 59 10000 4.87 31 15:46 27.03.2021
985 Clouds 9 1023 59 10000 4.75 32 15:20 27.03.2021
986 Clouds 9 1023 59 10000 4.75 32 14:44 27.03.2021
987 Clouds 11 1021 59 10000 3.48 40 13:40 27.03.2021
988 Clouds 15 1018 61 10000 0.83 42 13:21 27.03.2021
989 Clouds 15 1018 61 10000 1.24 10 12:50 27.03.2021
990 Clouds 17 1017 63 10000 0.38 28 11:55 27.03.2021
991 Clouds 17 1017 63 10000 0.38 28 11:37 27.03.2021
992 Clouds 17 1017 60 10000 0.53 145 11:19 27.03.2021
993 Clouds 17 1017 60 10000 0.53 145 10:40 27.03.2021
994 Clouds 17 1017 63 10000 0.37 131 10:22 27.03.2021
995 Clouds 17 1018 64 10000 0.6 139 09:22 27.03.2021
996 Clouds 17 1018 64 10000 0.6 139 08:42 27.03.2021
997 Clouds 16 1019 62 10000 0.92 160 08:18 27.03.2021
998 Clouds 16 1019 60 9044 0.89 169 07:31 27.03.2021
999 Clouds 17 1018 62 10000 1.4 187 06:43 27.03.2021
1000 Clouds 15 1019 54 10000 1.18 6 04:57 27.03.2021
1001 Clouds 15 1019 54 10000 1.18 6 04:39 27.03.2021
1002 Clear 6 1023 48 10000 5.85 28 00:48 27.03.2021
1003 Clear 6 1023 48 10000 5.85 28 00:48 27.03.2021
1004 Clear 6 1023 49 10000 5.79 27 00:27 27.03.2021
1005 Clear 6 1023 49 10000 5.79 27 23:48 26.03.2021
1006 Clear 6 1023 51 10000 5.63 28 22:53 26.03.2021
1007 Clear 6 1023 51 10000 5.63 28 22:34 26.03.2021
1008 Clear 6 1024 53 10000 5.62 27 21:25 26.03.2021
1009 Clear 6 1024 53 10000 5.62 27 20:58 26.03.2021
1010 Clear 6 1024 53 10000 5.62 27 20:32 26.03.2021
1011 Clear 7 1024 54 10000 5.67 26 19:56 26.03.2021
1012 Clear 7 1024 53 10000 5.7 26 19:37 26.03.2021
1013 Clear 7 1024 53 10000 5.91 28 19:18 26.03.2021
1014 Clear 7 1024 53 10000 5.91 28 18:41 26.03.2021
1015 Clear 7 1025 53 10000 5.96 28 18:19 26.03.2021
1016 Clear 7 1025 53 10000 5.96 28 17:45 26.03.2021
1017 Clear 7 1025 54 10000 5.86 27 16:54 26.03.2021
1018 Clear 7 1025 54 10000 5.86 27 16:31 26.03.2021
1019 Clear 7 1025 56 10000 5.62 27 15:51 26.03.2021
1020 Clear 8 1024 59 10000 5.24 27 15:21 26.03.2021
1021 Clear 10 1021 60 10000 3.71 31 14:24 26.03.2021
1022 Clear 10 1021 60 10000 3.71 31 13:34 26.03.2021
1023 Clouds 14 1018 63 10000 1.11 35 12:49 26.03.2021
1024 Clouds 15 1018 70 10000 1.09 23 11:58 26.03.2021
1025 Clouds 15 1018 70 10000 1.09 23 11:34 26.03.2021
1026 Clouds 15 1018 71 5824 0.81 53 10:52 26.03.2021
1027 Clouds 15 1018 71 5824 0.81 53 10:33 26.03.2021
1028 Clouds 16 1018 68 5707 0.36 128 09:44 26.03.2021
1029 Clouds 17 1018 69 5682 0.88 199 09:22 26.03.2021
1030 Clouds 17 1018 69 5682 0.88 199 08:40 26.03.2021
1031 Clouds 17 1018 70 5706 1.1 202 08:21 26.03.2021
1032 Clear 16 1018 70 10000 0.12 24 07:23 26.03.2021
1033 Clear 16 1018 70 10000 0.12 24 06:58 26.03.2021
1034 Clear 16 1018 70 10000 0.12 24 06:32 26.03.2021
1035 Clear 15 1019 67 10000 1.32 33 05:30 26.03.2021
1036 Clear 4 1026 41 10000 6.88 28 01:59 26.03.2021
1037 Clear 4 1026 42 10000 6.89 28 00:32 26.03.2021
1038 Clear 4 1026 42 10000 6.7 28 23:44 25.03.2021
1039 Clear 4 1026 42 10000 6.76 27 23:20 25.03.2021
1040 Clear 4 1026 42 10000 6.76 27 22:36 25.03.2021
1041 Clear 4 1027 44 10000 6.65 27 21:53 25.03.2021
1042 Clear 4 1027 44 10000 6.65 27 21:34 25.03.2021
1043 Clear 4 1027 45 10000 6.57 28 20:45 25.03.2021
1044 Clear 3 1028 48 10000 6.55 25 20:26 25.03.2021
1045 Clear 3 1028 48 10000 6.55 25 19:49 25.03.2021
1046 Clear 3 1028 48 10000 6.55 25 19:49 25.03.2021
1047 Clear 3 1028 47 10000 6.69 25 19:31 25.03.2021
1048 Clear 3 1029 51 10000 6.54 26 18:49 25.03.2021
1049 Clear 3 1029 53 10000 6.34 26 18:27 25.03.2021
1050 Clear 3 1029 53 10000 6.34 26 17:57 25.03.2021
1051 Clear 3 1029 53 10000 6.34 26 17:37 25.03.2021
1052 Clear 3 1029 55 10000 6.21 27 16:56 25.03.2021
1053 Clear 3 1029 55 10000 6.21 27 16:32 25.03.2021
1054 Clear 4 1028 56 10000 5.87 27 15:46 25.03.2021
1055 Clear 5 1026 58 10000 5.3 28 15:24 25.03.2021
1056 Clear 5 1026 58 10000 5.3 28 14:48 25.03.2021
1057 Clear 6 1023 59 10000 3.74 37 14:29 25.03.2021
1058 Clouds 11 1020 63 10000 0.83 98 13:26 25.03.2021
1059 Clouds 11 1020 63 10000 1.01 84 12:46 25.03.2021
1060 Clouds 13 1018 63 10000 0.56 149 12:22 25.03.2021
1061 Clouds 13 1018 63 10000 0.56 149 11:57 25.03.2021
1062 Clouds 13 1018 63 10000 0.56 149 11:39 25.03.2021
1063 Clouds 13 1019 61 10000 0.06 176 11:21 25.03.2021
1064 Clouds 13 1019 61 10000 0.06 176 10:45 25.03.2021
1065 Clouds 13 1019 58 10000 0.37 173 10:19 25.03.2021
1066 Clouds 13 1019 58 10000 0.37 173 09:43 25.03.2021
1067 Clouds 14 1019 56 10000 0.5 196 09:23 25.03.2021
1068 Clouds 14 1019 56 10000 0.5 196 08:36 25.03.2021
1069 Clear 13 1019 59 10000 1.19 198 07:43 25.03.2021
1070 Clear 13 1020 57 10000 0.12 340 06:43 25.03.2021
1071 Clear 12 1020 48 10000 1.21 16 06:23 25.03.2021
1072 Clear 10 1021 52 10000 2.94 20 04:52 25.03.2021
1073 Clear 0 1031 55 10000 6.81 28 02:28 25.03.2021
1074 Clear 0 1030 57 10000 6.53 28 00:20 25.03.2021
1075 Clear 0 1030 57 10000 6.53 28 23:42 24.03.2021
1076 Clear 0 1030 59 10000 6.46 28 23:23 24.03.2021
1077 Clear 0 1030 59 10000 6.46 28 22:40 24.03.2021
1078 Clear 0 1031 61 10000 6.31 28 21:59 24.03.2021
1079 Clear 0 1031 61 10000 6.31 28 21:39 24.03.2021
1080 Clear 0 1031 63 10000 6.04 27 21:19 24.03.2021
1081 Clear 0 1031 63 10000 6.04 27 20:41 24.03.2021
1082 Clear 1 1031 64 10000 6.03 28 20:19 24.03.2021
1083 Clear 1 1030 66 10000 5.83 28 19:34 24.03.2021
1084 Clouds 1 1030 67 10000 5.7 25 18:57 24.03.2021
1085 Clouds 1 1030 67 10000 5.7 25 18:39 24.03.2021
1086 Clouds 2 1030 69 10000 5.41 26 18:19 24.03.2021
1087 Clouds 2 1030 69 10000 5.41 26 17:40 24.03.2021
1088 Clouds 3 1029 73 10000 5.08 24 17:22 24.03.2021
1089 Clouds 3 1029 73 10000 5.08 24 16:41 24.03.2021
1090 Clouds 3 1029 76 10000 4.64 21 16:22 24.03.2021
1091 Clouds 3 1029 76 10000 4.64 21 15:43 24.03.2021
1092 Clouds 4 1026 82 10000 4.04 20 15:23 24.03.2021
1093 Clouds 4 1026 82 10000 4.04 20 14:42 24.03.2021
1094 Clouds 6 1023 89 9687 2.09 49 14:23 24.03.2021
1095 Clouds 6 1023 89 9687 2.09 49 13:50 24.03.2021
1096 Clouds 8 1021 89 7004 1.87 46 13:25 24.03.2021
1097 Clouds 8 1021 89 7004 1.87 46 12:41 24.03.2021
1098 Clouds 9 1021 85 1628 1.94 167 12:21 24.03.2021
1099 Rain 9 1021 85 1628 1.94 167 11:42 24.03.2021
1100 Clouds 11 1019 64 10000 1.22 213 10:53 24.03.2021
1101 Clouds 11 1019 64 10000 1.22 213 10:35 24.03.2021
1102 Clouds 12 1020 62 8725 1.79 204 09:58 24.03.2021
1103 Clouds 12 1020 62 8725 1.79 204 09:37 24.03.2021
1104 Clouds 12 1022 59 10000 1.8 211 09:18 24.03.2021
1105 Clouds 12 1022 59 10000 1.8 211 08:47 24.03.2021
1106 Clouds 11 1023 57 10000 1.81 221 08:24 24.03.2021
1107 Clouds 11 1023 57 10000 1.81 221 07:31 24.03.2021
1108 Clouds 11 1023 62 10000 1.96 205 06:51 24.03.2021
1109 Clouds 4 1028 67 10000 4.92 30 03:21 24.03.2021
1110 Clouds 2 1029 68 10000 5.17 27 00:45 24.03.2021
1111 Clouds 3 1027 70 10000 4.57 24 23:56 23.03.2021
1112 Clouds 4 1026 73 10000 4.32 27 23:21 23.03.2021
1113 Clouds 4 1026 73 10000 4.32 27 22:52 23.03.2021
1114 Clouds 4 1026 80 10000 3.61 26 22:28 23.03.2021
1115 Clouds 4 1026 80 10000 3.61 26 21:49 23.03.2021
1116 Clouds 4 1026 80 10000 3.61 26 21:31 23.03.2021
1117 Clouds 5 1026 86 10000 3.17 23 20:47 23.03.2021
1118 Clouds 6 1026 90 3107 2.3 23 20:29 23.03.2021
1119 Clouds 6 1026 90 3107 2.3 23 19:57 23.03.2021
1120 Clouds 7 1026 87 10000 3.13 48 19:27 23.03.2021
1121 Clouds 7 1026 87 10000 3.13 48 18:59 23.03.2021
1122 Clouds 7 1026 87 10000 3.13 48 18:37 23.03.2021
1123 Clouds 7 1026 96 4997 1.2 159 18:18 23.03.2021
1124 Clouds 7 1026 96 4997 1.2 159 17:43 23.03.2021
1125 Clouds 6 1026 97 230 1.39 165 17:21 23.03.2021
1126 Clouds 7 1024 94 629 1.28 102 16:26 23.03.2021
1127 Rain 7 1024 94 629 1.28 102 15:50 23.03.2021
1128 Rain 7 1023 90 5166 1.42 143 15:23 23.03.2021
1129 Clouds 7 1023 90 5166 1.42 143 14:48 23.03.2021
1130 Rain 7 1022 89 1411 2.33 87 14:19 23.03.2021
1131 Rain 7 1022 89 1411 2.33 87 14:19 23.03.2021
1132 Rain 7 1022 89 1411 2.33 87 13:47 23.03.2021
1133 Clouds 10 1020 81 10000 2.59 36 13:24 23.03.2021
1134 Clouds 10 1020 81 10000 2.59 36 12:45 23.03.2021
1135 Clouds 9 1023 88 6454 1.33 68 12:26 23.03.2021
1136 Clouds 9 1023 88 6454 1.33 68 11:49 23.03.2021
1137 Clouds 9 1023 88 6454 1.33 68 11:49 23.03.2021
1138 Clouds 9 1024 90 1967 1.85 177 11:26 23.03.2021
1139 Clouds 9 1024 90 1967 1.85 177 10:42 23.03.2021
1140 Clouds 9 1024 86 3325 1.92 153 10:21 23.03.2021
1141 Clouds 9 1024 86 3325 1.92 153 09:51 23.03.2021
1142 Clouds 8 1026 96 1056 2.22 189 09:23 23.03.2021
1143 Rain 8 1026 96 1056 2.22 189 08:55 23.03.2021
1144 Rain 8 1026 96 1056 2.22 189 08:37 23.03.2021
1145 Rain 8 1026 96 1056 2.22 189 08:37 23.03.2021
1146 Rain 9 1026 92 331 3.18 224 08:19 23.03.2021
1147 Rain 10 1025 49 3490 2.6 244 07:27 23.03.2021
1148 Rain 10 1025 80 4898 2.47 244 06:53 23.03.2021
1149 Rain 9 1025 74 6520 2.38 47 03:57 23.03.2021
1150 Clouds 8 1025 67 10000 3.65 31 03:18 23.03.2021
1151 Clouds 6 1025 65 10000 4.61 27 23:56 22.03.2021
1152 Clouds 5 1026 65 10000 5.06 26 23:20 22.03.2021
1153 Clouds 5 1026 65 10000 5.06 26 22:44 22.03.2021
1154 Clouds 5 1027 67 10000 5.18 28 22:21 22.03.2021
1155 Clouds 5 1027 67 10000 5.18 28 21:49 22.03.2021
1156 Clouds 5 1028 68 10000 4.87 29 21:27 22.03.2021
1157 Clouds 5 1028 68 10000 4.87 29 20:44 22.03.2021
1158 Clouds 5 1028 71 10000 4.56 30 20:26 22.03.2021
1159 Clouds 5 1028 71 10000 4.56 30 19:58 22.03.2021
1160 Clouds 5 1028 71 10000 4.56 30 19:39 22.03.2021
1161 Clouds 6 1027 73 10000 3.88 30 19:20 22.03.2021
1162 Clouds 5 1024 70 10000 4.46 29 18:41 22.03.2021
1163 Clouds 6 1024 75 10000 3.94 34 18:22 22.03.2021
1164 Clouds 6 1024 75 10000 3.94 34 17:50 22.03.2021
1165 Clouds 6 1023 82 10000 2.89 52 17:22 22.03.2021
1166 Clouds 6 1023 82 10000 2.89 52 16:57 22.03.2021
1167 Clouds 6 1023 82 10000 2.89 52 16:39 22.03.2021
1168 Clouds 8 1022 90 5952 2.08 86 15:43 22.03.2021
1169 Clouds 8 1020 89 3811 1.27 130 15:25 22.03.2021
1170 Rain 8 1020 89 3811 1.27 130 14:59 22.03.2021
1171 Clouds 8 1020 89 3811 1.27 130 14:34 22.03.2021
1172 Clouds 9 1018 91 5730 1.3 94 13:52 22.03.2021
1173 Rain 9 1018 91 5730 1.3 94 13:34 22.03.2021
1174 Clouds 9 1017 95 4010 1.25 130 12:59 22.03.2021
1175 Clouds 9 1017 95 4010 1.25 130 12:41 22.03.2021
1176 Rain 11 1017 92 3260 1.59 146 12:18 22.03.2021
1177 Rain 11 1017 92 3260 1.59 146 11:41 22.03.2021
1178 Rain 11 1017 94 1110 2.65 187 11:21 22.03.2021
1179 Clouds 11 1017 94 1110 2.65 187 10:42 22.03.2021
1180 Clouds 11 1018 94 1793 2.33 199 10:22 22.03.2021
1181 Rain 11 1018 94 1793 2.33 199 09:37 22.03.2021
1182 Rain 10 1018 96 468 2.05 202 08:59 22.03.2021
1183 Rain 10 1018 96 468 2.05 202 08:41 22.03.2021
1184 Clouds 10 1019 96 1472 2.61 207 08:23 22.03.2021
1185 Clouds 10 1019 96 1472 2.61 207 07:43 22.03.2021
1186 Clouds 10 1021 96 1347 2.56 188 06:52 22.03.2021
1187 Rain 10 1022 97 197 2.61 191 05:24 22.03.2021
1188 Rain 8 1021 95 1330 1.19 127 01:58 22.03.2021
1189 Clouds 8 1020 89 2278 0.98 76 00:27 22.03.2021
1190 Clouds 8 1020 89 2278 0.98 76 23:53 21.03.2021
1191 Rain 8 1020 84 5335 2.85 74 23:19 21.03.2021
1192 Rain 8 1020 84 5335 2.85 74 22:55 21.03.2021
1193 Rain 8 1020 83 4947 2.11 79 21:58 21.03.2021
1194 Clouds 8 1020 83 4947 2.11 79 21:39 21.03.2021
1195 Clouds 8 1020 80 7890 2.17 56 21:21 21.03.2021
1196 Clouds 8 1020 80 7890 2.17 56 20:41 21.03.2021
1197 Clouds 8 1021 82 9070 2.72 37 20:23 21.03.2021
1198 Clouds 8 1021 82 9070 2.72 37 19:52 21.03.2021
1199 Clouds 8 1021 87 5308 2.51 26 19:21 21.03.2021
1200 Clouds 8 1020 92 2395 1.58 68 18:47 21.03.2021
1201 Clouds 9 1021 84 6752 1.45 20 18:27 21.03.2021
1202 Clouds 9 1021 84 6752 1.45 20 17:46 21.03.2021
1203 Clouds 9 1020 79 10000 1.56 6 17:20 21.03.2021
1204 Clouds 9 1020 79 10000 1.56 6 16:57 21.03.2021
1205 Clouds 9 1020 79 10000 1.56 6 16:30 21.03.2021
1206 Rain 10 1019 83 10000 1.83 28 15:58 21.03.2021
1207 Rain 10 1019 83 10000 1.83 28 15:38 21.03.2021
1208 Clouds 10 1018 91 5220 0.38 277 15:19 21.03.2021
1209 Clouds 10 1018 91 5220 0.38 277 15:19 21.03.2021
1210 Clouds 10 1018 91 5220 0.38 277 14:42 21.03.2021
1211 Clouds 10 1016 94 5228 0.94 247 14:24 21.03.2021
1212 Clouds 10 1016 94 5228 0.94 247 13:52 21.03.2021
1213 Clouds 11 1015 52 1829 2.19 173 12:46 21.03.2021
1214 Clouds 14 1014 69 4387 3.42 189 12:27 21.03.2021
1215 Clouds 14 1014 69 4387 3.42 189 12:27 21.03.2021
1216 Clouds 14 1014 69 4387 3.42 189 11:53 21.03.2021
1217 Clouds 16 1013 60 10000 3.72 195 11:28 21.03.2021
1218 Clouds 16 1013 60 10000 3.72 195 10:59 21.03.2021
1219 Clouds 16 1013 60 10000 3.72 195 10:41 21.03.2021
1220 Rain 16 1014 59 10000 3 190 10:21 21.03.2021
1221 Clouds 16 1014 59 10000 3 190 09:44 21.03.2021
1222 Clouds 16 1015 58 10000 2.16 191 09:26 21.03.2021
1223 Clouds 16 1015 58 10000 2.16 191 08:39 21.03.2021
1224 Clouds 16 1016 57 10000 1.53 204 08:20 21.03.2021
1225 Clouds 16 1016 57 10000 1.53 204 07:37 21.03.2021
1226 Clouds 15 1017 59 10000 0.93 241 06:50 21.03.2021
1227 Clouds 13 1019 48 10000 1.75 19 05:25 21.03.2021
1228 Clear 6 1019 50 10000 4.76 32 01:54 21.03.2021
1229 Clear 6 1018 50 10000 4.62 26 00:41 21.03.2021
1230 Clear 6 1018 49 10000 4.52 30 00:21 21.03.2021
1231 Clear 6 1018 49 10000 4.52 30 23:47 20.03.2021
1232 Clear 6 1019 48 10000 4.29 29 23:22 20.03.2021
1233 Clear 6 1019 48 10000 4.29 29 22:55 20.03.2021
1234 Clear 6 1019 47 10000 4.36 31 22:22 20.03.2021
1235 Clear 6 1019 47 10000 4.36 31 21:46 20.03.2021
1236 Clear 7 1020 47 10000 4.69 28 21:24 20.03.2021
1237 Clear 7 1020 47 10000 4.69 28 20:45 20.03.2021
1238 Clear 7 1019 48 10000 5.08 29 20:23 20.03.2021
1239 Clear 7 1019 48 10000 5.08 29 19:50 20.03.2021
1240 Clouds 7 1019 49 10000 5.25 30 19:27 20.03.2021
1241 Clouds 7 1019 49 10000 5.35 30 18:50 20.03.2021
1242 Clouds 7 1019 51 10000 5.13 29 18:27 20.03.2021
1243 Clouds 7 1019 51 10000 5.13 29 17:55 20.03.2021
1244 Clouds 7 1019 51 10000 5.13 29 17:33 20.03.2021
1245 Clouds 8 1019 53 10000 4.61 30 16:56 20.03.2021
1246 Clouds 8 1019 53 10000 4.61 30 16:37 20.03.2021
1247 Clouds 8 1019 56 10000 4.2 33 16:18 20.03.2021
1248 Clouds 8 1019 56 10000 4.2 33 15:39 20.03.2021
1249 Clouds 9 1018 59 10000 3.44 34 14:49 20.03.2021
1250 Clouds 10 1016 62 10000 1.38 55 14:29 20.03.2021
1251 Clouds 10 1016 62 10000 1.38 55 13:43 20.03.2021
1252 Clouds 13 1014 58 10000 0.77 183 13:21 20.03.2021
1253 Clouds 15 1014 58 10000 1.1 203 12:28 20.03.2021
1254 Clouds 15 1014 58 10000 1.1 203 11:50 20.03.2021
1255 Clouds 15 1014 58 10000 1.1 203 11:31 20.03.2021
1256 Clouds 16 1014 47 10000 1.15 197 10:57 20.03.2021
1257 Clouds 16 1014 47 10000 1.15 197 10:38 20.03.2021
1258 Clear 16 1015 47 10000 1.06 191 10:19 20.03.2021
1259 Clear 16 1015 47 10000 1.06 191 09:42 20.03.2021
1260 Clear 16 1016 49 10000 0.77 191 09:21 20.03.2021
1261 Clear 16 1016 49 10000 0.77 191 08:48 20.03.2021
1262 Clear 16 1017 50 10000 0.75 222 07:56 20.03.2021
1263 Clear 16 1017 50 10000 0.75 222 07:38 20.03.2021
1264 Clear 15 1018 46 10000 0.72 273 07:19 20.03.2021
1265 Clear 15 1018 46 10000 0.72 273 06:34 20.03.2021
1266 Clear 13 1020 47 10000 2.49 18 04:44 20.03.2021
1267 Clear 10 1021 50 10000 3.76 25 03:43 20.03.2021
1268 Clear 5 1021 46 10000 5.41 27 00:43 20.03.2021
1269 Clear 5 1020 47 10000 5.21 29 23:36 19.03.2021
1270 Clear 5 1020 49 10000 5.15 29 23:18 19.03.2021
1271 Clear 5 1020 49 10000 5.15 29 22:42 19.03.2021
1272 Clear 5 1021 51 10000 5.13 29 22:22 19.03.2021
1273 Clear 5 1021 51 10000 5.13 29 21:38 19.03.2021
1274 Clear 6 1022 53 10000 5.11 30 21:19 19.03.2021
1275 Clear 6 1022 53 10000 5.11 30 20:44 19.03.2021
1276 Clear 6 1022 56 10000 4.77 27 20:26 19.03.2021
1277 Clear 6 1022 56 10000 4.77 27 19:47 19.03.2021
1278 Clouds 7 1022 52 10000 4.11 31 19:22 19.03.2021
1279 Clouds 7 1022 55 10000 4.74 27 18:49 19.03.2021
1280 Clouds 7 1022 58 10000 4.5 28 18:21 19.03.2021
1281 Clouds 7 1022 58 10000 4.5 28 17:56 19.03.2021
1282 Clouds 7 1022 58 10000 4.5 28 17:37 19.03.2021
1283 Clouds 7 1021 60 10000 4.4 32 17:18 19.03.2021
1284 Clouds 7 1021 60 10000 4.4 32 16:43 19.03.2021
1285 Clouds 8 1021 62 10000 4.24 31 16:23 19.03.2021
1286 Clouds 8 1021 62 10000 4.24 31 15:33 19.03.2021
1287 Clouds 8 1019 66 10000 3.59 24 14:51 19.03.2021
1288 Clouds 8 1019 66 10000 3.59 24 14:33 19.03.2021
1289 Clouds 9 1018 70 10000 3.23 13 13:50 19.03.2021
1290 Clouds 11 1017 73 10000 3.17 3 13:19 19.03.2021
1291 Clouds 11 1017 73 10000 3.17 3 12:42 19.03.2021
1292 Clouds 13 1016 64 9488 2.37 322 12:18 19.03.2021
1293 Clouds 13 1016 64 9488 2.37 322 11:33 19.03.2021
1294 Clouds 14 1016 58 10000 1.73 278 10:43 19.03.2021
1295 Clouds 15 1017 51 10000 1.27 241 10:22 19.03.2021
1296 Clouds 15 1017 51 10000 1.27 241 09:44 19.03.2021
1297 Clouds 15 1018 52 10000 0.84 203 09:25 19.03.2021
1298 Clouds 15 1018 52 10000 0.84 203 08:52 19.03.2021
1299 Clouds 15 1019 52 10000 0.69 233 08:28 19.03.2021
1300 Clouds 15 1019 52 10000 0.69 233 07:50 19.03.2021
1301 Clouds 15 1019 52 10000 0.69 233 07:31 19.03.2021
1302 Clouds 13 1023 46 10000 1.49 9 05:28 19.03.2021
1303 Clouds 6 1024 45 10000 4.63 27 02:20 19.03.2021
1304 Clouds 5 1023 46 10000 4.91 28 23:57 18.03.2021
1305 Clouds 5 1023 47 10000 4.92 29 23:29 18.03.2021
1306 Clouds 5 1023 47 10000 4.92 29 22:52 18.03.2021
1307 Clouds 5 1024 48 10000 4.93 30 22:26 18.03.2021
1308 Clouds 5 1024 48 10000 4.93 30 22:26 18.03.2021
1309 Clouds 5 1024 48 10000 4.93 30 21:55 18.03.2021
1310 Clouds 5 1024 48 10000 4.93 30 21:36 18.03.2021
1311 Clouds 5 1024 49 10000 4.85 29 20:43 18.03.2021
1312 Clouds 5 1024 49 10000 4.85 29 20:43 18.03.2021
1313 Clouds 6 1024 52 10000 4.82 28 20:22 18.03.2021
1314 Clouds 6 1024 52 10000 4.82 28 19:43 18.03.2021
1315 Clouds 6 1024 54 10000 4.62 28 19:23 18.03.2021
1316 Clouds 6 1024 54 10000 4.62 28 18:52 18.03.2021
1317 Clouds 6 1024 56 10000 4.55 28 18:26 18.03.2021
1318 Clouds 6 1024 56 10000 4.55 28 18:26 18.03.2021
1319 Clouds 6 1024 56 10000 4.55 28 17:44 18.03.2021
1320 Clouds 7 1023 58 10000 4.53 29 17:20 18.03.2021
1321 Clouds 7 1023 58 10000 4.53 29 16:42 18.03.2021
1322 Clouds 7 1023 60 10000 4.36 30 16:23 18.03.2021
1323 Clouds 7 1023 60 10000 4.36 30 15:41 18.03.2021
1324 Clouds 7 1021 63 10000 3.92 30 15:23 18.03.2021
1325 Clouds 7 1021 63 10000 3.92 30 14:50 18.03.2021
1326 Clouds 8 1020 68 10000 3.24 24 14:28 18.03.2021
1327 Clouds 8 1020 68 10000 3.24 24 13:48 18.03.2021
1328 Clouds 11 1018 71 10000 1.59 26 13:25 18.03.2021
1329 Clouds 11 1018 68 10000 2.1 330 12:42 18.03.2021
1330 Clouds 13 1017 59 10000 1.86 281 12:24 18.03.2021
1331 Clouds 13 1017 59 10000 1.86 281 11:50 18.03.2021
1332 Clouds 13 1017 59 10000 1.86 281 11:31 18.03.2021
1333 Clouds 14 1017 45 10000 1.62 238 10:44 18.03.2021
1334 Clouds 15 1017 43 10000 1.26 216 10:25 18.03.2021
1335 Clouds 15 1017 43 10000 1.26 216 09:54 18.03.2021
1336 Clouds 15 1019 45 10000 1.18 189 09:28 18.03.2021
1337 Clouds 15 1019 45 10000 1.18 189 08:47 18.03.2021
1338 Clear 14 1020 48 10000 1.02 207 08:29 18.03.2021
1339 Clear 14 1020 48 10000 1.02 207 07:51 18.03.2021
1340 Clear 14 1021 49 10000 1.04 248 07:24 18.03.2021
1341 Clear 13 1021 45 10000 0.69 298 06:28 18.03.2021
1342 Clear 13 1021 45 10000 0.69 298 05:53 18.03.2021
1343 Clear 5 1024 52 10000 3.91 31 01:24 18.03.2021
1344 Clear 5 1023 53 10000 3.79 31 23:59 17.03.2021
1345 Clear 5 1022 53 10000 3.88 30 22:54 17.03.2021
1346 Clear 5 1022 54 10000 4.01 27 22:26 17.03.2021
1347 Clear 5 1022 54 10000 4.01 27 21:57 17.03.2021
1348 Clear 5 1022 54 10000 4.01 27 21:39 17.03.2021
1349 Clouds 5 1022 55 10000 4.05 29 21:19 17.03.2021
1350 Clouds 5 1022 55 10000 4.05 29 20:43 17.03.2021
1351 Clouds 5 1023 57 10000 3.85 27 20:24 17.03.2021
1352 Clouds 5 1023 57 10000 3.85 27 19:46 17.03.2021
1353 Clouds 6 1022 61 10000 3.73 29 19:22 17.03.2021
1354 Clouds 7 1022 61 10000 3.39 28 18:55 17.03.2021
1355 Clouds 7 1022 61 10000 3.39 28 18:37 17.03.2021
1356 Clouds 7 1021 64 10000 3.65 32 17:56 17.03.2021
1357 Clouds 7 1021 67 10000 3.94 35 17:27 17.03.2021
1358 Clouds 7 1021 67 10000 3.94 35 16:54 17.03.2021
1359 Clouds 7 1021 67 10000 3.94 35 16:36 17.03.2021
1360 Clouds 7 1020 70 10000 3.45 39 16:18 17.03.2021
1361 Clouds 7 1020 70 10000 3.45 39 15:37 17.03.2021
1362 Clouds 7 1018 74 10000 2.4 47 14:45 17.03.2021
1363 Clouds 9 1017 80 10000 0.81 43 14:27 17.03.2021
1364 Clouds 9 1017 80 10000 0.81 43 13:56 17.03.2021
1365 Clouds 9 1017 80 10000 0.81 43 13:32 17.03.2021
1366 Clouds 11 1016 79 6470 0.26 232 12:58 17.03.2021
1367 Clouds 11 1016 80 8077 0.32 19 12:34 17.03.2021
1368 Clouds 11 1015 76 5892 0.8 282 11:53 17.03.2021
1369 Clouds 13 1015 60 6492 2.02 242 11:24 17.03.2021
1370 Clouds 13 1015 60 6492 2.02 242 10:57 17.03.2021
1371 Clouds 13 1015 60 6492 2.02 242 10:34 17.03.2021
1372 Clouds 14 1015 53 10000 2.02 219 09:50 17.03.2021
1373 Clouds 14 1015 53 10000 2.02 219 09:32 17.03.2021
1374 Clouds 14 1017 51 10000 1.47 206 09:00 17.03.2021
1375 Clouds 14 1017 51 10000 1.47 206 08:39 17.03.2021
1376 Clouds 14 1018 51 10000 1.17 216 08:20 17.03.2021
1377 Clouds 14 1018 51 10000 1.17 216 07:36 17.03.2021
1378 Clouds 14 1019 51 10000 0.78 236 06:47 17.03.2021
1379 Clouds 10 1021 56 10000 2.71 23 04:27 17.03.2021
1380 Clouds 10 1021 56 10000 2.71 23 03:30 17.03.2021
1381 Clouds 6 1020 60 10000 4.2 24 00:43 17.03.2021
1382 Clouds 7 1020 60 10000 3.96 29 00:20 17.03.2021
1383 Clouds 8 1020 60 10000 3.63 33 23:22 16.03.2021
1384 Clouds 8 1020 60 10000 3.63 33 22:44 16.03.2021
1385 Clouds 8 1020 59 10000 3.48 33 22:25 16.03.2021
1386 Clouds 8 1020 59 10000 3.48 33 21:43 16.03.2021
1387 Clouds 8 1021 59 10000 3.11 28 21:25 16.03.2021
1388 Clouds 8 1021 59 10000 3.11 28 20:56 16.03.2021
1389 Clouds 8 1021 62 10000 3.25 28 20:19 16.03.2021
1390 Clouds 8 1021 62 10000 3.25 28 19:48 16.03.2021
1391 Clouds 7 1022 67 10000 3.42 29 19:27 16.03.2021
1392 Clouds 7 1022 67 10000 3.42 29 18:53 16.03.2021
1393 Clouds 8 1022 65 10000 3.31 31 18:35 16.03.2021
1394 Clouds 7 1022 68 10000 3.34 33 17:52 16.03.2021
1395 Clouds 7 1022 68 10000 3.34 33 17:33 16.03.2021
1396 Clouds 8 1021 70 10000 3.2 36 16:54 16.03.2021
1397 Clouds 8 1021 70 10000 3.2 36 16:54 16.03.2021
1398 Clouds 8 1021 70 10000 3.2 36 16:31 16.03.2021
1399 Clouds 8 1021 72 10000 3.12 40 15:59 16.03.2021
1400 Clouds 8 1021 72 10000 3.12 40 15:39 16.03.2021
1401 Clouds 8 1020 74 10000 2.54 41 15:19 16.03.2021
1402 Clouds 8 1020 74 10000 2.54 41 14:56 16.03.2021
1403 Clouds 8 1020 74 10000 2.54 41 14:37 16.03.2021
1404 Clouds 9 1018 76 10000 0.85 28 14:18 16.03.2021
1405 Clouds 9 1018 76 10000 0.85 28 13:41 16.03.2021
1406 Clouds 11 1017 75 10000 0.96 257 13:19 16.03.2021
1407 Clouds 11 1017 75 10000 0.96 257 12:38 16.03.2021
1408 Clouds 13 1015 64 9310 2.26 228 12:18 16.03.2021
1409 Clouds 13 1015 64 9310 2.26 228 11:35 16.03.2021
1410 Clouds 14 1016 54 10000 2.36 217 10:50 16.03.2021
1411 Clouds 14 1016 50 10000 2.02 203 10:21 16.03.2021
1412 Clouds 14 1016 50 10000 2.02 203 10:21 16.03.2021
1413 Clouds 14 1016 50 10000 2.02 203 09:41 16.03.2021
1414 Clear 15 1018 49 10000 1.57 194 09:21 16.03.2021
1415 Clear 15 1018 49 10000 1.57 194 08:57 16.03.2021
1416 Clear 15 1018 49 10000 1.57 194 08:39 16.03.2021
1417 Clear 14 1019 48 10000 1.26 205 07:57 16.03.2021
1418 Clear 14 1019 48 10000 1.26 205 07:30 16.03.2021
1419 Clear 14 1020 37 10000 0.7 238 06:38 16.03.2021
1420 Clear 13 1021 41 10000 0.64 357 05:37 16.03.2021
1421 Clouds 12 1022 47 10000 2 22 05:18 16.03.2021
1422 Clouds 6 1023 56 10000 4.56 30 02:44 16.03.2021
1423 Clouds 5 1023 58 10000 4.62 29 01:59 16.03.2021
1424 Clouds 6 1021 57 10000 4.08 28 23:56 15.03.2021
1425 Clouds 6 1022 56 10000 3.98 27 23:28 15.03.2021
1426 Clouds 6 1022 56 10000 3.98 27 22:50 15.03.2021
1427 Clouds 6 1022 56 10000 3.98 27 22:31 15.03.2021
1428 Clouds 6 1022 56 10000 4.03 28 21:54 15.03.2021
1429 Clouds 6 1022 56 10000 4.03 28 21:34 15.03.2021
1430 Clouds 6 1022 56 10000 4.2 29 20:57 15.03.2021
1431 Clouds 6 1022 56 10000 4.2 29 20:39 15.03.2021
1432 Clear 6 1022 57 10000 4.39 29 20:21 15.03.2021
1433 Clear 6 1022 57 10000 4.39 29 19:49 15.03.2021
1434 Clear 6 1022 57 10000 4.39 29 19:49 15.03.2021
1435 Clear 6 1022 57 10000 4.39 29 19:31 15.03.2021
1436 Clouds 6 1022 58 10000 4.18 29 18:50 15.03.2021
1437 Clouds 6 1022 59 10000 4.23 31 18:26 15.03.2021
1438 Clouds 6 1022 59 10000 4.23 31 17:56 15.03.2021
1439 Clouds 6 1022 59 10000 4.23 31 17:32 15.03.2021
1440 Clouds 6 1021 61 10000 3.91 28 16:52 15.03.2021
1441 Clouds 6 1021 61 10000 3.91 28 16:34 15.03.2021
1442 Clouds 7 1020 62 10000 3.43 32 15:46 15.03.2021
1443 Clouds 8 1019 64 10000 2.36 48 15:26 15.03.2021
1444 Clouds 8 1019 64 10000 2.36 48 14:45 15.03.2021
1445 Clouds 8 1018 67 10000 0.78 111 14:23 15.03.2021
1446 Clouds 8 1018 67 10000 0.78 111 13:49 15.03.2021
1447 Clouds 11 1016 62 10000 1.9 188 13:27 15.03.2021
1448 Clouds 11 1016 62 10000 1.9 188 12:50 15.03.2021
1449 Clouds 14 1015 55 10000 2.62 190 12:20 15.03.2021
1450 Clouds 14 1015 55 10000 2.62 190 11:56 15.03.2021
1451 Clouds 14 1015 55 10000 2.62 190 11:37 15.03.2021
1452 Clouds 15 1015 45 10000 2.87 190 10:59 15.03.2021
1453 Clouds 15 1015 45 10000 2.87 190 10:33 15.03.2021
1454 Clouds 15 1016 42 10000 2.4 192 09:54 15.03.2021
1455 Clouds 15 1016 42 10000 2.4 192 09:36 15.03.2021
1456 Clouds 15 1017 41 10000 2.01 194 08:59 15.03.2021
1457 Clouds 15 1017 41 10000 2.01 194 08:40 15.03.2021
1458 Clouds 15 1018 44 10000 1.74 210 08:19 15.03.2021
1459 Clouds 15 1018 44 10000 1.74 210 07:32 15.03.2021
1460 Clear 15 1019 31 10000 1.38 232 06:44 15.03.2021
1461 Clear 14 1020 39 10000 0.81 343 05:34 15.03.2021
1462 Clear 4 1022 38 10000 5.7 31 01:47 15.03.2021
1463 Clear 4 1022 40 10000 5.75 30 00:21 15.03.2021
1464 Clear 5 1022 41 10000 5.7 30 23:21 14.03.2021
1465 Clear 5 1022 41 10000 5.7 30 22:48 14.03.2021
1466 Clear 5 1023 42 10000 5.43 29 22:25 14.03.2021
1467 Clear 5 1023 42 10000 5.43 29 21:51 14.03.2021
1468 Clear 5 1023 44 10000 5.23 28 21:22 14.03.2021
1469 Clear 5 1023 44 10000 5.23 28 20:50 14.03.2021
1470 Clear 6 1024 47 10000 5.12 27 20:27 14.03.2021
1471 Clear 6 1024 47 10000 5.12 27 19:56 14.03.2021
1472 Clear 6 1024 47 10000 5.12 27 19:37 14.03.2021
1473 Clouds 6 1024 49 10000 4.98 27 19:18 14.03.2021
1474 Clouds 6 1023 54 10000 4.7 27 18:31 14.03.2021
1475 Clouds 7 1023 58 10000 4.45 29 17:44 14.03.2021
1476 Clouds 7 1022 62 10000 4.01 32 17:24 14.03.2021
1477 Clouds 7 1022 62 10000 4.01 32 16:54 14.03.2021
1478 Clouds 7 1022 62 10000 4.01 32 16:35 14.03.2021
1479 Clouds 7 1021 67 10000 3.36 35 15:59 14.03.2021
1480 Clouds 7 1021 67 10000 3.36 35 15:40 14.03.2021
1481 Clouds 8 1019 71 10000 1.84 61 14:51 14.03.2021
1482 Clouds 8 1018 71 10000 0.92 180 14:29 14.03.2021
1483 Clouds 8 1018 71 10000 0.92 180 13:52 14.03.2021
1484 Clouds 8 1018 71 10000 0.92 180 13:33 14.03.2021
1485 Clouds 12 1016 63 10000 2.27 207 12:48 14.03.2021
1486 Clouds 14 1015 59 10000 2.73 204 12:29 14.03.2021
1487 Clouds 14 1015 59 10000 2.73 204 11:59 14.03.2021
1488 Clouds 14 1015 59 10000 2.73 204 11:37 14.03.2021
1489 Clouds 15 1015 55 10000 3.12 198 11:18 14.03.2021
1490 Clouds 15 1015 55 10000 3.12 198 10:38 14.03.2021
1491 Clouds 16 1015 53 10000 3.37 194 10:19 14.03.2021
1492 Clouds 16 1015 53 10000 3.37 194 09:55 14.03.2021
1493 Clouds 16 1015 53 10000 3.37 194 09:36 14.03.2021
1494 Clouds 16 1015 53 10000 3.37 194 09:36 14.03.2021
1495 Clear 16 1017 53 10000 2.82 192 09:18 14.03.2021
1496 Clear 16 1017 53 10000 2.82 192 08:36 14.03.2021
1497 Clear 15 1018 52 10000 2.29 194 07:52 14.03.2021
1498 Clouds 15 1019 51 10000 2.01 212 07:22 14.03.2021
1499 Clouds 15 1019 51 10000 0.7 268 05:33 14.03.2021
1500 Clouds 6 1022 42 10000 4.58 29 00:59 14.03.2021
1501 Clouds 6 1022 42 10000 4.81 27 00:20 14.03.2021
1502 Clouds 6 1022 42 10000 4.81 27 23:57 13.03.2021
1503 Clouds 6 1022 42 10000 4.81 27 23:37 13.03.2021
1504 Clouds 6 1022 43 10000 4.81 26 23:18 13.03.2021
1505 Clouds 6 1022 43 10000 4.81 26 22:43 13.03.2021
1506 Clouds 6 1023 46 10000 4.99 26 21:50 13.03.2021
1507 Clouds 6 1023 46 10000 4.99 26 21:30 13.03.2021
1508 Clouds 7 1024 48 10000 4.95 26 20:56 13.03.2021
1509 Clouds 7 1024 48 10000 4.95 26 20:32 13.03.2021
1510 Clouds 7 1024 49 10000 4.98 28 19:58 13.03.2021
1511 Clouds 7 1024 49 10000 4.98 28 19:37 13.03.2021
1512 Clouds 6 1024 49 10000 4.69 26 19:18 13.03.2021
1513 Clouds 6 1024 49 10000 4.69 26 18:40 13.03.2021
1514 Clouds 6 1024 50 10000 4.67 26 18:19 13.03.2021
1515 Clouds 6 1024 50 10000 4.67 26 17:46 13.03.2021
1516 Clouds 7 1024 52 10000 4.75 26 17:27 13.03.2021
1517 Clouds 7 1024 52 10000 4.75 26 16:51 13.03.2021
1518 Clouds 7 1024 52 10000 4.75 26 16:33 13.03.2021
1519 Clouds 7 1024 53 10000 4.44 26 15:54 13.03.2021
1520 Clouds 8 1023 55 10000 4.04 29 14:58 13.03.2021
1521 Clouds 8 1023 55 10000 4.04 29 14:40 13.03.2021
1522 Clouds 9 1022 58 10000 2.29 37 14:18 13.03.2021
1523 Clouds 11 1020 57 10000 0.26 129 13:26 13.03.2021
1524 Clouds 12 1020 57 10000 0.88 41 12:52 13.03.2021
1525 Clouds 12 1020 57 10000 0.88 41 12:30 13.03.2021
1526 Clouds 14 1020 59 10000 0.29 249 11:53 13.03.2021
1527 Clouds 14 1020 59 10000 0.29 249 11:32 13.03.2021
1528 Clouds 14 1020 60 10000 0.18 195 10:56 13.03.2021
1529 Clouds 14 1020 60 10000 0.18 195 10:31 13.03.2021
1530 Clouds 15 1022 60 10000 0.15 181 09:59 13.03.2021
1531 Clouds 15 1022 60 10000 0.15 181 09:31 13.03.2021
1532 Clear 15 1023 60 10000 0.89 229 08:54 13.03.2021
1533 Clear 14 1025 60 10000 0.89 238 08:20 13.03.2021
1534 Clear 14 1025 60 10000 0.89 238 07:57 13.03.2021
1535 Clear 14 1025 57 10000 0.39 10 07:28 13.03.2021
1536 Clear 11 1027 50 10000 3.11 27 05:29 13.03.2021
1537 Clouds 3 1029 53 10000 5.68 30 01:22 13.03.2021
1538 Clouds 4 1029 54 10000 5.73 31 00:24 13.03.2021
1539 Clouds 4 1029 54 10000 5.73 31 23:33 12.03.2021
1540 Clouds 4 1029 54 10000 5.81 31 22:57 12.03.2021
1541 Clouds 4 1029 54 10000 5.81 31 22:30 12.03.2021
1542 Clouds 4 1030 56 10000 5.72 27 21:56 12.03.2021
1543 Clouds 4 1030 56 10000 5.72 27 21:56 12.03.2021
1544 Clouds 4 1030 56 10000 5.72 27 21:37 12.03.2021
1545 Clouds 4 1030 56 10000 5.72 27 21:37 12.03.2021
1546 Clouds 4 1030 56 10000 5.72 27 21:37 12.03.2021
1547 Clouds 4 1030 56 10000 5.56 25 21:18 12.03.2021
1548 Clouds 4 1030 56 10000 5.56 25 20:47 12.03.2021
1549 Clouds 5 1030 57 10000 4.76 29 20:22 12.03.2021
1550 Clouds 5 1030 57 10000 4.76 29 19:44 12.03.2021
1551 Clouds 5 1030 59 10000 4.53 20 19:25 12.03.2021
1552 Clouds 6 1029 66 10000 4.29 27 18:47 12.03.2021
1553 Clouds 6 1029 67 10000 3.61 29 18:25 12.03.2021
1554 Clouds 6 1029 67 10000 3.61 29 17:44 12.03.2021
1555 Clouds 7 1028 70 10000 3.71 27 17:26 12.03.2021
1556 Clouds 7 1028 70 10000 3.71 27 16:44 12.03.2021
1557 Clouds 7 1027 76 10000 3.86 26 16:24 12.03.2021
1558 Clouds 7 1027 76 10000 3.86 26 15:38 12.03.2021
1559 Clouds 7 1026 82 9425 3.06 21 14:58 12.03.2021
1560 Clouds 7 1026 82 9425 3.06 21 14:38 12.03.2021
1561 Clouds 7 1024 80 5388 1.07 27 14:18 12.03.2021
1562 Clouds 7 1024 80 5388 1.07 27 13:38 12.03.2021
1563 Clouds 9 1022 75 10000 0.94 12 13:19 12.03.2021
1564 Clouds 9 1022 70 10000 0.71 347 12:49 12.03.2021
1565 Clouds 11 1021 64 10000 0.82 14 12:28 12.03.2021
1566 Rain 11 1021 64 10000 0.82 14 11:54 12.03.2021
1567 Clouds 11 1021 64 10000 0.82 14 11:30 12.03.2021
1568 Clouds 11 1022 60 10000 0.44 344 10:57 12.03.2021
1569 Clouds 12 1022 65 8328 1.09 229 10:28 12.03.2021
1570 Clouds 12 1022 65 8328 1.09 229 09:58 12.03.2021
1571 Clouds 12 1023 62 8228 2.37 223 09:28 12.03.2021
1572 Clouds 12 1023 62 8228 2.37 223 08:51 12.03.2021
1573 Clouds 12 1023 62 8228 2.37 223 08:33 12.03.2021
1574 Clouds 13 1024 56 10000 2.36 218 07:41 12.03.2021
1575 Clouds 13 1025 51 10000 1.24 209 07:19 12.03.2021
1576 Rain 13 1025 51 10000 1.24 209 06:40 12.03.2021
1577 Clouds 5 1029 49 10000 5.3 34 03:29 12.03.2021
1578 Clouds 5 1028 52 10000 5.24 33 00:52 12.03.2021
1579 Clouds 4 1027 52 10000 5.01 31 23:40 11.03.2021
1580 Clouds 4 1027 52 10000 4.8 32 22:58 11.03.2021
1581 Clouds 4 1027 52 10000 4.8 32 22:38 11.03.2021
1582 Clouds 4 1028 51 10000 4.8 30 22:18 11.03.2021
1583 Clouds 4 1028 51 10000 4.8 30 21:42 11.03.2021
1584 Clear 4 1028 50 10000 4.84 31 21:21 11.03.2021
1585 Clear 4 1028 50 10000 4.84 31 20:48 11.03.2021
1586 Clear 4 1028 49 10000 4.88 31 20:22 11.03.2021
1587 Clear 4 1028 49 10000 4.88 31 19:48 11.03.2021
1588 Clear 4 1028 49 10000 4.88 31 19:30 11.03.2021
1589 Clouds 5 1027 52 10000 4.79 31 18:51 11.03.2021
1590 Clouds 5 1027 52 10000 4.79 31 18:33 11.03.2021
1591 Clouds 5 1027 50 10000 4.91 33 17:52 11.03.2021
1592 Clouds 5 1027 50 10000 4.91 33 17:30 11.03.2021
1593 Clouds 5 1026 51 10000 4.66 35 16:32 11.03.2021
1594 Clouds 6 1025 51 10000 4.34 39 15:55 11.03.2021
1595 Clouds 6 1025 51 10000 4.34 39 15:37 11.03.2021
1596 Clouds 6 1023 51 10000 3.85 40 15:19 11.03.2021
1597 Clouds 6 1023 51 10000 3.85 40 14:38 11.03.2021
1598 Clouds 7 1021 51 10000 1.83 60 14:18 11.03.2021
1599 Clouds 7 1021 51 10000 1.83 60 13:43 11.03.2021
1600 Clouds 10 1020 51 10000 0.93 161 13:21 11.03.2021
1601 Clouds 10 1020 51 10000 0.93 161 12:49 11.03.2021
1602 Clouds 13 1018 55 10000 1.77 182 12:27 11.03.2021
1603 Clouds 13 1018 55 10000 1.77 182 11:45 11.03.2021
1604 Clouds 14 1019 55 10000 2.19 182 11:27 11.03.2021
1605 Clouds 14 1019 36 10000 2.19 182 10:50 11.03.2021
1606 Clouds 14 1019 36 10000 2.36 185 10:22 11.03.2021
1607 Clouds 14 1019 36 10000 2.36 185 09:48 11.03.2021
1608 Clouds 13 1020 36 10000 2.14 191 09:29 11.03.2021
1609 Clouds 13 1020 36 10000 2.14 191 08:48 11.03.2021
1610 Clouds 13 1022 36 10000 2.14 203 08:24 11.03.2021
1611 Clouds 13 1022 36 10000 2.14 203 07:44 11.03.2021
1612 Clouds 13 1022 36 10000 1.1 224 06:51 11.03.2021
1613 Clouds 13 1022 36 10000 1.1 224 06:32 11.03.2021
1614 Clouds 12 1023 37 10000 1.02 12 05:47 11.03.2021
1615 Clouds 2 1026 60 10000 5.85 31 02:20 11.03.2021
1616 Clear 2 1025 63 10000 5.52 30 23:56 10.03.2021
1617 Clear 2 1025 63 10000 5.57 27 23:22 10.03.2021
1618 Clear 2 1025 63 10000 5.57 27 22:40 10.03.2021
1619 Clear 3 1025 63 10000 5.32 29 21:58 10.03.2021
1620 Clear 3 1025 63 10000 5.32 29 21:39 10.03.2021
1621 Clear 3 1025 63 10000 5.12 28 21:20 10.03.2021
1622 Clouds 4 1025 62 10000 4.87 29 20:42 10.03.2021
1623 Clear 4 1025 61 10000 4.63 28 20:23 10.03.2021
1624 Clear 4 1025 61 10000 4.63 28 19:40 10.03.2021
1625 Clouds 4 1024 61 10000 4.18 28 19:21 10.03.2021
1626 Clouds 4 1024 61 10000 4.18 28 18:44 10.03.2021
1627 Clouds 5 1024 61 10000 3.83 33 18:23 10.03.2021
1628 Clouds 5 1024 61 10000 3.83 33 17:43 10.03.2021
1629 Clouds 5 1023 60 10000 3.52 31 17:21 10.03.2021
1630 Clouds 5 1023 60 10000 3.52 31 16:55 10.03.2021
1631 Clouds 5 1023 60 10000 3.52 31 16:37 10.03.2021
1632 Clouds 5 1022 60 10000 3.34 26 16:18 10.03.2021
1633 Clouds 5 1022 60 10000 3.34 26 15:40 10.03.2021
1634 Clouds 6 1020 60 10000 2.98 32 15:21 10.03.2021
1635 Clouds 6 1020 60 10000 2.98 32 14:41 10.03.2021
1636 Clouds 6 1019 58 10000 1.71 45 14:19 10.03.2021
1637 Clouds 6 1019 58 10000 1.71 45 13:46 10.03.2021
1638 Clouds 10 1018 48 9418 1.07 145 13:24 10.03.2021
1639 Clouds 10 1018 48 2482 0.95 183 12:44 10.03.2021
1640 Clouds 11 1017 44 4497 1.94 213 12:18 10.03.2021
1641 Clouds 11 1017 44 4497 1.94 213 11:32 10.03.2021
1642 Clouds 12 1017 43 9834 2.71 197 10:57 10.03.2021
1643 Clouds 12 1017 43 9834 2.71 197 10:37 10.03.2021
1644 Clouds 11 1018 44 4721 3.56 197 10:19 10.03.2021
1645 Clouds 11 1018 44 4721 3.56 197 09:42 10.03.2021
1646 Clouds 12 1019 42 4462 3.15 205 09:21 10.03.2021
1647 Clouds 12 1019 42 4462 3.15 205 08:50 10.03.2021
1648 Clouds 12 1020 40 6930 2.89 211 08:28 10.03.2021
1649 Clouds 12 1020 40 6930 2.89 211 07:58 10.03.2021
1650 Clouds 13 1020 39 10000 2.22 207 07:30 10.03.2021
1651 Clear 13 1021 38 10000 1.15 234 06:56 10.03.2021
1652 Clear 12 1022 39 10000 0.62 343 06:25 10.03.2021
1653 Clouds 3 1026 60 10000 5.61 31 02:27 10.03.2021
1654 Clear 3 1026 59 10000 5.38 29 23:49 09.03.2021
1655 Clear 3 1026 59 10000 5.34 28 23:20 09.03.2021
1656 Clear 3 1026 59 10000 5.34 28 22:39 09.03.2021
1657 Clear 3 1026 59 10000 5.3 29 22:21 09.03.2021
1658 Clear 3 1026 59 10000 5.3 29 21:46 09.03.2021
1659 Clear 3 1026 58 10000 5.11 29 21:25 09.03.2021
1660 Clear 3 1026 58 10000 5.11 29 20:58 09.03.2021
1661 Clear 3 1026 58 10000 5.11 29 20:40 09.03.2021
1662 Clear 3 1026 58 10000 5.1 29 20:21 09.03.2021
1663 Clear 3 1026 58 10000 5.1 29 19:47 09.03.2021
1664 Clear 4 1026 57 10000 5.05 29 19:26 09.03.2021
1665 Clear 4 1026 57 10000 4.99 29 18:48 09.03.2021
1666 Clear 4 1026 57 10000 4.83 30 18:26 09.03.2021
1667 Clear 4 1026 57 10000 4.83 30 17:53 09.03.2021
1668 Clear 4 1026 57 10000 4.83 30 17:31 09.03.2021
1669 Clear 4 1025 57 10000 4.87 32 16:55 09.03.2021
1670 Clear 4 1025 57 10000 4.87 32 16:36 09.03.2021
1671 Clear 5 1024 56 10000 4.79 33 16:18 09.03.2021
1672 Clear 5 1024 56 10000 4.79 33 15:43 09.03.2021
1673 Clouds 6 1023 55 10000 4.28 36 15:20 09.03.2021
1674 Clouds 7 1021 53 10000 2.31 26 14:28 09.03.2021
1675 Clouds 7 1021 53 10000 2.31 26 13:57 09.03.2021
1676 Clouds 7 1021 53 10000 2.31 26 13:38 09.03.2021
1677 Clouds 10 1019 44 10000 0.76 271 13:19 09.03.2021
1678 Clouds 10 1019 45 10000 1 310 12:39 09.03.2021
1679 Clouds 13 1018 39 10000 1.13 242 12:18 09.03.2021
1680 Clouds 13 1018 39 10000 1.13 242 11:41 09.03.2021
1681 Clouds 13 1018 38 10000 1.37 203 11:21 09.03.2021
1682 Clouds 13 1018 38 10000 1.37 203 10:54 09.03.2021
1683 Clouds 13 1018 38 10000 1.37 203 10:36 09.03.2021
1684 Clouds 13 1019 38 10000 1.35 187 10:18 09.03.2021
1685 Clouds 13 1019 38 10000 1.35 187 09:41 09.03.2021
1686 Clear 13 1020 37 10000 1.48 194 09:22 09.03.2021
1687 Clear 13 1020 37 10000 1.48 194 08:37 09.03.2021
1688 Clear 13 1021 37 10000 1.42 219 08:18 09.03.2021
1689 Clear 13 1021 37 10000 1.42 219 07:37 09.03.2021
1690 Clear 13 1023 38 10000 0.59 269 07:19 09.03.2021
1691 Clear 12 1024 39 10000 1.65 14 05:55 09.03.2021
1692 Clear 12 1024 39 10000 1.65 14 05:37 09.03.2021
1693 Clouds 4 1026 62 10000 4.31 29 00:30 09.03.2021
1694 Clouds 4 1026 62 10000 4.31 29 23:43 08.03.2021
1695 Clouds 4 1026 62 10000 4.18 26 23:25 08.03.2021
1696 Clouds 4 1026 62 10000 4.18 26 22:48 08.03.2021
1697 Clouds 4 1026 62 10000 3.92 21 22:29 08.03.2021
1698 Clouds 4 1026 62 10000 3.92 21 21:56 08.03.2021
1699 Clouds 4 1026 62 10000 3.92 21 21:35 08.03.2021
1700 Clouds 4 1026 62 10000 3.73 22 20:48 08.03.2021
1701 Clouds 4 1026 62 10000 3.89 24 20:27 08.03.2021
1702 Clouds 4 1026 62 10000 3.89 24 19:59 08.03.2021
1703 Clouds 4 1026 62 10000 3.89 24 19:36 08.03.2021
1704 Clouds 5 1026 59 10000 4.04 33 18:42 08.03.2021
1705 Clouds 5 1025 60 10000 4.01 30 18:23 08.03.2021
1706 Clouds 5 1025 60 10000 4.01 30 17:56 08.03.2021
1707 Clouds 5 1025 60 10000 4.01 30 17:38 08.03.2021
1708 Clouds 5 1024 61 10000 4.22 29 16:55 08.03.2021
1709 Clear 5 1023 61 10000 3.92 33 16:29 08.03.2021
1710 Clear 5 1023 61 10000 3.92 33 15:52 08.03.2021
1711 Clear 5 1023 61 10000 3.92 33 15:30 08.03.2021
1712 Clouds 5 1022 61 10000 3.4 33 14:51 08.03.2021
1713 Clouds 6 1020 59 10000 1.55 51 14:20 08.03.2021
1714 Clouds 6 1020 59 10000 1.55 51 13:44 08.03.2021
1715 Clouds 10 1018 49 10000 0.87 179 13:21 08.03.2021
1716 Clouds 10 1018 49 10000 0.87 179 12:49 08.03.2021
1717 Clouds 12 1017 44 10000 1.73 197 12:28 08.03.2021
1718 Clouds 12 1017 44 10000 1.73 197 11:44 08.03.2021
1719 Clouds 12 1017 44 10000 1.89 207 11:19 08.03.2021
1720 Clouds 12 1017 44 10000 1.89 207 10:44 08.03.2021
1721 Clouds 12 1017 44 10000 2.17 203 10:26 08.03.2021
1722 Clouds 12 1017 44 10000 2.17 203 09:45 08.03.2021
1723 Clouds 12 1018 43 10000 2.3 205 09:23 08.03.2021
1724 Clouds 12 1018 43 10000 2.3 205 08:30 08.03.2021
1725 Clouds 12 1019 43 10000 2.05 203 07:48 08.03.2021
1726 Clouds 12 1020 46 10000 2.01 206 07:20 08.03.2021
1727 Clouds 11 1021 46 10000 0.78 348 05:18 08.03.2021
1728 Clouds 5 1019 62 10000 3.01 11 01:27 08.03.2021
1729 Clouds 5 1019 62 10000 3.01 11 01:27 08.03.2021
1730 Clouds 5 1019 62 10000 3.01 11 00:38 08.03.2021
1731 Clouds 7 1017 58 6678 0.93 337 23:51 07.03.2021
1732 Clouds 8 1017 57 1996 1 261 23:20 07.03.2021
1733 Clouds 8 1017 57 1996 1 261 22:45 07.03.2021
1734 Clouds 8 1018 57 983 1.18 258 22:26 07.03.2021
1735 Clouds 8 1018 57 983 1.18 258 21:49 07.03.2021
1736 Rain 8 1018 57 983 1.18 258 21:30 07.03.2021
1737 Clouds 8 1018 56 1701 1.43 254 20:50 07.03.2021
1738 Clouds 8 1018 56 1701 1.43 254 20:32 07.03.2021
1739 Clouds 8 1019 55 4419 0.43 245 19:59 07.03.2021
1740 Clouds 8 1019 55 4419 0.43 245 19:39 07.03.2021
1741 Clouds 9 1017 56 1524 3.04 205 19:21 07.03.2021
1742 Clouds 8 1019 56 2838 0.9 204 18:48 07.03.2021
1743 Clouds 9 1017 55 3440 2.54 183 18:20 07.03.2021
1744 Clouds 9 1017 55 3440 2.54 183 17:56 07.03.2021
1745 Clouds 9 1017 55 3440 2.54 183 17:37 07.03.2021
1746 Clouds 9 1017 55 3341 2.07 180 17:18 07.03.2021
1747 Clouds 9 1017 55 3341 2.07 180 16:39 07.03.2021
1748 Clouds 9 1017 55 2928 2.04 183 16:20 07.03.2021
1749 Clouds 9 1017 55 2928 2.04 183 15:46 07.03.2021
1750 Clouds 9 1016 56 1540 2.37 196 15:28 07.03.2021
1751 Clouds 9 1016 56 1540 2.37 196 14:46 07.03.2021
1752 Clouds 10 1015 57 1199 4.19 179 14:28 07.03.2021
1753 Clouds 10 1015 57 1199 4.19 179 13:44 07.03.2021
1754 Clouds 11 1013 52 2076 3.8 208 13:24 07.03.2021
1755 Clouds 11 1013 52 2076 3.8 208 12:47 07.03.2021
1756 Clouds 11 1013 51 2094 3.88 210 12:29 07.03.2021
1757 Clouds 11 1013 51 2094 3.88 210 11:52 07.03.2021
1758 Clouds 12 1013 49 2340 2.86 174 11:23 07.03.2021
1759 Clouds 12 1013 49 2340 2.86 174 10:50 07.03.2021
1760 Clouds 12 1013 49 2340 2.86 174 10:31 07.03.2021
1761 Clouds 11 1014 52 1839 3.27 191 09:51 07.03.2021
1762 Clouds 12 1015 49 1817 4.45 222 09:26 07.03.2021
1763 Clouds 12 1015 49 1817 4.45 222 08:48 07.03.2021
1764 Clouds 12 1016 48 3831 3.47 196 08:25 07.03.2021
1765 Clouds 12 1016 48 3831 3.47 196 07:51 07.03.2021
1766 Clouds 8 1017 55 10000 1.74 34 02:43 07.03.2021
1767 Clouds 8 1017 57 1833 1.65 356 01:45 07.03.2021
1768 Clouds 7 1016 58 1547 1.8 354 23:56 06.03.2021
1769 Clouds 7 1016 58 1547 1.8 354 23:37 06.03.2021
1770 Clouds 7 1017 59 1745 1.93 36 22:57 06.03.2021
1771 Clouds 7 1017 59 1745 1.93 36 22:38 06.03.2021
1772 Clouds 7 1018 60 1423 1.78 35 22:19 06.03.2021
1773 Clouds 7 1019 59 1290 1.7 39 21:25 06.03.2021
1774 Rain 7 1019 59 1290 1.7 39 20:59 06.03.2021
1775 Clouds 7 1019 59 1290 1.7 39 20:40 06.03.2021
1776 Clouds 7 1020 58 5409 1.66 38 19:51 06.03.2021
1777 Clouds 7 1020 58 3110 2.57 34 19:23 06.03.2021
1778 Rain 7 1020 58 3477 2.75 40 18:57 06.03.2021
1779 Rain 7 1020 58 3477 2.75 40 18:38 06.03.2021
1780 Clouds 7 1020 57 5745 2.53 51 18:19 06.03.2021
1781 Clouds 7 1020 57 5745 2.53 51 17:47 06.03.2021
1782 Clouds 7 1020 56 10000 2.5 45 17:26 06.03.2021
1783 Clouds 7 1020 56 10000 2.5 45 16:52 06.03.2021
1784 Clouds 7 1020 56 10000 2.5 45 16:30 06.03.2021
1785 Clouds 7 1019 55 10000 3.27 24 15:55 06.03.2021
1786 Clouds 7 1019 55 10000 3.27 24 15:34 06.03.2021
1787 Clouds 7 1018 55 5907 2.78 19 14:55 06.03.2021
1788 Clouds 7 1018 55 5907 2.78 19 14:31 06.03.2021
1789 Clouds 8 1017 50 9139 0.89 34 13:46 06.03.2021
1790 Clouds 10 1016 45 8325 0.69 221 13:24 06.03.2021
1791 Clouds 10 1016 45 8325 0.69 221 12:49 06.03.2021
1792 Clouds 12 1015 40 10000 2.87 202 12:20 06.03.2021
1793 Clouds 12 1015 40 10000 2.87 202 11:59 06.03.2021
1794 Clouds 13 1015 37 10000 3.36 197 11:27 06.03.2021
1795 Clouds 13 1015 37 10000 3.36 197 10:54 06.03.2021
1796 Clouds 13 1015 37 10000 3.36 197 10:36 06.03.2021
1797 Clouds 14 1015 35 7348 3.46 188 09:56 06.03.2021
1798 Clouds 14 1016 34 10000 3 182 09:24 06.03.2021
1799 Clouds 14 1016 34 10000 3 182 08:54 06.03.2021
1800 Clouds 14 1017 34 10000 2.53 199 08:30 06.03.2021
1801 Clouds 14 1017 34 10000 2.48 201 07:43 06.03.2021
1802 Clear 14 1018 33 10000 1.62 211 07:21 06.03.2021
1803 Clear 13 1019 34 10000 0.56 0 05:50 06.03.2021
1804 Clear 8 1022 44 10000 4.34 24 03:47 06.03.2021
1805 Clear 3 1023 51 10000 5.88 27 01:32 06.03.2021
1806 Clear 3 1023 53 10000 6.06 29 00:46 06.03.2021
1807 Clear 2 1022 56 10000 5.98 26 23:44 05.03.2021
1808 Clear 2 1022 57 10000 6.02 28 23:19 05.03.2021
1809 Clear 2 1022 57 10000 6.02 28 22:43 05.03.2021
1810 Clear 2 1023 59 10000 5.92 27 22:20 05.03.2021
1811 Clear 2 1023 59 10000 5.92 27 21:43 05.03.2021
1812 Clear 2 1024 59 10000 5.69 28 21:25 05.03.2021
1813 Clear 2 1024 59 10000 5.69 28 20:47 05.03.2021
1814 Clear 2 1024 61 10000 5.57 28 20:25 05.03.2021
1815 Clear 2 1024 61 10000 5.57 28 19:48 05.03.2021
1816 Clouds 3 1023 61 10000 5.59 28 19:22 05.03.2021
1817 Clouds 3 1023 61 10000 5.56 27 18:52 05.03.2021
1818 Clouds 3 1023 61 10000 5.41 28 18:27 05.03.2021
1819 Clouds 3 1023 61 10000 5.41 28 17:56 05.03.2021
1820 Clouds 3 1023 61 10000 5.41 28 17:33 05.03.2021
1821 Clouds 3 1022 61 10000 4.83 29 16:44 05.03.2021
1822 Clouds 4 1021 60 10000 4.32 31 16:24 05.03.2021
1823 Clouds 4 1021 60 10000 4.32 31 15:55 05.03.2021
1824 Clouds 4 1020 58 10000 3.58 35 15:27 05.03.2021
1825 Clouds 5 1020 61 10000 3.47 31 14:53 05.03.2021
1826 Clouds 5 1020 61 10000 3.47 31 14:34 05.03.2021
1827 Clouds 6 1018 64 10000 1.1 13 13:46 05.03.2021
1828 Clouds 9 1016 59 10000 1.04 245 13:21 05.03.2021
1829 Clouds 9 1016 59 10000 1.04 245 12:47 05.03.2021
1830 Clouds 11 1015 52 10000 1.68 225 11:41 05.03.2021
1831 Clouds 12 1015 45 10000 2.05 201 11:21 05.03.2021
1832 Clouds 12 1015 45 10000 2.05 201 10:59 05.03.2021
1833 Clouds 12 1015 45 10000 2.05 201 10:39 05.03.2021
1834 Clear 12 1015 43 10000 1.47 190 10:20 05.03.2021
1835 Clear 12 1015 43 10000 1.47 190 09:46 05.03.2021
1836 Clear 12 1016 40 10000 0.83 188 09:26 05.03.2021
1837 Clear 12 1016 40 10000 0.83 188 08:40 05.03.2021
1838 Clear 12 1018 38 10000 0.47 223 08:21 05.03.2021
1839 Clear 12 1018 38 10000 0.47 223 07:37 05.03.2021
1840 Clear 11 1019 34 10000 0.36 236 06:45 05.03.2021
1841 Clear 10 1021 37 10000 0.81 10 06:27 05.03.2021
1842 Clear 1 1025 45 10000 5.3 29 01:47 05.03.2021
1843 Clear 1 1024 53 10000 5.15 29 00:26 05.03.2021
1844 Clear 2 1024 57 10000 5.01 27 23:26 04.03.2021
1845 Clear 2 1024 65 10000 5.01 27 22:38 04.03.2021
1846 Clear 2 1025 65 10000 4.88 28 21:56 04.03.2021
1847 Clear 2 1025 65 10000 4.88 28 21:37 04.03.2021
1848 Clear 3 1025 64 10000 4.69 29 21:18 04.03.2021
1849 Clear 3 1025 64 10000 4.69 29 20:41 04.03.2021
1850 Clear 3 1025 64 10000 4.46 29 20:21 04.03.2021
1851 Clear 3 1025 64 10000 4.46 29 19:53 04.03.2021
1852 Clouds 3 1025 63 10000 4.07 32 19:27 04.03.2021
1853 Clouds 3 1025 63 10000 4.35 31 18:55 04.03.2021
1854 Clouds 3 1025 63 10000 4.35 31 18:31 04.03.2021
1855 Clouds 3 1024 63 10000 4.15 32 17:59 04.03.2021
1856 Clouds 3 1024 63 10000 4.15 32 17:39 04.03.2021
1857 Clouds 4 1024 62 10000 3.92 35 17:20 04.03.2021
1858 Clouds 4 1024 62 10000 3.92 35 16:44 04.03.2021
1859 Clouds 4 1023 61 10000 3.65 38 16:24 04.03.2021
1860 Clouds 4 1023 61 10000 3.65 38 15:48 04.03.2021
1861 Clouds 5 1021 60 10000 2.84 44 15:29 04.03.2021
1862 Clouds 5 1021 60 10000 2.84 44 14:44 04.03.2021
1863 Clouds 6 1019 57 10000 0.35 80 14:18 04.03.2021
1864 Clouds 6 1019 57 10000 0.35 80 13:42 04.03.2021
1865 Clouds 9 1017 47 10000 1.09 233 13:22 04.03.2021
1866 Clouds 9 1017 47 10000 1.09 233 12:42 04.03.2021
1867 Clouds 12 1016 41 10000 1.69 218 12:18 04.03.2021
1868 Clouds 12 1016 41 10000 1.69 218 11:40 04.03.2021
1869 Clouds 12 1016 38 10000 1.65 206 11:20 04.03.2021
1870 Clouds 12 1016 49 10000 1.65 206 10:37 04.03.2021
1871 Clouds 12 1017 38 10000 1.54 193 10:18 04.03.2021
1872 Clouds 12 1018 37 10000 1.17 186 09:28 04.03.2021
1873 Clouds 12 1018 37 10000 1.17 186 08:53 04.03.2021
1874 Clouds 12 1018 37 10000 1.17 186 08:31 04.03.2021
1875 Clear 12 1020 37 10000 0.76 202 07:46 04.03.2021
1876 Clear 11 1020 38 10000 0.35 261 06:50 04.03.2021
1877 Clear 10 1021 41 10000 1.09 22 06:21 04.03.2021
1878 Clear 2 1026 64 10000 5.14 28 02:39 04.03.2021
1879 Clear 2 1025 67 10000 4.95 27 00:41 04.03.2021
1880 Clear 2 1024 65 10000 4.53 28 22:41 03.03.2021
1881 Clear 3 1024 65 10000 4.26 28 22:23 03.03.2021
1882 Clear 3 1024 65 10000 4.26 28 21:43 03.03.2021
1883 Clear 3 1024 64 10000 4.19 31 21:24 03.03.2021
1884 Clear 3 1024 64 10000 4.19 31 20:56 03.03.2021
1885 Clear 3 1024 64 10000 4.19 31 20:38 03.03.2021
1886 Clear 3 1024 64 10000 4.03 31 19:57 03.03.2021
1887 Clear 3 1024 64 10000 4.03 31 19:39 03.03.2021
1888 Clouds 4 1023 62 10000 3.3 35 19:18 03.03.2021
1889 Clouds 4 1023 62 10000 3.3 35 18:45 03.03.2021
1890 Clouds 4 1023 62 10000 3.3 35 18:45 03.03.2021
1891 Clouds 4 1022 62 10000 3.12 38 17:59 03.03.2021
1892 Clouds 4 1022 62 10000 3.12 38 17:39 03.03.2021
1893 Clouds 4 1022 62 10000 3.17 42 17:18 03.03.2021
1894 Clouds 4 1022 62 10000 3.17 42 16:39 03.03.2021
1895 Clouds 4 1021 61 10000 2.9 47 16:21 03.03.2021
1896 Clouds 4 1021 61 10000 2.9 47 15:33 03.03.2021
1897 Clouds 5 1020 60 10000 1.93 61 14:54 03.03.2021
1898 Clouds 6 1018 57 10000 1.1 157 14:29 03.03.2021
1899 Clouds 6 1018 57 10000 1.1 157 13:52 03.03.2021
1900 Clouds 6 1018 57 10000 1.1 157 13:52 03.03.2021
1901 Clouds 6 1018 57 10000 1.1 157 13:31 03.03.2021
1902 Clouds 10 1016 45 10000 2.37 201 12:44 03.03.2021
1903 Clouds 12 1015 39 10000 2.7 200 12:26 03.03.2021
1904 Clouds 12 1015 39 10000 2.7 200 11:48 03.03.2021
1905 Clouds 13 1015 37 10000 2.63 194 11:28 03.03.2021
1906 Clouds 13 1015 37 10000 2.63 194 10:50 03.03.2021
1907 Clouds 13 1015 37 10000 2.63 194 10:30 03.03.2021
1908 Clear 13 1015 37 10000 2.3 191 09:48 03.03.2021
1909 Clear 13 1017 37 10000 2.1 193 09:26 03.03.2021
1910 Clear 13 1017 37 10000 2.1 193 08:41 03.03.2021
1911 Clear 13 1018 37 10000 2.31 196 08:21 03.03.2021
1912 Clear 13 1018 37 10000 2.31 196 07:41 03.03.2021
1913 Clear 13 1018 38 10000 1.67 220 06:51 03.03.2021
1914 Clear 12 1019 37 10000 0.53 279 05:46 03.03.2021
1915 Clear 11 1020 41 10000 1.68 17 04:58 03.03.2021
1916 Clear 8 1022 47 10000 3.43 26 04:26 03.03.2021
1917 Clear 4 1022 53 10000 4.61 29 01:54 03.03.2021
1918 Clear 4 1021 52 10000 4.48 31 23:58 02.03.2021
1919 Clear 4 1021 51 10000 4.24 32 23:28 02.03.2021
1920 Clear 4 1021 51 10000 4.24 32 22:42 02.03.2021
1921 Clouds 5 1022 51 10000 4.16 33 22:19 02.03.2021
1922 Clouds 5 1022 51 10000 4.16 33 21:40 02.03.2021
1923 Clouds 5 1022 51 10000 4.16 32 21:22 02.03.2021
1924 Clouds 5 1022 51 10000 4.16 32 20:47 02.03.2021
1925 Clouds 5 1022 51 10000 4.16 32 20:47 02.03.2021
1926 Clouds 5 1022 51 10000 4.2 33 20:22 02.03.2021
1927 Clouds 5 1022 51 10000 4.2 33 19:56 02.03.2021
1928 Clouds 5 1022 51 10000 4.2 33 19:38 02.03.2021
1929 Clouds 5 1022 51 10000 4.22 33 19:18 02.03.2021
1930 Clouds 5 1022 51 10000 4.22 33 18:40 02.03.2021
1931 Clouds 5 1022 51 10000 4.33 32 18:21 02.03.2021
1932 Clouds 5 1022 51 10000 4.33 32 17:49 02.03.2021
1933 Clouds 5 1022 51 10000 4.33 32 17:30 02.03.2021
1934 Clouds 5 1022 52 10000 4.4 32 16:56 02.03.2021
1935 Clouds 5 1022 52 10000 4.4 32 16:33 02.03.2021
1936 Clouds 6 1021 51 10000 4.2 33 15:51 02.03.2021
1937 Clouds 6 1020 51 10000 3.78 34 15:25 02.03.2021
1938 Clouds 7 1019 50 10000 2.01 42 14:24 02.03.2021
1939 Clouds 7 1019 50 10000 2.01 42 13:57 02.03.2021
1940 Clouds 7 1019 50 10000 2.01 42 13:38 02.03.2021
1941 Clear 10 1018 43 10000 0.55 138 13:20 02.03.2021
1942 Clear 10 1018 43 10000 0.55 138 12:31 02.03.2021
1943 Clear 13 1017 37 10000 1.23 189 11:57 02.03.2021
1944 Clear 13 1017 37 10000 1.23 189 11:38 02.03.2021
1945 Clear 14 1017 35 10000 1.24 184 11:18 02.03.2021
1946 Clear 14 1017 35 10000 1.24 184 10:35 02.03.2021
1947 Clear 14 1018 35 10000 1.43 182 09:59 02.03.2021
1948 Clear 14 1018 35 10000 1.43 182 09:40 02.03.2021
1949 Clear 14 1019 35 10000 1.59 191 09:19 02.03.2021
1950 Clear 14 1019 35 10000 1.59 191 08:38 02.03.2021
1951 Clear 14 1020 35 10000 1.04 217 07:58 02.03.2021
1952 Clear 14 1020 35 10000 1.04 217 07:38 02.03.2021
1953 Clear 14 1022 35 10000 0.94 8 06:34 02.03.2021
1954 Clear 12 1023 37 10000 2.85 18 05:46 02.03.2021
1955 Clear 9 1025 43 10000 4.43 24 05:27 02.03.2021
1956 Clear 1 1028 54 10000 6.72 28 01:45 02.03.2021
1957 Clear 1 1027 55 10000 6.62 28 01:27 02.03.2021
1958 Clear 1 1028 55 10000 6.78 28 00:39 02.03.2021
1959 Clear 0 1027 57 10000 6.36 29 23:28 01.03.2021
1960 Clear 0 1027 57 10000 6.36 29 22:42 01.03.2021
1961 Clear 0 1028 58 10000 6.18 29 22:22 01.03.2021
1962 Clear 0 1028 58 10000 6.18 29 21:50 01.03.2021
1963 Clear 0 1028 59 10000 6.08 30 21:24 01.03.2021
1964 Clear 0 1028 59 10000 6.08 30 20:48 01.03.2021
1965 Clear 0 1028 60 10000 6.2 31 20:28 01.03.2021
1966 Clear 0 1028 60 10000 6.2 31 19:55 01.03.2021
1967 Clear 1 1028 59 10000 6.15 32 19:33 01.03.2021
1968 Clear 1 1027 59 10000 6.2 30 18:46 01.03.2021
1969 Clear 1 1027 60 10000 6.09 29 18:25 01.03.2021
1970 Clear 1 1027 60 10000 6.09 29 17:58 01.03.2021
1971 Clear 1 1027 60 10000 6.09 29 17:39 01.03.2021
1972 Clear 1 1026 60 10000 5.75 28 17:19 01.03.2021
1973 Clear 1 1026 60 10000 5.75 28 17:19 01.03.2021
1974 Clear 1 1026 60 10000 5.75 28 16:43 01.03.2021
1975 Clear 2 1025 61 10000 5.33 29 16:24 01.03.2021
1976 Clear 2 1025 61 10000 5.33 29 15:41 01.03.2021
1977 Clear 2 1024 61 10000 4.54 31 15:21 01.03.2021
1978 Clear 2 1024 61 10000 4.54 31 14:48 01.03.2021
1979 Clear 3 1021 60 10000 2.26 46 14:29 01.03.2021
1980 Clear 3 1021 60 10000 2.26 46 13:43 01.03.2021
1981 Clear 7 1019 51 10000 0.94 157 13:24 01.03.2021
1982 Clear 7 1019 51 10000 0.75 157 12:55 01.03.2021
1983 Clear 7 1019 51 10000 0.75 157 12:36 01.03.2021
1984 Clear 10 1017 44 10000 1.58 181 12:18 01.03.2021
1985 Clear 10 1017 44 10000 1.58 181 11:42 01.03.2021
1986 Clear 11 1017 39 10000 1.94 185 10:45 01.03.2021
1987 Clear 11 1017 39 10000 1.94 185 10:45 01.03.2021
1988 Clear 11 1018 39 10000 1.99 188 10:23 01.03.2021
1989 Clear 11 1018 39 10000 1.99 188 09:59 01.03.2021
1990 Clear 11 1018 39 10000 1.99 188 09:40 01.03.2021
1991 Clear 11 1019 39 10000 2.2 190 09:21 01.03.2021
1992 Clear 11 1019 39 10000 2.2 190 08:51 01.03.2021
1993 Clear 11 1020 39 10000 2.37 195 08:20 01.03.2021
1994 Clear 11 1021 38 10000 1.81 206 06:53 01.03.2021
1995 Clear 9 1024 45 10000 1.58 27 04:45 01.03.2021
1996 Clear 1 1025 59 10000 4.88 27 00:56 01.03.2021
1997 Clear 1 1025 61 10000 4.75 27 23:37 28.02.2021
1998 Clear 1 1025 62 10000 4.49 27 22:51 28.02.2021
1999 Clear 2 1025 62 10000 4.32 28 22:23 28.02.2021
2000 Clear 2 1025 62 10000 4.32 28 21:51 28.02.2021
2001 Clear 2 1026 62 10000 4.15 28 21:28 28.02.2021
2002 Clear 2 1026 62 10000 4.15 28 21:28 28.02.2021
2003 Clear 2 1026 62 10000 4.15 28 20:58 28.02.2021
2004 Clear 2 1026 62 10000 4.15 28 20:37 28.02.2021
2005 Clear 2 1026 62 10000 4.15 28 20:37 28.02.2021
2006 Clear 2 1026 62 10000 4.22 30 19:56 28.02.2021
2007 Clear 2 1026 62 10000 4.22 30 19:37 28.02.2021
2008 Clear 3 1025 62 10000 4.25 31 19:19 28.02.2021
2009 Clear 3 1025 62 10000 4.25 31 18:38 28.02.2021
2010 Clear 2 1024 63 10000 4.41 32 18:20 28.02.2021
2011 Clear 2 1024 63 10000 4.41 32 17:47 28.02.2021
2012 Clear 3 1023 64 10000 4.43 32 17:27 28.02.2021
2013 Clear 3 1023 64 10000 4.43 32 16:53 28.02.2021
2014 Clear 3 1023 64 10000 4.43 32 16:34 28.02.2021
2015 Clear 3 1022 64 10000 4.25 37 15:55 28.02.2021
2016 Clear 3 1022 64 10000 4.25 37 15:36 28.02.2021
2017 Clear 3 1021 62 10000 3.74 36 15:18 28.02.2021
2018 Clear 3 1021 62 10000 3.74 36 14:45 28.02.2021
2019 Clear 4 1018 59 10000 2.47 43 14:24 28.02.2021
2020 Clear 4 1018 59 10000 2.47 43 13:52 28.02.2021
2021 Clear 8 1015 50 10000 0.77 50 13:20 28.02.2021
2022 Clear 8 1015 50 10000 0.77 50 12:56 28.02.2021
2023 Clear 8 1015 50 10000 0.77 50 12:37 28.02.2021
2024 Clear 10 1014 44 10000 0.36 94 12:19 28.02.2021
2025 Clear 10 1014 44 10000 0.36 94 11:44 28.02.2021
2026 Clear 11 1014 42 10000 0.65 141 11:25 28.02.2021
2027 Clear 11 1014 42 10000 0.65 141 10:54 28.02.2021
2028 Clear 11 1015 41 10000 1.1 174 10:28 28.02.2021
2029 Clear 11 1015 41 10000 1.1 174 09:51 28.02.2021
2030 Clear 11 1015 41 10000 1.1 174 09:33 28.02.2021
2031 Clear 11 1017 41 10000 1.59 191 08:50 28.02.2021
2032 Clear 11 1017 41 10000 1.59 191 08:31 28.02.2021
2033 Clear 11 1018 41 10000 1.35 206 07:57 28.02.2021
2034 Clear 11 1018 40 10000 1.56 218 07:37 28.02.2021
2035 Clouds 10 1019 41 10000 0.75 251 06:55 28.02.2021
2036 Clouds 9 1020 45 10000 1.43 20 05:52 28.02.2021
2037 Clouds 4 1023 60 10000 4.25 28 03:45 28.02.2021
2038 Clouds 2 1023 71 10000 3.9 35 01:59 28.02.2021
2039 Clouds 2 1021 72 10000 3.41 30 00:58 28.02.2021
2040 Clouds 2 1021 72 10000 3.41 30 00:35 28.02.2021
2041 Clouds 2 1020 73 10000 2.04 14 23:48 27.02.2021
2042 Clouds 4 1020 69 8641 0.65 324 23:20 27.02.2021
2043 Clouds 4 1020 69 8641 0.65 324 22:49 27.02.2021
2044 Clouds 5 1020 65 3249 0.66 162 22:22 27.02.2021
2045 Clouds 5 1020 65 3249 0.66 162 21:51 27.02.2021
2046 Clouds 5 1020 65 3249 0.66 162 21:33 27.02.2021
2047 Clouds 5 1020 65 4348 0.41 67 20:54 27.02.2021
2048 Clouds 5 1020 65 4348 0.41 67 20:34 27.02.2021
2049 Clouds 5 1019 64 2427 0.34 197 19:56 27.02.2021
2050 Clouds 5 1019 64 2427 0.34 197 19:37 27.02.2021
2051 Clouds 5 1018 64 2034 0.71 238 19:19 27.02.2021
2052 Clouds 6 1017 63 1432 0.43 229 18:37 27.02.2021
2053 Clouds 6 1017 63 1823 1.54 241 18:18 27.02.2021
2054 Clouds 6 1017 63 1823 1.54 241 17:43 27.02.2021
2055 Clouds 6 1015 63 771 2.2 196 17:20 27.02.2021
2056 Clouds 6 1015 63 771 2.2 196 16:50 27.02.2021
2057 Clouds 6 1015 63 771 2.2 196 16:30 27.02.2021
2058 Clouds 6 1015 63 771 2.2 196 16:30 27.02.2021
2059 Clouds 7 1014 60 1737 2.29 214 15:49 27.02.2021
2060 Clouds 7 1014 60 1737 2.29 214 15:30 27.02.2021
2061 Clouds 7 1013 60 1863 1.57 208 14:41 27.02.2021
2062 Clouds 7 1010 58 1727 2.74 225 14:23 27.02.2021
2063 Clouds 7 1010 58 640 3.05 197 13:49 27.02.2021
2064 Clouds 8 1008 56 349 5.23 213 13:26 27.02.2021
2065 Clouds 8 1008 56 349 5.23 213 12:51 27.02.2021
2066 Clouds 8 1007 56 166 4.17 183 12:28 27.02.2021
2067 Clouds 8 1007 56 166 4.17 183 11:56 27.02.2021
2068 Clouds 8 1007 56 166 4.17 183 11:36 27.02.2021
2069 Clouds 8 1007 55 403 4.11 247 11:18 27.02.2021
2070 Clouds 8 1007 55 403 4.11 247 10:41 27.02.2021
2071 Clouds 9 1007 57 145 6.93 193 10:18 27.02.2021
2072 Clouds 9 1007 57 145 6.93 193 10:18 27.02.2021
2073 Clouds 9 1007 57 145 6.93 193 09:43 27.02.2021
2074 Clouds 10 1009 54 944 5 227 09:21 27.02.2021
2075 Rain 10 1009 54 944 5 227 08:39 27.02.2021
2076 Clouds 11 1010 52 785 6.1 200 08:19 27.02.2021
2077 Clouds 11 1010 51 1706 5.18 208 07:34 27.02.2021
2078 Clouds 8 1013 55 4226 2.26 162 02:56 27.02.2021
2079 Clouds 7 1013 59 2400 1.6 150 00:37 27.02.2021
2080 Clouds 8 1012 57 1692 2.68 177 23:51 26.02.2021
2081 Clouds 7 1013 58 2019 2.15 175 23:26 26.02.2021
2082 Clouds 7 1013 58 2019 2.15 175 22:44 26.02.2021
2083 Clouds 7 1013 59 569 1.91 202 22:23 26.02.2021
2084 Clouds 7 1013 59 569 1.91 202 21:39 26.02.2021
2085 Clouds 8 1014 57 1180 2.21 181 21:19 26.02.2021
2086 Clouds 8 1014 57 1180 2.21 181 20:44 26.02.2021
2087 Clouds 8 1015 55 4455 1.69 203 20:21 26.02.2021
2088 Clouds 8 1015 55 4455 1.69 203 19:41 26.02.2021
2089 Clouds 8 1016 54 4612 1.18 184 19:18 26.02.2021
2090 Clouds 8 1015 56 1738 2.33 178 18:41 26.02.2021
2091 Clouds 8 1015 54 3562 2.58 215 18:21 26.02.2021
2092 Clouds 8 1015 54 3562 2.58 215 17:40 26.02.2021
2093 Clouds 8 1014 54 2749 1.36 164 17:22 26.02.2021
2094 Clouds 8 1014 54 2749 1.36 164 16:52 26.02.2021
2095 Clouds 8 1014 54 2749 1.36 164 16:31 26.02.2021
2096 Clouds 8 1014 54 2313 1.43 210 15:57 26.02.2021
2097 Clouds 8 1014 54 2313 1.43 210 15:37 26.02.2021
2098 Clouds 9 1013 53 2624 1.12 204 15:19 26.02.2021
2099 Clouds 9 1013 53 2624 1.12 204 14:44 26.02.2021
2100 Clouds 9 1012 51 4297 1.94 206 14:24 26.02.2021
2101 Clouds 9 1012 50 4777 1.6 206 13:39 26.02.2021
2102 Clouds 11 1011 45 5453 3.3 212 13:20 26.02.2021
2103 Clouds 11 1011 45 5453 3.3 212 12:38 26.02.2021
2104 Clouds 13 1010 40 6543 3.9 203 11:54 26.02.2021
2105 Clouds 13 1010 40 6543 3.9 203 11:36 26.02.2021
2106 Clouds 14 1010 37 10000 4.43 198 10:48 26.02.2021
2107 Clouds 14 1010 36 9804 4.29 196 09:58 26.02.2021
2108 Clouds 14 1010 36 9804 4.29 196 09:39 26.02.2021
2109 Clouds 15 1012 36 10000 3.78 196 09:20 26.02.2021
2110 Clouds 14 1014 36 10000 2.87 196 08:26 26.02.2021
2111 Clouds 14 1014 36 10000 2.87 196 07:52 26.02.2021
2112 Clouds 14 1015 36 10000 2.22 212 06:43 26.02.2021
2113 Clear 13 1016 37 10000 0.82 261 05:31 26.02.2021
2114 Clear 8 1019 48 10000 2.92 28 03:48 26.02.2021
2115 Clear 6 1019 55 10000 3.86 31 02:36 26.02.2021
2116 Clouds 5 1019 56 10000 3.76 33 00:18 26.02.2021
2117 Clouds 5 1019 55 10000 3.37 33 23:28 25.02.2021
2118 Clouds 5 1019 55 10000 3.37 33 22:50 25.02.2021
2119 Clouds 5 1020 55 10000 3.59 29 22:27 25.02.2021
2120 Clouds 5 1020 55 10000 3.59 29 21:44 25.02.2021
2121 Clouds 6 1021 55 10000 3.66 28 21:26 25.02.2021
2122 Clouds 6 1021 55 10000 3.66 28 20:41 25.02.2021
2123 Clouds 5 1021 55 10000 3.94 29 20:23 25.02.2021
2124 Clouds 5 1021 55 10000 3.94 29 20:23 25.02.2021
2125 Clouds 5 1021 55 10000 3.94 29 19:52 25.02.2021
2126 Clouds 5 1021 56 10000 3.91 28 19:22 25.02.2021
2127 Clouds 6 1020 55 10000 3.73 30 18:58 25.02.2021
2128 Clouds 6 1020 55 10000 3.73 30 18:31 25.02.2021
2129 Clear 6 1020 55 10000 3.78 30 17:51 25.02.2021
2130 Clear 6 1020 56 10000 3.96 33 17:29 25.02.2021
2131 Clear 6 1020 56 10000 3.96 33 16:52 25.02.2021
2132 Clear 6 1019 56 10000 4.19 30 16:26 25.02.2021
2133 Clear 6 1019 56 10000 4.19 30 15:36 25.02.2021
2134 Clear 6 1018 55 10000 3.84 30 15:18 25.02.2021
2135 Clouds 7 1017 55 10000 2.61 39 14:29 25.02.2021
2136 Clouds 7 1017 55 10000 2.61 39 13:57 25.02.2021
2137 Clouds 8 1016 53 10000 2.27 40 13:39 25.02.2021
2138 Clouds 10 1015 47 10000 0.47 93 13:18 25.02.2021
2139 Clouds 13 1014 41 10000 0.48 147 12:23 25.02.2021
2140 Clouds 13 1014 41 10000 0.48 147 11:51 25.02.2021
2141 Clouds 13 1014 41 10000 0.48 147 11:31 25.02.2021
2142 Clouds 13 1014 39 8970 1.23 209 10:47 25.02.2021
2143 Clouds 13 1015 39 7256 1.67 209 10:29 25.02.2021
2144 Clouds 13 1015 39 7256 1.67 209 09:45 25.02.2021
2145 Clouds 13 1016 40 7532 1.47 209 09:19 25.02.2021
2146 Clouds 13 1016 40 7532 1.47 209 08:30 25.02.2021
2147 Clouds 12 1018 40 10000 1.38 221 07:58 25.02.2021
2148 Clouds 12 1018 40 10000 1.38 221 07:38 25.02.2021
2149 Clouds 13 1019 37 10000 1.06 250 06:57 25.02.2021
2150 Clouds 7 1024 52 10000 3.44 29 04:22 25.02.2021
2151 Clear 3 1024 61 10000 4.85 29 01:43 25.02.2021
2152 Clear 3 1023 61 10000 4.74 30 00:46 25.02.2021
2153 Clear 3 1023 61 10000 4.49 34 00:19 25.02.2021
2154 Clear 3 1023 61 10000 4.49 34 23:35 24.02.2021
2155 Clear 3 1023 61 10000 4.34 33 22:47 24.02.2021
2156 Clear 3 1024 61 10000 4.3 33 22:29 24.02.2021
2157 Clear 3 1024 61 10000 4.3 33 21:49 24.02.2021
2158 Clear 3 1024 61 10000 4.13 32 21:25 24.02.2021
2159 Clear 3 1024 61 10000 4.13 32 20:48 24.02.2021
2160 Clouds 3 1024 61 10000 4.15 36 20:26 24.02.2021
2161 Clouds 3 1024 61 10000 4.15 36 19:40 24.02.2021
2162 Clouds 4 1023 61 10000 3.79 36 19:20 24.02.2021
2163 Clouds 4 1023 61 10000 3.79 36 18:50 24.02.2021
2164 Clouds 4 1023 61 10000 3.79 36 18:30 24.02.2021
2165 Clouds 4 1023 60 10000 3.7 37 17:39 24.02.2021
2166 Clouds 5 1022 60 10000 3.67 37 17:21 24.02.2021
2167 Clouds 5 1022 60 10000 3.67 37 16:46 24.02.2021
2168 Clouds 5 1022 59 10000 3.41 37 16:21 24.02.2021
2169 Clouds 5 1022 59 10000 3.41 37 15:50 24.02.2021
2170 Clouds 6 1021 58 10000 2.31 39 15:28 24.02.2021
2171 Clouds 6 1021 58 10000 2.31 39 14:47 24.02.2021
2172 Clouds 7 1019 56 10000 1.28 53 14:27 24.02.2021
2173 Clouds 7 1019 56 10000 1.28 53 13:42 24.02.2021
2174 Clouds 9 1017 51 6575 1.26 52 13:23 24.02.2021
2175 Clouds 9 1017 51 6575 1.26 52 12:55 24.02.2021
2176 Clouds 9 1017 51 6575 1.26 52 12:33 24.02.2021
2177 Clouds 10 1016 48 4810 0.11 127 11:53 24.02.2021
2178 Clouds 10 1016 48 4810 0.11 127 11:30 24.02.2021
2179 Clouds 11 1016 44 5877 1.79 209 10:40 24.02.2021
2180 Clouds 12 1016 39 9396 2.54 209 10:20 24.02.2021
2181 Clear 12 1017 39 10000 2.19 195 09:26 24.02.2021
2182 Clear 12 1017 39 10000 2.19 195 08:45 24.02.2021
2183 Clear 12 1019 39 10000 1.25 218 08:24 24.02.2021
2184 Clear 12 1019 39 10000 1.25 218 08:24 24.02.2021
2185 Clear 12 1019 37 10000 1.6 226 07:38 24.02.2021
2186 Clear 12 1020 38 10000 1.11 289 07:18 24.02.2021
2187 Clouds 8 1023 47 10000 2.79 19 05:25 24.02.2021
2188 Clouds 4 1023 64 10000 3.91 35 01:25 24.02.2021
2189 Clouds 4 1023 64 10000 3.41 35 23:39 23.02.2021
2190 Clouds 5 1023 63 10000 3.02 35 22:46 23.02.2021
2191 Clouds 5 1023 62 10000 2.45 31 22:22 23.02.2021
2192 Clouds 5 1023 62 10000 2.45 31 21:48 23.02.2021
2193 Clouds 5 1023 62 6210 2.31 34 21:25 23.02.2021
2194 Clouds 5 1023 62 6210 2.31 34 20:57 23.02.2021
2195 Clouds 5 1023 62 6210 2.31 34 20:37 23.02.2021
2196 Clouds 6 1024 62 5383 2.12 37 20:19 23.02.2021
2197 Clouds 6 1024 62 5383 2.12 37 19:42 23.02.2021
2198 Clouds 6 1023 61 6164 1.72 44 19:24 23.02.2021
2199 Clouds 6 1023 61 8795 1.6 63 18:44 23.02.2021
2200 Clouds 7 1021 58 7634 1.3 102 18:24 23.02.2021
2201 Clouds 7 1021 58 7634 1.3 102 17:51 23.02.2021
2202 Clouds 7 1021 57 3008 0.92 110 17:27 23.02.2021
2203 Clouds 7 1021 57 3008 0.92 110 16:45 23.02.2021
2204 Clouds 8 1020 56 3874 0.21 226 16:23 23.02.2021
2205 Clouds 8 1020 56 3874 0.21 226 15:49 23.02.2021
2206 Clouds 8 1019 55 3361 1.44 244 15:29 23.02.2021
2207 Clouds 8 1019 55 3361 1.44 244 14:50 23.02.2021
2208 Clouds 8 1018 56 2539 1.67 221 14:28 23.02.2021
2209 Clouds 8 1018 56 2539 1.67 221 13:59 23.02.2021
2210 Clouds 8 1018 56 2539 1.67 221 13:36 23.02.2021
2211 Clouds 10 1016 49 2325 3.74 196 12:59 23.02.2021
2212 Clouds 10 1016 49 2325 3.74 196 12:41 23.02.2021
2213 Clouds 11 1015 44 4223 4.71 212 12:18 23.02.2021
2214 Clouds 11 1015 44 4223 4.71 212 11:45 23.02.2021
2215 Clouds 12 1015 41 4349 5.11 201 11:18 23.02.2021
2216 Clouds 12 1015 41 4349 5.11 201 10:38 23.02.2021
2217 Rain 13 1016 40 5086 4.92 201 09:59 23.02.2021
2218 Clouds 13 1016 40 5086 4.92 201 09:41 23.02.2021
2219 Clouds 13 1017 39 5264 4.42 210 09:20 23.02.2021
2220 Clouds 13 1017 39 5264 4.42 210 08:45 23.02.2021
2221 Clouds 13 1019 39 6501 3.35 202 08:20 23.02.2021
2222 Clouds 13 1020 38 7410 3.06 198 06:56 23.02.2021
2223 Clouds 11 1022 43 10000 0.46 269 05:25 23.02.2021
2224 Clouds 7 1024 54 10000 2.61 41 02:37 23.02.2021
2225 Clouds 6 1023 56 10000 2.27 48 02:19 23.02.2021
2226 Clear 6 1021 56 10000 3.22 32 00:19 23.02.2021
2227 Clear 6 1021 56 10000 3.22 32 23:32 22.02.2021
2228 Clear 6 1022 55 10000 3.35 33 22:43 22.02.2021
2229 Clear 6 1023 55 10000 3.2 36 22:23 22.02.2021
2230 Clear 6 1023 55 10000 3.2 36 21:58 22.02.2021
2231 Clear 6 1023 55 10000 3.2 36 21:38 22.02.2021
2232 Clear 7 1023 55 10000 3.01 38 21:20 22.02.2021
2233 Clear 7 1023 55 10000 3.01 38 20:45 22.02.2021
2234 Clear 7 1023 54 10000 2.99 38 20:26 22.02.2021
2235 Clear 7 1023 54 10000 2.99 38 19:49 22.02.2021
2236 Clear 7 1023 55 10000 2.62 45 19:30 22.02.2021
2237 Clouds 7 1023 55 10000 2.57 41 18:49 22.02.2021
2238 Clouds 7 1023 54 10000 2.53 38 18:29 22.02.2021
2239 Clouds 7 1023 54 10000 2.53 38 17:49 22.02.2021
2240 Clouds 8 1023 54 10000 2.37 43 17:20 22.02.2021
2241 Clouds 8 1023 54 10000 2.37 43 16:50 22.02.2021
2242 Clouds 8 1023 54 10000 2.37 43 16:30 22.02.2021
2243 Clouds 8 1022 53 10000 2.31 49 15:36 22.02.2021
2244 Clouds 8 1021 53 10000 1.79 56 14:54 22.02.2021
2245 Clouds 8 1021 53 10000 1.79 56 14:35 22.02.2021
2246 Clouds 9 1020 51 8102 0.68 147 13:58 22.02.2021
2247 Clouds 9 1020 51 8102 0.68 147 13:36 22.02.2021
2248 Clouds 12 1018 44 6583 1.49 187 12:52 22.02.2021
2249 Clouds 13 1017 41 6413 2.42 206 12:23 22.02.2021
2250 Clouds 13 1017 41 6413 2.42 206 11:56 22.02.2021
2251 Clouds 13 1017 41 6413 2.42 206 11:32 22.02.2021
2252 Clouds 14 1018 37 10000 2.89 202 10:59 22.02.2021
2253 Clouds 14 1018 37 10000 2.89 202 10:40 22.02.2021
2254 Clouds 15 1018 35 10000 2.45 194 10:20 22.02.2021
2255 Clouds 15 1018 35 10000 2.45 194 10:20 22.02.2021
2256 Clouds 15 1018 35 10000 2.45 194 09:38 22.02.2021
2257 Clouds 15 1020 35 10000 2.19 193 09:19 22.02.2021
2258 Clouds 15 1020 35 10000 2.19 193 08:49 22.02.2021
2259 Clouds 14 1021 36 10000 2.26 180 08:21 22.02.2021
2260 Clouds 14 1021 36 10000 2.26 180 07:48 22.02.2021
2261 Clouds 14 1022 36 10000 2.22 227 07:22 22.02.2021
2262 Clouds 15 1023 33 10000 0.98 263 06:28 22.02.2021
2263 Clouds 13 1024 36 10000 1.71 12 04:55 22.02.2021
2264 Clouds 8 1025 46 10000 4.02 29 03:23 22.02.2021
2265 Clouds 7 1024 47 10000 3.94 27 01:59 22.02.2021
2266 Clouds 7 1024 48 10000 4.34 30 00:44 22.02.2021
2267 Clouds 7 1024 48 10000 4.61 30 00:18 22.02.2021
2268 Clouds 7 1024 49 10000 4.62 30 23:26 21.02.2021
2269 Clouds 7 1024 49 10000 4.62 30 22:37 21.02.2021
2270 Clouds 7 1025 48 10000 4.58 32 21:59 21.02.2021
2271 Clouds 7 1025 48 10000 4.58 32 21:35 21.02.2021
2272 Clouds 7 1025 49 10000 4.74 31 20:58 21.02.2021
2273 Clouds 7 1025 49 10000 4.74 31 20:39 21.02.2021
2274 Clouds 7 1025 49 10000 4.62 30 20:18 21.02.2021
2275 Clouds 7 1025 49 10000 4.62 30 19:46 21.02.2021
2276 Clouds 8 1026 49 10000 4.56 30 19:26 21.02.2021
2277 Clouds 8 1026 49 10000 4.56 30 18:40 21.02.2021
2278 Clouds 8 1025 49 10000 4.52 30 18:22 21.02.2021
2279 Clear 8 1025 49 10000 4.4 29 17:29 21.02.2021
2280 Clear 8 1025 49 10000 4.4 29 16:55 21.02.2021
2281 Clear 8 1025 49 10000 4.4 29 16:34 21.02.2021
2282 Clear 8 1025 49 10000 4 32 15:54 21.02.2021
2283 Clear 8 1024 50 10000 3.52 23 15:22 21.02.2021
2284 Clear 8 1024 50 10000 3.52 23 14:49 21.02.2021
2285 Clear 9 1022 50 10000 2.01 31 14:27 21.02.2021
2286 Clear 9 1021 49 10000 1.72 32 13:46 21.02.2021
2287 Clouds 12 1020 42 10000 0.5 128 13:23 21.02.2021
2288 Clouds 12 1020 42 10000 0.5 128 12:31 21.02.2021
2289 Clouds 15 1019 35 10000 1.2 211 11:55 21.02.2021
2290 Rain 15 1019 35 10000 1.2 211 11:36 21.02.2021
2291 Clouds 16 1019 33 10000 2.25 190 10:26 21.02.2021
2292 Clouds 16 1019 33 10000 2.25 190 09:57 21.02.2021
2293 Clouds 16 1019 33 10000 2.25 190 09:39 21.02.2021
2294 Clouds 16 1020 32 10000 2.04 195 09:19 21.02.2021
2295 Clouds 16 1020 32 10000 2.04 195 08:32 21.02.2021
2296 Clouds 16 1022 33 10000 2 197 07:40 21.02.2021
2297 Clouds 15 1023 33 10000 1.01 217 07:19 21.02.2021
2298 Clear 13 1025 36 10000 2.4 23 04:54 21.02.2021
2299 Clear 7 1026 48 10000 4.81 28 02:31 21.02.2021
2300 Clouds 7 1025 49 10000 4.46 30 00:47 21.02.2021
2301 Clouds 7 1025 48 10000 4.39 27 00:20 21.02.2021
2302 Clouds 7 1025 48 10000 4.4 29 23:29 20.02.2021
2303 Clouds 7 1025 48 10000 4.4 29 22:49 20.02.2021
2304 Clouds 7 1025 48 10000 4.02 26 22:29 20.02.2021
2305 Clouds 7 1025 48 10000 4.02 26 21:47 20.02.2021
2306 Clear 7 1025 49 10000 3.88 30 21:27 20.02.2021
2307 Clear 7 1025 49 10000 3.88 30 20:51 20.02.2021
2308 Clear 7 1025 49 10000 3.88 30 20:30 20.02.2021
2309 Clear 7 1025 49 10000 3.77 26 19:59 20.02.2021
2310 Clear 7 1025 49 10000 3.77 26 19:36 20.02.2021
2311 Clouds 8 1026 48 10000 4.03 23 18:47 20.02.2021
2312 Clouds 8 1026 47 10000 3.9 27 18:27 20.02.2021
2313 Clouds 8 1026 47 10000 3.9 27 17:45 20.02.2021
2314 Clouds 8 1026 47 10000 3.88 25 17:26 20.02.2021
2315 Clouds 8 1026 47 10000 3.88 25 16:48 20.02.2021
2316 Clouds 8 1025 48 10000 3.76 25 16:22 20.02.2021
2317 Clouds 8 1025 48 10000 3.76 25 15:40 20.02.2021
2318 Clouds 8 1025 49 10000 3.27 28 14:51 20.02.2021
2319 Clear 8 1023 51 10000 1.49 34 14:25 20.02.2021
2320 Clear 8 1023 51 10000 1.49 34 13:58 20.02.2021
2321 Rain 8 1023 51 10000 1.49 34 13:38 20.02.2021
2322 Clouds 10 1021 44 10000 0.51 214 13:19 20.02.2021
2323 Clouds 10 1021 44 10000 0.51 214 12:35 20.02.2021
2324 Clouds 13 1021 38 10000 0.93 173 11:50 20.02.2021
2325 Clouds 13 1021 38 10000 0.93 173 11:31 20.02.2021
2326 Clouds 14 1020 35 10000 1.82 195 10:50 20.02.2021
2327 Clouds 14 1021 34 10000 1.91 184 10:24 20.02.2021
2328 Clouds 14 1021 34 10000 1.91 184 09:47 20.02.2021
2329 Clouds 15 1021 33 10000 1.99 201 08:56 20.02.2021
2330 Clouds 14 1022 33 10000 1.89 200 08:24 20.02.2021
2331 Clear 14 1024 32 10000 0.83 213 05:45 20.02.2021
2332 Clear 6 1026 41 10000 4.04 31 02:32 20.02.2021
2333 Clear 5 1025 42 10000 4.14 30 01:58 20.02.2021
2334 Clear 5 1025 42 10000 4.21 30 01:18 20.02.2021
2335 Clear 5 1025 42 10000 4.21 30 01:18 20.02.2021
2336 Clear 5 1025 42 10000 4.21 30 00:37 20.02.2021
2337 Clear 5 1025 41 10000 4.1 30 23:30 19.02.2021
2338 Clear 5 1025 42 10000 4.12 30 22:48 19.02.2021
2339 Clouds 5 1026 43 10000 4.01 30 22:25 19.02.2021
2340 Clouds 5 1026 43 10000 4.01 30 21:47 19.02.2021
2341 Clouds 5 1027 43 10000 4.27 29 21:26 19.02.2021
2342 Clouds 5 1027 43 10000 4.27 29 20:45 19.02.2021
2343 Clear 5 1027 44 10000 4.46 32 20:27 19.02.2021
2344 Clear 5 1027 44 10000 4.46 32 19:50 19.02.2021
2345 Clear 5 1028 46 10000 4.36 31 19:20 19.02.2021
2346 Clear 5 1028 46 10000 4.36 31 18:53 19.02.2021
2347 Clear 5 1028 46 10000 4.36 31 18:31 19.02.2021
2348 Clear 4 1029 48 10000 4.35 29 17:45 19.02.2021
2349 Clear 4 1029 49 10000 4.71 31 16:50 19.02.2021
2350 Clear 4 1029 51 10000 4.87 30 16:23 19.02.2021
2351 Clear 4 1029 34 10000 4.87 30 15:57 19.02.2021
2352 Clear 4 1029 34 10000 4.87 30 15:30 19.02.2021
2353 Clear 4 1028 40 10000 4.37 27 14:56 19.02.2021
2354 Clear 4 1028 40 10000 4.37 27 14:36 19.02.2021
2355 Clear 5 1027 50 10000 2.47 43 13:57 19.02.2021
2356 Clear 5 1027 50 10000 2.47 43 13:37 19.02.2021
2357 Clear 8 1025 50 10000 0.63 140 12:59 19.02.2021
2358 Clear 8 1025 50 10000 0.63 140 12:41 19.02.2021
2359 Clear 11 1024 48 10000 1.65 194 12:22 19.02.2021
2360 Clear 11 1024 48 10000 1.65 194 11:44 19.02.2021
2361 Clear 13 1024 43 10000 1.8 199 11:20 19.02.2021
2362 Clear 13 1024 43 10000 1.8 199 10:38 19.02.2021
2363 Clear 13 1024 33 10000 1.61 205 10:19 19.02.2021
2364 Clear 13 1024 33 10000 1.61 205 09:38 19.02.2021
2365 Clear 13 1025 32 10000 0.86 204 09:19 19.02.2021
2366 Clear 13 1025 32 10000 0.86 204 08:49 19.02.2021
2367 Clear 13 1027 34 10000 0.41 81 08:21 19.02.2021
2368 Clear 13 1027 34 10000 0.41 81 07:47 19.02.2021
2369 Clear 12 1028 36 10000 1.27 41 07:26 19.02.2021
2370 Clear 12 1028 34 10000 1.45 42 06:47 19.02.2021
2371 Clear 7 1032 37 10000 4.85 32 04:44 19.02.2021
2372 Clear 4 1034 32 10000 5.96 31 04:25 19.02.2021
2373 Clear 0 1034 28 10000 6.72 29 01:46 19.02.2021
2374 Clear 0 1034 28 10000 6.97 32 00:36 19.02.2021
2375 Clear 0 1034 29 10000 6.86 30 23:52 18.02.2021
2376 Clear 0 1034 29 10000 6.86 30 23:33 18.02.2021
2377 Clear 0 1033 30 10000 6.61 31 22:44 18.02.2021
2378 Clear 0 1033 30 10000 6.41 30 22:26 18.02.2021
2379 Clear 0 1033 30 10000 6.41 30 21:45 18.02.2021
2380 Clear 0 1033 31 10000 6.31 30 21:24 18.02.2021
2381 Clear 0 1033 31 10000 6.31 30 20:41 18.02.2021
2382 Clear 0 1033 32 10000 6.15 30 20:23 18.02.2021
2383 Clear 0 1033 32 10000 6.15 30 19:46 18.02.2021
2384 Clear 0 1033 33 10000 6.02 29 19:26 18.02.2021
2385 Clear 0 1033 33 10000 6.02 29 18:52 18.02.2021
2386 Clear 1 1032 35 10000 5.96 29 18:27 18.02.2021
2387 Clear 1 1032 35 10000 5.96 29 17:52 18.02.2021
2388 Clear 1 1032 38 10000 5.84 28 17:25 18.02.2021
2389 Clear 1 1032 38 10000 5.84 28 16:53 18.02.2021
2390 Clear 1 1032 38 10000 5.84 28 16:35 18.02.2021
2391 Clear 1 1031 41 10000 5.58 29 15:55 18.02.2021
2392 Clear 1 1031 41 10000 5.58 29 15:36 18.02.2021
2393 Clear 2 1029 44 10000 4.82 29 15:18 18.02.2021
2394 Clear 2 1029 44 10000 4.82 29 14:42 18.02.2021
2395 Clear 3 1027 51 10000 2.62 42 14:23 18.02.2021
2396 Clear 3 1027 51 10000 2.62 42 13:43 18.02.2021
2397 Clouds 7 1024 51 10000 0.48 112 13:18 18.02.2021
2398 Clouds 7 1024 51 10000 0.48 112 12:42 18.02.2021
2399 Clouds 10 1022 50 10000 0.76 192 12:21 18.02.2021
2400 Clouds 10 1022 50 10000 0.76 192 11:46 18.02.2021
2401 Clouds 11 1022 39 10000 0.83 190 11:25 18.02.2021
2402 Clouds 11 1022 39 10000 0.83 190 10:44 18.02.2021
2403 Clouds 11 1023 38 10000 0.99 192 10:25 18.02.2021
2404 Clouds 11 1023 38 10000 0.99 192 09:40 18.02.2021
2405 Clear 11 1024 37 10000 1.06 211 09:21 18.02.2021
2406 Clear 11 1024 37 10000 1.06 211 08:40 18.02.2021
2407 Clear 11 1025 37 10000 0.57 235 08:21 18.02.2021
2408 Clear 11 1025 37 10000 0.57 235 07:32 18.02.2021
2409 Clear 10 1026 39 10000 0.85 2 06:50 18.02.2021
2410 Clear 0 1031 62 10000 5.66 29 02:33 18.02.2021
2411 Clear 0 1029 63 10000 5.51 28 23:55 17.02.2021
2412 Clear 0 1029 63 10000 5.48 28 23:22 17.02.2021
2413 Clear 0 1029 63 10000 5.48 28 22:52 17.02.2021
2414 Clear 0 1029 63 10000 5.44 28 22:26 17.02.2021
2415 Clear 0 1029 63 10000 5.44 28 21:54 17.02.2021
2416 Clear 0 1029 63 10000 5.49 29 21:22 17.02.2021
2417 Clear 0 1029 63 10000 5.49 29 20:48 17.02.2021
2418 Clear 0 1029 63 10000 5.46 29 20:29 17.02.2021
2419 Clear 0 1029 63 10000 5.46 29 19:50 17.02.2021
2420 Clear 0 1029 63 10000 5.46 29 19:32 17.02.2021
2421 Clear 1 1028 63 10000 5.39 30 18:46 17.02.2021
2422 Clear 1 1028 63 10000 5.32 29 18:26 17.02.2021
2423 Clear 1 1028 63 10000 5.32 29 17:42 17.02.2021
2424 Clear 1 1027 63 10000 5.25 29 17:20 17.02.2021
2425 Clear 1 1027 63 10000 5.25 29 16:47 17.02.2021
2426 Clear 2 1026 62 10000 4.83 29 16:28 17.02.2021
2427 Clear 2 1026 62 10000 4.83 29 15:45 17.02.2021
2428 Clear 2 1025 62 10000 4.06 31 15:27 17.02.2021
2429 Clear 2 1025 62 10000 4.06 31 14:50 17.02.2021
2430 Clouds 3 1022 62 10000 1.9 51 14:29 17.02.2021
2431 Clouds 3 1022 62 10000 1.9 51 13:50 17.02.2021
2432 Clouds 3 1022 62 10000 1.9 51 13:32 17.02.2021
2433 Clouds 7 1020 52 10000 0.84 157 12:50 17.02.2021
2434 Clouds 10 1019 44 10000 1.3 192 12:25 17.02.2021
2435 Clouds 10 1019 44 10000 1.3 192 11:46 17.02.2021
2436 Clouds 11 1019 39 10000 0.86 205 11:28 17.02.2021
2437 Clouds 11 1019 39 10000 0.86 205 10:49 17.02.2021
2438 Clouds 11 1019 39 10000 0.86 205 10:31 17.02.2021
2439 Clouds 11 1019 38 10000 0.59 223 09:58 17.02.2021
2440 Clouds 11 1019 38 10000 0.59 223 09:37 17.02.2021
2441 Clear 11 1020 38 10000 0.68 238 08:49 17.02.2021
2442 Clear 11 1022 38 10000 0.26 255 08:23 17.02.2021
2443 Clear 11 1022 38 10000 0.26 255 07:55 17.02.2021
2444 Clear 10 1023 40 10000 0.85 10 06:37 17.02.2021
2445 Clear 10 1023 40 10000 0.85 10 06:37 17.02.2021
2446 Clear 2 1029 58 10000 4.93 29 03:52 17.02.2021
2447 Clear 0 1030 64 10000 5.79 29 02:31 17.02.2021
2448 Clear -1 1029 63 10000 5.81 29 01:36 17.02.2021
2449 Clear 0 1028 64 10000 5.91 29 00:28 17.02.2021
2450 Clear 0 1028 64 10000 5.91 29 23:39 16.02.2021
2451 Clear 0 1028 65 10000 5.91 29 22:58 16.02.2021
2452 Clear 0 1028 65 10000 5.91 29 22:39 16.02.2021
2453 Clear 0 1029 66 10000 5.81 29 22:21 16.02.2021
2454 Clear 0 1029 66 10000 5.81 29 21:39 16.02.2021
2455 Clear 0 1029 66 10000 5.61 30 21:21 16.02.2021
2456 Clear 0 1029 66 10000 5.61 30 20:56 16.02.2021
2457 Clear 0 1029 66 10000 5.61 30 20:37 16.02.2021
2458 Clear 0 1028 67 10000 5.51 30 20:18 16.02.2021
2459 Clear 0 1028 67 10000 5.51 30 19:39 16.02.2021
2460 Clouds 0 1028 67 10000 5.46 29 19:19 16.02.2021
2461 Clouds 0 1028 67 10000 5.46 29 18:37 16.02.2021
2462 Clouds 0 1027 67 10000 5.31 29 18:18 16.02.2021
2463 Clouds 0 1027 67 10000 5.31 29 17:47 16.02.2021
2464 Clouds 1 1027 66 10000 5.17 27 17:23 16.02.2021
2465 Clouds 1 1027 66 10000 5.17 27 16:45 16.02.2021
2466 Clouds 2 1026 65 10000 4.7 28 16:22 16.02.2021
2467 Clouds 2 1026 65 10000 4.7 28 15:44 16.02.2021
2468 Clouds 2 1024 65 10000 3.87 34 15:26 16.02.2021
2469 Clouds 2 1024 65 10000 3.87 34 14:47 16.02.2021
2470 Clouds 3 1022 64 10000 1.53 64 14:28 16.02.2021
2471 Clouds 3 1022 64 10000 1.53 64 13:53 16.02.2021
2472 Clouds 3 1022 64 10000 1.53 64 13:30 16.02.2021
2473 Clouds 6 1019 54 10000 1.18 174 12:44 16.02.2021
2474 Clouds 9 1018 45 10000 1.61 186 12:20 16.02.2021
2475 Clouds 9 1018 45 10000 1.61 186 11:48 16.02.2021
2476 Clouds 10 1018 40 10000 1.34 188 11:23 16.02.2021
2477 Clouds 10 1018 40 10000 1.34 188 10:51 16.02.2021
2478 Clouds 10 1018 40 10000 1.34 188 10:32 16.02.2021
2479 Clouds 10 1018 40 10000 0.96 197 09:56 16.02.2021
2480 Clouds 10 1018 40 10000 0.96 197 09:36 16.02.2021
2481 Clouds 10 1019 40 10000 0.75 220 09:18 16.02.2021
2482 Clouds 10 1019 40 10000 0.75 220 08:39 16.02.2021
2483 Clouds 10 1020 40 10000 0.52 270 08:18 16.02.2021
2484 Clear 9 1021 41 10000 0.69 348 07:20 16.02.2021
2485 Clear 6 1025 51 10000 2.94 25 04:39 16.02.2021
2486 Clouds 0 1025 66 10000 5.1 30 00:45 16.02.2021
2487 Clouds 0 1025 67 10000 5.05 30 23:32 15.02.2021
2488 Clouds 0 1025 67 10000 5 30 22:59 15.02.2021
2489 Clouds 0 1025 67 10000 5 30 22:41 15.02.2021
2490 Clouds 1 1025 66 10000 4.99 29 22:20 15.02.2021
2491 Clouds 1 1025 66 10000 4.99 29 21:38 15.02.2021
2492 Clouds 1 1024 66 10000 5.02 29 21:20 15.02.2021
2493 Clouds 1 1024 66 10000 5.02 29 20:45 15.02.2021
2494 Clouds 1 1024 66 10000 5.03 29 20:25 15.02.2021
2495 Clouds 1 1024 66 10000 5.03 29 19:44 15.02.2021
2496 Clouds 1 1024 66 10000 4.96 31 19:23 15.02.2021
2497 Clouds 1 1024 67 10000 4.92 30 18:46 15.02.2021
2498 Clouds 2 1024 66 10000 4.71 30 18:26 15.02.2021
2499 Clouds 2 1024 66 10000 4.71 30 17:42 15.02.2021
2500 Clouds 2 1024 66 10000 4.41 32 17:24 15.02.2021
2501 Clouds 2 1024 66 10000 4.41 32 16:55 15.02.2021
2502 Clouds 3 1023 65 10000 3.9 34 16:27 15.02.2021
2503 Clouds 3 1023 65 10000 3.9 34 15:51 15.02.2021
2504 Clouds 4 1021 63 10000 2.92 38 15:25 15.02.2021
2505 Clouds 4 1021 63 10000 2.92 38 14:59 15.02.2021
2506 Clouds 4 1021 63 10000 2.92 38 14:36 15.02.2021
2507 Clouds 4 1020 62 10000 0.76 66 14:18 15.02.2021
2508 Clouds 4 1020 62 10000 0.76 66 13:45 15.02.2021
2509 Clouds 7 1018 54 10000 1.82 214 13:19 15.02.2021
2510 Clouds 7 1018 54 10000 1.82 214 12:44 15.02.2021
2511 Clouds 10 1017 46 10000 2.88 211 12:20 15.02.2021
2512 Clouds 10 1017 46 10000 2.88 211 11:42 15.02.2021
2513 Clouds 11 1016 42 10000 2.99 201 11:19 15.02.2021
2514 Clouds 11 1016 42 10000 2.99 201 10:47 15.02.2021
2515 Clouds 11 1017 40 10000 2.07 194 10:24 15.02.2021
2516 Clouds 11 1017 40 10000 2.07 194 09:55 15.02.2021
2517 Clouds 11 1017 40 10000 2.07 194 09:33 15.02.2021
2518 Clouds 11 1018 40 10000 1.54 191 08:50 15.02.2021
2519 Clouds 11 1019 41 10000 1.06 212 07:40 15.02.2021
2520 Clouds 11 1019 41 10000 1.06 212 07:40 15.02.2021
2521 Clouds 10 1021 41 10000 0.58 254 06:59 15.02.2021
2522 Clouds 10 1021 41 10000 0.58 254 06:39 15.02.2021
2523 Clouds 2 1026 64 10000 4.94 31 02:30 15.02.2021
2524 Clear 2 1025 65 10000 4.82 31 00:46 15.02.2021
2525 Clear 2 1025 64 10000 4.7 30 23:41 14.02.2021
2526 Clear 2 1024 64 10000 4.74 30 23:22 14.02.2021
2527 Clear 2 1024 64 10000 4.74 30 22:38 14.02.2021
2528 Clear 3 1024 63 10000 4.75 30 22:19 14.02.2021
2529 Clear 3 1024 63 10000 4.75 30 21:47 14.02.2021
2530 Clouds 3 1025 62 10000 4.78 29 21:28 14.02.2021
2531 Clouds 3 1025 62 10000 4.78 29 20:44 14.02.2021
2532 Clouds 3 1025 61 10000 4.79 30 20:26 14.02.2021
2533 Clouds 3 1025 61 10000 4.79 30 19:47 14.02.2021
2534 Clouds 3 1024 61 10000 4.82 29 18:52 14.02.2021
2535 Clouds 3 1024 61 10000 4.82 29 18:34 14.02.2021
2536 Clouds 3 1024 60 10000 4.76 30 17:56 14.02.2021
2537 Clouds 3 1024 60 10000 4.76 30 17:35 14.02.2021
2538 Clouds 4 1024 60 10000 4.55 32 16:55 14.02.2021
2539 Clouds 5 1023 59 10000 4.13 33 16:29 14.02.2021
2540 Clouds 5 1023 59 10000 4.13 33 15:49 14.02.2021
2541 Clouds 5 1023 59 10000 4.13 33 15:31 14.02.2021
2542 Clouds 5 1022 59 10000 3.32 34 14:48 14.02.2021
2543 Clouds 6 1020 58 10000 1.4 38 14:27 14.02.2021
2544 Clouds 6 1020 58 10000 1.4 38 13:49 14.02.2021
2545 Clouds 8 1018 52 10000 1.1 211 13:27 14.02.2021
2546 Clouds 8 1018 51 10000 0.95 211 12:40 14.02.2021
2547 Clouds 11 1017 44 10000 2.22 212 12:19 14.02.2021
2548 Clouds 11 1017 44 10000 2.22 212 11:50 14.02.2021
2549 Clouds 11 1017 44 10000 2.22 212 11:50 14.02.2021
2550 Clouds 12 1017 40 10000 2.71 204 11:21 14.02.2021
2551 Clouds 12 1017 40 10000 2.71 204 10:37 14.02.2021
2552 Clouds 12 1017 39 10000 2.31 198 09:56 14.02.2021
2553 Clouds 12 1017 39 10000 2.31 198 09:38 14.02.2021
2554 Clouds 12 1018 38 10000 2.02 194 09:19 14.02.2021
2555 Clouds 12 1018 38 10000 2.02 194 08:35 14.02.2021
2556 Clouds 12 1019 38 10000 1.58 202 07:55 14.02.2021
2557 Clear 12 1021 38 10000 0.74 227 06:49 14.02.2021
2558 Clear 11 1022 40 10000 0.87 12 05:37 14.02.2021
2559 Clear 6 1024 53 10000 4.11 29 03:30 14.02.2021
2560 Clear 3 1024 59 10000 4.57 29 01:54 14.02.2021
2561 Clouds 3 1023 58 10000 4.3 31 00:47 14.02.2021
2562 Clouds 4 1023 58 10000 4.07 32 00:18 14.02.2021
2563 Clouds 4 1023 58 10000 4.07 32 23:40 13.02.2021
2564 Clouds 4 1023 57 10000 3.82 30 23:20 13.02.2021
2565 Clouds 4 1023 57 10000 3.82 30 22:34 13.02.2021
2566 Clouds 5 1023 55 10000 3.53 30 21:59 13.02.2021
2567 Clouds 5 1023 55 10000 3.53 30 21:40 13.02.2021
2568 Clouds 6 1023 54 10000 3.37 27 20:53 13.02.2021
2569 Clouds 6 1023 54 10000 3.76 27 20:28 13.02.2021
2570 Clouds 6 1023 54 10000 3.76 27 19:51 13.02.2021
2571 Clouds 6 1023 54 10000 3.85 23 19:25 13.02.2021
2572 Clouds 6 1022 53 10000 3.61 22 18:54 13.02.2021
2573 Clouds 6 1022 53 10000 3.61 22 18:34 13.02.2021
2574 Clouds 6 1022 54 10000 3.78 26 17:55 13.02.2021
2575 Clouds 6 1022 54 10000 3.78 26 17:36 13.02.2021
2576 Clouds 7 1022 53 10000 3.93 26 17:18 13.02.2021
2577 Clouds 7 1022 53 10000 3.93 26 16:42 13.02.2021
2578 Clouds 7 1022 52 10000 3.95 28 16:18 13.02.2021
2579 Clouds 7 1021 51 10000 3.4 22 15:29 13.02.2021
2580 Clouds 7 1021 51 10000 3.4 22 14:50 13.02.2021
2581 Clouds 7 1021 51 10000 3.4 22 14:30 13.02.2021
2582 Clouds 8 1020 50 10000 2.21 27 13:44 13.02.2021
2583 Clouds 9 1019 47 10000 0.48 111 13:24 13.02.2021
2584 Clouds 9 1018 48 10000 0.46 85 12:45 13.02.2021
2585 Clouds 11 1017 42 10000 1.69 186 12:18 13.02.2021
2586 Clouds 11 1017 42 10000 1.69 186 11:43 13.02.2021
2587 Clouds 12 1017 39 10000 2.29 193 11:19 13.02.2021
2588 Clouds 12 1017 39 10000 2.29 193 10:44 13.02.2021
2589 Clouds 13 1018 37 10000 2.38 196 10:24 13.02.2021
2590 Clouds 13 1018 37 10000 2.38 196 09:53 13.02.2021
2591 Clouds 13 1018 37 10000 2.38 196 09:30 13.02.2021
2592 Clouds 13 1018 36 10000 2.35 198 08:54 13.02.2021
2593 Clouds 13 1018 36 10000 2.35 198 08:31 13.02.2021
2594 Clouds 13 1019 36 10000 2.1 207 07:50 13.02.2021
2595 Clouds 13 1021 35 10000 1.31 211 06:37 13.02.2021
2596 Clouds 10 1023 40 10000 2.46 31 05:20 13.02.2021
2597 Clouds 7 1023 44 10000 3.89 32 03:58 13.02.2021
2598 Clouds 5 1023 46 10000 4.97 30 01:33 13.02.2021
2599 Clouds 5 1023 46 10000 5.34 30 00:36 13.02.2021
2600 Clouds 5 1023 47 10000 5.23 30 23:53 12.02.2021
2601 Clouds 4 1023 47 10000 5.12 30 23:20 12.02.2021
2602 Clouds 4 1023 47 10000 5.12 30 22:42 12.02.2021
2603 Clouds 4 1024 48 10000 5.11 30 22:21 12.02.2021
2604 Clouds 4 1024 48 10000 5.11 30 21:45 12.02.2021
2605 Clouds 4 1024 49 10000 5.13 30 21:26 12.02.2021
2606 Clouds 4 1024 49 10000 5.13 30 20:46 12.02.2021
2607 Clouds 5 1025 49 10000 5.04 30 20:27 12.02.2021
2608 Clouds 5 1025 49 10000 5.04 30 19:57 12.02.2021
2609 Clouds 5 1025 49 10000 5.04 30 19:37 12.02.2021
2610 Clouds 4 1025 49 10000 5.17 30 18:55 12.02.2021
2611 Clear 4 1025 51 10000 5.07 29 18:29 12.02.2021
2612 Clear 4 1025 51 10000 5.07 29 17:44 12.02.2021
2613 Clear 4 1024 51 10000 5 30 17:21 12.02.2021
2614 Clear 4 1024 51 10000 4.99 29 16:27 12.02.2021
2615 Clear 4 1024 51 10000 4.99 29 15:46 12.02.2021
2616 Clear 4 1023 52 10000 4.69 26 15:21 12.02.2021
2617 Clear 4 1023 52 10000 4.69 26 14:42 12.02.2021
2618 Clear 5 1022 52 10000 3.54 31 14:23 12.02.2021
2619 Clear 5 1022 52 10000 3.54 31 13:40 12.02.2021
2620 Clear 8 1020 46 10000 0.81 57 13:22 12.02.2021
2621 Clear 8 1020 46 10000 0.87 56 12:47 12.02.2021
2622 Clear 11 1019 39 10000 0.71 172 12:28 12.02.2021
2623 Clear 11 1019 39 10000 0.71 172 11:42 12.02.2021
2624 Clear 13 1019 36 10000 0.99 193 11:19 12.02.2021
2625 Clear 13 1019 36 10000 0.99 193 10:41 12.02.2021
2626 Clear 13 1019 35 10000 1.17 195 09:49 12.02.2021
2627 Clear 13 1020 34 10000 1.31 203 09:29 12.02.2021
2628 Clear 13 1020 34 10000 1.31 203 08:49 12.02.2021
2629 Clear 13 1022 34 10000 1.37 215 08:28 12.02.2021
2630 Clear 13 1022 34 10000 1.37 215 07:57 12.02.2021
2631 Clear 13 1022 34 10000 1.37 215 07:32 12.02.2021
2632 Clear 13 1022 34 10000 0.49 251 06:55 12.02.2021
2633 Clear 13 1022 34 10000 0.49 251 06:55 12.02.2021
2634 Clear 12 1023 36 10000 1.38 18 05:47 12.02.2021
2635 Clear 9 1025 41 10000 3.14 23 04:31 12.02.2021
2636 Clear 3 1026 46 10000 5.44 30 01:32 12.02.2021
2637 Clear 3 1025 49 10000 5.25 28 23:41 11.02.2021
2638 Clear 3 1025 49 10000 5.07 28 23:22 11.02.2021
2639 Clear 3 1025 49 10000 5.07 28 22:47 11.02.2021
2640 Clear 3 1025 50 10000 5.15 29 22:25 11.02.2021
2641 Clear 3 1025 50 10000 5.15 29 21:59 11.02.2021
2642 Clear 3 1025 50 10000 5.15 29 21:38 11.02.2021
2643 Clear 3 1026 51 10000 5.26 29 21:18 11.02.2021
2644 Clear 3 1026 51 10000 5.26 29 20:42 11.02.2021
2645 Clear 3 1025 52 10000 5.27 29 20:21 11.02.2021
2646 Clear 3 1025 52 10000 5.27 29 19:48 11.02.2021
2647 Clear 3 1025 54 10000 4.95 30 19:28 11.02.2021
2648 Clear 3 1025 53 10000 4.77 31 18:53 11.02.2021
2649 Clear 4 1025 54 10000 4.6 32 18:29 11.02.2021
2650 Clear 4 1025 54 10000 4.6 32 17:53 11.02.2021
2651 Clear 4 1024 55 10000 4.67 33 17:22 11.02.2021
2652 Clear 4 1024 55 10000 4.67 33 16:58 11.02.2021
2653 Clear 4 1024 55 10000 4.67 33 16:40 11.02.2021
2654 Clear 4 1023 55 10000 4.82 29 16:21 11.02.2021
2655 Clear 4 1023 55 10000 4.82 29 15:42 11.02.2021
2656 Clear 4 1022 55 10000 4.51 29 15:24 11.02.2021
2657 Clear 4 1022 55 10000 4.51 29 14:44 11.02.2021
2658 Clear 5 1020 54 10000 3.46 33 14:25 11.02.2021
2659 Clear 5 1020 54 10000 3.46 33 13:41 11.02.2021
2660 Clear 8 1018 49 10000 0.45 99 13:19 11.02.2021
2661 Clear 8 1018 49 10000 0.45 99 12:51 11.02.2021
2662 Clear 11 1017 41 10000 1.29 187 12:26 11.02.2021
2663 Clear 11 1017 41 10000 1.29 187 11:46 11.02.2021
2664 Clear 13 1017 38 10000 1.59 189 11:22 11.02.2021
2665 Clear 13 1017 38 10000 1.59 189 10:44 11.02.2021
2666 Clear 13 1017 36 10000 1.65 194 10:26 11.02.2021
2667 Clear 13 1017 36 10000 1.65 194 09:53 11.02.2021
2668 Clear 13 1018 36 10000 1.58 197 09:22 11.02.2021
2669 Clear 13 1018 36 10000 1.58 197 08:51 11.02.2021
2670 Clear 13 1019 36 10000 1.59 206 08:23 11.02.2021
2671 Clear 13 1019 36 10000 1.87 201 07:30 11.02.2021
2672 Clear 13 1020 36 10000 1.4 208 06:40 11.02.2021
2673 Clear 9 1022 41 10000 2.25 27 04:58 11.02.2021
2674 Clear 3 1024 49 10000 4.99 28 02:29 11.02.2021
2675 Clear 3 1023 49 10000 5.04 28 00:54 11.02.2021
2676 Clear 3 1023 50 10000 4.94 28 00:21 11.02.2021
2677 Clear 3 1023 50 10000 4.94 28 23:44 10.02.2021
2678 Clear 3 1023 50 10000 4.96 30 22:53 10.02.2021
2679 Clear 3 1024 49 10000 5.1 30 22:29 10.02.2021
2680 Clear 3 1024 49 10000 5.1 30 21:59 10.02.2021
2681 Clear 3 1024 49 10000 5.1 30 21:38 10.02.2021
2682 Clear 3 1025 49 10000 5.31 28 21:19 10.02.2021
2683 Clear 3 1025 49 10000 5.31 28 20:41 10.02.2021
2684 Clear 3 1025 51 10000 5.56 28 20:22 10.02.2021
2685 Clear 3 1025 51 10000 5.56 28 19:46 10.02.2021
2686 Clear 3 1025 52 10000 5.8 29 19:25 10.02.2021
2687 Clear 3 1025 52 10000 5.82 29 18:44 10.02.2021
2688 Clear 3 1025 54 10000 5.95 29 18:23 10.02.2021
2689 Clear 3 1025 54 10000 5.95 29 17:57 10.02.2021
2690 Clear 3 1025 55 10000 5.99 29 17:24 10.02.2021
2691 Clear 3 1025 55 10000 5.99 29 17:24 10.02.2021
2692 Clear 3 1025 55 10000 5.99 29 16:53 10.02.2021
2693 Clear 3 1025 55 10000 5.99 29 16:31 10.02.2021
2694 Clear 3 1025 55 10000 5.76 26 15:59 10.02.2021
2695 Clear 4 1024 54 10000 5.46 29 15:24 10.02.2021
2696 Clear 4 1024 54 10000 5.46 29 14:51 10.02.2021
2697 Clear 4 1024 54 10000 5.46 29 14:31 10.02.2021
2698 Clear 4 1022 55 10000 3.98 32 13:53 10.02.2021
2699 Clear 7 1019 50 10000 1.13 40 13:29 10.02.2021
2700 Clear 7 1019 49 10000 1.47 35 12:52 10.02.2021
2701 Clear 7 1019 49 10000 1.47 35 12:30 10.02.2021
2702 Clear 7 1019 49 10000 1.47 35 12:30 10.02.2021
2703 Clear 11 1017 42 10000 0.13 302 11:56 10.02.2021
2704 Clear 11 1017 42 10000 0.13 302 11:37 10.02.2021
2705 Clear 12 1017 39 10000 0.32 255 11:19 10.02.2021
2706 Clear 13 1017 38 10000 0.24 307 10:23 10.02.2021
2707 Clear 13 1017 38 10000 0.24 307 09:53 10.02.2021
2708 Clear 13 1017 38 10000 0.24 307 09:30 10.02.2021
2709 Clear 12 1018 37 10000 0.45 327 08:52 10.02.2021
2710 Clear 12 1018 37 10000 0.45 327 08:32 10.02.2021
2711 Clear 12 1020 38 10000 0.87 15 07:34 10.02.2021
2712 Clear 10 1022 43 10000 2.75 29 06:21 10.02.2021
2713 Clouds 2 1024 61 10000 5.36 34 01:24 10.02.2021
2714 Clouds 4 1023 59 10000 4.72 31 23:49 09.02.2021
2715 Clouds 4 1023 59 10000 4.72 31 23:30 09.02.2021
2716 Clouds 4 1022 58 10000 4.58 29 22:45 09.02.2021
2717 Clouds 4 1022 57 10000 3.92 30 22:24 09.02.2021
2718 Clouds 4 1022 57 10000 3.92 30 21:48 09.02.2021
2719 Clouds 5 1023 56 10000 3.42 35 21:24 09.02.2021
2720 Clouds 5 1023 56 10000 3.42 35 20:44 09.02.2021
2721 Clouds 5 1022 56 10000 3.08 37 20:25 09.02.2021
2722 Clouds 5 1022 56 10000 3.08 37 19:52 09.02.2021
2723 Clouds 5 1022 56 10000 3 40 19:29 09.02.2021
2724 Clouds 5 1022 56 10000 3 40 18:49 09.02.2021
2725 Clouds 5 1022 57 10000 2.89 38 18:31 09.02.2021
2726 Clouds 5 1021 56 10000 3.07 44 17:56 09.02.2021
2727 Clouds 5 1021 56 10000 3.07 44 17:36 09.02.2021
2728 Clouds 5 1020 56 10000 3.14 48 17:18 09.02.2021
2729 Clouds 5 1020 56 10000 3.14 48 16:38 09.02.2021
2730 Clouds 6 1020 55 10000 2.94 50 16:18 09.02.2021
2731 Clouds 6 1020 55 10000 2.94 50 15:41 09.02.2021
2732 Clear 6 1020 55 10000 2.9 45 15:23 09.02.2021
2733 Clear 6 1020 55 10000 2.9 45 14:48 09.02.2021
2734 Clear 6 1019 55 10000 1.6 69 14:26 09.02.2021
2735 Clear 6 1019 55 10000 1.6 69 13:43 09.02.2021
2736 Clouds 9 1017 49 10000 1.55 167 13:20 09.02.2021
2737 Clouds 9 1017 49 10000 1.55 167 12:48 09.02.2021
2738 Clouds 12 1015 41 10000 2.52 187 12:28 09.02.2021
2739 Clouds 12 1015 41 10000 2.52 187 11:44 09.02.2021
2740 Clouds 14 1015 37 10000 3.31 190 11:22 09.02.2021
2741 Clouds 14 1015 37 10000 3.31 190 10:58 09.02.2021
2742 Clouds 14 1016 36 10000 3.25 191 10:23 09.02.2021
2743 Clouds 14 1016 36 10000 3.25 191 09:59 09.02.2021
2744 Clouds 14 1016 36 10000 3.25 191 09:40 09.02.2021
2745 Clouds 15 1017 36 10000 2.64 206 09:20 09.02.2021
2746 Clouds 15 1017 36 10000 2.64 206 08:30 09.02.2021
2747 Clouds 14 1019 36 10000 1.35 220 07:54 09.02.2021
2748 Clouds 13 1021 38 10000 2 9 05:35 09.02.2021
2749 Clouds 8 1023 47 10000 4.5 26 03:49 09.02.2021
2750 Clouds 6 1024 49 10000 5.33 30 01:57 09.02.2021
2751 Clouds 6 1023 48 10000 4.9 29 00:31 09.02.2021
2752 Clouds 6 1023 49 10000 4.72 32 23:44 08.02.2021
2753 Clouds 6 1023 49 10000 4.97 28 23:19 08.02.2021
2754 Clouds 6 1023 49 10000 4.97 28 22:43 08.02.2021
2755 Clouds 6 1024 49 10000 4.91 31 22:22 08.02.2021
2756 Clouds 6 1024 49 10000 4.91 31 21:49 08.02.2021
2757 Clouds 6 1024 49 10000 4.91 31 21:30 08.02.2021
2758 Clear 6 1025 49 10000 4.8 30 20:55 08.02.2021
2759 Clear 6 1025 49 10000 4.8 30 20:36 08.02.2021
2760 Clear 6 1025 49 10000 4.8 30 20:36 08.02.2021
2761 Clear 6 1025 48 10000 4.74 32 20:18 08.02.2021
2762 Clear 6 1024 48 10000 4.73 32 19:41 08.02.2021
2763 Clouds 6 1025 48 10000 4.75 33 19:21 08.02.2021
2764 Clouds 6 1025 48 10000 4.75 33 18:44 08.02.2021
2765 Clouds 7 1025 48 10000 4.77 31 18:19 08.02.2021
2766 Clouds 7 1025 48 10000 4.77 31 17:43 08.02.2021
2767 Clouds 7 1025 49 10000 4.59 30 17:23 08.02.2021
2768 Clouds 7 1025 49 10000 4.59 30 16:43 08.02.2021
2769 Clouds 8 1024 48 10000 4.35 31 16:21 08.02.2021
2770 Clouds 8 1024 48 10000 4.35 31 15:42 08.02.2021
2771 Clouds 7 1023 49 10000 4.03 30 15:20 08.02.2021
2772 Clouds 7 1023 49 10000 4.03 30 14:51 08.02.2021
2773 Clouds 7 1023 49 10000 4.03 30 14:31 08.02.2021
2774 Clouds 8 1023 48 10000 3.17 34 13:56 08.02.2021
2775 Clouds 8 1023 48 10000 3.17 34 13:32 08.02.2021
2776 Clear 10 1022 45 10000 1.37 39 12:53 08.02.2021
2777 Clear 10 1022 45 10000 1.37 39 12:35 08.02.2021
2778 Clear 13 1021 40 10000 0.29 105 11:47 08.02.2021
2779 Clear 14 1020 41 10000 0.87 162 11:21 08.02.2021
2780 Clear 14 1020 41 10000 0.87 162 10:44 08.02.2021
2781 Clear 15 1021 42 10000 1.46 190 10:24 08.02.2021
2782 Clear 15 1021 42 10000 1.46 190 09:53 08.02.2021
2783 Clear 15 1021 42 10000 1.46 190 09:35 08.02.2021
2784 Clear 15 1022 42 10000 1.21 217 08:46 08.02.2021
2785 Clear 15 1023 42 10000 0.36 246 08:20 08.02.2021
2786 Clear 15 1024 38 10000 0.7 19 07:22 08.02.2021
2787 Clear 14 1025 36 10000 2.04 17 05:59 08.02.2021
2788 Clear 6 1026 46 10000 5.57 27 02:29 08.02.2021
2789 Clear 6 1026 46 10000 5.57 27 01:47 08.02.2021
2790 Clear 6 1025 46 10000 5.58 29 00:21 08.02.2021
2791 Clear 6 1025 46 10000 5.58 29 23:49 07.02.2021
2792 Clear 6 1026 46 10000 5.53 29 23:20 07.02.2021
2793 Clear 6 1026 46 10000 5.53 29 22:45 07.02.2021
2794 Clear 6 1026 46 10000 5.5 29 22:26 07.02.2021
2795 Clear 6 1026 46 10000 5.5 29 21:53 07.02.2021
2796 Clear 6 1027 46 10000 5.27 29 21:28 07.02.2021
2797 Clear 6 1027 46 10000 5.27 29 20:56 07.02.2021
2798 Clear 6 1027 46 10000 5.27 29 20:35 07.02.2021
2799 Clear 6 1027 46 10000 5.24 30 19:55 07.02.2021
2800 Clear 6 1027 46 10000 5.24 30 19:31 07.02.2021
2801 Clear 6 1026 46 10000 5.29 29 18:57 07.02.2021
2802 Clear 6 1026 46 10000 5.29 29 18:37 07.02.2021
2803 Clear 6 1026 46 10000 5.29 29 18:37 07.02.2021
2804 Clear 6 1026 46 10000 5.41 30 18:18 07.02.2021
2805 Clear 6 1026 46 10000 5.41 30 17:44 07.02.2021
2806 Clear 7 1026 46 10000 5.33 28 17:20 07.02.2021
2807 Clear 7 1026 46 10000 5.33 28 16:50 07.02.2021
2808 Clear 7 1025 47 10000 4.96 30 16:29 07.02.2021
2809 Clear 7 1025 47 10000 4.96 30 15:59 07.02.2021
2810 Clear 7 1025 47 10000 4.96 30 15:40 07.02.2021
2811 Clear 7 1025 47 10000 4.35 28 15:21 07.02.2021
2812 Clear 7 1025 47 10000 4.35 28 14:40 07.02.2021
2813 Clear 7 1023 47 10000 3.46 27 14:22 07.02.2021
2814 Clear 7 1023 47 10000 3.46 27 13:37 07.02.2021
2815 Clear 9 1022 45 10000 1.63 27 13:19 07.02.2021
2816 Clear 9 1021 46 10000 1.2 36 12:39 07.02.2021
2817 Clear 13 1020 40 10000 0.24 199 12:20 07.02.2021
2818 Clear 13 1020 40 10000 0.24 199 12:20 07.02.2021
2819 Clear 13 1020 40 10000 0.24 199 11:41 07.02.2021
2820 Clear 14 1020 40 10000 0.54 172 11:23 07.02.2021
2821 Clear 14 1020 39 10000 0.95 185 10:29 07.02.2021
2822 Clear 14 1020 39 10000 0.95 185 09:55 07.02.2021
2823 Clear 14 1020 39 10000 0.95 185 09:37 07.02.2021
2824 Clear 14 1021 40 10000 0.88 182 09:18 07.02.2021
2825 Clear 14 1022 39 10000 0.24 36 07:57 07.02.2021
2826 Clear 14 1024 37 10000 1.66 26 06:32 07.02.2021
2827 Clear 10 1026 42 10000 4.57 28 04:45 07.02.2021
2828 Clear 4 1028 49 10000 6.76 31 02:52 07.02.2021
2829 Clear 4 1028 49 10000 6.69 30 00:39 07.02.2021
2830 Clear 3 1027 49 10000 6.73 29 23:53 06.02.2021
2831 Clear 3 1027 50 10000 6.86 29 23:19 06.02.2021
2832 Clear 3 1028 51 10000 6.77 29 22:25 06.02.2021
2833 Clear 3 1028 51 10000 6.77 29 21:38 06.02.2021
2834 Clear 2 1029 52 10000 6.69 29 21:20 06.02.2021
2835 Clear 2 1029 52 10000 6.69 29 20:44 06.02.2021
2836 Clear 2 1030 53 10000 6.63 30 20:23 06.02.2021
2837 Clear 2 1030 53 10000 6.63 30 19:51 06.02.2021
2838 Clear 1 1031 56 10000 6.64 30 19:26 06.02.2021
2839 Clear 1 1031 56 10000 6.64 30 18:46 06.02.2021
2840 Clear 1 1030 57 10000 6.63 30 18:27 06.02.2021
2841 Clear 1 1030 57 10000 6.63 30 17:41 06.02.2021
2842 Clear 1 1030 58 10000 6.86 29 17:21 06.02.2021
2843 Clear 1 1030 58 10000 6.86 29 17:21 06.02.2021
2844 Clear 1 1030 58 10000 6.86 29 16:57 06.02.2021
2845 Clear 1 1030 58 10000 6.86 29 16:34 06.02.2021
2846 Clear 1 1030 58 10000 6.86 29 16:34 06.02.2021
2847 Clear 0 1030 60 10000 6.96 29 15:57 06.02.2021
2848 Clear 0 1030 60 10000 6.96 29 15:38 06.02.2021
2849 Clear 0 1029 62 10000 6.55 29 15:18 06.02.2021
2850 Clear 0 1029 62 10000 6.55 29 14:44 06.02.2021
2851 Clear 1 1028 62 10000 5.63 25 14:22 06.02.2021
2852 Clear 1 1028 62 10000 5.63 25 13:47 06.02.2021
2853 Clear 4 1025 59 10000 2.62 33 12:51 06.02.2021
2854 Clear 7 1022 52 10000 0.5 90 12:21 06.02.2021
2855 Clear 7 1022 52 10000 0.5 90 11:45 06.02.2021
2856 Clear 9 1021 47 10000 0.6 168 11:22 06.02.2021
2857 Clear 9 1021 47 10000 0.6 168 10:54 06.02.2021
2858 Clear 9 1021 44 10000 0.82 170 10:28 06.02.2021
2859 Clear 9 1021 44 10000 0.82 170 09:56 06.02.2021
2860 Clear 9 1021 44 10000 0.82 170 09:36 06.02.2021
2861 Clear 9 1022 43 10000 0.49 133 09:18 06.02.2021
2862 Clear 9 1022 43 10000 0.49 133 08:33 06.02.2021
2863 Clear 9 1024 45 10000 0.93 42 07:56 06.02.2021
2864 Clear 6 1026 52 10000 3.01 28 05:43 06.02.2021
2865 Clear 0 1031 66 10000 5.92 29 03:56 06.02.2021
2866 Clear -3 1031 63 10000 6.4 29 01:42 06.02.2021
2867 Clear -3 1030 64 10000 6.21 30 00:47 06.02.2021
2868 Clear -3 1029 65 10000 5.98 29 00:19 06.02.2021
2869 Clear -3 1029 65 10000 5.98 29 23:42 05.02.2021
2870 Clear -3 1029 66 10000 5.85 30 23:24 05.02.2021
2871 Clear -3 1029 66 10000 5.85 30 22:47 05.02.2021
2872 Clear -3 1030 66 10000 5.8 30 22:20 05.02.2021
2873 Clear -3 1030 66 10000 5.8 30 21:45 05.02.2021
2874 Clear -3 1030 67 10000 5.61 32 21:26 05.02.2021
2875 Clear -3 1030 67 10000 5.61 32 20:45 05.02.2021
2876 Clear -3 1030 68 10000 5.36 31 19:52 05.02.2021
2877 Clouds -2 1029 69 10000 5.48 30 19:20 05.02.2021
2878 Clouds -2 1029 69 10000 5.48 30 18:53 05.02.2021
2879 Clouds -2 1028 70 10000 5.28 29 18:27 05.02.2021
2880 Clouds -2 1028 70 10000 5.28 29 17:45 05.02.2021
2881 Clouds -2 1028 71 10000 4.93 31 17:24 05.02.2021
2882 Clouds -2 1028 71 10000 4.93 31 16:50 05.02.2021
2883 Clouds -2 1027 73 10000 4.54 30 16:24 05.02.2021
2884 Clouds -2 1027 73 10000 4.54 30 15:57 05.02.2021
2885 Clouds -1 1026 77 10000 3.95 28 15:27 05.02.2021
2886 Clouds -1 1026 77 10000 3.95 28 14:55 05.02.2021
2887 Clouds -1 1026 77 10000 3.95 28 14:36 05.02.2021
2888 Clouds 0 1024 82 10000 2.3 26 14:18 05.02.2021
2889 Clouds 0 1024 82 10000 2.3 26 13:38 05.02.2021
2890 Clouds 2 1020 75 3505 0.73 211 13:18 05.02.2021
2891 Clouds 2 1020 75 3505 0.73 211 12:40 05.02.2021
2892 Clouds 5 1019 64 2928 1.85 201 11:58 05.02.2021
2893 Clouds 5 1019 64 2928 1.85 201 11:36 05.02.2021
2894 Clouds 5 1018 61 3707 2.19 192 11:18 05.02.2021
2895 Clouds 5 1018 61 3707 2.19 192 10:41 05.02.2021
2896 Clouds 6 1019 59 7634 2.31 187 10:21 05.02.2021
2897 Clouds 6 1019 59 7634 2.31 187 09:41 05.02.2021
2898 Clouds 6 1020 59 10000 2.22 190 09:21 05.02.2021
2899 Clouds 6 1020 59 10000 2.22 190 08:37 05.02.2021
2900 Clouds 5 1021 60 10000 2.06 195 07:40 05.02.2021
2901 Clouds 5 1022 60 10000 1.58 206 07:19 05.02.2021
2902 Clouds 4 1023 62 10000 0.46 292 05:40 05.02.2021
2903 Clouds 3 1024 68 7738 1.46 8 04:59 05.02.2021
2904 Snow 1 1025 80 1139 1.15 12 02:25 05.02.2021
2905 Snow 1 1024 79 903 1.65 26 00:44 05.02.2021
2906 Snow 1 1023 78 1046 1.84 21 00:21 05.02.2021
2907 Snow 1 1023 78 1046 1.84 21 23:59 04.02.2021
2908 Snow 1 1023 78 1046 1.84 21 23:40 04.02.2021
2909 Snow 1 1023 78 1046 1.84 21 23:40 04.02.2021
2910 Snow 1 1023 78 869 1.73 32 23:22 04.02.2021
2911 Snow 1 1023 78 869 1.73 32 22:52 04.02.2021
2912 Snow 1 1023 78 869 1.73 32 22:30 04.02.2021
2913 Snow 1 1023 77 1132 2.18 28 21:43 04.02.2021
2914 Snow 1 1024 75 2840 2.51 25 21:23 04.02.2021
2915 Snow 1 1024 75 2840 2.51 25 20:54 04.02.2021
2916 Snow 1 1024 75 2840 2.51 25 20:34 04.02.2021
2917 Snow 1 1024 75 2840 2.51 25 20:34 04.02.2021
2918 Snow 1 1024 76 5266 3.05 29 19:49 04.02.2021
2919 Snow 1 1024 74 3961 0.94 69 19:23 04.02.2021
2920 Clouds 2 1023 74 4754 2.52 40 18:40 04.02.2021
2921 Snow 1 1023 75 1247 0.96 62 18:21 04.02.2021
2922 Snow 1 1023 75 1247 0.96 62 17:45 04.02.2021
2923 Clouds 2 1023 73 10000 1.56 48 17:21 04.02.2021
2924 Clouds 2 1023 73 10000 1.56 48 16:49 04.02.2021
2925 Snow 2 1022 76 1028 0.74 70 16:20 04.02.2021
2926 Snow 2 1022 76 1028 0.74 70 15:41 04.02.2021
2927 Snow 2 1022 76 1028 0.74 70 15:41 04.02.2021
2928 Rain 3 1022 71 8387 1.44 45 15:21 04.02.2021
2929 Rain 3 1022 71 8387 1.44 45 14:57 04.02.2021
2930 Rain 3 1022 71 8387 1.44 45 14:39 04.02.2021
2931 Rain 3 1021 72 106 0.92 166 14:19 04.02.2021
2932 Clouds 3 1021 72 106 0.92 166 13:43 04.02.2021
2933 Rain 4 1020 69 6267 0.27 334 12:57 04.02.2021
2934 Rain 4 1020 69 6267 0.27 334 12:57 04.02.2021
2935 Rain 5 1019 65 9526 0.59 322 12:27 04.02.2021
2936 Rain 5 1019 65 9526 0.59 322 11:53 04.02.2021
2937 Rain 5 1019 65 9526 0.59 322 11:33 04.02.2021
2938 Rain 5 1019 60 10000 0.92 195 10:48 04.02.2021
2939 Rain 5 1020 62 6497 0.81 28 10:18 04.02.2021
2940 Rain 5 1020 62 6497 0.81 28 09:43 04.02.2021
2941 Rain 5 1021 63 2865 0.34 8 09:19 04.02.2021
2942 Rain 5 1021 63 2865 0.34 8 08:48 04.02.2021
2943 Rain 4 1023 64 4296 0.86 359 08:24 04.02.2021
2944 Clouds 4 1023 64 4296 0.86 359 07:43 04.02.2021
2945 Clouds 4 1025 64 1827 0.81 116 07:22 04.02.2021
2946 Rain 4 1025 63 2368 0.52 164 06:43 04.02.2021
2947 Snow 1 1029 71 10000 3.39 33 03:54 04.02.2021
2948 Clouds 0 1029 75 10000 3.93 40 02:27 04.02.2021
2949 Clouds -1 1028 76 10000 3.67 37 00:56 04.02.2021
2950 Clouds 0 1027 77 10000 3.16 35 23:44 03.02.2021
2951 Snow 1 1027 79 10000 2.82 45 23:24 03.02.2021
2952 Snow 1 1027 77 5245 1.83 64 22:24 03.02.2021
2953 Snow 1 1027 77 5245 1.83 64 21:59 03.02.2021
2954 Snow 1 1027 77 5245 1.83 64 21:41 03.02.2021
2955 Snow 2 1027 76 1987 1.96 78 21:21 03.02.2021
2956 Snow 2 1027 76 1987 1.96 78 20:46 03.02.2021
2957 Snow 2 1027 75 1140 1.9 76 20:26 03.02.2021
2958 Snow 2 1027 75 1140 1.9 76 19:51 03.02.2021
2959 Snow 2 1027 73 2941 1.95 63 19:23 03.02.2021
2960 Snow 2 1027 74 1746 1.68 71 18:51 03.02.2021
2961 Clouds 2 1027 72 10000 2.75 46 18:22 03.02.2021
2962 Clouds 2 1027 72 10000 2.75 46 17:57 03.02.2021
2963 Clouds 2 1027 72 10000 2.75 46 17:37 03.02.2021
2964 Clouds 2 1026 72 10000 2.73 52 17:18 03.02.2021
2965 Rain 2 1026 72 10000 2.73 52 16:36 03.02.2021
2966 Rain 3 1026 71 7439 2.26 86 15:51 03.02.2021
2967 Rain 3 1026 71 7439 2.26 86 15:31 03.02.2021
2968 Rain 3 1025 70 4416 1.88 127 14:59 03.02.2021
2969 Rain 3 1025 70 4416 1.88 127 14:41 03.02.2021
2970 Rain 3 1023 71 1224 1.35 167 14:20 03.02.2021
2971 Rain 3 1023 71 1224 1.35 167 13:43 03.02.2021
2972 Rain 4 1022 70 209 1.06 173 13:19 03.02.2021
2973 Rain 3 1021 73 214 1.37 209 12:39 03.02.2021
2974 Rain 5 1020 62 5150 1.24 219 12:20 03.02.2021
2975 Rain 5 1020 62 5150 1.24 219 11:41 03.02.2021
2976 Rain 6 1020 58 6234 1.78 217 11:21 03.02.2021
2977 Clouds 6 1020 58 6234 1.78 217 10:37 03.02.2021
2978 Rain 6 1020 56 4529 2.61 206 10:18 03.02.2021
2979 Rain 6 1020 56 4529 2.61 206 09:39 03.02.2021
2980 Rain 7 1021 52 5374 2.5 214 09:20 03.02.2021
2981 Rain 7 1021 52 5374 2.5 214 08:45 03.02.2021
2982 Clouds 7 1023 51 6147 2.15 231 07:58 03.02.2021
2983 Clouds 7 1025 48 10000 0.43 184 06:43 03.02.2021
2984 Clouds 4 1028 60 10000 3.17 32 05:19 03.02.2021
2985 Clouds 4 1028 60 10000 3.17 32 04:42 03.02.2021
2986 Clouds 1 1030 69 10000 4.48 30 03:52 03.02.2021
2987 Clouds 0 1030 72 10000 4.84 31 02:41 03.02.2021
2988 Clouds 0 1030 72 10000 4.31 28 01:47 03.02.2021
2989 Clouds 0 1028 71 10000 4.49 28 00:24 03.02.2021
2990 Clouds 0 1028 71 10000 4.49 28 23:43 02.02.2021
2991 Clouds 0 1028 70 10000 4.32 29 23:25 02.02.2021
2992 Clouds 0 1028 70 10000 4.32 29 22:47 02.02.2021
2993 Clouds 1 1029 68 10000 3.99 30 22:21 02.02.2021
2994 Clouds 1 1029 68 10000 3.99 30 21:46 02.02.2021
2995 Clouds 1 1029 67 10000 3.82 29 21:27 02.02.2021
2996 Clouds 1 1029 67 10000 3.82 29 20:49 02.02.2021
2997 Clouds 1 1029 67 10000 3.86 30 20:23 02.02.2021
2998 Clouds 1 1029 67 10000 3.86 30 19:58 02.02.2021
2999 Clouds 1 1029 67 10000 3.86 30 19:39 02.02.2021
3000 Clouds 1 1029 68 10000 4.25 32 19:21 02.02.2021
3001 Clouds 1 1029 68 10000 4.03 31 18:41 02.02.2021
3002 Clouds 1 1028 68 10000 4.33 35 18:22 02.02.2021
3003 Clouds 1 1028 68 10000 4.33 35 17:40 02.02.2021
3004 Clouds 0 1028 70 10000 4.21 36 17:21 02.02.2021
3005 Clouds 0 1028 70 10000 4.21 36 16:50 02.02.2021
3006 Clouds 0 1028 70 10000 4.21 36 16:31 02.02.2021
3007 Clouds 1 1027 70 10000 3.93 38 15:57 02.02.2021
3008 Clouds 1 1027 70 10000 3.93 38 15:33 02.02.2021
3009 Clouds 1 1026 70 10000 3.5 39 14:56 02.02.2021
3010 Clouds 1 1026 70 10000 3.5 39 14:37 02.02.2021
3011 Clear 1 1024 68 10000 1.91 63 14:18 02.02.2021
3012 Clear 1 1024 68 10000 1.91 63 13:42 02.02.2021
3013 Clear 4 1022 60 10000 1.49 157 13:24 02.02.2021
3014 Clear 4 1022 60 10000 1.49 157 12:53 02.02.2021
3015 Clear 8 1020 49 10000 2.7 183 12:22 02.02.2021
3016 Clear 8 1020 49 10000 2.7 183 11:38 02.02.2021
3017 Clear 9 1019 43 10000 3.19 187 11:19 02.02.2021
3018 Clear 9 1019 43 10000 3.19 187 10:45 02.02.2021
3019 Clear 10 1019 40 10000 3.05 188 10:26 02.02.2021
3020 Clear 10 1019 40 10000 3.05 188 09:45 02.02.2021
3021 Clear 10 1020 40 10000 2.84 191 09:23 02.02.2021
3022 Clear 10 1020 40 10000 2.84 191 08:43 02.02.2021
3023 Clear 10 1022 39 10000 2.46 202 07:47 02.02.2021
3024 Clear 9 1024 40 10000 1.02 221 07:23 02.02.2021
3025 Clear 10 1024 40 10000 0.83 231 06:40 02.02.2021
3026 Clear 8 1025 45 10000 1.18 17 05:51 02.02.2021
3027 Clear 2 1029 57 10000 4.64 29 04:18 02.02.2021
3028 Clear 0 1029 59 10000 5.25 29 02:25 02.02.2021
3029 Clear 0 1029 60 10000 5.4 29 00:40 02.02.2021
3030 Clear 0 1029 60 10000 5.4 29 23:57 01.02.2021
3031 Clear 0 1029 60 10000 5.32 29 22:59 01.02.2021
3032 Clear 0 1029 60 10000 5.32 29 22:59 01.02.2021
3033 Clear 0 1029 60 10000 5.32 29 22:39 01.02.2021
3034 Clear 0 1029 61 10000 5.26 29 22:19 01.02.2021
3035 Clear 0 1029 61 10000 5.26 29 21:46 01.02.2021
3036 Clear 1 1030 61 10000 5.14 28 21:22 01.02.2021
3037 Clear 1 1030 61 10000 5.14 28 20:42 01.02.2021
3038 Clear 1 1030 62 10000 5.23 28 20:24 01.02.2021
3039 Clear 1 1030 62 10000 5.23 28 19:47 01.02.2021
3040 Clear 1 1030 65 10000 5.38 27 19:21 01.02.2021
3041 Clear 1 1030 65 10000 5.38 27 18:56 01.02.2021
3042 Clear 1 1030 65 10000 5.38 27 18:37 01.02.2021
3043 Clear 1 1030 66 10000 5.26 26 18:19 01.02.2021
3044 Clear 1 1030 66 10000 5.26 26 17:41 01.02.2021
3045 Clouds 1 1029 67 10000 4.93 27 17:19 01.02.2021
3046 Clouds 1 1029 67 10000 4.93 27 16:40 01.02.2021
3047 Clouds 2 1029 67 10000 4.55 29 16:21 01.02.2021
3048 Clouds 2 1029 67 10000 4.55 29 15:40 01.02.2021
3049 Clouds 2 1028 68 10000 4.12 30 15:19 01.02.2021
3050 Clouds 2 1028 68 10000 4.12 30 15:19 01.02.2021
3051 Clouds 2 1028 68 10000 4.12 30 14:48 01.02.2021
3052 Clouds 3 1026 68 10000 2.57 39 14:23 01.02.2021
3053 Clouds 3 1026 68 10000 2.57 39 13:42 01.02.2021
3054 Clouds 4 1023 64 10000 0.31 122 13:24 01.02.2021
3055 Clouds 5 1023 63 10000 0.43 118 12:44 01.02.2021
3056 Clouds 8 1021 52 10000 1.51 202 12:24 01.02.2021
3057 Clouds 8 1021 52 10000 1.51 202 11:43 01.02.2021
3058 Clouds 10 1021 47 10000 2.11 208 11:20 01.02.2021
3059 Clouds 10 1021 47 10000 2.11 208 10:47 01.02.2021
3060 Clouds 10 1021 45 10000 1.97 203 10:21 01.02.2021
3061 Clouds 10 1021 45 10000 1.97 203 09:49 01.02.2021
3062 Clouds 10 1022 45 10000 1.62 208 09:25 01.02.2021
3063 Clouds 10 1022 45 10000 1.62 208 08:56 01.02.2021
3064 Clouds 10 1024 45 10000 0.99 234 08:22 01.02.2021
3065 Clouds 9 1025 46 10000 0.29 318 06:51 01.02.2021
3066 Clouds 6 1028 55 10000 2.94 27 04:32 01.02.2021
3067 Clouds 1 1029 71 10000 4.8 27 02:37 01.02.2021
3068 Clouds 1 1027 68 10000 3.55 35 23:52 31.01.2021
3069 Clouds 3 1028 63 4845 2.43 45 22:56 31.01.2021
3070 Clouds 3 1028 63 4845 2.43 45 22:37 31.01.2021
3071 Clouds 3 1028 63 4845 2.43 45 22:37 31.01.2021
3072 Clouds 2 1028 63 5271 3.06 25 22:18 31.01.2021
3073 Clouds 2 1028 63 5271 3.06 25 21:42 31.01.2021
3074 Clouds 2 1028 61 10000 3.43 40 21:19 31.01.2021
3075 Clouds 2 1028 61 10000 3.43 40 20:42 31.01.2021
3076 Clouds 2 1028 62 10000 3.9 29 20:20 31.01.2021
3077 Clouds 2 1028 62 10000 3.9 29 19:38 31.01.2021
3078 Clear 1 1028 63 10000 4.34 30 19:19 31.01.2021
3079 Clear 1 1028 63 10000 4.34 30 18:44 31.01.2021
3080 Clear 1 1028 63 10000 4.49 30 18:24 31.01.2021
3081 Clear 1 1028 63 10000 4.49 30 17:57 31.01.2021
3082 Clear 1 1028 63 10000 4.49 30 17:38 31.01.2021
3083 Clear 2 1027 63 10000 4.36 31 17:19 31.01.2021
3084 Clear 2 1027 63 10000 4.36 31 16:41 31.01.2021
3085 Clear 2 1026 63 10000 4.29 30 16:20 31.01.2021
3086 Clear 2 1026 63 10000 4.29 30 15:48 31.01.2021
3087 Clear 2 1025 63 10000 4.04 27 15:21 31.01.2021
3088 Clear 2 1025 63 10000 4.04 27 14:36 31.01.2021
3089 Clear 2 1023 64 10000 3.12 30 14:18 31.01.2021
3090 Clear 2 1023 64 10000 3.12 30 13:41 31.01.2021
3091 Clear 4 1020 59 10000 0.56 51 13:18 31.01.2021
3092 Clear 3 1020 60 10000 0.37 112 12:45 31.01.2021
3093 Clear 8 1019 49 10000 1.31 191 12:20 31.01.2021
3094 Clear 8 1019 49 10000 1.31 191 11:39 31.01.2021
3095 Clear 10 1018 42 10000 1.67 185 11:20 31.01.2021
3096 Clear 10 1018 42 10000 1.67 185 10:45 31.01.2021
3097 Clear 10 1018 41 10000 2.14 188 10:26 31.01.2021
3098 Clear 10 1018 41 10000 2.14 188 09:41 31.01.2021
3099 Clear 10 1019 39 10000 2.17 197 08:52 31.01.2021
3100 Clear 10 1019 39 10000 2.17 197 08:30 31.01.2021
3101 Clear 10 1021 38 10000 1.02 210 06:47 31.01.2021
3102 Clear 3 1024 52 10000 4.01 28 03:53 31.01.2021
3103 Clear 1 1024 56 10000 4.39 30 00:28 31.01.2021
3104 Clear 1 1024 56 10000 4.39 30 23:59 30.01.2021
3105 Clear 1 1025 56 10000 4.22 30 23:28 30.01.2021
3106 Clear 1 1025 56 10000 4.22 30 22:43 30.01.2021
3107 Clear 1 1025 56 10000 4.31 30 22:23 30.01.2021
3108 Clear 1 1025 56 10000 4.31 30 21:39 30.01.2021
3109 Clear 1 1025 57 10000 4.34 30 21:20 30.01.2021
3110 Clear 1 1025 57 10000 4.34 30 20:41 30.01.2021
3111 Clear 1 1025 58 10000 4.42 30 20:23 30.01.2021
3112 Clear 1 1025 58 10000 4.42 30 19:40 30.01.2021
3113 Clear 1 1025 59 10000 4.42 31 19:22 30.01.2021
3114 Clear 1 1025 59 10000 4.19 31 18:40 30.01.2021
3115 Clear 1 1025 60 10000 4.23 30 18:21 30.01.2021
3116 Clear 1 1025 60 10000 4.23 30 17:49 30.01.2021
3117 Clear 1 1025 61 10000 4.28 29 17:19 30.01.2021
3118 Clear 1 1025 61 10000 4.28 29 16:42 30.01.2021
3119 Clear 1 1025 62 10000 4.05 30 16:23 30.01.2021
3120 Clear 1 1025 62 10000 4.05 30 15:49 30.01.2021
3121 Clear 1 1024 63 10000 4.04 25 15:25 30.01.2021
3122 Clear 1 1024 63 10000 4.04 25 14:58 30.01.2021
3123 Clear 1 1024 63 10000 4.04 25 14:39 30.01.2021
3124 Clear 1 1022 64 10000 3.64 23 14:18 30.01.2021
3125 Clear 2 1020 62 10000 1.32 39 13:24 30.01.2021
3126 Clear 2 1020 62 10000 1.19 36 12:46 30.01.2021
3127 Clear 6 1018 52 10000 0.33 161 12:28 30.01.2021
3128 Clear 6 1018 52 10000 0.33 161 11:54 30.01.2021
3129 Clear 8 1018 46 10000 1.01 181 11:24 30.01.2021
3130 Clear 8 1018 46 10000 1.01 181 10:43 30.01.2021
3131 Clear 8 1018 44 10000 1.8 190 09:43 30.01.2021
3132 Clear 9 1020 43 10000 2.21 192 09:25 30.01.2021
3133 Clear 9 1020 43 10000 2.21 192 08:47 30.01.2021
3134 Clear 9 1021 40 10000 1.55 192 07:44 30.01.2021
3135 Clear 8 1023 44 10000 0.36 6 06:36 30.01.2021
3136 Clear 0 1030 60 10000 5.65 27 04:28 30.01.2021
3137 Clear 0 1030 60 10000 5.65 27 03:34 30.01.2021
3138 Clear -4 1030 56 10000 6.12 27 02:23 30.01.2021
3139 Clear -4 1031 57 10000 6.38 28 01:28 30.01.2021
3140 Clear -4 1031 56 10000 6.39 28 00:35 30.01.2021
3141 Clear -4 1031 57 10000 6.35 28 23:58 29.01.2021
3142 Clear -4 1031 57 10000 6.35 28 23:40 29.01.2021
3143 Clear -4 1031 58 10000 6.41 29 23:18 29.01.2021
3144 Clear -4 1031 58 10000 6.41 29 22:38 29.01.2021
3145 Clear -4 1031 59 10000 6.43 28 22:18 29.01.2021
3146 Clear -4 1031 60 10000 6.46 28 21:28 29.01.2021
3147 Clear -4 1031 60 10000 6.46 28 20:45 29.01.2021
3148 Clear -4 1031 61 10000 6.38 29 20:25 29.01.2021
3149 Clear -4 1031 61 10000 6.38 29 19:43 29.01.2021
3150 Clear -4 1032 61 10000 6.32 29 19:22 29.01.2021
3151 Clear -4 1032 61 10000 6.39 29 18:58 29.01.2021
3152 Clear -4 1032 61 10000 6.28 30 18:18 29.01.2021
3153 Clear -4 1032 61 10000 6.28 30 17:37 29.01.2021
3154 Clear -4 1031 62 10000 5.94 29 17:18 29.01.2021
3155 Clear -4 1031 62 10000 5.94 29 16:44 29.01.2021
3156 Clear -3 1030 63 10000 5.47 28 16:23 29.01.2021
3157 Clear -3 1030 63 10000 5.47 28 15:42 29.01.2021
3158 Clear -3 1028 66 10000 4.93 29 15:24 29.01.2021
3159 Clear -3 1028 66 10000 4.93 29 14:32 29.01.2021
3160 Clouds -2 1027 69 10000 3.79 29 13:59 29.01.2021
3161 Clouds -2 1027 69 10000 3.79 29 13:37 29.01.2021
3162 Clouds 1 1024 70 10000 0.51 32 13:18 29.01.2021
3163 Clouds 4 1022 56 10000 1.01 219 12:24 29.01.2021
3164 Clouds 4 1022 56 10000 1.01 219 11:47 29.01.2021
3165 Clouds 6 1021 48 10000 1.48 207 11:19 29.01.2021
3166 Clouds 6 1021 48 10000 1.48 207 10:51 29.01.2021
3167 Clouds 6 1021 45 10000 1.54 195 10:27 29.01.2021
3168 Clouds 6 1021 45 10000 1.54 195 09:49 29.01.2021
3169 Clouds 6 1022 44 10000 1.3 195 08:58 29.01.2021
3170 Clouds 6 1022 44 10000 1.3 195 08:38 29.01.2021
3171 Clouds 6 1024 45 10000 0.7 249 08:19 29.01.2021
3172 Clouds 6 1024 45 10000 0.7 249 07:41 29.01.2021
3173 Clear 6 1025 50 10000 0.93 353 07:20 29.01.2021
3174 Clear 2 1029 63 10000 3.42 26 05:23 29.01.2021
3175 Clear -2 1031 66 10000 4.75 29 03:50 29.01.2021
3176 Clear -3 1030 65 10000 5.09 29 00:44 29.01.2021
3177 Clear -3 1030 66 10000 4.98 28 00:22 29.01.2021
3178 Clear -3 1030 66 10000 4.98 28 23:44 28.01.2021
3179 Clear -3 1030 66 10000 4.9 30 23:25 28.01.2021
3180 Clear -3 1030 66 10000 4.9 30 22:49 28.01.2021
3181 Clear -3 1030 66 10000 4.81 29 22:28 28.01.2021
3182 Clear -3 1030 66 10000 4.81 29 21:59 28.01.2021
3183 Clear -3 1030 66 10000 4.81 29 21:40 28.01.2021
3184 Clear -2 1030 66 10000 4.73 28 21:20 28.01.2021
3185 Clear -2 1030 66 10000 4.73 28 20:40 28.01.2021
3186 Clouds -2 1030 66 10000 4.67 29 20:18 28.01.2021
3187 Clear -2 1030 66 10000 4.78 29 19:47 28.01.2021
3188 Clouds -2 1029 66 10000 4.71 30 19:24 28.01.2021
3189 Clouds -2 1029 66 10000 4.71 30 18:48 28.01.2021
3190 Clouds -2 1029 66 10000 4.77 32 18:28 28.01.2021
3191 Clouds -2 1029 66 10000 4.77 32 17:47 28.01.2021
3192 Clouds -2 1028 65 10000 4.76 33 17:29 28.01.2021
3193 Clouds -2 1028 65 10000 4.76 33 16:46 28.01.2021
3194 Clouds -2 1028 66 10000 4.67 33 16:25 28.01.2021
3195 Clouds -2 1028 66 10000 4.67 33 15:59 28.01.2021
3196 Clouds -1 1027 67 10000 4.25 33 15:24 28.01.2021
3197 Clouds -1 1027 67 10000 4.25 33 14:44 28.01.2021
3198 Clouds -1 1027 67 10000 4.25 33 14:44 28.01.2021
3199 Clear -1 1025 70 10000 3.01 37 14:23 28.01.2021
3200 Clear -1 1025 70 10000 3.01 37 13:54 28.01.2021
3201 Clear 1 1023 70 10000 0.89 121 13:23 28.01.2021
3202 Clear 1 1022 68 10000 0.92 113 12:49 28.01.2021
3203 Clear 5 1020 55 10000 1.87 183 12:26 28.01.2021
3204 Clear 5 1020 55 10000 1.87 183 11:44 28.01.2021
3205 Clear 7 1020 48 10000 2.28 187 11:22 28.01.2021
3206 Clear 7 1020 48 10000 2.28 187 10:58 28.01.2021
3207 Clear 7 1020 48 10000 2.28 187 10:40 28.01.2021
3208 Clear 8 1020 45 10000 2.39 189 10:22 28.01.2021
3209 Clear 8 1020 45 10000 2.39 189 09:38 28.01.2021
3210 Clear 8 1021 43 10000 2.06 196 09:19 28.01.2021
3211 Clear 8 1021 43 10000 2.06 196 08:44 28.01.2021
3212 Clear 8 1023 42 10000 1.15 221 07:50 28.01.2021
3213 Clear 7 1025 45 10000 0.72 342 07:18 28.01.2021
3214 Clear 7 1025 45 10000 0.72 342 06:46 28.01.2021
3215 Clear 3 1028 58 10000 3.68 28 04:30 28.01.2021
3216 Clear -3 1031 61 10000 5.58 30 02:45 28.01.2021
3217 Clear -2 1029 61 10000 5.49 31 00:35 28.01.2021
3218 Clear -2 1030 62 10000 5.23 31 23:25 27.01.2021
3219 Clear -2 1030 62 10000 5.23 31 22:57 27.01.2021
3220 Clear -2 1030 62 10000 5.23 31 22:39 27.01.2021
3221 Clear -2 1030 63 10000 5.12 31 22:18 27.01.2021
3222 Clear -2 1030 63 10000 5.12 31 21:41 27.01.2021
3223 Clear -2 1030 63 10000 5.05 31 21:22 27.01.2021
3224 Clear -2 1030 63 10000 5.05 31 21:22 27.01.2021
3225 Clear -2 1030 63 10000 5.05 31 20:41 27.01.2021
3226 Clear -2 1030 63 10000 5.02 32 19:59 27.01.2021
3227 Clear -2 1030 63 10000 5.02 32 19:41 27.01.2021
3228 Clear -1 1029 63 10000 4.95 31 19:21 27.01.2021
3229 Clear -1 1029 63 10000 4.95 31 18:43 27.01.2021
3230 Clear -1 1029 63 10000 4.94 33 18:23 27.01.2021
3231 Clear -1 1029 63 10000 4.94 33 17:47 27.01.2021
3232 Clear -1 1028 63 10000 4.86 33 17:28 27.01.2021
3233 Clear -1 1028 63 10000 4.86 33 16:49 27.01.2021
3234 Clear -1 1028 63 10000 4.75 34 16:28 27.01.2021
3235 Clear -1 1028 63 10000 4.75 34 15:51 27.01.2021
3236 Clear -1 1028 63 10000 4.75 34 15:33 27.01.2021
3237 Clear 0 1027 64 10000 4.37 36 14:47 27.01.2021
3238 Clear 0 1025 64 10000 3.94 36 14:23 27.01.2021
3239 Clear 0 1025 64 10000 3.94 36 13:48 27.01.2021
3240 Clear 2 1022 61 10000 1.61 55 13:27 27.01.2021
3241 Clear 2 1022 61 10000 1.61 55 12:41 27.01.2021
3242 Clear 6 1020 51 10000 0.87 160 12:22 27.01.2021
3243 Clear 6 1020 51 10000 0.87 160 11:46 27.01.2021
3244 Clear 8 1019 45 10000 1.33 180 11:23 27.01.2021
3245 Clear 8 1019 45 10000 1.33 180 10:41 27.01.2021
3246 Clear 9 1020 41 10000 1.51 188 10:21 27.01.2021
3247 Clear 9 1020 41 10000 1.51 188 09:50 27.01.2021
3248 Clear 9 1021 39 10000 1.06 208 09:25 27.01.2021
3249 Clear 9 1021 39 10000 1.06 208 08:39 27.01.2021
3250 Clear 9 1023 41 10000 0.65 257 07:45 27.01.2021
3251 Clear 8 1024 44 10000 0.75 341 07:21 27.01.2021
3252 Clear 6 1026 49 10000 2.06 19 06:21 27.01.2021
3253 Clear 6 1026 49 10000 2.06 19 05:46 27.01.2021
3254 Clear 3 1028 57 10000 3.47 24 04:37 27.01.2021
3255 Clear -3 1030 55 10000 5.42 29 02:24 27.01.2021
3256 Clear -3 1030 55 10000 5.42 29 01:52 27.01.2021
3257 Clear -2 1030 55 10000 5.46 29 00:51 27.01.2021
3258 Clear -3 1030 56 10000 5.39 29 23:51 26.01.2021
3259 Clear -3 1030 56 10000 5.39 29 23:32 26.01.2021
3260 Clear -2 1029 56 10000 5.47 29 22:52 26.01.2021
3261 Clear -2 1029 56 10000 5.47 29 22:33 26.01.2021
3262 Clear -2 1030 57 10000 5.58 29 21:59 26.01.2021
3263 Clear -2 1030 57 10000 5.58 29 21:40 26.01.2021
3264 Clear -2 1030 57 10000 5.55 30 21:21 26.01.2021
3265 Clear -2 1030 57 10000 5.55 30 20:41 26.01.2021
3266 Clear -2 1030 58 10000 5.44 30 20:22 26.01.2021
3267 Clear -2 1030 58 10000 5.44 30 19:48 26.01.2021
3268 Clear -2 1030 59 10000 5.35 31 19:29 26.01.2021
3269 Clear -2 1030 59 10000 5.29 31 18:57 26.01.2021
3270 Clear -2 1030 59 10000 5.29 31 18:37 26.01.2021
3271 Clear -2 1029 59 10000 5.26 31 18:18 26.01.2021
3272 Clear -2 1029 59 10000 5.26 31 17:46 26.01.2021
3273 Clear -2 1029 60 10000 5.22 32 17:19 26.01.2021
3274 Clear -2 1029 60 10000 5.22 32 16:41 26.01.2021
3275 Clear -1 1028 61 10000 5.03 33 16:20 26.01.2021
3276 Clear -1 1028 61 10000 5.03 33 15:48 26.01.2021
3277 Clear -1 1026 63 10000 4.63 36 15:27 26.01.2021
3278 Clear -1 1026 63 10000 4.63 36 14:49 26.01.2021
3279 Clear 0 1025 66 10000 3.84 38 14:29 26.01.2021
3280 Clear 0 1025 66 10000 3.84 38 13:38 26.01.2021
3281 Clear 1 1022 65 10000 1.26 81 13:19 26.01.2021
3282 Clear 1 1022 64 10000 1.34 78 12:44 26.01.2021
3283 Clear 6 1019 53 10000 1.63 172 12:25 26.01.2021
3284 Clear 6 1019 53 10000 1.63 172 11:57 26.01.2021
3285 Clear 6 1019 53 10000 1.63 172 11:57 26.01.2021
3286 Clear 6 1019 53 10000 1.63 172 11:38 26.01.2021
3287 Clear 8 1018 47 10000 2.28 181 10:47 26.01.2021
3288 Clear 8 1018 44 10000 2.57 186 10:29 26.01.2021
3289 Clear 8 1018 44 10000 2.57 186 09:47 26.01.2021
3290 Clear 8 1020 43 10000 2.24 193 09:26 26.01.2021
3291 Clear 8 1020 43 10000 2.24 193 08:53 26.01.2021
3292 Clear 8 1022 41 10000 1.38 209 08:29 26.01.2021
3293 Clear 8 1022 41 10000 1.38 209 07:43 26.01.2021
3294 Clear 6 1025 49 10000 1.66 25 06:23 26.01.2021
3295 Clear 6 1025 49 10000 1.66 25 05:43 26.01.2021
3296 Clear 0 1028 61 10000 4.77 30 04:28 26.01.2021
3297 Clear -2 1029 56 10000 5.18 30 02:44 26.01.2021
3298 Clear -2 1028 57 10000 5.45 30 00:57 26.01.2021
3299 Clear -2 1028 57 10000 5.46 30 23:40 25.01.2021
3300 Clear -2 1028 57 10000 5.49 29 23:18 25.01.2021
3301 Clear -2 1028 57 10000 5.49 29 22:39 25.01.2021
3302 Clear -2 1028 58 10000 5.39 29 21:52 25.01.2021
3303 Clear -2 1028 58 10000 5.39 29 21:33 25.01.2021
3304 Clear -2 1029 58 10000 5.35 29 20:52 25.01.2021
3305 Clear -2 1029 58 10000 5.35 29 20:33 25.01.2021
3306 Clear -2 1029 58 10000 5.35 29 20:33 25.01.2021
3307 Clear -2 1029 59 10000 5.53 29 19:52 25.01.2021
3308 Clear -2 1029 59 10000 5.53 29 19:32 25.01.2021
3309 Clear -2 1029 61 10000 5.55 29 18:59 25.01.2021
3310 Clear -2 1029 62 10000 5.22 30 18:41 25.01.2021
3311 Clear -2 1029 63 10000 5.23 30 18:21 25.01.2021
3312 Clear -2 1029 63 10000 5.23 30 17:42 25.01.2021
3313 Clear -2 1028 64 10000 5.18 32 17:23 25.01.2021
3314 Clear -2 1028 64 10000 5.18 32 16:41 25.01.2021
3315 Clear -1 1028 66 10000 5.02 32 16:23 25.01.2021
3316 Clear -1 1028 66 10000 5.02 32 15:53 25.01.2021
3317 Clear -1 1028 66 10000 5.02 32 15:32 25.01.2021
3318 Clear -1 1027 67 10000 4.72 33 14:51 25.01.2021
3319 Clear -1 1025 69 10000 3.96 34 14:20 25.01.2021
3320 Clear -1 1025 69 10000 3.96 34 13:55 25.01.2021
3321 Clear -1 1025 69 10000 3.96 34 13:36 25.01.2021
3322 Clear 1 1023 67 10000 1.42 64 12:49 25.01.2021
3323 Clear 5 1021 55 10000 1.23 167 12:25 25.01.2021
3324 Clear 5 1021 55 10000 1.23 167 11:58 25.01.2021
3325 Clear 8 1020 48 10000 1.75 183 11:25 25.01.2021
3326 Clear 8 1020 48 10000 1.75 183 10:45 25.01.2021
3327 Clear 8 1020 45 10000 1.99 188 10:21 25.01.2021
3328 Clear 8 1020 45 10000 1.99 188 09:48 25.01.2021
3329 Clear 8 1021 44 10000 2.07 199 09:28 25.01.2021
3330 Clear 8 1021 44 10000 2.07 199 08:33 25.01.2021
3331 Clear 8 1023 43 10000 1.16 228 07:51 25.01.2021
3332 Clear 7 1024 47 10000 0.81 345 07:27 25.01.2021
3333 Clear 5 1026 51 10000 2.24 20 06:25 25.01.2021
3334 Clear -3 1030 58 10000 5.74 29 02:23 25.01.2021
3335 Clear -3 1029 59 10000 5.76 29 00:37 25.01.2021
3336 Clear -3 1029 62 10000 5.8 28 23:21 24.01.2021
3337 Clear -3 1029 62 10000 5.8 28 22:59 24.01.2021
3338 Clear -3 1029 62 10000 5.8 28 22:40 24.01.2021
3339 Clear -2 1029 63 10000 5.7 28 22:18 24.01.2021
3340 Clear -2 1029 63 10000 5.7 28 21:30 24.01.2021
3341 Clear -2 1029 65 10000 5.62 28 20:47 24.01.2021
3342 Clear -2 1029 66 10000 5.47 28 20:24 24.01.2021
3343 Clear -2 1029 66 10000 5.47 28 19:58 24.01.2021
3344 Clear -2 1029 66 10000 5.47 28 19:39 24.01.2021
3345 Clear -2 1029 67 10000 5.33 29 19:20 24.01.2021
3346 Clear -2 1029 68 10000 5.23 29 18:56 24.01.2021
3347 Clear -2 1029 68 10000 5.23 29 18:37 24.01.2021
3348 Clear -2 1028 68 10000 5.13 30 18:18 24.01.2021
3349 Clear -2 1028 68 10000 5.13 30 17:45 24.01.2021
3350 Clear -2 1028 69 10000 5.15 29 17:20 24.01.2021
3351 Clear -2 1028 69 10000 5.15 29 16:42 24.01.2021
3352 Clear -2 1027 69 10000 5.15 28 16:21 24.01.2021
3353 Clear -2 1027 69 10000 5.15 28 15:48 24.01.2021
3354 Clouds -1 1025 70 10000 4.81 29 15:21 24.01.2021
3355 Clouds -1 1025 70 10000 4.81 29 14:57 24.01.2021
3356 Clouds -1 1025 70 10000 4.81 29 14:34 24.01.2021
3357 Clouds -1 1023 73 10000 4.02 31 13:40 24.01.2021
3358 Clouds 2 1021 72 10000 1.57 53 13:20 24.01.2021
3359 Clouds 2 1021 72 10000 1.45 61 12:42 24.01.2021
3360 Clouds 5 1019 60 10000 0.93 158 12:19 24.01.2021
3361 Clouds 5 1019 60 10000 0.93 158 11:49 24.01.2021
3362 Clear 7 1018 53 10000 1.17 185 11:23 24.01.2021
3363 Clear 7 1018 53 10000 1.17 185 10:42 24.01.2021
3364 Clear 7 1017 51 10000 1.37 203 09:59 24.01.2021
3365 Clear 7 1018 51 10000 1.49 211 09:22 24.01.2021
3366 Clear 7 1018 51 10000 1.49 211 08:55 24.01.2021
3367 Clear 7 1019 52 10000 1.33 214 07:41 24.01.2021
3368 Clouds -1 1023 77 10000 3.82 32 02:39 24.01.2021
3369 Clouds -1 1022 81 10000 3 33 01:46 24.01.2021
3370 Snow 1 1020 78 4645 0.9 44 00:24 24.01.2021
3371 Snow 1 1020 78 4645 0.9 44 23:49 23.01.2021
3372 Clouds 2 1019 75 1065 0.76 141 23:26 23.01.2021
3373 Clouds 2 1019 75 1065 0.76 141 22:51 23.01.2021
3374 Clouds 2 1019 75 1065 0.76 141 22:33 23.01.2021
3375 Clouds 3 1018 73 227 1.28 180 21:52 23.01.2021
3376 Clouds 4 1018 71 123 2.66 204 21:22 23.01.2021
3377 Clouds 4 1018 71 123 2.66 204 20:47 23.01.2021
3378 Clouds 4 1017 70 74 3.6 216 20:25 23.01.2021
3379 Clouds 4 1017 70 74 3.6 216 19:47 23.01.2021
3380 Clouds 4 1017 69 44 4.64 196 19:23 23.01.2021
3381 Rain 4 1017 69 44 4.64 196 18:49 23.01.2021
3382 Rain 5 1016 68 41 4.97 201 18:26 23.01.2021
3383 Rain 5 1016 68 41 4.97 201 18:26 23.01.2021
3384 Clouds 5 1016 68 41 4.97 201 17:55 23.01.2021
3385 Clouds 5 1015 67 58 4.39 222 17:27 23.01.2021
3386 Rain 5 1015 67 58 4.39 222 16:50 23.01.2021
3387 Rain 5 1015 67 58 4.39 222 16:31 23.01.2021
3388 Rain 4 1014 68 51 4.45 212 15:48 23.01.2021
3389 Rain 4 1013 68 62 4.63 196 15:26 23.01.2021
3390 Rain 4 1013 68 62 4.63 196 14:37 23.01.2021
3391 Rain 4 1012 68 185 5 207 14:19 23.01.2021
3392 Rain 4 1012 68 185 5 207 13:40 23.01.2021
3393 Rain 5 1010 67 104 5.42 212 13:21 23.01.2021
3394 Clouds 5 1010 65 1283 5.86 204 12:41 23.01.2021
3395 Clouds 6 1009 61 1502 5.78 198 12:21 23.01.2021
3396 Rain 6 1009 61 1502 5.78 198 11:34 23.01.2021
3397 Clouds 6 1009 57 1619 7.38 200 10:52 23.01.2021
3398 Clouds 7 1009 55 2933 6.8 206 10:22 23.01.2021
3399 Clouds 7 1009 55 2933 6.8 206 09:49 23.01.2021
3400 Clouds 7 1010 54 4530 6.03 200 09:24 23.01.2021
3401 Clouds 7 1010 54 4530 6.03 200 08:38 23.01.2021
3402 Clouds 7 1012 56 4978 5.27 196 07:37 23.01.2021
3403 Clouds 6 1013 57 5705 4.01 196 06:48 23.01.2021
3404 Clouds 3 1020 66 6063 0.62 102 01:44 23.01.2021
3405 Clouds 4 1020 60 9223 0.44 103 23:59 22.01.2021
3406 Clouds 4 1020 60 9223 0.44 103 23:35 22.01.2021
3407 Clouds 4 1020 59 10000 0.49 95 22:40 22.01.2021
3408 Clouds 4 1020 57 10000 0.69 100 21:56 22.01.2021
3409 Clouds 4 1020 57 10000 0.69 100 21:37 22.01.2021
3410 Clouds 4 1021 58 10000 0.56 92 21:19 22.01.2021
3411 Clouds 4 1021 58 10000 0.56 92 20:44 22.01.2021
3412 Clouds 3 1021 58 10000 0.55 86 20:25 22.01.2021
3413 Clouds 3 1021 58 10000 0.55 86 19:37 22.01.2021
3414 Clouds 4 1021 56 10000 0.47 99 19:18 22.01.2021
3415 Clouds 4 1021 56 10000 0.47 99 18:43 22.01.2021
3416 Clouds 4 1020 56 10000 0.74 79 18:23 22.01.2021
3417 Clouds 4 1020 56 10000 0.74 79 17:44 22.01.2021
3418 Clouds 4 1020 55 10000 0.98 68 17:25 22.01.2021
3419 Clouds 4 1020 55 10000 0.98 68 16:45 22.01.2021
3420 Clouds 4 1020 54 10000 1.24 53 16:24 22.01.2021
3421 Clouds 4 1020 54 10000 1.24 53 15:41 22.01.2021
3422 Clouds 4 1019 53 10000 1.32 64 15:18 22.01.2021
3423 Clouds 4 1019 53 10000 1.32 64 14:31 22.01.2021
3424 Clouds 5 1017 53 10000 1.22 93 13:52 22.01.2021
3425 Clouds 5 1017 52 10000 1.04 111 13:32 22.01.2021
3426 Clouds 6 1015 51 10000 1.19 158 12:53 22.01.2021
3427 Clouds 9 1014 45 10000 2.28 183 12:26 22.01.2021
3428 Clouds 9 1014 45 10000 2.28 183 11:47 22.01.2021
3429 Clouds 11 1014 40 10000 3.22 190 11:25 22.01.2021
3430 Clouds 11 1014 40 10000 3.22 190 10:45 22.01.2021
3431 Clouds 12 1014 36 10000 3.91 193 10:20 22.01.2021
3432 Clouds 12 1014 36 10000 3.91 193 09:35 22.01.2021
3433 Clouds 12 1015 35 10000 3.37 195 08:51 22.01.2021
3434 Clouds 12 1015 35 10000 3.37 195 08:30 22.01.2021
3435 Clouds 12 1017 34 10000 2.63 200 07:40 22.01.2021
3436 Clouds 7 1021 43 10000 1.74 44 03:41 22.01.2021
3437 Clouds 7 1020 44 10000 2.39 43 00:54 22.01.2021
3438 Clouds 6 1020 43 10000 2.55 45 00:25 22.01.2021
3439 Clouds 6 1020 43 10000 2.55 45 23:42 21.01.2021
3440 Clouds 6 1020 43 10000 2.69 37 23:20 21.01.2021
3441 Clouds 6 1020 43 10000 2.69 37 22:42 21.01.2021
3442 Clouds 6 1021 42 10000 3.02 40 21:44 21.01.2021
3443 Clouds 6 1021 42 10000 3.21 38 21:23 21.01.2021
3444 Clouds 6 1021 42 10000 3.21 38 20:59 21.01.2021
3445 Clouds 6 1021 42 10000 3.21 38 20:41 21.01.2021
3446 Clouds 6 1021 42 10000 2.98 39 20:20 21.01.2021
3447 Clouds 6 1021 42 10000 2.98 39 19:46 21.01.2021
3448 Clouds 6 1021 43 10000 2.97 36 19:25 21.01.2021
3449 Clouds 6 1021 43 10000 2.97 36 18:43 21.01.2021
3450 Clouds 6 1021 43 10000 3.14 35 18:21 21.01.2021
3451 Clouds 6 1021 43 10000 3.14 35 17:57 21.01.2021
3452 Clouds 6 1021 43 10000 3.14 35 17:57 21.01.2021
3453 Clouds 6 1021 44 10000 3.48 35 17:21 21.01.2021
3454 Clouds 6 1021 44 10000 3.48 35 16:58 21.01.2021
3455 Clouds 6 1021 44 10000 3.48 35 16:38 21.01.2021
3456 Clear 6 1021 46 10000 3.96 33 16:20 21.01.2021
3457 Clear 6 1021 46 10000 3.96 33 15:47 21.01.2021
3458 Clear 6 1021 47 10000 3.98 32 15:24 21.01.2021
3459 Clear 6 1021 47 10000 3.98 32 14:46 21.01.2021
3460 Clear 6 1019 47 10000 3.66 30 14:24 21.01.2021
3461 Clear 6 1019 47 10000 3.66 30 13:43 21.01.2021
3462 Clear 7 1018 46 10000 1.3 47 13:23 21.01.2021
3463 Clear 7 1018 46 10000 1.3 47 13:23 21.01.2021
3464 Clear 7 1018 46 10000 1.3 47 13:23 21.01.2021
3465 Clear 7 1018 46 10000 1.3 47 12:44 21.01.2021
3466 Clear 11 1017 39 10000 0.78 168 12:24 21.01.2021
3467 Clear 11 1017 39 10000 0.78 168 11:52 21.01.2021
3468 Clear 11 1017 39 10000 0.78 168 11:30 21.01.2021
3469 Clear 13 1017 35 10000 0.97 186 10:53 21.01.2021
3470 Clear 13 1017 35 10000 0.97 186 10:34 21.01.2021
3471 Clear 14 1017 34 10000 0.84 223 09:49 21.01.2021
3472 Clear 14 1017 34 10000 0.84 223 09:30 21.01.2021
3473 Clear 14 1018 33 10000 0.53 320 08:57 21.01.2021
3474 Clear 14 1020 33 10000 1.41 11 08:27 21.01.2021
3475 Clear 14 1020 33 10000 1.41 11 07:45 21.01.2021
3476 Clear 12 1022 35 10000 2.74 16 07:25 21.01.2021
3477 Clear 10 1024 39 10000 4.02 19 05:59 21.01.2021
3478 Clear 3 1027 46 10000 6.57 28 04:29 21.01.2021
3479 Clear 1 1028 50 10000 6.99 26 02:18 21.01.2021
3480 Clear 0 1027 50 10000 7.25 28 00:41 21.01.2021
3481 Clear 0 1028 53 10000 7.54 27 23:44 20.01.2021
3482 Clear 0 1028 53 10000 7.37 27 23:24 20.01.2021
3483 Clear 0 1028 53 10000 7.37 27 22:50 20.01.2021
3484 Clear -1 1028 54 10000 7.23 26 22:29 20.01.2021
3485 Clear -1 1028 54 10000 7.23 26 21:49 20.01.2021
3486 Clear -1 1029 55 10000 7.17 27 21:23 20.01.2021
3487 Clear -1 1029 55 10000 7.17 27 20:52 20.01.2021
3488 Clear -1 1029 56 10000 6.98 27 20:23 20.01.2021
3489 Clear -1 1029 56 10000 6.98 27 19:48 20.01.2021
3490 Clear -1 1029 56 10000 6.98 27 19:48 20.01.2021
3491 Clear -1 1029 57 10000 6.67 27 19:28 20.01.2021
3492 Clear -1 1029 57 10000 6.91 27 18:43 20.01.2021
3493 Clear -1 1029 58 10000 6.56 27 18:21 20.01.2021
3494 Clear -1 1029 58 10000 6.56 27 17:50 20.01.2021
3495 Clear -1 1029 58 10000 6.56 27 17:31 20.01.2021
3496 Clear -1 1028 60 10000 6.23 27 16:51 20.01.2021
3497 Clear 0 1027 62 10000 5.98 28 16:23 20.01.2021
3498 Clear 0 1027 62 10000 5.98 28 15:45 20.01.2021
3499 Clear 0 1026 63 10000 5.48 29 15:19 20.01.2021
3500 Clear 0 1026 63 10000 5.48 29 14:41 20.01.2021
3501 Clear 1 1024 64 10000 4.6 28 14:20 20.01.2021
3502 Clear 1 1024 64 10000 4.6 28 13:40 20.01.2021
3503 Clear 3 1021 59 10000 1.86 44 12:57 20.01.2021
3504 Clear 7 1019 49 10000 0.73 146 12:27 20.01.2021
3505 Clear 7 1019 49 10000 0.73 146 11:42 20.01.2021
3506 Clear 9 1017 44 10000 1.26 179 11:22 20.01.2021
3507 Clear 9 1017 44 10000 1.26 179 10:50 20.01.2021
3508 Clear 9 1017 40 10000 1.53 193 10:27 20.01.2021
3509 Clear 9 1017 40 10000 1.53 193 09:42 20.01.2021
3510 Clear 9 1018 38 10000 1.61 198 09:23 20.01.2021
3511 Clear 9 1018 38 10000 1.61 198 08:47 20.01.2021
3512 Clear 9 1019 38 10000 1.59 211 08:24 20.01.2021
3513 Clear 9 1019 38 10000 1.59 211 07:55 20.01.2021
3514 Clear 9 1021 39 10000 0.56 226 07:25 20.01.2021
3515 Clear 5 1023 49 10000 3.05 24 05:24 20.01.2021
3516 Clear -1 1026 54 10000 5.07 28 02:59 20.01.2021
3517 Clear -1 1025 57 10000 4.97 27 00:59 20.01.2021
3518 Clear -1 1025 56 10000 5.1 28 00:31 20.01.2021
3519 Clear -1 1025 57 10000 5.11 29 23:42 19.01.2021
3520 Clear -1 1025 58 10000 5.37 29 23:18 19.01.2021
3521 Clear -1 1025 58 10000 5.37 29 22:41 19.01.2021
3522 Clear -1 1026 60 10000 5.39 28 22:22 19.01.2021
3523 Clear -1 1026 60 10000 5.39 28 21:58 19.01.2021
3524 Clear -1 1026 60 10000 5.39 28 21:40 19.01.2021
3525 Clear -1 1026 61 10000 5.42 29 21:18 19.01.2021
3526 Clear -1 1026 61 10000 5.42 29 20:40 19.01.2021
3527 Clear 0 1026 62 10000 5.3 29 20:22 19.01.2021
3528 Clear 0 1026 62 10000 5.3 29 19:41 19.01.2021
3529 Clear 0 1026 64 10000 5.22 30 19:20 19.01.2021
3530 Clear 0 1026 64 10000 5.22 30 18:40 19.01.2021
3531 Clear 0 1025 64 10000 5.22 30 18:21 19.01.2021
3532 Clear 0 1025 64 10000 5.22 30 17:45 19.01.2021
3533 Clear 0 1025 65 10000 5.02 30 17:24 19.01.2021
3534 Clear 0 1025 65 10000 5.02 30 16:48 19.01.2021
3535 Clear 1 1024 66 10000 4.83 30 16:25 19.01.2021
3536 Clear 1 1024 66 10000 4.83 30 15:57 19.01.2021
3537 Clear 1 1024 66 10000 4.83 30 15:35 19.01.2021
3538 Clear 1 1023 66 10000 4.43 30 14:57 19.01.2021
3539 Clear 1 1023 66 10000 4.43 30 14:37 19.01.2021
3540 Clear 2 1022 66 10000 3.62 35 14:18 19.01.2021
3541 Clear 2 1022 66 10000 3.62 35 13:39 19.01.2021
3542 Clear 3 1020 62 10000 0.95 66 13:20 19.01.2021
3543 Clear 3 1019 62 10000 1.13 51 12:38 19.01.2021
3544 Clear 7 1017 50 10000 0.7 174 12:19 19.01.2021
3545 Clear 7 1017 50 10000 0.7 174 11:43 19.01.2021
3546 Clear 9 1016 43 10000 1.16 187 11:22 19.01.2021
3547 Clear 9 1016 43 10000 1.16 187 10:50 19.01.2021
3548 Clear 9 1016 43 10000 1.16 187 10:30 19.01.2021
3549 Clear 10 1017 40 10000 1.23 195 09:52 19.01.2021
3550 Clear 10 1018 40 10000 1.34 202 09:21 19.01.2021
3551 Clear 10 1018 40 10000 1.34 202 08:48 19.01.2021
3552 Clear 9 1019 40 10000 1.29 219 08:18 19.01.2021
3553 Clear 9 1021 41 10000 0.7 244 07:28 19.01.2021
3554 Clear 8 1023 44 10000 1.29 18 05:42 19.01.2021
3555 Clear 0 1025 61 10000 4.72 28 02:27 19.01.2021
3556 Clear 1 1025 61 10000 4.53 31 00:48 19.01.2021
3557 Clear 1 1025 58 10000 4.69 29 23:58 18.01.2021
3558 Clear 1 1025 58 10000 4.69 29 23:31 18.01.2021
3559 Clear 1 1025 58 10000 4.81 27 22:51 18.01.2021
3560 Clear 1 1026 58 10000 4.84 28 22:24 18.01.2021
3561 Clear 1 1026 58 10000 4.84 28 21:50 18.01.2021
3562 Clear 1 1026 58 10000 4.79 27 21:24 18.01.2021
3563 Clear 1 1026 58 10000 4.79 27 20:59 18.01.2021
3564 Clear 1 1026 58 10000 4.79 27 20:39 18.01.2021
3565 Clear 1 1026 58 10000 4.8 29 20:20 18.01.2021
3566 Clear 1 1026 58 10000 4.8 29 19:48 18.01.2021
3567 Clear 2 1026 58 10000 4.84 29 19:29 18.01.2021
3568 Clear 2 1026 58 10000 4.84 29 18:44 18.01.2021
3569 Clear 1 1026 61 10000 5.04 28 18:22 18.01.2021
3570 Clear 1 1026 61 10000 5.04 28 17:41 18.01.2021
3571 Clear 2 1026 63 10000 4.84 28 17:19 18.01.2021
3572 Clear 2 1026 63 10000 4.84 28 16:46 18.01.2021
3573 Clear 2 1026 64 10000 4.53 27 16:20 18.01.2021
3574 Clear 2 1026 64 10000 4.53 27 15:45 18.01.2021
3575 Clear 2 1025 66 10000 4.12 26 15:25 18.01.2021
3576 Clear 2 1025 66 10000 4.12 26 14:44 18.01.2021
3577 Clear 3 1024 67 10000 2.76 36 14:26 18.01.2021
3578 Clear 3 1024 67 10000 2.76 36 13:46 18.01.2021
3579 Clear 4 1021 64 10000 0.66 118 13:27 18.01.2021
3580 Clear 4 1021 64 10000 0.66 118 12:53 18.01.2021
3581 Clear 8 1020 51 10000 1.61 180 12:20 18.01.2021
3582 Clear 8 1020 51 10000 1.61 180 11:56 18.01.2021
3583 Clear 8 1020 51 10000 1.61 180 11:37 18.01.2021
3584 Clear 10 1019 45 10000 2.27 186 11:19 18.01.2021
3585 Clear 10 1019 45 10000 2.27 186 10:42 18.01.2021
3586 Clear 10 1020 42 10000 2.85 185 09:47 18.01.2021
3587 Clear 11 1021 41 10000 2.86 192 09:27 18.01.2021
3588 Clear 11 1021 41 10000 2.86 192 08:54 18.01.2021
3589 Clear 10 1022 41 10000 2.53 203 08:18 18.01.2021
3590 Clear 10 1022 41 10000 2.53 203 07:36 18.01.2021
3591 Clear 9 1024 43 10000 0.57 14 05:35 18.01.2021
3592 Clear 7 1025 49 10000 2.16 24 04:39 18.01.2021
3593 Clear 4 1027 55 10000 3.76 30 04:18 18.01.2021
3594 Clear 4 1027 55 10000 3.76 30 03:42 18.01.2021
3595 Clear 2 1026 58 10000 4.31 27 03:20 18.01.2021
3596 Clear 2 1026 58 10000 4.31 27 02:38 18.01.2021
3597 Clear 3 1025 58 10000 4.13 31 01:39 18.01.2021
3598 Clear 3 1025 56 10000 4.28 30 00:35 18.01.2021
3599 Clear 3 1025 56 10000 4.22 30 23:49 17.01.2021
3600 Clear 3 1025 55 10000 4.01 30 23:22 17.01.2021
3601 Clear 3 1025 55 10000 4.01 30 22:47 17.01.2021
3602 Clear 4 1025 54 10000 3.7 32 22:22 17.01.2021
3603 Clear 4 1025 54 10000 3.7 32 21:42 17.01.2021
3604 Clear 4 1024 53 10000 3.45 33 21:24 17.01.2021
3605 Clear 4 1024 53 10000 3.45 33 20:50 17.01.2021
3606 Clear 4 1024 53 10000 3.45 33 20:31 17.01.2021
3607 Clear 4 1024 52 10000 3.42 33 19:44 17.01.2021
3608 Clouds 5 1024 52 10000 3.41 36 19:26 17.01.2021
3609 Clouds 5 1024 52 10000 3.41 36 18:53 17.01.2021
3610 Clouds 5 1023 52 10000 3.14 36 18:28 17.01.2021
3611 Clouds 5 1023 52 10000 3.14 36 17:50 17.01.2021
3612 Clouds 5 1022 51 10000 2.99 33 17:28 17.01.2021
3613 Clouds 5 1022 51 10000 2.99 33 16:45 17.01.2021
3614 Clouds 6 1022 50 10000 3.03 35 16:25 17.01.2021
3615 Clouds 6 1022 50 10000 3.03 35 15:45 17.01.2021
3616 Clouds 6 1022 50 10000 3.03 35 15:45 17.01.2021
3617 Clouds 6 1022 50 10000 3.1 36 15:26 17.01.2021
3618 Clouds 6 1022 50 10000 3.1 36 14:55 17.01.2021
3619 Clouds 6 1021 50 10000 2.67 34 14:27 17.01.2021
3620 Clouds 6 1021 50 10000 2.67 34 13:59 17.01.2021
3621 Clouds 6 1021 50 10000 2.67 34 13:41 17.01.2021
3622 Clouds 7 1020 49 10000 1.11 57 13:21 17.01.2021
3623 Clouds 7 1019 49 10000 1.04 61 12:44 17.01.2021
3624 Clouds 10 1018 42 10000 0.85 161 12:24 17.01.2021
3625 Clear 13 1018 37 10000 1.54 178 11:25 17.01.2021
3626 Clear 13 1018 37 10000 1.54 178 10:51 17.01.2021
3627 Clear 14 1017 36 10000 1.86 191 10:25 17.01.2021
3628 Clear 14 1017 36 10000 1.86 191 09:50 17.01.2021
3629 Clear 14 1018 35 10000 1.65 197 08:59 17.01.2021
3630 Clear 14 1018 35 10000 1.65 197 08:40 17.01.2021
3631 Clear 10 1023 40 10000 3.28 28 04:30 17.01.2021
3632 Clear 5 1023 44 10000 5.11 30 02:51 17.01.2021
3633 Clear 5 1022 44 10000 5.15 30 00:57 17.01.2021
3634 Clear 5 1022 44 10000 5.38 29 00:21 17.01.2021
3635 Clear 5 1022 44 10000 5.38 29 23:52 16.01.2021
3636 Clear 5 1022 44 10000 5.45 29 23:24 16.01.2021
3637 Clear 5 1022 44 10000 5.45 29 22:54 16.01.2021
3638 Clear 5 1023 45 10000 5.57 28 22:21 16.01.2021
3639 Clear 5 1023 45 10000 5.57 28 21:46 16.01.2021
3640 Clear 5 1023 45 10000 5.8 29 21:23 16.01.2021
3641 Clear 5 1023 45 10000 5.8 29 20:49 16.01.2021
3642 Clear 5 1023 45 10000 6.03 29 20:27 16.01.2021
3643 Clear 5 1023 45 10000 6.03 29 19:49 16.01.2021
3644 Clear 5 1023 45 10000 6.03 29 19:30 16.01.2021
3645 Clear 5 1023 46 10000 6.14 29 18:47 16.01.2021
3646 Clear 5 1023 47 10000 6.27 29 18:27 16.01.2021
3647 Clear 5 1023 47 10000 6.27 29 17:58 16.01.2021
3648 Clear 5 1023 47 10000 6.27 29 17:39 16.01.2021
3649 Clear 5 1023 48 10000 6.4 29 17:20 16.01.2021
3650 Clear 5 1023 48 10000 6.4 29 16:41 16.01.2021
3651 Clear 5 1023 48 10000 6.63 29 16:18 16.01.2021
3652 Clear 5 1023 48 10000 6.63 29 15:41 16.01.2021
3653 Clear 4 1023 50 10000 6.49 28 14:34 16.01.2021
3654 Clear 5 1022 50 10000 5.97 27 13:54 16.01.2021
3655 Clear 5 1022 50 10000 5.97 27 13:32 16.01.2021
3656 Clear 6 1020 48 10000 4.45 28 12:49 16.01.2021
3657 Clear 7 1020 48 10000 4.62 28 12:31 16.01.2021
3658 Clear 10 1018 42 10000 2.42 32 11:59 16.01.2021
3659 Clear 10 1018 42 10000 2.42 32 11:39 16.01.2021
3660 Clear 13 1018 38 10000 1.59 26 11:18 16.01.2021
3661 Clear 13 1018 38 10000 1.59 26 10:41 16.01.2021
3662 Clear 13 1018 36 10000 1.79 27 09:57 16.01.2021
3663 Clear 13 1019 35 10000 1.98 28 09:21 16.01.2021
3664 Clear 13 1020 35 10000 2.57 27 08:20 16.01.2021
3665 Clear 12 1021 37 10000 3.52 29 06:54 16.01.2021
3666 Clear 10 1022 41 10000 4.26 28 05:35 16.01.2021
3667 Clear 7 1024 46 10000 5.48 29 04:36 16.01.2021
3668 Clear 2 1026 52 10000 6.83 29 02:54 16.01.2021
3669 Clear 2 1024 52 10000 6.52 29 00:48 16.01.2021
3670 Clear 3 1023 52 10000 6.45 29 00:24 16.01.2021
3671 Clear 3 1023 52 10000 6.45 29 23:39 15.01.2021
3672 Clear 3 1023 52 10000 6.33 29 22:47 15.01.2021
3673 Clear 3 1023 51 10000 6.24 30 22:23 15.01.2021
3674 Clear 3 1023 51 10000 6.24 30 21:46 15.01.2021
3675 Clear 3 1023 51 10000 6.02 30 20:58 15.01.2021
3676 Clear 3 1023 51 10000 6.02 30 20:40 15.01.2021
3677 Clear 3 1023 50 10000 5.77 29 20:19 15.01.2021
3678 Clear 3 1023 50 10000 5.77 29 19:40 15.01.2021
3679 Clear 4 1023 50 10000 5.55 28 19:22 15.01.2021
3680 Clear 4 1023 50 10000 5.55 28 18:42 15.01.2021
3681 Clear 4 1021 49 10000 5.22 28 18:18 15.01.2021
3682 Clear 4 1021 49 10000 5.22 28 17:50 15.01.2021
3683 Clear 5 1021 49 10000 4.94 30 17:22 15.01.2021
3684 Clear 5 1021 49 10000 4.94 30 16:52 15.01.2021
3685 Clear 5 1021 50 10000 4.65 33 16:25 15.01.2021
3686 Clear 5 1021 50 10000 4.65 33 15:42 15.01.2021
3687 Clear 6 1020 51 10000 4.06 34 15:22 15.01.2021
3688 Clear 6 1020 51 10000 4.06 34 14:50 15.01.2021
3689 Clear 6 1019 52 10000 3.37 39 14:27 15.01.2021
3690 Clear 6 1019 52 10000 3.37 39 13:44 15.01.2021
3691 Clouds 7 1017 52 10000 1.34 61 13:23 15.01.2021
3692 Clouds 7 1017 52 10000 1.34 61 12:59 15.01.2021
3693 Clouds 7 1017 52 10000 1.18 65 12:34 15.01.2021
3694 Clouds 11 1016 43 10000 1.58 177 11:59 15.01.2021
3695 Clouds 11 1016 43 10000 1.58 177 11:41 15.01.2021
3696 Clouds 14 1016 37 10000 1.84 182 10:58 15.01.2021
3697 Clouds 14 1016 37 10000 1.84 182 10:39 15.01.2021
3698 Clouds 14 1016 35 10000 1.52 180 10:19 15.01.2021
3699 Clouds 14 1016 35 10000 1.52 180 09:46 15.01.2021
3700 Clouds 15 1016 35 10000 1.7 201 09:27 15.01.2021
3701 Clouds 15 1018 35 10000 1.3 216 08:27 15.01.2021
3702 Clouds 15 1018 35 10000 1.3 216 07:41 15.01.2021
3703 Clouds 15 1019 35 10000 0.55 99 07:21 15.01.2021
3704 Clouds 14 1020 35 10000 0.89 17 05:36 15.01.2021
3705 Clouds 9 1019 39 10000 2.08 26 02:19 15.01.2021
3706 Clouds 10 1018 39 10000 2.75 40 00:20 15.01.2021
3707 Clouds 9 1019 39 10000 2.96 28 23:29 14.01.2021
3708 Clouds 9 1019 39 10000 2.96 28 22:50 14.01.2021
3709 Clouds 10 1019 39 10000 3.48 31 22:27 14.01.2021
3710 Clouds 10 1019 39 10000 3.48 31 21:56 14.01.2021
3711 Clouds 10 1019 39 10000 3.48 31 21:38 14.01.2021
3712 Clouds 10 1020 39 10000 3.53 30 21:19 14.01.2021
3713 Clouds 10 1020 39 10000 3.53 30 20:42 14.01.2021
3714 Clouds 9 1020 39 10000 3.49 32 19:57 14.01.2021
3715 Clouds 9 1020 39 10000 3.49 32 19:36 14.01.2021
3716 Clouds 9 1020 39 10000 3.49 32 19:36 14.01.2021
3717 Clouds 9 1021 39 10000 3.66 31 18:58 14.01.2021
3718 Clouds 9 1021 40 10000 3.67 30 18:39 14.01.2021
3719 Clouds 9 1021 40 10000 4.09 31 17:57 14.01.2021
3720 Clouds 9 1021 40 10000 4.09 31 17:30 14.01.2021
3721 Clouds 9 1021 40 10000 3.95 33 16:54 14.01.2021
3722 Clouds 9 1021 40 10000 3.95 33 16:31 14.01.2021
3723 Clouds 9 1021 40 10000 4.3 31 15:54 14.01.2021
3724 Clouds 9 1021 40 10000 4.3 31 15:30 14.01.2021
3725 Clouds 8 1021 41 10000 4.44 29 14:48 14.01.2021
3726 Clouds 8 1021 41 10000 4.44 29 14:30 14.01.2021
3727 Clouds 8 1021 41 10000 4.52 26 13:56 14.01.2021
3728 Clouds 9 1019 41 10000 3.17 26 13:24 14.01.2021
3729 Clouds 9 1019 41 10000 3.17 26 12:58 14.01.2021
3730 Clouds 12 1018 38 10000 1.3 15 12:23 14.01.2021
3731 Clouds 12 1018 38 10000 1.3 15 11:59 14.01.2021
3732 Clouds 12 1018 38 10000 1.3 15 11:41 14.01.2021
3733 Clouds 14 1018 35 10000 0.2 353 11:19 14.01.2021
3734 Clouds 14 1018 35 10000 0.2 353 10:42 14.01.2021
3735 Clouds 15 1018 34 10000 0.39 270 10:19 14.01.2021
3736 Clouds 15 1018 34 10000 0.39 270 09:44 14.01.2021
3737 Clouds 15 1019 34 10000 0.32 276 09:22 14.01.2021
3738 Clouds 15 1019 34 10000 0.32 276 08:39 14.01.2021
3739 Clouds 15 1021 33 10000 0.48 9 08:19 14.01.2021
3740 Clouds 15 1021 33 10000 0.48 9 07:41 14.01.2021
3741 Clouds 14 1022 33 10000 1.09 15 06:38 14.01.2021
3742 Clouds 10 1024 38 10000 3.84 27 05:23 14.01.2021
3743 Clear 5 1023 39 10000 5.3 29 00:36 14.01.2021
3744 Clear 5 1023 40 10000 5.35 28 23:48 13.01.2021
3745 Clear 5 1023 40 10000 5.43 28 22:51 13.01.2021
3746 Clear 5 1024 41 10000 5.44 29 22:27 13.01.2021
3747 Clear 5 1024 41 10000 5.44 29 21:50 13.01.2021
3748 Clear 5 1024 41 10000 5.54 29 21:24 13.01.2021
3749 Clear 5 1024 41 10000 5.54 29 20:54 13.01.2021
3750 Clear 5 1024 42 10000 5.67 29 20:28 13.01.2021
3751 Clear 5 1024 42 10000 5.67 29 19:57 13.01.2021
3752 Clear 5 1024 42 10000 5.67 29 19:32 13.01.2021
3753 Clear 5 1024 42 10000 5.65 30 18:58 13.01.2021
3754 Clear 4 1024 43 10000 5.83 30 18:36 13.01.2021
3755 Clear 4 1024 45 10000 5.9 29 17:51 13.01.2021
3756 Clear 4 1024 46 10000 5.92 29 17:23 13.01.2021
3757 Clear 4 1024 46 10000 5.92 29 16:50 13.01.2021
3758 Clear 4 1024 47 10000 5.99 28 16:21 13.01.2021
3759 Clear 4 1024 47 10000 5.99 28 15:52 13.01.2021
3760 Clear 4 1024 47 10000 5.99 28 15:32 13.01.2021
3761 Clear 4 1024 47 10000 5.94 28 14:43 13.01.2021
3762 Clear 4 1023 47 10000 5.35 28 13:53 13.01.2021
3763 Clear 6 1021 47 10000 4.1 26 13:27 13.01.2021
3764 Clear 6 1021 47 10000 4.19 27 12:47 13.01.2021
3765 Clear 10 1020 42 10000 1.82 27 12:28 13.01.2021
3766 Clear 10 1020 42 10000 1.82 27 11:55 13.01.2021
3767 Clear 10 1020 42 10000 1.82 27 11:35 13.01.2021
3768 Clear 12 1019 38 10000 0.71 26 10:55 13.01.2021
3769 Clear 12 1019 38 10000 0.71 26 10:37 13.01.2021
3770 Clear 13 1019 35 10000 0.42 31 09:55 13.01.2021
3771 Clear 13 1019 35 10000 0.42 31 09:30 13.01.2021
3772 Clear 13 1020 35 10000 0.79 22 08:51 13.01.2021
3773 Clear 13 1020 35 10000 0.79 22 08:31 13.01.2021
3774 Clear 13 1021 35 10000 1.59 17 07:35 13.01.2021
3775 Clear 12 1023 37 10000 2.32 17 06:56 13.01.2021
3776 Clear 4 1027 45 10000 5.61 28 04:21 13.01.2021
3777 Clear 4 1027 45 10000 5.61 28 03:48 13.01.2021
3778 Clear 2 1027 44 10000 5.81 28 03:29 13.01.2021
3779 Clear 3 1026 42 10000 5.75 28 01:32 13.01.2021
3780 Clear 2 1025 44 10000 5.79 29 00:29 13.01.2021
3781 Clear 2 1024 44 10000 5.66 30 23:22 12.01.2021
3782 Clear 2 1024 44 10000 5.66 30 22:46 12.01.2021
3783 Clear 2 1024 45 10000 5.65 29 22:24 12.01.2021
3784 Clear 2 1024 45 10000 5.65 29 21:53 12.01.2021
3785 Clear 2 1024 45 10000 5.65 29 21:31 12.01.2021
3786 Clear 3 1025 44 10000 5.64 29 20:49 12.01.2021
3787 Clear 3 1025 44 10000 5.71 29 20:27 12.01.2021
3788 Clear 3 1025 44 10000 5.71 29 19:56 12.01.2021
3789 Clear 3 1025 44 10000 5.71 29 19:37 12.01.2021
3790 Clear 3 1026 46 10000 5.58 30 18:49 12.01.2021
3791 Clear 3 1025 46 10000 5.51 29 18:24 12.01.2021
3792 Clear 3 1025 46 10000 5.51 29 17:48 12.01.2021
3793 Clear 3 1025 46 10000 5.51 29 17:30 12.01.2021
3794 Clear 3 1025 47 10000 5.59 30 16:44 12.01.2021
3795 Clear 3 1024 47 10000 5.29 30 16:24 12.01.2021
3796 Clear 3 1024 47 10000 5.29 30 15:45 12.01.2021
3797 Clear 3 1024 48 10000 5.06 30 15:21 12.01.2021
3798 Clear 3 1024 48 10000 5.06 30 14:47 12.01.2021
3799 Clear 3 1023 50 10000 4.83 29 14:26 12.01.2021
3800 Clear 3 1023 50 10000 4.83 29 13:53 12.01.2021
3801 Clear 5 1021 49 10000 3.88 26 13:29 12.01.2021
3802 Clear 8 1020 44 10000 2.01 20 12:29 12.01.2021
3803 Clear 8 1020 44 10000 2.01 20 11:42 12.01.2021
3804 Clear 11 1019 40 10000 0.9 2 10:59 12.01.2021
3805 Clear 11 1019 40 10000 0.9 2 10:40 12.01.2021
3806 Clear 12 1020 37 10000 0.57 329 10:19 12.01.2021
3807 Clear 12 1020 37 10000 0.57 329 09:43 12.01.2021
3808 Clear 12 1021 36 10000 0.73 298 09:20 12.01.2021
3809 Clear 12 1022 36 10000 0.59 320 08:26 12.01.2021
3810 Clear 12 1022 36 10000 0.59 320 07:41 12.01.2021
3811 Clear 11 1024 38 10000 1.35 20 07:21 12.01.2021
3812 Clear 9 1025 42 10000 2.69 25 05:38 12.01.2021
3813 Clear 3 1028 46 10000 5.34 28 03:46 12.01.2021
3814 Clear 2 1028 46 10000 5.7 29 03:19 12.01.2021
3815 Clear 2 1027 46 10000 5.68 29 01:43 12.01.2021
3816 Clear 2 1026 46 10000 5.7 29 00:32 12.01.2021
3817 Clear 2 1026 46 10000 5.7 29 23:41 11.01.2021
3818 Clear 2 1026 46 10000 5.59 29 23:19 11.01.2021
3819 Clear 2 1026 46 10000 5.59 29 22:45 11.01.2021
3820 Clear 2 1027 46 10000 5.38 29 22:27 11.01.2021
3821 Clear 2 1027 46 10000 5.38 29 21:46 11.01.2021
3822 Clear 2 1027 46 10000 5.37 28 21:25 11.01.2021
3823 Clear 2 1026 46 10000 5.54 29 20:58 11.01.2021
3824 Clear 2 1026 46 10000 5.54 29 20:37 11.01.2021
3825 Clear 2 1026 46 10000 5.63 29 20:19 11.01.2021
3826 Clear 2 1026 46 10000 5.63 29 19:42 11.01.2021
3827 Clear 2 1026 46 10000 5.75 29 19:21 11.01.2021
3828 Clear 2 1026 46 10000 5.75 29 18:42 11.01.2021
3829 Clear 2 1026 47 10000 5.81 29 18:23 11.01.2021
3830 Clear 2 1026 47 10000 5.81 29 17:42 11.01.2021
3831 Clear 2 1026 48 10000 5.77 30 17:24 11.01.2021
3832 Clear 2 1026 48 10000 5.77 30 16:48 11.01.2021
3833 Clear 2 1026 49 10000 5.57 31 16:29 11.01.2021
3834 Clear 2 1026 49 10000 5.57 31 15:57 11.01.2021
3835 Clear 2 1026 49 10000 5.57 31 15:36 11.01.2021
3836 Clear 3 1026 49 10000 5.35 31 14:58 11.01.2021
3837 Clear 3 1026 49 10000 5.35 31 14:36 11.01.2021
3838 Clear 3 1024 49 10000 4.72 32 13:48 11.01.2021
3839 Clear 5 1023 49 10000 3.38 34 13:23 11.01.2021
3840 Clear 5 1023 49 10000 3.3 36 12:44 11.01.2021
3841 Clear 8 1021 45 10000 0.97 76 12:25 11.01.2021
3842 Clear 8 1021 45 10000 0.97 76 11:48 11.01.2021
3843 Clear 11 1021 41 10000 0.79 157 11:18 11.01.2021
3844 Clear 11 1021 41 10000 0.79 157 10:42 11.01.2021
3845 Clear 12 1020 38 10000 1.32 184 10:21 11.01.2021
3846 Clear 12 1020 38 10000 1.32 184 09:37 11.01.2021
3847 Clear 12 1021 38 10000 1.32 202 09:19 11.01.2021
3848 Clear 12 1021 38 10000 1.32 202 08:42 11.01.2021
3849 Clear 12 1022 37 10000 0.97 218 07:51 11.01.2021
3850 Clear 12 1023 38 10000 0.18 284 07:25 11.01.2021
3851 Clear 12 1023 38 10000 0.18 284 06:50 11.01.2021
3852 Clear 3 1027 43 10000 4.4 30 02:57 11.01.2021
3853 Clear 3 1026 43 10000 4.33 30 01:25 11.01.2021
3854 Clear 2 1026 44 10000 4.57 30 23:53 10.01.2021
3855 Clear 3 1027 44 10000 4.56 28 23:26 10.01.2021
3856 Clear 3 1027 44 10000 4.56 28 22:47 10.01.2021
3857 Clear 3 1027 44 10000 4.39 29 22:20 10.01.2021
3858 Clear 3 1027 44 10000 4.39 29 21:44 10.01.2021
3859 Clear 3 1027 44 10000 4.26 30 21:20 10.01.2021
3860 Clear 3 1027 44 10000 4.26 30 20:53 10.01.2021
3861 Clear 3 1027 44 10000 4.26 30 20:32 10.01.2021
3862 Clear 3 1027 45 10000 4.33 30 19:43 10.01.2021
3863 Clear 3 1027 45 10000 4.45 30 19:25 10.01.2021
3864 Clear 3 1027 45 10000 4.45 30 18:49 10.01.2021
3865 Clear 3 1026 46 10000 4.52 31 18:21 10.01.2021
3866 Clear 3 1026 46 10000 4.52 31 18:21 10.01.2021
3867 Clear 2 1026 46 10000 4.77 32 17:28 10.01.2021
3868 Clear 2 1026 46 10000 4.77 32 16:59 10.01.2021
3869 Clear 2 1026 46 10000 4.77 32 16:32 10.01.2021
3870 Clear 2 1026 49 10000 4.91 33 15:56 10.01.2021
3871 Clear 2 1025 50 10000 4.85 33 15:25 10.01.2021
3872 Clear 2 1025 50 10000 4.85 33 14:50 10.01.2021
3873 Clear 2 1025 50 10000 4.85 33 14:31 10.01.2021
3874 Clear 3 1024 51 10000 4.38 35 13:55 10.01.2021
3875 Clear 3 1024 51 10000 4.38 35 13:36 10.01.2021
3876 Clear 4 1022 49 10000 3.11 41 13:18 10.01.2021
3877 Clear 4 1023 52 10000 2.98 41 12:43 10.01.2021
3878 Clear 7 1021 45 10000 1.14 72 12:18 10.01.2021
3879 Clear 10 1020 41 10000 0.66 134 11:22 10.01.2021
3880 Clear 10 1020 41 10000 0.66 134 10:58 10.01.2021
3881 Clear 10 1020 41 10000 0.66 134 10:36 10.01.2021
3882 Clear 12 1020 39 10000 0.8 165 10:18 10.01.2021
3883 Clear 12 1021 37 10000 0.84 176 09:27 10.01.2021
3884 Clear 12 1021 37 10000 0.84 176 09:27 10.01.2021
3885 Clear 11 1022 37 10000 0.66 193 08:21 10.01.2021
3886 Clear 11 1024 40 10000 0.33 136 07:29 10.01.2021
3887 Clear 9 1026 43 10000 0.83 54 06:20 10.01.2021
3888 Clear 9 1026 43 10000 0.83 54 05:36 10.01.2021
3889 Clear 1 1029 46 10000 4.14 33 02:58 10.01.2021
3890 Clear 1 1027 47 10000 4 32 01:22 10.01.2021
3891 Clear 1 1027 47 10000 4.03 33 23:49 09.01.2021
3892 Clear 1 1027 47 10000 4.03 33 23:30 09.01.2021
3893 Clear 1 1028 47 10000 4.09 31 22:48 09.01.2021
3894 Clear 1 1028 48 10000 4.17 31 22:19 09.01.2021
3895 Clear 1 1028 48 10000 4.17 31 21:57 09.01.2021
3896 Clear 1 1028 48 10000 4.17 31 21:39 09.01.2021
3897 Clear 1 1028 49 10000 4.24 32 21:19 09.01.2021
3898 Clear 1 1028 49 10000 4.24 32 20:44 09.01.2021
3899 Clear 1 1028 50 10000 4.27 32 19:45 09.01.2021
3900 Clear 1 1028 52 10000 4.41 35 19:23 09.01.2021
3901 Clear 1 1028 52 10000 4.46 33 18:59 09.01.2021
3902 Clear 1 1028 52 10000 4.46 33 18:35 09.01.2021
3903 Clear 1 1028 52 10000 4.76 34 17:50 09.01.2021
3904 Clear 1 1028 52 10000 4.76 34 17:32 09.01.2021
3905 Clear 1 1028 57 10000 4.95 32 16:36 09.01.2021
3906 Clear 1 1027 61 10000 4.8 34 15:53 09.01.2021
3907 Clear 1 1027 61 10000 4.8 34 15:34 09.01.2021
3908 Clear 1 1026 62 10000 4.48 37 14:42 09.01.2021
3909 Clear 2 1025 63 10000 4.08 38 14:21 09.01.2021
3910 Clear 2 1025 63 10000 4.08 38 13:59 09.01.2021
3911 Clear 2 1025 63 10000 4.08 38 13:40 09.01.2021
3912 Clear 2 1023 62 10000 2.27 54 13:22 09.01.2021
3913 Clear 6 1021 53 10000 0.98 118 12:27 09.01.2021
3914 Clear 6 1021 53 10000 0.98 118 11:57 09.01.2021
3915 Clear 6 1021 53 10000 0.98 118 11:37 09.01.2021
3916 Clear 6 1021 53 10000 0.98 118 11:37 09.01.2021
3917 Clear 9 1020 47 10000 1.41 166 10:57 09.01.2021
3918 Clear 9 1020 47 10000 1.41 166 10:38 09.01.2021
3919 Clear 10 1021 44 10000 2.04 178 10:19 09.01.2021
3920 Clear 10 1021 44 10000 2.04 178 09:43 09.01.2021
3921 Clear 10 1021 43 10000 2.31 189 09:19 09.01.2021
3922 Clear 10 1023 42 10000 2.04 195 07:48 09.01.2021
3923 Clear 9 1025 43 10000 1.12 197 06:53 09.01.2021
3924 Clear 9 1025 43 10000 1.12 197 06:33 09.01.2021
3925 Clear 2 1031 59 10000 3.14 42 03:53 09.01.2021
3926 Clear 1 1031 61 10000 3.47 40 02:41 09.01.2021
3927 Clear 0 1030 61 10000 3.49 38 02:23 09.01.2021
3928 Clear 0 1030 61 10000 3.49 38 02:23 09.01.2021
3929 Clear 0 1029 61 10000 3.53 39 01:24 09.01.2021
3930 Clear 0 1030 60 10000 3.74 37 00:33 09.01.2021
3931 Clear 0 1030 60 10000 3.74 37 00:33 09.01.2021
3932 Clear 0 1030 60 10000 3.69 36 23:46 08.01.2021
3933 Clear 0 1030 60 10000 3.61 37 22:46 08.01.2021
3934 Clear 0 1029 61 10000 3.74 36 21:53 08.01.2021
3935 Clear 0 1029 62 10000 3.65 39 21:26 08.01.2021
3936 Clear 0 1029 62 10000 3.65 39 20:38 08.01.2021
3937 Clear 0 1029 63 10000 3.65 38 19:58 08.01.2021
3938 Clear 0 1029 65 10000 3.71 37 19:25 08.01.2021
3939 Clear 0 1029 65 10000 3.71 37 18:54 08.01.2021
3940 Clear 0 1029 66 10000 3.81 35 18:33 08.01.2021
3941 Clear 0 1028 68 10000 3.58 38 17:55 08.01.2021
3942 Clear 0 1028 68 10000 3.52 39 17:25 08.01.2021
3943 Clear 0 1028 68 10000 3.52 39 16:49 08.01.2021
3944 Clear 1 1027 68 10000 3.44 40 15:52 08.01.2021
3945 Clear 1 1027 68 10000 3.44 40 15:32 08.01.2021
3946 Clear 1 1025 68 10000 3.38 45 14:40 08.01.2021
3947 Clear 1 1024 68 10000 2.4 57 14:18 08.01.2021
3948 Clear 1 1021 68 10000 1.23 146 13:22 08.01.2021
3949 Clear 1 1021 68 10000 1.23 146 12:52 08.01.2021
3950 Clear 6 1018 55 10000 2.98 200 12:23 08.01.2021
3951 Clear 6 1018 55 10000 2.98 200 11:59 08.01.2021
3952 Clear 6 1018 55 10000 2.98 200 11:39 08.01.2021
3953 Clear 8 1017 49 10000 4.05 204 11:19 08.01.2021
3954 Clear 8 1017 49 10000 4.05 204 10:42 08.01.2021
3955 Clear 9 1017 45 10000 4.75 204 09:54 08.01.2021
3956 Clear 9 1017 45 10000 4.75 204 09:36 08.01.2021
3957 Clear 9 1017 44 10000 4.77 200 09:18 08.01.2021
3958 Clear 9 1019 44 10000 4.21 197 07:30 08.01.2021
3959 Clouds 9 1020 44 10000 2.86 202 06:46 08.01.2021
3960 Clouds 2 1022 55 10000 2.36 44 00:44 08.01.2021
3961 Clouds 3 1022 55 10000 2.16 54 23:43 07.01.2021
3962 Clouds 3 1022 55 10000 2.09 51 22:55 07.01.2021
3963 Clouds 3 1022 55 10000 2.09 51 22:36 07.01.2021
3964 Clouds 3 1022 54 10000 1.96 50 21:52 07.01.2021
3965 Clouds 3 1022 54 10000 1.96 50 21:33 07.01.2021
3966 Clouds 3 1022 54 10000 1.83 49 20:56 07.01.2021
3967 Clouds 3 1022 54 10000 1.83 49 20:37 07.01.2021
3968 Clouds 3 1022 54 10000 1.89 44 19:50 07.01.2021
3969 Clouds 3 1022 54 10000 1.89 44 19:30 07.01.2021
3970 Clouds 4 1022 53 10000 1.86 44 18:50 07.01.2021
3971 Clouds 4 1022 54 10000 1.95 39 18:21 07.01.2021
3972 Clouds 4 1022 54 10000 1.95 39 17:36 07.01.2021
3973 Clouds 4 1022 54 10000 2.17 40 17:18 07.01.2021
3974 Clouds 4 1022 54 10000 2.17 40 16:45 07.01.2021
3975 Clouds 4 1022 55 10000 2.55 40 16:20 07.01.2021
3976 Clouds 4 1022 55 10000 2.55 40 15:31 07.01.2021
3977 Clouds 3 1022 56 10000 3.04 40 14:42 07.01.2021
3978 Clouds 3 1021 58 10000 3.09 43 14:22 07.01.2021
3979 Clouds 3 1021 58 10000 3.09 43 13:31 07.01.2021
3980 Clouds 3 1020 59 10000 1.51 67 12:57 07.01.2021
3981 Clouds 3 1019 59 10000 1.72 63 12:33 07.01.2021
3982 Clouds 6 1019 53 10000 1.27 155 11:52 07.01.2021
3983 Clouds 6 1019 53 10000 1.27 155 11:30 07.01.2021
3984 Clouds 9 1018 47 10000 1.9 179 10:48 07.01.2021
3985 Clouds 10 1018 44 10000 2.08 190 10:20 07.01.2021
3986 Clouds 10 1018 44 10000 2.08 190 09:46 07.01.2021
3987 Clear 10 1019 41 10000 1.91 196 09:18 07.01.2021
3988 Clear 10 1021 41 10000 1.27 211 08:27 07.01.2021
3989 Clear 10 1021 41 10000 1.27 211 07:46 07.01.2021
3990 Clear 9 1022 44 10000 0.49 295 07:18 07.01.2021
3991 Clear 4 1027 55 10000 3.83 26 04:30 07.01.2021
3992 Clear 1 1027 68 10000 5.07 29 00:29 07.01.2021
3993 Clear 1 1027 68 10000 5.07 29 23:45 06.01.2021
3994 Clear 1 1028 68 10000 4.65 28 22:39 06.01.2021
3995 Clear 1 1028 68 10000 4.48 29 21:44 06.01.2021
3996 Clear 1 1027 68 10000 4.45 30 21:23 06.01.2021
3997 Clear 1 1027 68 10000 4.45 30 20:58 06.01.2021
3998 Clear 1 1028 70 10000 4.38 30 20:25 06.01.2021
3999 Clear 1 1028 70 10000 4.38 30 19:59 06.01.2021
4000 Clear 1 1028 70 10000 4.38 30 19:36 06.01.2021
4001 Clouds 1 1028 70 10000 4.42 30 19:18 06.01.2021
4002 Clouds 1 1028 70 10000 4.42 30 18:41 06.01.2021
4003 Clouds 1 1027 70 10000 4.42 28 18:22 06.01.2021
4004 Clouds 1 1027 70 10000 4.42 28 17:42 06.01.2021
4005 Clouds 2 1026 70 10000 4.23 31 17:23 06.01.2021
4006 Clouds 2 1026 70 10000 4.23 31 16:41 06.01.2021
4007 Clouds 2 1025 70 10000 3.72 35 16:19 06.01.2021
4008 Clouds 2 1025 70 10000 3.72 35 15:52 06.01.2021
4009 Clouds 2 1025 70 10000 3.72 35 15:31 06.01.2021
4010 Clouds 2 1024 70 10000 3.02 36 14:46 06.01.2021
4011 Clouds 4 1023 68 10000 1.97 29 14:20 06.01.2021
4012 Clouds 4 1023 68 10000 1.97 29 13:42 06.01.2021
4013 Clouds 5 1020 64 7048 0.04 42 13:22 06.01.2021
4014 Clouds 5 1020 64 7048 0.04 42 12:48 06.01.2021
4015 Clouds 6 1018 60 9953 0.85 190 12:20 06.01.2021
4016 Clouds 6 1018 60 9953 0.85 190 11:36 06.01.2021
4017 Clouds 8 1017 54 9341 1.54 203 11:18 06.01.2021
4018 Clouds 8 1017 53 6477 2.07 218 10:20 06.01.2021
4019 Clouds 8 1017 53 6477 2.07 218 09:50 06.01.2021
4020 Clouds 8 1018 54 5798 2.16 227 08:58 06.01.2021
4021 Clouds 8 1018 54 5798 2.16 227 08:30 06.01.2021
4022 Clouds 8 1019 55 6730 2.69 208 07:54 06.01.2021
4023 Clouds 8 1020 57 6946 2.44 178 06:48 06.01.2021
4024 Clouds 6 1020 62 204 2.71 243 05:33 06.01.2021
4025 Rain 6 1020 62 698 2.49 223 04:34 06.01.2021
4026 Clouds 5 1020 67 409 1.29 203 02:47 06.01.2021
4027 Clouds 6 1019 64 1051 3.91 236 02:25 06.01.2021
4028 Clouds 5 1019 64 145 1.79 203 00:51 06.01.2021
4029 Rain 5 1019 65 634 1.3 282 23:31 05.01.2021
4030 Clouds 5 1019 64 169 2.77 190 22:44 05.01.2021
4031 Clouds 5 1019 66 352 1.58 280 22:21 05.01.2021
4032 Clouds 5 1019 66 352 1.58 280 21:56 05.01.2021
4033 Clouds 6 1019 63 422 1.82 226 20:58 05.01.2021
4034 Clouds 6 1019 63 1483 0.35 217 20:27 05.01.2021
4035 Clouds 6 1019 63 1483 0.35 217 19:44 05.01.2021
4036 Clouds 6 1019 64 1468 2.19 194 19:21 05.01.2021
4037 Clouds 6 1019 64 1468 2.19 194 18:44 05.01.2021
4038 Clouds 7 1019 61 1738 3.65 186 18:25 05.01.2021
4039 Clouds 7 1019 61 1738 3.65 186 17:50 05.01.2021
4040 Clouds 7 1019 61 1738 3.65 186 17:31 05.01.2021
4041 Clouds 7 1019 61 68 4.45 202 16:53 05.01.2021
4042 Clouds 7 1019 61 105 3.63 201 16:22 05.01.2021
4043 Clouds 7 1019 61 105 3.63 201 15:51 05.01.2021
4044 Clouds 6 1018 61 191 1.68 176 15:26 05.01.2021
4045 Clouds 6 1018 61 191 1.68 176 14:46 05.01.2021
4046 Clouds 7 1018 61 269 1.98 195 13:51 05.01.2021
4047 Clouds 7 1018 61 269 1.98 195 13:32 05.01.2021
4048 Clouds 7 1017 59 178 2.4 206 12:50 05.01.2021
4049 Clouds 7 1017 59 407 2.57 178 12:29 05.01.2021
4050 Clouds 7 1017 59 407 2.57 178 11:49 05.01.2021
4051 -273 0 0 0 0 0 11:24 05.01.2021
4052 Clouds 7 1017 60 389 2.73 192 11:23 05.01.2021
4053 Clouds 7 1017 60 389 2.73 192 10:44 05.01.2021
4054 Clouds 7 1017 60 198 2.99 203 09:58 05.01.2021
4055 Clouds 7 1017 60 198 2.99 203 09:38 05.01.2021
4056 Clouds 7 1018 59 139 3.59 197 08:45 05.01.2021
4057 Clouds 7 1020 58 69 3.71 190 08:18 05.01.2021
4058 Clouds 7 1022 58 478 0.35 266 05:29 05.01.2021
4059 Clouds 6 1022 60 1345 1.29 19 02:56 05.01.2021
4060 Rain 6 1021 63 964 1.49 21 00:23 05.01.2021
4061 Rain 6 1021 63 964 1.49 21 23:41 04.01.2021
4062 Rain 6 1022 62 1143 1.41 48 23:21 04.01.2021
4063 Rain 6 1022 62 1143 1.41 48 22:45 04.01.2021
4064 Rain 6 1023 60 2012 2.22 48 21:58 04.01.2021
4065 Rain 6 1023 60 2012 2.22 48 21:40 04.01.2021
4066 Rain 6 1023 59 3545 2.51 32 20:58 04.01.2021
4067 Rain 6 1023 59 3545 2.51 32 20:37 04.01.2021
4068 Clouds 6 1025 57 10000 2.75 21 20:18 04.01.2021
4069 Rain 6 1025 57 10000 2.75 21 19:41 04.01.2021
4070 Rain 6 1025 55 10000 3.71 29 19:19 04.01.2021
4071 Rain 6 1025 55 10000 3.71 29 19:19 04.01.2021
4072 Clouds 6 1025 55 10000 3.71 29 18:44 04.01.2021
4073 Rain 6 1025 55 10000 3.69 36 17:56 04.01.2021
4074 Clouds 6 1025 55 10000 3.69 36 17:37 04.01.2021
4075 Rain 5 1025 56 10000 4.1 33 17:18 04.01.2021
4076 Rain 5 1025 56 10000 4.1 33 16:40 04.01.2021
4077 Rain 5 1025 58 10000 3.87 35 16:22 04.01.2021
4078 Rain 5 1025 58 10000 3.87 35 15:47 04.01.2021
4079 Clouds 5 1024 58 10000 3.28 35 15:21 04.01.2021
4080 Clouds 5 1023 59 10000 2.88 37 13:58 04.01.2021
4081 Clouds 5 1023 59 10000 2.88 37 13:36 04.01.2021
4082 Clouds 6 1022 57 10000 2.13 36 12:57 04.01.2021
4083 Clouds 6 1021 57 9674 1.3 30 12:30 04.01.2021
4084 Clouds 9 1020 50 10000 0.27 359 11:45 04.01.2021
4085 Clouds 10 1020 46 10000 0.09 354 11:19 04.01.2021
4086 Clouds 10 1020 46 10000 0.09 354 10:46 04.01.2021
4087 Clouds 10 1021 47 5892 0.59 302 10:23 04.01.2021
4088 Clouds 10 1021 47 5892 0.59 302 09:48 04.01.2021
4089 Clouds 10 1021 49 8630 0.87 205 09:18 04.01.2021
4090 Clouds 10 1021 49 8630 0.87 205 08:32 04.01.2021
4091 Clouds 9 1022 50 4236 0.54 177 07:47 04.01.2021
4092 Clouds 9 1023 50 5073 1.25 177 06:40 04.01.2021
4093 Clouds 9 1026 50 10000 2.32 18 05:20 04.01.2021
4094 Clouds 6 1025 56 5912 2.93 34 02:27 04.01.2021
4095 Clear 3 1025 61 10000 4.26 35 00:29 04.01.2021
4096 Clear 3 1025 61 10000 4.26 35 23:38 03.01.2021
4097 Clear 4 1025 61 10000 4.04 37 23:19 03.01.2021
4098 Clear 4 1025 61 10000 4.04 37 22:42 03.01.2021
4099 Clear 4 1025 61 10000 3.74 39 22:23 03.01.2021
4100 Clear 4 1025 61 10000 3.74 39 21:46 03.01.2021
4101 Clear 4 1024 60 10000 3.5 38 21:24 03.01.2021
4102 Clear 4 1024 60 10000 3.5 38 20:42 03.01.2021
4103 Clear 4 1024 60 10000 3.31 35 20:20 03.01.2021
4104 Clear 4 1024 60 10000 3.31 35 19:52 03.01.2021
4105 Clear 4 1024 60 10000 3.31 35 19:33 03.01.2021
4106 Clouds 5 1023 60 10000 3.06 35 18:52 03.01.2021
4107 Clouds 6 1022 57 10000 2.14 44 18:34 03.01.2021
4108 Clouds 6 1022 59 10000 2.53 38 17:53 03.01.2021
4109 Clouds 6 1022 59 10000 2.53 38 17:30 03.01.2021
4110 Clouds 7 1022 56 10000 2.12 36 16:57 03.01.2021
4111 Clouds 7 1022 56 10000 2.12 36 16:39 03.01.2021
4112 Clouds 7 1021 57 4754 1.27 49 16:19 03.01.2021
4113 Clouds 7 1021 57 4754 1.27 49 15:45 03.01.2021
4114 Clouds 7 1021 56 8009 1.84 46 15:23 03.01.2021
4115 Clouds 7 1021 56 8009 1.84 46 14:44 03.01.2021
4116 Clouds 7 1020 56 6579 2.07 40 14:24 03.01.2021
4117 Clouds 7 1020 56 6579 2.07 40 13:39 03.01.2021
4118 Clouds 7 1018 56 7780 1.74 42 13:21 03.01.2021
4119 Clouds 9 1017 49 5160 0.91 89 11:57 03.01.2021
4120 Clouds 9 1017 49 5160 0.91 89 11:39 03.01.2021
4121 Clouds 10 1017 46 5343 0.68 106 11:21 03.01.2021
4122 Clouds 10 1017 46 5343 0.68 106 10:34 03.01.2021
4123 Clouds 10 1018 44 10000 0.37 201 09:52 03.01.2021
4124 Clouds 11 1018 42 10000 1.24 250 09:28 03.01.2021
4125 Clouds 11 1018 42 10000 1.24 250 08:32 03.01.2021
4126 Rain 11 1021 43 10000 0.76 267 07:24 03.01.2021
4127 Clouds 7 1023 52 10000 2.45 31 05:23 03.01.2021
4128 Clouds 4 1022 63 10000 2.82 38 02:26 03.01.2021
4129 Clouds 4 1022 64 10000 2.93 36 00:56 03.01.2021
4130 Rain 4 1022 63 10000 3.27 21 23:53 02.01.2021
4131 Clouds 5 1022 61 10000 3.36 28 23:20 02.01.2021
4132 Clouds 5 1022 61 10000 3.36 28 22:49 02.01.2021
4133 Clouds 5 1022 61 10000 3.36 28 22:49 02.01.2021
4134 Clouds 5 1022 61 10000 3.36 28 22:49 02.01.2021
4135 Clouds 5 1022 61 10000 3.36 28 22:31 02.01.2021
4136 Clouds 4 1023 63 10000 3.49 41 21:49 02.01.2021
4137 Clouds 4 1023 63 10000 3.49 41 21:30 02.01.2021
4138 Clouds 4 1023 63 10000 3.48 17 20:49 02.01.2021
4139 Clouds 5 1023 59 10000 3.28 22 20:27 02.01.2021
4140 Clouds 5 1023 59 10000 3.28 22 19:49 02.01.2021
4141 Rain 5 1024 57 10000 2.99 31 19:20 02.01.2021
4142 Clouds 5 1024 57 10000 2.99 31 18:53 02.01.2021
4143 Clouds 3 1025 62 10000 4.21 26 18:33 02.01.2021
4144 Clouds 3 1025 62 10000 4.27 31 17:56 02.01.2021
4145 Clouds 3 1025 62 10000 4.27 31 17:37 02.01.2021
4146 Clouds 3 1025 63 10000 3.65 27 16:49 02.01.2021
4147 Clouds 4 1024 61 10000 3.99 23 16:23 02.01.2021
4148 Clouds 4 1024 61 10000 3.99 23 15:51 02.01.2021
4149 Clouds 4 1024 59 10000 3.72 20 15:28 02.01.2021
4150 Clouds 4 1024 59 10000 3.72 20 14:53 02.01.2021
4151 Clouds 4 1024 59 10000 3.72 20 14:33 02.01.2021
4152 Clouds 4 1024 58 10000 3.28 19 13:44 02.01.2021
4153 Clouds 5 1022 59 10000 2.77 12 12:59 02.01.2021
4154 Clouds 5 1022 59 10000 2.77 12 12:41 02.01.2021
4155 Clouds 8 1021 50 10000 0.76 64 12:22 02.01.2021
4156 Clouds 8 1021 50 10000 0.76 64 11:42 02.01.2021
4157 Clouds 9 1020 44 5660 2.03 178 11:20 02.01.2021
4158 Clouds 9 1020 44 5660 2.03 178 10:42 02.01.2021
4159 Clouds 10 1021 39 10000 1.21 181 10:23 02.01.2021
4160 Clouds 10 1021 39 10000 1.21 181 09:43 02.01.2021
4161 Clouds 10 1022 38 10000 0.47 234 09:21 02.01.2021
4162 Clouds 10 1022 38 10000 0.47 234 08:48 02.01.2021
4163 Clouds 10 1023 38 10000 0.43 222 08:19 02.01.2021
4164 Clouds 9 1024 39 10000 0.13 281 07:25 02.01.2021
4165 Clouds 9 1025 39 10000 0.41 226 06:58 02.01.2021
4166 Clouds 8 1026 43 10000 0.82 29 06:18 02.01.2021
4167 Clouds 4 1028 53 10000 3.38 29 04:26 02.01.2021
4168 Clouds 1 1028 56 10000 4.33 27 00:53 02.01.2021
4169 Clouds 1 1028 56 10000 4.33 27 00:33 02.01.2021
4170 Clouds 1 1027 56 10000 4.53 28 23:43 01.01.2021
4171 Clouds 1 1028 56 10000 4.58 27 23:19 01.01.2021
4172 Clouds 1 1028 56 10000 4.58 27 22:47 01.01.2021
4173 Clear 1 1028 56 10000 4.66 28 22:22 01.01.2021
4174 Clear 1 1028 56 10000 4.66 28 21:43 01.01.2021
4175 Clear 1 1028 55 10000 4.74 29 21:21 01.01.2021
4176 Clear 1 1028 55 10000 4.74 29 20:51 01.01.2021
4177 Clear 1 1028 55 10000 4.69 28 20:19 01.01.2021
4178 Clear 1 1028 55 10000 4.69 28 19:42 01.01.2021
4179 Clear 1 1028 55 10000 4.65 29 19:23 01.01.2021
4180 Clear 1 1028 55 10000 4.65 29 18:52 01.01.2021
4181 Clear 1 1028 55 10000 4.76 29 18:34 01.01.2021
4182 Clear 1 1028 55 10000 4.84 29 17:59 01.01.2021
4183 Clear 1 1028 55 10000 4.84 29 17:41 01.01.2021
4184 Clear 1 1027 55 10000 4.87 32 17:18 01.01.2021
4185 Clear 1 1027 55 10000 4.87 32 16:37 01.01.2021
4186 Clear 2 1026 55 10000 4.78 33 15:45 01.01.2021
4187 Clear 2 1026 55 10000 4.56 34 14:57 01.01.2021
4188 Clear 2 1026 55 10000 4.56 34 14:39 01.01.2021
4189 Clear 2 1024 55 10000 4.35 33 13:52 01.01.2021
4190 Clear 2 1024 55 10000 4.35 33 13:33 01.01.2021
4191 Clouds 3 1022 54 10000 2.83 38 12:47 01.01.2021
4192 Clouds 7 1020 47 10000 0.69 101 12:20 01.01.2021
4193 Clouds 7 1020 47 10000 0.69 101 11:39 01.01.2021
4194 Clouds 10 1019 42 10000 1.16 178 11:18 01.01.2021
4195 Clouds 10 1019 42 10000 1.16 178 10:43 01.01.2021
4196 Clouds 11 1019 38 10000 1.33 192 09:50 01.01.2021
4197 Clouds 11 1020 35 10000 1.47 204 09:23 01.01.2021
4198 Clouds 11 1020 35 10000 1.47 204 08:30 01.01.2021
4199 Clouds 10 1024 41 10000 0.99 28 05:50 01.01.2021
4200 Clouds 7 1025 46 10000 2.81 32 04:47 01.01.2021
4201 Clouds 5 1025 48 10000 3.58 27 01:39 01.01.2021
4202 Clouds 4 1025 49 10000 3.56 28 00:32 01.01.2021
4203 Clouds 4 1025 49 10000 3.76 26 23:38 31.12.2020
4204 Clouds 3 1025 49 10000 4 29 23:20 31.12.2020
4205 Clouds 3 1025 49 10000 4 29 22:42 31.12.2020
4206 Clouds 3 1025 49 10000 3.9 29 22:21 31.12.2020
4207 Clouds 3 1025 49 10000 3.9 29 21:55 31.12.2020
4208 Clouds 3 1025 49 10000 3.9 29 21:33 31.12.2020
4209 Clouds 3 1025 49 10000 3.91 31 20:58 31.12.2020
4210 Clouds 3 1025 49 10000 3.98 31 20:26 31.12.2020
4211 Clouds 3 1025 49 10000 3.98 31 19:49 31.12.2020
4212 Clouds 3 1025 49 10000 3.98 31 19:31 31.12.2020
4213 Clouds 3 1026 50 10000 3.67 31 18:51 31.12.2020
4214 Clouds 4 1026 51 10000 4.03 25 18:25 31.12.2020
4215 Clouds 4 1026 51 10000 4.03 25 17:46 31.12.2020
4216 Clouds 4 1026 52 10000 4.63 30 17:26 31.12.2020
4217 Clouds 4 1026 52 10000 4.63 30 16:55 31.12.2020
4218 Clouds 4 1026 52 10000 4.63 30 16:37 31.12.2020
4219 Clouds 3 1026 54 10000 4.82 27 16:18 31.12.2020
4220 Clouds 3 1026 54 10000 4.82 27 15:42 31.12.2020
4221 Clouds 2 1026 55 10000 5.19 29 15:18 31.12.2020
4222 Clouds 2 1026 55 10000 5.19 29 14:40 31.12.2020
4223 Clouds 2 1026 56 10000 4.89 29 14:22 31.12.2020
4224 Clouds 2 1026 56 10000 4.89 29 13:57 31.12.2020
4225 Clouds 2 1026 56 10000 4.89 29 13:36 31.12.2020
4226 Clouds 3 1024 54 10000 3.9 30 13:18 31.12.2020
4227 Clouds 3 1024 53 10000 3.8 31 12:45 31.12.2020
4228 Clouds 6 1023 48 10000 1.82 25 12:26 31.12.2020
4229 Clouds 6 1023 48 10000 1.82 25 11:46 31.12.2020
4230 Clouds 9 1022 43 10000 0.78 4 11:28 31.12.2020
4231 Clouds 9 1022 43 10000 0.78 4 11:28 31.12.2020
4232 Clouds 9 1022 43 10000 0.78 4 11:28 31.12.2020
4233 Clouds 9 1022 43 10000 0.78 4 11:28 31.12.2020
4234 Clouds 9 1022 43 10000 0.78 4 11:28 31.12.2020
4235 Clouds 9 1022 43 10000 0.78 4 11:28 31.12.2020
4236 Clouds 9 1022 43 10000 0.78 4 10:41 31.12.2020
4237 Clear 10 1022 41 10000 0.84 329 10:22 31.12.2020
4238 Clear 10 1022 41 10000 0.84 329 09:47 31.12.2020
4239 Clear 10 1023 40 10000 1.3 332 09:23 31.12.2020
4240 Clear 10 1023 40 10000 1.3 332 08:46 31.12.2020
4241 Clear 10 1023 40 10000 1.3 332 08:46 31.12.2020
4242 Clear 9 1025 40 10000 1.6 355 08:28 31.12.2020
4243 Clear 9 1025 40 10000 1.6 355 07:54 31.12.2020
4244 Clear 8 1027 42 10000 2.44 20 07:24 31.12.2020
4245 Clear 7 1028 46 10000 3.24 29 05:30 31.12.2020
4246 Clear 0 1032 56 10000 5.76 30 03:33 31.12.2020
4247 Clear -1 1032 52 10000 6.11 29 02:36 31.12.2020
4248 Clear -1 1032 51 10000 5.98 29 01:55 31.12.2020
4249 Clear -1 1032 51 10000 5.98 29 01:34 31.12.2020
4250 Clear -1 1031 51 10000 5.93 28 00:56 31.12.2020
4251 Clear -1 1031 52 10000 5.97 28 00:26 31.12.2020
4252 Clear -1 1031 52 10000 5.97 28 23:36 30.12.2020
4253 Clear -1 1031 53 10000 5.9 28 23:18 30.12.2020
4254 Clear -1 1031 53 10000 5.9 28 22:35 30.12.2020
4255 Clear -1 1031 53 10000 5.79 28 21:54 30.12.2020
4256 Clear -1 1031 53 10000 5.79 28 21:54 30.12.2020
4257 Clear -1 1031 53 10000 5.7 28 21:27 30.12.2020
4258 Clear -1 1031 53 10000 5.7 28 20:53 30.12.2020
4259 Clear -1 1032 53 10000 5.62 27 20:29 30.12.2020
4260 Clear -1 1032 53 10000 5.62 27 19:58 30.12.2020
4261 Clear -1 1032 53 10000 5.62 27 19:37 30.12.2020
4262 Clear -1 1032 53 10000 5.62 27 19:37 30.12.2020
4263 Clear -1 1032 53 10000 5.63 27 19:18 30.12.2020
4264 Clear -1 1031 54 10000 5.62 27 18:39 30.12.2020
4265 Clear -1 1031 54 10000 5.58 29 18:20 30.12.2020
4266 Clear -1 1031 54 10000 5.58 29 17:48 30.12.2020
4267 Clear -1 1031 56 10000 5.48 30 17:29 30.12.2020
4268 Clear -1 1031 56 10000 5.48 30 16:45 30.12.2020
4269 Clear -1 1031 58 10000 5.37 30 16:20 30.12.2020
4270 Clear -1 1031 58 10000 5.37 30 15:42 30.12.2020
4271 Clear -1 1030 61 10000 5.18 30 15:24 30.12.2020
4272 Clear -1 1030 61 10000 5.18 30 14:42 30.12.2020
4273 Clear -1 1029 62 10000 4.71 30 14:19 30.12.2020
4274 Clear 0 1027 63 10000 3.44 34 13:19 30.12.2020
4275 Clear 3 1025 56 10000 0.76 85 12:27 30.12.2020
4276 Clear 3 1025 56 10000 0.76 85 11:48 30.12.2020
4277 Clear 7 1024 48 10000 0.87 171 11:23 30.12.2020
4278 Clear 7 1024 48 10000 0.87 171 10:59 30.12.2020
4279 Clear 7 1024 48 10000 0.87 171 10:39 30.12.2020
4280 Clear 8 1023 44 10000 1.02 199 10:20 30.12.2020
4281 Clear 8 1023 44 10000 1.02 199 09:44 30.12.2020
4282 Clear 8 1024 42 10000 0.91 230 08:55 30.12.2020
4283 Clear 8 1025 43 10000 0.97 258 07:59 30.12.2020
4284 Clear 7 1027 45 10000 1.11 338 07:28 30.12.2020
4285 Clear 7 1027 45 10000 1.27 344 06:42 30.12.2020
4286 Clear 5 1029 50 10000 2.41 14 05:50 30.12.2020
4287 Clear 5 1029 50 10000 2.41 14 05:30 30.12.2020
4288 Clear -1 1033 54 10000 5.44 26 03:45 30.12.2020
4289 Clear -3 1033 50 10000 5.85 25 03:25 30.12.2020
4290 Clear -3 1033 50 10000 5.85 25 02:36 30.12.2020
4291 Clear -4 1033 51 10000 5.87 25 01:49 30.12.2020
4292 Clear -4 1033 51 10000 5.87 25 01:30 30.12.2020
4293 Clear -4 1032 52 10000 5.9 25 00:47 30.12.2020
4294 Clear -4 1032 52 10000 6.04 26 00:27 30.12.2020
4295 Clear -4 1032 52 10000 6.04 26 23:52 29.12.2020
4296 Clear -4 1032 52 10000 6.04 26 23:34 29.12.2020
4297 Clear -4 1032 53 10000 6.1 26 22:50 29.12.2020
4298 Clear -4 1032 53 10000 6.1 26 22:31 29.12.2020
4299 Clear -4 1032 53 10000 5.98 26 21:56 29.12.2020
4300 Clear -4 1032 53 10000 5.98 26 21:38 29.12.2020
4301 Clear -4 1032 54 10000 6 26 21:20 29.12.2020
4302 Clear -4 1032 54 10000 6 26 20:43 29.12.2020
4303 Clear -4 1032 55 10000 6.01 27 20:25 29.12.2020
4304 Clear -4 1032 55 10000 6.01 27 19:45 29.12.2020
4305 Clear -4 1032 56 10000 5.9 28 19:22 29.12.2020
4306 Clear -4 1032 56 10000 5.9 28 18:54 29.12.2020
4307 Clear -3 1032 60 10000 5.85 28 18:29 29.12.2020
4308 Clear -3 1032 60 10000 5.85 28 17:48 29.12.2020
4309 Clear -3 1031 63 10000 5.79 27 17:23 29.12.2020
4310 Clear -3 1031 63 10000 5.79 27 16:56 29.12.2020
4311 Clear -3 1030 65 10000 5.49 28 16:27 29.12.2020
4312 Clear -3 1030 65 10000 5.49 28 15:52 29.12.2020
4313 Clear -3 1030 65 10000 5.49 28 15:33 29.12.2020
4314 Clear -2 1029 67 10000 4.9 30 14:46 29.12.2020
4315 Clear -2 1027 69 10000 4.26 30 14:28 29.12.2020
4316 Clear -2 1027 69 10000 4.26 30 13:59 29.12.2020
4317 Clear -2 1025 73 10000 2.29 46 13:26 29.12.2020
4318 Clear -2 1025 73 10000 2.29 46 12:59 29.12.2020
4319 Clear -2 1025 71 10000 2.25 49 12:36 29.12.2020
4320 Clear 2 1022 65 10000 1.06 150 12:18 29.12.2020
4321 Clear 2 1022 65 10000 1.06 150 11:49 29.12.2020
4322 Clear 5 1021 55 10000 2.1 189 11:27 29.12.2020
4323 Clear 6 1021 50 10000 2.77 194 10:22 29.12.2020
4324 Clear 6 1021 50 10000 2.77 194 09:41 29.12.2020
4325 Clear 6 1021 49 10000 3.03 197 09:19 29.12.2020
4326 Clear 6 1021 49 10000 3.03 197 09:19 29.12.2020
4327 Clear 6 1021 49 10000 3.03 197 08:49 29.12.2020
4328 Clear 6 1023 51 10000 3.03 199 07:44 29.12.2020
4329 Clear 5 1024 52 10000 2.06 208 07:26 29.12.2020
4330 Clear 4 1027 57 10000 0.32 295 05:54 29.12.2020
4331 Clear -4 1031 63 10000 4.24 33 03:18 29.12.2020
4332 Clear -4 1030 64 10000 4.46 33 00:44 29.12.2020
4333 Clear -4 1030 66 10000 4.65 32 23:41 28.12.2020
4334 Clear -3 1030 67 10000 4.77 33 22:58 28.12.2020
4335 Clear -3 1030 69 10000 4.57 33 22:24 28.12.2020
4336 Clear -3 1030 69 10000 4.57 33 21:44 28.12.2020
4337 Clear -3 1030 69 10000 4.38 33 21:24 28.12.2020
4338 Clear -3 1030 69 10000 4.38 33 20:40 28.12.2020
4339 Clear -3 1030 69 10000 4.39 32 20:22 28.12.2020
4340 Clear -3 1030 69 10000 4.39 32 19:46 28.12.2020
4341 Clouds -3 1030 68 10000 4.25 31 19:23 28.12.2020
4342 Clouds -3 1030 68 10000 4.25 31 18:51 28.12.2020
4343 Clouds -3 1028 70 10000 4.14 34 18:28 28.12.2020
4344 Clouds -3 1028 70 10000 4.14 34 17:45 28.12.2020
4345 Clouds -3 1027 72 10000 4.08 33 17:25 28.12.2020
4346 Clouds -3 1027 72 10000 4.08 33 16:45 28.12.2020
4347 Clouds -2 1026 74 10000 4.04 33 16:24 28.12.2020
4348 Clouds -2 1026 74 10000 4.04 33 15:50 28.12.2020
4349 Clouds -2 1025 76 10000 3.88 34 14:58 28.12.2020
4350 Clouds -1 1024 80 10000 3.23 38 13:59 28.12.2020
4351 Clouds -1 1024 80 10000 3.23 38 13:35 28.12.2020
4352 Snow 0 1021 82 4415 1.21 58 12:57 28.12.2020
4353 Clouds 2 1019 72 9271 0.41 120 12:24 28.12.2020
4354 Clouds 2 1019 72 9271 0.41 120 11:47 28.12.2020
4355 Clouds 2 1019 72 9271 0.41 120 11:47 28.12.2020
4356 Clouds 4 1018 63 9750 1.63 234 11:26 28.12.2020
4357 Clouds 4 1018 63 9750 1.63 234 10:54 28.12.2020
4358 Clouds 5 1018 63 3427 2.97 235 10:28 28.12.2020
4359 Clouds 5 1018 63 3427 2.97 235 09:52 28.12.2020
4360 Clouds 5 1018 63 2213 3.04 233 09:22 28.12.2020
4361 Clouds 5 1018 63 2213 3.04 233 08:58 28.12.2020
4362 Clouds 4 1021 63 4002 1.96 229 06:52 28.12.2020
4363 Clouds 2 1023 73 2916 0.59 301 04:56 28.12.2020
4364 Snow 0 1022 81 1645 0.11 29 03:26 28.12.2020
4365 Snow 0 1021 82 3966 1.43 102 01:52 28.12.2020
4366 Snow 0 1021 81 683 3.54 45 23:52 27.12.2020
4367 Snow 0 1021 80 868 1.13 34 23:27 27.12.2020
4368 Snow 0 1021 80 1297 2.02 39 22:28 27.12.2020
4369 Snow 0 1021 80 1297 2.02 39 21:49 27.12.2020
4370 Snow 0 1021 78 2851 2.62 29 21:21 27.12.2020
4371 Snow 0 1021 75 2666 1.75 30 20:25 27.12.2020
4372 Snow 1 1021 73 6583 3.17 28 19:24 27.12.2020
4373 Clouds 1 1020 69 10000 3.18 37 18:50 27.12.2020
4374 Clouds 1 1020 69 10000 3.18 38 18:21 27.12.2020
4375 Clouds 1 1020 69 10000 3.18 38 17:58 27.12.2020
4376 Clouds 1 1020 69 10000 3.18 38 17:35 27.12.2020
4377 Clouds 0 1020 70 10000 3.07 36 16:57 27.12.2020
4378 Clouds -1 1020 69 10000 3.21 44 16:25 27.12.2020
4379 Clouds -1 1020 69 10000 3.21 44 15:34 27.12.2020
4380 Clear -1 1018 70 10000 3.06 42 14:54 27.12.2020
4381 Clear -1 1018 70 10000 3.06 42 14:36 27.12.2020
4382 Clear -1 1017 70 10000 2.41 52 13:39 27.12.2020
4383 Clear 0 1016 71 10000 1.11 116 12:56 27.12.2020
4384 Clear 4 1014 57 10000 2.98 193 12:28 27.12.2020
4385 Clear 4 1014 57 10000 2.98 193 11:42 27.12.2020
4386 Clear 7 1013 49 10000 4.01 199 11:21 27.12.2020
4387 Clear 7 1013 49 10000 4.01 199 10:45 27.12.2020
4388 Clear 8 1013 44 10000 4.48 199 10:21 27.12.2020
4389 Clear 8 1013 44 10000 4.48 199 09:39 27.12.2020
4390 Clear 9 1016 41 10000 3.5 201 08:28 27.12.2020
4391 Clear 8 1018 42 10000 1.97 213 07:29 27.12.2020
4392 Clear 8 1019 41 10000 1.87 218 06:48 27.12.2020
4393 Clear 7 1022 45 10000 0.23 82 05:38 27.12.2020
4394 Clear 0 1026 58 10000 4.12 33 03:26 27.12.2020
4395 Clear 0 1026 58 10000 4.12 33 02:30 27.12.2020
4396 Clear 0 1026 60 10000 4.15 34 00:58 27.12.2020
4397 Clear 0 1026 60 10000 4.36 33 23:44 26.12.2020
4398 Clear 0 1027 60 10000 4.14 34 23:26 26.12.2020
4399 Clear 0 1027 60 10000 4.14 34 22:46 26.12.2020
4400 Clear 1 1027 60 10000 3.88 35 22:20 26.12.2020
4401 Clear 1 1027 60 10000 3.88 35 21:54 26.12.2020
4402 Clear 1 1027 60 10000 3.88 35 21:31 26.12.2020
4403 Clear 1 1027 59 10000 3.67 36 20:48 26.12.2020
4404 Clear 1 1027 59 10000 3.53 38 20:27 26.12.2020
4405 Clear 1 1027 59 10000 3.53 38 19:57 26.12.2020
4406 Clear 1 1028 58 10000 3.54 38 19:24 26.12.2020
4407 Clear 1 1027 58 10000 3.72 36 18:37 26.12.2020
4408 Clear 1 1027 57 10000 3.82 35 18:18 26.12.2020
4409 Clear 1 1027 57 10000 3.82 35 17:40 26.12.2020
4410 Clear 1 1027 57 10000 3.97 36 17:19 26.12.2020
4411 Clear 1 1027 57 10000 3.97 36 16:32 26.12.2020
4412 Clear 2 1025 56 10000 3.77 38 15:26 26.12.2020
4413 Clear 2 1025 56 10000 3.77 38 14:46 26.12.2020
4414 Clear 2 1024 57 10000 3.65 38 14:27 26.12.2020
4415 Clear 2 1024 57 10000 3.65 38 13:43 26.12.2020
4416 Clear 2 1022 56 10000 1.78 62 13:25 26.12.2020
4417 Clear 3 1022 56 10000 1.7 63 12:44 26.12.2020
4418 Clear 6 1020 47 10000 1.65 176 12:22 26.12.2020
4419 Clear 6 1020 47 10000 1.65 176 11:51 26.12.2020
4420 Clear 10 1019 41 10000 2.33 191 11:22 26.12.2020
4421 Clear 10 1019 41 10000 2.33 191 10:54 26.12.2020
4422 Clear 11 1019 39 10000 2.4 193 10:27 26.12.2020
4423 Clear 11 1019 39 10000 2.4 193 09:51 26.12.2020
4424 Clear 11 1020 37 10000 2.45 196 09:28 26.12.2020
4425 Clear 11 1020 37 10000 2.45 196 08:33 26.12.2020
4426 Clear 11 1021 36 10000 1.55 208 07:53 26.12.2020
4427 Clear 10 1023 38 10000 0.72 286 06:31 26.12.2020
4428 Clear 1 1028 52 10000 4.68 29 03:19 26.12.2020
4429 Clear 1 1028 52 10000 4.72 29 01:35 26.12.2020
4430 Clear 1 1026 54 10000 4.97 29 00:27 26.12.2020
4431 Clear 1 1026 54 10000 4.97 29 23:41 25.12.2020
4432 Clear 1 1026 53 10000 4.88 30 23:23 25.12.2020
4433 Clear 1 1026 53 10000 4.88 30 22:45 25.12.2020
4434 Clear 1 1026 53 10000 4.89 29 21:58 25.12.2020
4435 Clear 1 1026 53 10000 4.89 29 21:35 25.12.2020
4436 Clear 1 1027 53 10000 4.77 30 20:57 25.12.2020
4437 Clear 1 1027 53 10000 4.77 30 20:37 25.12.2020
4438 Clear 1 1027 54 10000 4.76 29 19:49 25.12.2020
4439 Clouds 1 1027 54 10000 4.74 29 19:26 25.12.2020
4440 Clouds 2 1027 54 10000 4.59 29 18:39 25.12.2020
4441 Clouds 2 1027 55 10000 4.67 30 17:53 25.12.2020
4442 Clouds 2 1027 55 10000 4.67 30 17:34 25.12.2020
4443 Clouds 2 1027 55 10000 4.78 30 16:33 25.12.2020
4444 Clouds 2 1026 55 10000 4.88 32 15:59 25.12.2020
4445 Clouds 2 1026 55 10000 4.88 32 15:36 25.12.2020
4446 Clouds 2 1025 56 10000 4.64 31 14:58 25.12.2020
4447 Clouds 2 1025 56 10000 4.64 31 14:30 25.12.2020
4448 Clouds 3 1024 55 10000 4.1 31 13:45 25.12.2020
4449 Clouds 4 1023 54 10000 3.04 40 13:26 25.12.2020
4450 Clouds 4 1023 54 10000 2.99 38 12:47 25.12.2020
4451 Clouds 6 1022 49 10000 0.78 89 12:24 25.12.2020
4452 Clouds 6 1022 49 10000 0.78 89 11:45 25.12.2020
4453 Clouds 9 1021 43 10000 0.72 216 11:20 25.12.2020
4454 Clouds 9 1021 43 10000 0.72 216 10:32 25.12.2020
4455 Clear 10 1021 40 10000 0.48 305 09:49 25.12.2020
4456 Clouds 10 1022 39 10000 0.91 329 08:51 25.12.2020
4457 Clear 10 1024 39 10000 1.37 11 08:29 25.12.2020
4458 Clouds 8 1025 41 10000 2.05 18 06:49 25.12.2020
4459 Clouds 7 1027 45 10000 3.47 28 05:31 25.12.2020
4460 Clouds -1 1030 54 10000 5.93 29 02:21 25.12.2020
4461 Clear -1 1029 59 10000 5.78 29 00:20 25.12.2020
4462 Clear -1 1029 59 10000 5.78 29 23:30 24.12.2020
4463 Clear -1 1029 61 10000 5.69 29 22:54 24.12.2020
4464 Clear -1 1029 63 10000 5.49 28 22:24 24.12.2020
4465 Clear -1 1029 63 10000 5.49 28 21:45 24.12.2020
4466 Clear -1 1029 63 10000 5.2 29 20:58 24.12.2020
4467 Clear -1 1028 64 10000 5 29 19:41 24.12.2020
4468 Clouds 0 1027 65 10000 4.82 30 18:21 24.12.2020
4469 Clouds 0 1027 65 10000 4.82 30 17:38 24.12.2020
4470 Clouds 0 1027 65 10000 4.65 32 17:20 24.12.2020
4471 Clouds 1 1026 63 10000 4.42 31 16:25 24.12.2020
4472 Clouds 1 1026 63 10000 4.42 31 15:45 24.12.2020
4473 Clouds 1 1025 63 10000 4.11 33 15:23 24.12.2020
4474 Clouds 1 1025 63 10000 4.11 33 14:56 24.12.2020
4475 Clouds 2 1024 63 10000 3.65 33 14:25 24.12.2020
4476 Clouds 2 1024 63 10000 3.65 33 13:49 24.12.2020
4477 Clouds 2 1024 63 10000 3.65 33 13:30 24.12.2020
4478 Clouds 2 1021 63 10000 1.95 41 12:58 24.12.2020
4479 Clouds 2 1021 63 10000 1.95 41 12:38 24.12.2020
4480 Clouds 5 1020 56 10000 0.67 144 12:18 24.12.2020
4481 Clouds 5 1020 56 10000 0.67 144 11:38 24.12.2020
4482 Clouds 8 1019 48 10000 1.57 186 11:19 24.12.2020
4483 Clouds 8 1019 48 10000 1.57 186 10:43 24.12.2020
4484 Clouds 9 1019 43 10000 2.03 194 10:18 24.12.2020
4485 Clouds 9 1019 43 10000 2.03 194 09:49 24.12.2020
4486 Clouds 9 1020 41 10000 1.72 205 08:50 24.12.2020
4487 Clouds 9 1022 41 10000 0.76 240 07:55 24.12.2020
4488 Clouds 9 1022 41 10000 0.76 240 07:37 24.12.2020
4489 Clouds 7 1025 47 10000 2.14 31 06:27 24.12.2020
4490 Clouds 2 1027 58 10000 4.64 32 03:51 24.12.2020
4491 Clouds 0 1027 60 10000 4.86 30 01:52 24.12.2020
4492 Clouds 1 1026 60 10000 4.81 29 01:22 24.12.2020
4493 Clouds 1 1026 60 10000 4.81 29 00:43 24.12.2020
4494 Clouds 1 1026 62 10000 4.78 29 00:19 24.12.2020
4495 Clouds 1 1026 62 10000 4.78 29 23:40 23.12.2020
4496 Clouds 1 1026 62 10000 4.82 29 23:21 23.12.2020
4497 Clouds 1 1026 62 10000 4.82 29 22:48 23.12.2020
4498 Clouds 1 1027 62 10000 4.88 28 22:26 23.12.2020
4499 Clouds 1 1027 62 10000 4.88 28 21:48 23.12.2020
4500 Clouds 0 1027 62 10000 5.05 28 21:23 23.12.2020
4501 Clouds 0 1027 62 10000 5.05 28 20:46 23.12.2020
4502 Clear 0 1027 62 10000 5.24 29 20:28 23.12.2020
4503 Clear 0 1027 62 10000 5.24 29 19:58 23.12.2020
4504 Clear 0 1027 62 10000 5.24 29 19:37 23.12.2020
4505 Clear 0 1027 62 10000 5.24 30 19:19 23.12.2020
4506 Clear 1 1026 62 10000 5.02 30 18:40 23.12.2020
4507 Clear 1 1026 62 10000 4.97 31 17:58 23.12.2020
4508 Clear 1 1026 62 10000 4.97 31 17:36 23.12.2020
4509 Clear 1 1026 63 10000 5.1 31 17:18 23.12.2020
4510 Clear 1 1026 63 10000 5.1 31 16:40 23.12.2020
4511 Clear 1 1025 64 10000 5.22 30 16:22 23.12.2020
4512 Clear 1 1025 64 10000 5.22 30 15:50 23.12.2020
4513 Clear 1 1024 64 10000 5.02 32 15:27 23.12.2020
4514 Clear 1 1024 64 10000 5.02 32 14:58 23.12.2020
4515 Clear 1 1024 64 10000 5.02 32 14:37 23.12.2020
4516 Clear 2 1023 63 10000 4.6 32 14:19 23.12.2020
4517 Clear 2 1023 63 10000 4.6 32 13:43 23.12.2020
4518 Clear 3 1021 62 10000 3.03 41 13:19 23.12.2020
4519 Clear 3 1021 62 10000 2.85 41 12:47 23.12.2020
4520 Clouds 6 1019 52 10000 0.84 110 12:24 23.12.2020
4521 Clouds 6 1019 52 10000 0.84 110 11:46 23.12.2020
4522 Clouds 9 1018 45 10000 1.39 168 11:19 23.12.2020
4523 Clouds 9 1018 45 10000 1.39 168 10:42 23.12.2020
4524 Clouds 10 1019 41 10000 1.92 186 10:23 23.12.2020
4525 Clouds 10 1019 41 10000 1.92 186 09:33 23.12.2020
4526 Clear 10 1019 40 10000 2.01 201 08:45 23.12.2020
4527 Clear 10 1021 40 10000 1.52 220 08:20 23.12.2020
4528 Clouds 9 1022 42 10000 0.77 255 07:27 23.12.2020
4529 Clouds 9 1022 42 10000 0.77 255 06:39 23.12.2020
4530 Clouds 6 1025 51 10000 2.63 33 05:28 23.12.2020
4531 Clouds 6 1025 51 10000 2.63 33 04:57 23.12.2020
4532 Clouds 1 1025 58 10000 4.11 33 00:34 23.12.2020
4533 Clear 1 1025 58 10000 4.44 32 23:58 22.12.2020
4534 Clear 1 1025 58 10000 4.44 32 23:33 22.12.2020
4535 Clear 1 1025 58 10000 4.46 31 22:44 22.12.2020
4536 Clear 1 1026 57 10000 4.64 29 22:25 22.12.2020
4537 Clear 1 1026 57 10000 4.64 29 21:59 22.12.2020
4538 Clear 1 1026 57 10000 4.64 29 21:41 22.12.2020
4539 Clear 1 1026 56 10000 4.88 29 21:20 22.12.2020
4540 Clear 1 1026 56 10000 4.88 29 20:49 22.12.2020
4541 Clear 1 1026 56 10000 5.09 29 20:22 22.12.2020
4542 Clear 1 1026 56 10000 5.09 29 19:46 22.12.2020
4543 Clear 1 1026 56 10000 5.45 31 19:25 22.12.2020
4544 Clear 1 1026 56 10000 5.45 31 18:55 22.12.2020
4545 Clear 1 1026 58 10000 5.31 30 18:30 22.12.2020
4546 Clear 1 1026 58 10000 5.51 31 17:59 22.12.2020
4547 Clear 1 1026 58 10000 5.51 31 17:36 22.12.2020
4548 Clear 1 1026 59 10000 5.7 30 17:18 22.12.2020
4549 Clear 1 1026 59 10000 5.7 30 16:44 22.12.2020
4550 Clear 2 1026 60 10000 5.66 31 16:19 22.12.2020
4551 Clear 2 1026 60 10000 5.66 31 15:45 22.12.2020
4552 Clear 2 1025 61 10000 5.32 31 15:26 22.12.2020
4553 Clear 2 1025 61 10000 5.32 31 14:46 22.12.2020
4554 Clear 2 1025 61 10000 5.32 31 14:46 22.12.2020
4555 Clear 3 1024 59 10000 4.81 32 14:28 22.12.2020
4556 Clear 3 1024 59 10000 4.81 32 13:55 22.12.2020
4557 Clear 3 1024 59 10000 4.81 32 13:36 22.12.2020
4558 Clear 4 1022 57 10000 3.64 32 13:18 22.12.2020
4559 Clear 4 1022 57 10000 3.64 32 12:42 22.12.2020
4560 Clear 7 1021 49 10000 1.17 56 12:22 22.12.2020
4561 Clear 7 1021 49 10000 1.17 56 11:55 22.12.2020
4562 Clear 7 1021 49 10000 1.17 56 11:37 22.12.2020
4563 Clear 10 1020 42 10000 0.54 155 11:18 22.12.2020
4564 Clear 10 1020 42 10000 0.54 155 10:45 22.12.2020
4565 Clear 11 1020 39 10000 0.8 185 10:23 22.12.2020
4566 Clear 11 1020 39 10000 0.8 185 09:49 22.12.2020
4567 Clear 11 1021 38 10000 0.9 224 09:21 22.12.2020
4568 Clear 11 1021 38 10000 0.9 224 08:45 22.12.2020
4569 Clear 11 1023 38 10000 0.8 264 08:25 22.12.2020
4570 Clear 11 1023 38 10000 0.8 264 07:47 22.12.2020
4571 Clear 10 1024 41 10000 1.04 2 06:38 22.12.2020
4572 Clear 9 1026 44 10000 2.05 25 05:39 22.12.2020
4573 Clear 2 1029 59 10000 5.03 28 02:39 22.12.2020
4574 Clear 2 1027 58 10000 4.63 28 00:44 22.12.2020
4575 Clear 3 1027 57 10000 4.53 27 23:52 21.12.2020
4576 Clear 3 1027 57 10000 4.51 29 23:29 21.12.2020
4577 Clear 3 1027 57 10000 4.51 29 22:38 21.12.2020
4578 Clear 3 1027 57 10000 4.28 29 22:19 21.12.2020
4579 Clear 3 1027 57 10000 4.28 29 21:49 21.12.2020
4580 Clear 3 1027 57 10000 4.28 29 21:31 21.12.2020
4581 Clear 3 1027 56 10000 4.13 30 20:50 21.12.2020
4582 Clear 3 1027 56 10000 4.2 31 20:25 21.12.2020
4583 Clear 3 1027 56 10000 4.2 31 19:58 21.12.2020
4584 Clear 3 1027 56 10000 4.2 31 19:39 21.12.2020
4585 Clear 3 1026 56 10000 4.25 31 19:18 21.12.2020
4586 Clear 3 1026 56 10000 4.25 31 18:51 21.12.2020
4587 Clear 3 1026 57 10000 3.78 33 18:32 21.12.2020
4588 Clear 3 1025 57 10000 3.72 34 17:43 21.12.2020
4589 Clear 3 1025 57 10000 3.72 35 17:24 21.12.2020
4590 Clear 3 1025 57 10000 3.72 35 16:47 21.12.2020
4591 Clear 4 1025 57 10000 3.7 35 16:26 21.12.2020
4592 Clear 4 1025 57 10000 3.7 35 15:54 21.12.2020
4593 Clear 4 1025 57 10000 3.7 35 15:35 21.12.2020
4594 Clear 4 1024 58 10000 3.65 38 14:57 21.12.2020
4595 Clear 4 1023 58 10000 3.45 39 14:21 21.12.2020
4596 Clear 4 1023 58 10000 3.45 39 13:44 21.12.2020
4597 Clouds 4 1021 58 10000 1.66 67 13:26 21.12.2020
4598 Clouds 4 1020 58 10000 1.46 76 12:45 21.12.2020
4599 Clouds 8 1019 49 10000 1.78 179 12:25 21.12.2020
4600 Clouds 8 1019 49 10000 1.78 179 11:58 21.12.2020
4601 Clouds 8 1019 49 10000 1.78 179 11:39 21.12.2020
4602 Clouds 11 1018 42 10000 2.46 187 11:20 21.12.2020
4603 Clouds 11 1018 42 10000 2.46 187 10:42 21.12.2020
4604 Clouds 12 1019 39 10000 2.58 189 10:24 21.12.2020
4605 Clouds 12 1019 39 10000 2.58 189 09:46 21.12.2020
4606 Clouds 12 1020 38 10000 2.39 195 09:25 21.12.2020
4607 Clouds 12 1020 38 10000 2.39 195 08:52 21.12.2020
4608 Clouds 12 1021 38 10000 1.85 202 07:52 21.12.2020
4609 Clouds 12 1022 38 10000 0.94 228 06:47 21.12.2020
4610 Clouds 9 1023 44 10000 1.07 50 04:57 21.12.2020
4611 Clouds 6 1023 48 10000 2.65 40 01:28 21.12.2020
4612 Clouds 6 1023 49 10000 2.82 37 00:33 21.12.2020
4613 Clouds 6 1023 48 10000 2.89 29 23:36 20.12.2020
4614 Clouds 6 1024 48 10000 2.95 24 22:59 20.12.2020
4615 Clouds 6 1024 48 10000 2.95 24 22:41 20.12.2020
4616 Clouds 7 1024 47 10000 2.73 30 22:22 20.12.2020
4617 Clouds 7 1024 47 10000 2.73 30 21:40 20.12.2020
4618 Clouds 7 1025 47 10000 2.82 36 21:21 20.12.2020
4619 Clouds 7 1025 47 10000 2.82 36 20:51 20.12.2020
4620 Clouds 6 1025 48 10000 2.66 36 20:25 20.12.2020
4621 Clouds 6 1025 48 10000 2.66 36 19:51 20.12.2020
4622 Clouds 6 1025 48 10000 2.66 36 19:33 20.12.2020
4623 Clouds 7 1026 47 10000 2.48 33 18:59 20.12.2020
4624 Clouds 6 1026 48 10000 3.07 30 18:40 20.12.2020
4625 Clouds 6 1026 48 10000 3.03 33 18:22 20.12.2020
4626 Clouds 6 1026 48 10000 3.03 33 17:44 20.12.2020
4627 Clouds 6 1026 48 10000 2.8 31 17:23 20.12.2020
4628 Clouds 6 1026 48 10000 2.8 31 16:45 20.12.2020
4629 Clouds 7 1026 48 10000 2.78 39 16:27 20.12.2020
4630 Clouds 7 1026 48 10000 2.78 39 15:49 20.12.2020
4631 Clouds 7 1025 49 10000 2.91 29 15:25 20.12.2020
4632 Clouds 7 1025 49 10000 2.91 29 14:54 20.12.2020
4633 Clouds 7 1025 49 10000 2.91 29 14:33 20.12.2020
4634 Clouds 7 1025 49 10000 3.04 25 13:47 20.12.2020
4635 Clouds 7 1024 49 10000 2.87 27 13:28 20.12.2020
4636 Clouds 7 1024 50 10000 2.99 25 12:58 20.12.2020
4637 Clouds 7 1024 50 10000 2.99 25 12:39 20.12.2020
4638 Clouds 8 1023 47 10000 1.4 28 12:21 20.12.2020
4639 Clouds 8 1023 47 10000 1.4 28 11:44 20.12.2020
4640 Clouds 11 1022 42 10000 0.31 57 11:19 20.12.2020
4641 Clouds 11 1022 42 10000 0.31 57 10:45 20.12.2020
4642 Clouds 12 1023 38 10000 0.55 220 10:20 20.12.2020
4643 Clouds 12 1023 38 10000 0.55 220 09:46 20.12.2020
4644 Clouds 12 1023 37 10000 1.03 235 09:27 20.12.2020
4645 Clouds 12 1023 37 10000 1.03 235 08:58 20.12.2020
4646 Clouds 12 1023 37 10000 1.03 235 08:39 20.12.2020
4647 Clouds 12 1026 38 10000 0.73 357 07:27 20.12.2020
4648 Clouds 10 1027 41 10000 1.8 25 05:48 20.12.2020
4649 Clouds 3 1028 51 10000 4.57 28 02:23 20.12.2020
4650 Clouds 3 1028 51 10000 4.7 28 00:39 20.12.2020
4651 Clouds 2 1029 53 10000 5.19 27 23:22 19.12.2020
4652 Clouds 2 1029 53 10000 5.19 27 22:57 19.12.2020
4653 Clouds 2 1029 53 10000 5.19 27 22:39 19.12.2020
4654 Clouds 2 1029 53 10000 5.39 28 22:19 19.12.2020
4655 Clouds 2 1029 53 10000 5.39 28 21:43 19.12.2020
4656 Clouds 2 1029 53 10000 5.2 28 21:25 19.12.2020
4657 Clouds 2 1029 53 10000 5.2 28 20:48 19.12.2020
4658 Clouds 3 1029 52 10000 5.07 28 20:23 19.12.2020
4659 Clouds 3 1029 52 10000 5.07 28 19:56 19.12.2020
4660 Clouds 3 1029 52 10000 5.07 28 19:38 19.12.2020
4661 Clear 2 1029 53 10000 5.05 28 19:19 19.12.2020
4662 Clear 2 1029 53 10000 5.08 29 18:32 19.12.2020
4663 Clear 2 1029 54 10000 5.07 29 17:50 19.12.2020
4664 Clear 2 1029 54 10000 5.07 29 17:30 19.12.2020
4665 Clear 2 1029 54 10000 5.18 28 16:56 19.12.2020
4666 Clear 2 1029 54 10000 5.18 28 16:38 19.12.2020
4667 Clear 2 1029 55 10000 5.12 29 16:19 19.12.2020
4668 Clear 2 1029 55 10000 5.12 29 15:47 19.12.2020
4669 Clear 2 1028 56 10000 5.07 28 15:18 19.12.2020
4670 Clear 2 1028 56 10000 5.07 28 14:35 19.12.2020
4671 Clear 3 1027 56 10000 4.79 28 13:42 19.12.2020
4672 Clear 3 1025 55 10000 3.62 29 13:22 19.12.2020
4673 Clear 3 1025 55 10000 3.8 28 12:57 19.12.2020
4674 Clear 3 1025 55 10000 3.8 28 12:38 19.12.2020
4675 Clear 6 1023 50 10000 1.16 45 12:20 19.12.2020
4676 Clear 6 1023 50 10000 1.16 45 11:44 19.12.2020
4677 Clear 9 1022 43 10000 0.48 122 11:18 19.12.2020
4678 Clear 9 1022 43 10000 0.48 122 10:42 19.12.2020
4679 Clear 10 1022 39 10000 0.79 188 10:18 19.12.2020
4680 Clear 10 1022 39 10000 0.79 188 09:41 19.12.2020
4681 Clear 11 1023 36 10000 1.06 197 08:58 19.12.2020
4682 Clear 11 1023 35 10000 0.4 196 08:18 19.12.2020
4683 Clear 10 1025 39 10000 0.4 47 07:20 19.12.2020
4684 Clear 10 1025 39 10000 0.4 47 06:49 19.12.2020
4685 Clear 6 1028 48 10000 3.6 30 05:24 19.12.2020
4686 Clear 2 1029 51 10000 4.82 30 03:50 19.12.2020
4687 Clear -1 1029 53 10000 5.32 30 00:42 19.12.2020
4688 Clear -1 1029 53 10000 5.34 29 00:22 19.12.2020
4689 Clear -1 1029 53 10000 5.34 29 23:57 18.12.2020
4690 Clear -1 1029 53 10000 5.34 29 23:39 18.12.2020
4691 Clear -1 1029 53 10000 5.55 28 23:18 18.12.2020
4692 Clear -1 1029 53 10000 5.55 28 22:42 18.12.2020
4693 Clear -1 1030 53 10000 5.57 29 22:20 18.12.2020
4694 Clear -1 1030 53 10000 5.57 29 21:46 18.12.2020
4695 Clear -1 1030 53 10000 5.4 29 21:28 18.12.2020
4696 Clear -1 1031 54 10000 5.31 29 20:27 18.12.2020
4697 Clear -1 1031 54 10000 5.31 29 19:52 18.12.2020
4698 Clear -1 1030 55 10000 5.33 28 19:27 18.12.2020
4699 Clear -1 1030 55 10000 5.33 28 18:54 18.12.2020
4700 Clear -1 1031 54 10000 5.3 29 18:36 18.12.2020
4701 Clear -1 1031 55 10000 5.55 28 18:18 18.12.2020
4702 Clear -1 1031 55 10000 5.7 28 17:22 18.12.2020
4703 Clear -1 1031 55 10000 5.7 28 16:49 18.12.2020
4704 Clear -1 1031 57 10000 5.75 28 16:26 18.12.2020
4705 Clear -1 1031 57 10000 5.75 28 15:56 18.12.2020
4706 Clear -1 1031 57 10000 5.75 28 15:38 18.12.2020
4707 Clear -1 1031 59 10000 5.6 28 15:20 18.12.2020
4708 Clear -1 1031 59 10000 5.6 28 14:54 18.12.2020
4709 Clear -1 1029 62 10000 5.24 30 14:21 18.12.2020
4710 Clear -1 1029 62 10000 5.24 30 13:46 18.12.2020
4711 Clear 0 1027 63 10000 4.29 28 13:24 18.12.2020
4712 Clear 0 1027 64 10000 3.97 28 12:46 18.12.2020
4713 Clear 3 1024 57 10000 2.16 29 11:45 18.12.2020
4714 Clear 6 1023 50 10000 1.07 8 11:22 18.12.2020
4715 Clear 6 1023 50 10000 1.07 8 10:39 18.12.2020
4716 Clear 8 1023 46 10000 0.68 338 10:20 18.12.2020
4717 Clear 8 1023 46 10000 0.68 338 09:38 18.12.2020
4718 Clear 8 1023 43 10000 0.71 311 09:20 18.12.2020
4719 Clear 8 1023 43 10000 0.71 311 08:53 18.12.2020
4720 Clear 8 1024 43 10000 0.85 303 08:29 18.12.2020
4721 Clear 8 1024 43 10000 0.85 303 07:39 18.12.2020
4722 Clear 7 1025 45 10000 1.13 0 07:18 18.12.2020
4723 Clear 7 1025 45 10000 1.13 0 06:46 18.12.2020
4724 Clear 6 1027 49 10000 2.08 21 05:41 18.12.2020
4725 Clear 3 1029 56 10000 3.54 25 04:51 18.12.2020
4726 Clear -3 1030 55 10000 5.32 28 01:58 18.12.2020
4727 Clear -3 1030 55 10000 5.32 28 01:39 18.12.2020
4728 Clear -3 1029 57 10000 5.2 26 23:59 17.12.2020
4729 Clear -2 1030 57 10000 5.01 27 23:25 17.12.2020
4730 Clear -2 1030 57 10000 5.01 27 22:58 17.12.2020
4731 Clear -2 1030 57 10000 5.01 27 22:40 17.12.2020
4732 Clear -2 1030 57 10000 4.98 28 22:22 17.12.2020
4733 Clear -2 1030 57 10000 4.98 28 21:42 17.12.2020
4734 Clear -2 1030 57 10000 4.98 28 21:42 17.12.2020
4735 Clear -3 1030 56 10000 5.04 28 21:19 17.12.2020
4736 Clear -3 1030 56 10000 5.04 28 20:41 17.12.2020
4737 Clear -3 1030 56 10000 5.16 30 20:19 17.12.2020
4738 Clear -3 1030 56 10000 5.16 30 19:48 17.12.2020
4739 Clear -2 1030 57 10000 5.21 31 19:24 17.12.2020
4740 Clear -2 1030 57 10000 5.21 31 19:24 17.12.2020
4741 Clear -2 1030 57 10000 5.16 30 18:42 17.12.2020
4742 Clear -2 1030 57 10000 5.16 30 18:42 17.12.2020
4743 Clear -2 1030 57 10000 5.09 31 18:24 17.12.2020
4744 Clear -2 1030 57 10000 5.09 31 17:54 17.12.2020
4745 Clear -2 1030 57 10000 5.09 31 17:33 17.12.2020
4746 Clear -2 1030 58 10000 5.07 32 16:54 17.12.2020
4747 Clear -2 1030 58 10000 5.07 32 16:36 17.12.2020
4748 Clear -2 1029 61 10000 4.84 33 16:18 17.12.2020
4749 Clear -2 1029 61 10000 4.84 33 15:40 17.12.2020
4750 Clear -2 1028 62 10000 4.63 33 15:18 17.12.2020
4751 Clear -2 1028 62 10000 4.63 33 14:47 17.12.2020
4752 Clear -2 1027 63 10000 4.12 36 13:59 17.12.2020
4753 Clear -2 1027 63 10000 4.12 36 13:41 17.12.2020
4754 Clear -1 1025 64 10000 3.13 37 12:58 17.12.2020
4755 Clear -1 1025 65 10000 3.06 38 12:38 17.12.2020
4756 Clear 2 1022 60 10000 0.88 83 12:20 17.12.2020
4757 Clear 2 1022 60 10000 0.88 83 11:40 17.12.2020
4758 Clear 6 1022 51 10000 0.78 167 11:20 17.12.2020
4759 Clear 6 1022 51 10000 0.78 167 10:40 17.12.2020
4760 Clear 7 1022 46 10000 0.85 191 09:36 17.12.2020
4761 Clear 7 1022 44 10000 0.73 232 08:50 17.12.2020
4762 Clear 7 1024 44 10000 0.8 270 07:42 17.12.2020
4763 Clear 6 1026 45 10000 0.61 315 07:21 17.12.2020
4764 Clear 6 1026 46 10000 0.82 324 06:47 17.12.2020
4765 Clear 5 1028 50 10000 1.03 24 06:29 17.12.2020
4766 Clear -1 1033 57 10000 3.93 29 03:30 17.12.2020
4767 Clear -4 1033 54 10000 4.69 27 00:27 17.12.2020
4768 Clear -4 1033 54 10000 4.69 27 23:42 16.12.2020
4769 Clear -4 1033 56 10000 4.66 26 23:18 16.12.2020
4770 Clear -4 1033 56 10000 4.66 26 22:48 16.12.2020
4771 Clear -4 1033 56 10000 4.66 26 22:30 16.12.2020
4772 Clear -4 1034 58 10000 4.6 28 21:44 16.12.2020
4773 Clear -4 1034 63 10000 4.48 29 21:23 16.12.2020
4774 Clear -4 1034 63 10000 4.48 29 20:52 16.12.2020
4775 Clear -3 1034 66 10000 4.3 29 20:20 16.12.2020
4776 Clear -3 1034 66 10000 4.3 29 19:38 16.12.2020
4777 Clear -3 1034 67 10000 3.98 33 19:18 16.12.2020
4778 Clear -3 1034 67 10000 4.17 31 18:49 16.12.2020
4779 Clear -3 1034 69 10000 3.98 34 18:25 16.12.2020
4780 Clear -3 1034 69 10000 3.98 34 17:38 16.12.2020
4781 Clear -3 1033 70 10000 4.01 32 16:56 16.12.2020
4782 Clear -3 1033 70 10000 4.01 32 16:36 16.12.2020
4783 Clear -3 1032 70 10000 3.95 35 16:18 16.12.2020
4784 Clear -3 1032 70 10000 3.95 35 15:46 16.12.2020
4785 Clear -2 1030 71 10000 3.51 36 15:18 16.12.2020
4786 Clear -2 1030 71 10000 3.51 36 14:44 16.12.2020
4787 Clear -2 1029 72 10000 3.13 41 14:26 16.12.2020
4788 Clear -2 1029 72 10000 3.13 41 13:41 16.12.2020
4789 Clear -2 1026 74 10000 1.37 71 13:20 16.12.2020
4790 Clear -2 1026 75 10000 1.42 75 12:43 16.12.2020
4791 Clear 2 1023 68 10000 1.93 183 11:51 16.12.2020
4792 Clear 2 1023 68 10000 1.93 183 11:32 16.12.2020
4793 Clear 5 1022 58 10000 3.11 197 10:56 16.12.2020
4794 Clear 5 1022 58 10000 3.11 197 10:36 16.12.2020
4795 Clear 6 1022 53 10000 3.81 198 09:56 16.12.2020
4796 Clear 6 1022 53 10000 3.81 198 09:33 16.12.2020
4797 Clear 6 1024 52 10000 3.88 199 08:23 16.12.2020
4798 Clear 6 1024 52 10000 3.88 199 07:46 16.12.2020
4799 Clear 6 1026 54 10000 2.58 203 07:23 16.12.2020
4800 Clear 5 1029 55 10000 1.03 192 05:31 16.12.2020
4801 Clear -2 1031 69 10000 2.71 49 02:20 16.12.2020
4802 Clouds -2 1030 68 10000 2.32 50 23:57 15.12.2020
4803 Clouds -2 1030 68 10000 2.32 50 23:37 15.12.2020
4804 Clouds -2 1030 68 10000 2.37 49 22:44 15.12.2020
4805 Clouds -2 1030 67 10000 2.41 50 22:22 15.12.2020
4806 Clouds -2 1030 67 10000 2.41 50 21:49 15.12.2020
4807 Clouds -2 1030 67 10000 2.56 47 21:24 15.12.2020
4808 Clouds -2 1030 67 10000 2.56 47 20:46 15.12.2020
4809 Clear -2 1030 68 10000 2.89 44 20:27 15.12.2020
4810 Clear -2 1030 68 10000 2.89 44 19:55 15.12.2020
4811 Clear -2 1030 68 10000 2.89 44 19:35 15.12.2020
4812 Clear -1 1030 69 10000 3.2 40 18:57 15.12.2020
4813 Clear -2 1030 70 10000 2.9 46 18:38 15.12.2020
4814 Clouds -2 1030 71 10000 3.07 44 18:20 15.12.2020
4815 Clouds -2 1030 71 10000 3.07 44 17:41 15.12.2020
4816 Clouds -1 1029 71 10000 3.1 42 17:22 15.12.2020
4817 Clouds -1 1029 71 10000 3.1 42 16:37 15.12.2020
4818 Clouds -1 1029 71 10000 3.17 41 16:19 15.12.2020
4819 Clouds -1 1029 71 10000 3.17 41 15:37 15.12.2020
4820 Clouds -1 1028 71 10000 3.07 47 14:56 15.12.2020
4821 Clouds -1 1028 71 10000 3.07 47 14:37 15.12.2020
4822 Clouds -1 1026 72 10000 2.98 48 14:19 15.12.2020
4823 Clouds -1 1026 72 10000 2.98 48 13:47 15.12.2020
4824 Clouds -1 1024 73 10000 1.64 69 13:22 15.12.2020
4825 Clouds 0 1024 73 10000 1.55 71 12:44 15.12.2020
4826 Clouds 3 1022 65 10000 1.73 169 12:18 15.12.2020
4827 Clouds 3 1022 65 10000 1.73 169 11:49 15.12.2020
4828 Clouds 6 1020 55 10000 2.87 188 11:21 15.12.2020
4829 Clouds 6 1020 55 10000 2.87 188 10:45 15.12.2020
4830 Clouds 7 1020 50 10000 3.56 194 10:19 15.12.2020
4831 Clouds 7 1020 50 10000 3.56 194 09:41 15.12.2020
4832 Clouds 7 1021 48 10000 3.89 195 09:22 15.12.2020
4833 Clouds 7 1021 48 10000 3.89 195 08:40 15.12.2020
4834 Clouds 7 1023 48 10000 3.36 195 08:21 15.12.2020
4835 Clouds 7 1023 48 10000 3.36 195 07:43 15.12.2020
4836 Clouds 7 1024 47 10000 1.83 199 06:53 15.12.2020
4837 Clouds 6 1026 50 10000 0.84 180 05:34 15.12.2020
4838 Clouds -1 1027 63 10000 2.98 41 00:39 15.12.2020
4839 Clouds -1 1027 64 10000 2.93 40 23:51 14.12.2020
4840 Clouds -1 1027 64 10000 2.89 41 23:19 14.12.2020
4841 Clouds -1 1027 64 10000 2.89 41 22:44 14.12.2020
4842 Clouds -1 1028 64 10000 2.93 40 22:19 14.12.2020
4843 Clouds -1 1028 64 10000 2.93 40 21:40 14.12.2020
4844 Clouds -1 1028 63 10000 3.28 39 21:18 14.12.2020
4845 Clouds -1 1028 63 10000 3.28 39 21:18 14.12.2020
4846 Clouds -1 1028 63 10000 3.28 39 20:46 14.12.2020
4847 Clouds -1 1028 63 10000 3.64 36 20:27 14.12.2020
4848 Clouds -1 1028 63 10000 3.64 36 19:44 14.12.2020
4849 Clouds -1 1028 63 10000 3.77 38 19:25 14.12.2020
4850 Clear -1 1028 64 10000 3.76 37 18:44 14.12.2020
4851 Clear -1 1028 64 10000 3.92 37 18:24 14.12.2020
4852 Clear -1 1028 64 10000 3.92 37 17:45 14.12.2020
4853 Clear -1 1028 64 10000 4.06 37 17:21 14.12.2020
4854 Clear -1 1028 64 10000 4.06 37 16:49 14.12.2020
4855 Clear -1 1027 64 10000 4.07 38 16:27 14.12.2020
4856 Clear -1 1027 64 10000 4.07 38 15:33 14.12.2020
4857 Clear -1 1027 64 10000 3.97 38 14:52 14.12.2020
4858 Clear -1 1027 64 10000 3.97 38 14:34 14.12.2020
4859 Clear -1 1025 65 10000 3.76 39 13:58 14.12.2020
4860 Clear -1 1025 65 10000 3.76 39 13:37 14.12.2020
4861 Clear 0 1023 67 10000 2.52 50 13:18 14.12.2020
4862 Clear 0 1023 67 10000 2.42 53 12:44 14.12.2020
4863 Clear 3 1021 61 10000 1.35 148 12:23 14.12.2020
4864 Clear 3 1021 61 10000 1.35 148 11:31 14.12.2020
4865 Clear 6 1019 52 10000 2.48 183 10:30 14.12.2020
4866 Clear 8 1019 47 10000 2.92 191 09:58 14.12.2020
4867 Clear 8 1020 44 10000 2.83 196 09:25 14.12.2020
4868 Clear 8 1020 44 10000 2.83 196 08:45 14.12.2020
4869 Clear 8 1021 43 10000 2.06 210 08:26 14.12.2020
4870 Clear 7 1023 45 10000 0.89 249 07:27 14.12.2020
4871 Clear 7 1023 45 10000 0.96 244 06:44 14.12.2020
4872 Clear 0 1028 61 10000 4.23 28 04:28 14.12.2020
4873 Clear -2 1027 56 10000 4.93 28 02:26 14.12.2020
4874 Clear -2 1027 56 10000 4.87 29 00:55 14.12.2020
4875 Clear -2 1027 56 10000 4.87 29 00:31 14.12.2020
4876 Clear -2 1027 56 10000 4.9 29 23:48 13.12.2020
4877 Clear -2 1027 57 10000 4.8 29 23:25 13.12.2020
4878 Clear -2 1027 57 10000 4.8 29 22:46 13.12.2020
4879 Clear -2 1027 57 10000 4.66 30 22:19 13.12.2020
4880 Clear -2 1027 57 10000 4.66 30 21:42 13.12.2020
4881 Clear -2 1027 59 10000 4.53 31 21:24 13.12.2020
4882 Clear -2 1027 59 10000 4.53 31 20:35 13.12.2020
4883 Clear -2 1027 60 10000 4.47 31 19:53 13.12.2020
4884 Clear -2 1027 60 10000 4.47 31 19:33 13.12.2020
4885 Clear -2 1026 62 10000 4.29 32 18:59 13.12.2020
4886 Clear -2 1027 62 10000 4.48 31 18:41 13.12.2020
4887 Clear -1 1026 64 10000 4.45 34 18:20 13.12.2020
4888 Clear -1 1026 64 10000 4.45 34 17:46 13.12.2020
4889 Clear -1 1026 66 10000 4.59 34 17:21 13.12.2020
4890 Clear -1 1026 66 10000 4.59 34 17:21 13.12.2020
4891 Clear -1 1026 66 10000 4.59 34 16:56 13.12.2020
4892 Clear -1 1026 66 10000 4.59 34 16:38 13.12.2020
4893 Clear -1 1025 67 10000 4.65 36 16:18 13.12.2020
4894 Clear -1 1025 67 10000 4.65 36 15:40 13.12.2020
4895 Clear -1 1024 67 10000 4.47 37 15:21 13.12.2020
4896 Clear -1 1024 67 10000 4.47 37 14:43 13.12.2020
4897 Clear -1 1023 69 10000 4.09 36 14:21 13.12.2020
4898 Clear -1 1023 69 10000 4.09 36 13:43 13.12.2020
4899 Clear 0 1021 72 10000 2.28 49 13:24 13.12.2020
4900 Clear 0 1021 73 10000 2.2 50 12:48 13.12.2020
4901 Clear 3 1018 65 10000 1.08 157 12:22 13.12.2020
4902 Clear 3 1018 65 10000 1.08 157 11:42 13.12.2020
4903 Clear 6 1017 54 10000 1.96 181 10:56 13.12.2020
4904 Clear 6 1017 54 10000 1.96 181 10:38 13.12.2020
4905 Clear 8 1017 49 10000 2.51 185 09:55 13.12.2020
4906 Clear 8 1017 49 10000 2.51 185 09:55 13.12.2020
4907 Clear 8 1018 47 10000 2.62 192 09:27 13.12.2020
4908 Clear 8 1018 47 10000 2.62 192 08:35 13.12.2020
4909 Clear 8 1020 46 10000 2.12 206 07:47 13.12.2020
4910 Clear 3 1027 64 10000 3.62 26 04:48 13.12.2020
4911 Clear -2 1029 64 10000 5.26 30 02:41 13.12.2020
4912 Clear -2 1029 64 10000 5.24 30 01:58 13.12.2020
4913 Clear -2 1028 66 10000 5.04 30 00:51 13.12.2020
4914 Clear -2 1028 66 10000 4.94 29 00:28 13.12.2020
4915 Clear -2 1028 66 10000 4.94 29 23:32 12.12.2020
4916 Clear -2 1029 66 10000 4.91 29 22:53 12.12.2020
4917 Clear -2 1029 67 10000 4.83 28 22:19 12.12.2020
4918 Clear -2 1029 67 10000 4.83 28 21:42 12.12.2020
4919 Clear -2 1028 67 10000 4.75 28 21:18 12.12.2020
4920 Clear -2 1028 67 10000 4.75 28 20:36 12.12.2020
4921 Clear -1 1028 68 10000 5.01 29 20:18 12.12.2020
4922 Clear -1 1028 68 10000 5.01 29 19:46 12.12.2020
4923 Clouds -2 1028 71 10000 5.13 29 19:27 12.12.2020
4924 Clouds -1 1028 74 10000 4.72 31 18:45 12.12.2020
4925 Clouds -1 1028 76 10000 4.24 31 18:27 12.12.2020
4926 Clouds -1 1028 76 10000 4.24 31 17:47 12.12.2020
4927 Clouds -1 1027 78 10000 3.76 34 16:57 12.12.2020
4928 Clouds 0 1026 79 10000 3.25 35 16:21 12.12.2020
4929 Clouds 0 1026 79 10000 3.25 35 15:50 12.12.2020
4930 Clouds 0 1026 79 10000 3.25 35 15:31 12.12.2020
4931 Clouds 0 1025 80 10000 2.67 25 14:49 12.12.2020
4932 Snow 1 1023 80 7120 1.96 2 13:57 12.12.2020
4933 Snow 1 1023 80 7120 1.96 2 13:38 12.12.2020
4934 Clouds 2 1020 75 2757 1.2 300 12:59 12.12.2020
4935 Clouds 4 1018 67 473 2.15 219 12:29 12.12.2020
4936 Clouds 5 1017 65 835 2.78 198 10:55 12.12.2020
4937 Clouds 6 1016 64 260 3.1 200 09:50 12.12.2020
4938 Clouds 6 1017 63 604 1.97 206 08:57 12.12.2020
4939 Clouds 5 1019 66 58 3.44 189 03:31 12.12.2020
4940 Clouds 5 1019 64 1879 2.13 194 00:28 12.12.2020
4941 Rain 5 1019 64 1545 2.87 206 22:47 11.12.2020
4942 Rain 5 1020 63 1620 2.39 178 20:50 11.12.2020
4943 Clouds 5 1022 63 4477 1.68 142 18:46 11.12.2020
4944 Clouds 5 1022 62 4601 0.92 168 16:44 11.12.2020
4945 Clouds 6 1020 61 4338 1.15 151 14:19 11.12.2020
4946 Clouds 6 1019 60 4003 0.95 179 13:25 11.12.2020
4947 Clouds 8 1018 55 4272 1.41 224 12:20 11.12.2020
4948 Clouds 8 1018 55 4272 1.41 224 11:52 11.12.2020
4949 Clouds 9 1018 50 4904 1.31 235 10:56 11.12.2020
4950 Clouds 10 1019 45 6361 1.63 226 09:42 11.12.2020
4951 Clouds 9 1026 47 10000 1.82 33 06:25 11.12.2020
4952 Clouds 6 1027 53 10000 3.6 29 05:20 11.12.2020
4953 Clouds 2 1029 65 10000 5.26 29 02:38 11.12.2020
4954 Clouds 2 1028 67 10000 4.98 33 00:39 11.12.2020
4955 Clouds 3 1028 66 10000 4.11 35 22:57 10.12.2020
4956 Clouds 3 1028 66 10000 3.8 34 21:37 10.12.2020
4957 Clouds 3 1027 66 10000 3.6 35 20:49 10.12.2020
4958 Clouds 3 1027 66 10000 3.59 32 19:52 10.12.2020
4959 Clouds 4 1027 63 10000 3.44 35 19:21 10.12.2020
4960 Clouds 4 1027 63 10000 3.44 35 18:44 10.12.2020
4961 Clouds 3 1026 64 10000 4.09 35 16:56 10.12.2020
4962 Clouds 3 1025 64 10000 4.08 34 15:52 10.12.2020
4963 Clouds 3 1024 65 10000 3.98 34 14:59 10.12.2020
4964 Clouds 3 1024 65 10000 3.98 34 14:39 10.12.2020
4965 Clouds 4 1021 64 10000 1.73 53 13:26 10.12.2020
4966 Clouds 7 1020 55 10000 0.76 183 11:51 10.12.2020
4967 Clouds 11 1019 45 8788 1.68 203 10:29 10.12.2020
4968 Clouds 10 1020 46 10000 0.88 193 08:19 10.12.2020
4969 Clouds 10 1021 48 10000 0.77 172 06:59 10.12.2020
4970 Clouds 8 1022 55 3267 1.12 178 05:26 10.12.2020
4971 Clouds 6 1022 60 2491 1.94 165 02:31 10.12.2020
4972 Clouds 7 1020 60 1682 2.08 173 01:25 10.12.2020
4973 Clouds 7 1019 60 2350 1.9 176 23:37 09.12.2020
4974 Clouds 7 1020 59 4570 1.62 158 20:37 09.12.2020
4975 Clouds 7 1020 59 4435 2.92 179 19:40 09.12.2020
4976 Clouds 7 1020 59 399 3.32 191 18:36 09.12.2020
4977 Clouds 7 1021 58 1415 2.37 155 17:19 09.12.2020
4978 Clouds 8 1020 57 2303 1.47 159 16:26 09.12.2020
4979 Clouds 8 1020 57 2303 1.47 159 15:44 09.12.2020
4980 Clouds 8 1020 57 2303 1.47 159 15:44 09.12.2020
4981 Clouds 8 1019 56 3204 1.58 181 14:51 09.12.2020
4982 Clouds 8 1019 57 2234 1.89 196 14:26 09.12.2020
4983 Clouds 8 1019 57 2234 1.89 196 13:36 09.12.2020
4984 Clouds 8 1018 55 2212 2.74 206 13:18 09.12.2020
4985 Clouds 8 1018 54 942 2.16 216 12:24 09.12.2020
4986 Clouds 8 1018 54 942 2.16 216 11:34 09.12.2020
4987 Clouds 10 1018 50 2563 3.31 200 09:51 09.12.2020
4988 Clouds 10 1019 49 2743 2.86 200 08:36 09.12.2020
4989 Clouds 10 1022 48 4536 2.07 205 06:43 09.12.2020
4990 Clouds 9 1024 49 6162 0.3 174 05:28 09.12.2020
4991 Clouds 5 1024 60 10000 2.14 45 02:40 09.12.2020
4992 Clouds 6 1024 59 9054 1.97 48 00:37 09.12.2020
4993 Clouds 6 1024 59 10000 1.19 76 23:34 08.12.2020
4994 Clouds 7 1025 58 8359 1.65 66 22:22 08.12.2020
4995 Clouds 6 1024 61 8256 1.81 56 20:39 08.12.2020
4996 Clouds 6 1024 60 9923 1.44 62 19:30 08.12.2020
4997 Clouds 7 1023 57 7269 1.22 146 18:36 08.12.2020
4998 Clouds 8 1023 56 4681 1.2 151 17:18 08.12.2020
4999 Clouds 8 1022 54 3658 1.65 173 15:22 08.12.2020
5000 Clouds 9 1022 54 2911 1.42 185 13:50 08.12.2020
5001 Clouds 9 1020 53 4153 2.47 175 12:41 08.12.2020
5002 Clouds 10 1020 53 2914 3.18 175 11:55 08.12.2020
5003 Clouds 10 1019 52 3184 3.73 186 10:57 08.12.2020
5004 Clouds 10 1019 52 3184 3.73 186 10:39 08.12.2020
5005 Clouds 11 1020 50 3119 3.1 189 09:45 08.12.2020
5006 Clouds 11 1022 46 5776 1.87 166 07:40 08.12.2020
5007 Clouds 10 1024 48 4753 0.53 181 05:35 08.12.2020
5008 Clouds 8 1025 50 10000 2.16 51 02:33 08.12.2020
5009 Clouds 7 1024 51 10000 2.32 38 00:45 08.12.2020
5010 Clouds 7 1024 51 10000 2.44 35 23:37 07.12.2020
5011 Clouds 7 1025 52 10000 2.89 26 22:21 07.12.2020
5012 Clouds 7 1025 52 10000 2.89 26 21:47 07.12.2020
5013 Clouds 8 1025 50 10000 3.47 25 19:36 07.12.2020
5014 Clouds 7 1026 52 10000 3.4 26 18:19 07.12.2020
5015 Clouds 7 1026 52 10000 3.54 20 17:23 07.12.2020
5016 Clouds 7 1026 52 10000 3.54 20 16:47 07.12.2020
5017 Clouds 8 1025 52 10000 3.52 14 15:25 07.12.2020
5018 Clouds 8 1025 52 10000 3.52 14 14:40 07.12.2020
5019 Clouds 8 1024 51 10000 2.62 16 13:43 07.12.2020
5020 Clouds 8 1023 51 10000 1.37 23 12:34 07.12.2020
5021 Clouds 10 1022 45 10000 0.83 211 11:43 07.12.2020
5022 Clouds 12 1022 40 10000 1.31 195 10:44 07.12.2020
5023 Clouds 13 1022 37 10000 1.77 193 09:40 07.12.2020
5024 Clouds 13 1023 35 10000 2.06 210 07:51 07.12.2020
5025 Clouds 13 1025 36 10000 0.35 51 05:34 07.12.2020
5026 Clouds 11 1026 40 10000 1.9 15 04:46 07.12.2020
5027 Clouds 7 1025 47 10000 3.74 28 01:47 07.12.2020
5028 Clouds 5 1025 50 10000 4.33 27 23:32 06.12.2020
5029 Clouds 5 1026 50 10000 4.59 33 22:19 06.12.2020
5030 Clear 5 1027 51 10000 4.52 30 20:53 06.12.2020
5031 Clear 5 1027 51 10000 4.52 30 20:34 06.12.2020
5032 Clear 4 1027 52 10000 4.82 27 19:45 06.12.2020
5033 Clouds 4 1028 56 10000 4.95 26 17:55 06.12.2020
5034 Clouds 4 1028 58 10000 4.96 25 16:42 06.12.2020
5035 Clouds 4 1027 61 10000 4.87 27 14:52 06.12.2020
5036 Clouds 5 1026 60 10000 4.08 31 13:32 06.12.2020
5037 Clouds 6 1024 58 10000 3.18 39 12:39 06.12.2020
5038 Clouds 8 1023 51 10000 0.33 29 11:57 06.12.2020
5039 Clouds 8 1023 51 10000 0.33 29 11:32 06.12.2020
5040 Clouds 10 1022 44 10000 0.38 207 10:45 06.12.2020
5041 Clouds 11 1022 42 10000 0.95 193 09:45 06.12.2020
5042 Clouds 11 1023 43 10000 0.81 195 08:22 06.12.2020
5043 Clouds 9 1025 47 10000 0.4 305 05:51 06.12.2020
5044 Clouds 3 1027 62 10000 3.42 33 00:57 06.12.2020
5045 Clouds 3 1027 62 10000 3.82 28 00:38 06.12.2020
5046 Clouds 2 1027 62 10000 4.1 27 00:20 06.12.2020
5047 Clouds 2 1027 62 10000 4.29 28 22:41 05.12.2020
5048 Clouds 2 1027 62 10000 4.31 28 22:19 05.12.2020
5049 Clouds 2 1027 62 10000 4.31 28 21:47 05.12.2020
5050 Clouds 2 1027 63 10000 4.29 29 21:22 05.12.2020
5051 Clouds 3 1026 65 10000 4.04 31 19:21 05.12.2020
5052 Clouds 2 1026 65 10000 4.22 30 18:38 05.12.2020
5053 Clouds 3 1026 65 10000 3.72 38 16:51 05.12.2020
5054 Clouds 3 1025 65 10000 3.57 44 16:29 05.12.2020
5055 Clouds 3 1025 65 10000 3.57 44 15:36 05.12.2020
5056 Clouds 5 1023 62 10000 2.51 58 14:24 05.12.2020
5057 Clouds 8 1019 53 10000 0.52 163 11:51 05.12.2020
5058 Clouds 10 1018 47 10000 1.15 185 10:48 05.12.2020
5059 Clouds 10 1019 45 10000 1.31 188 10:29 05.12.2020
5060 Clouds 10 1021 45 10000 0.79 188 07:48 05.12.2020
5061 Clouds 9 1022 47 10000 0.69 43 06:22 05.12.2020
5062 Clouds 5 1025 59 10000 2.72 25 03:39 05.12.2020
5063 Clouds 4 1022 64 5050 2.49 39 23:50 04.12.2020
5064 Clouds 5 1022 62 6755 1.37 45 22:24 04.12.2020
5065 Clouds 5 1021 63 5244 1.76 33 20:19 04.12.2020
5066 Clouds 5 1021 62 8137 2.77 31 18:52 04.12.2020
5067 Clouds 5 1021 61 10000 3.13 28 18:18 04.12.2020
5068 Clouds 5 1021 61 10000 3.25 32 17:26 04.12.2020
5069 Clouds 5 1020 61 10000 3.36 38 15:37 04.12.2020
5070 Clouds 5 1019 59 10000 2.46 60 13:40 04.12.2020
5071 Clouds 6 1017 58 10000 1.17 108 13:21 04.12.2020
5072 Clouds 6 1017 57 10000 1.36 118 12:49 04.12.2020
5073 Clouds 11 1016 42 10000 3.07 190 10:40 04.12.2020
5074 Clouds 12 1016 39 10000 3.19 192 09:46 04.12.2020
5075 Clouds 12 1019 36 10000 2.03 209 06:42 04.12.2020
5076 Clouds 12 1020 38 10000 0.44 151 05:44 04.12.2020
5077 Clouds 5 1022 52 10000 4.44 31 01:55 04.12.2020
5078 Clouds 5 1021 49 10000 4.23 35 22:52 03.12.2020
5079 Clouds 5 1021 49 10000 4.23 35 22:52 03.12.2020
5080 Clouds 5 1022 49 10000 4.26 32 22:27 03.12.2020
5081 Clouds 5 1022 48 10000 4.25 31 20:49 03.12.2020
5082 Clear 6 1023 47 10000 4.47 30 19:29 03.12.2020
5083 Clear 6 1023 47 10000 4.47 30 18:51 03.12.2020
5084 Clear 5 1023 48 10000 4.74 29 17:53 03.12.2020
5085 Clear 5 1023 49 10000 4.97 28 17:18 03.12.2020
5086 Clear 5 1023 50 10000 5.1 27 15:55 03.12.2020
5087 Clear 5 1023 50 10000 5.1 27 15:30 03.12.2020
5088 Clear 5 1023 52 10000 4.98 27 14:48 03.12.2020
5089 Clear 6 1022 53 10000 4.63 27 13:36 03.12.2020
5090 Clear 9 1020 46 10000 0.69 106 12:28 03.12.2020
5091 Clear 9 1020 46 10000 0.69 106 11:31 03.12.2020
5092 Clear 13 1018 37 10000 1.25 183 10:18 03.12.2020
5093 Clear 13 1020 34 10000 1 206 07:47 03.12.2020
5094 Clear 5 1023 45 10000 4.47 31 03:22 03.12.2020
5095 Clear 5 1022 45 10000 4.58 29 01:19 03.12.2020
5096 Clear 5 1022 46 10000 4.89 29 22:48 02.12.2020
5097 Clear 5 1022 47 10000 4.93 30 22:26 02.12.2020
5098 Clear 5 1023 47 10000 5.05 29 21:25 02.12.2020
5099 Clear 5 1023 47 10000 5.05 29 20:46 02.12.2020
5100 Clear 5 1023 47 10000 5.15 28 20:28 02.12.2020
5101 Clear 5 1023 46 10000 5.28 29 18:39 02.12.2020
5102 Clear 5 1024 47 10000 5.4 29 17:47 02.12.2020
5103 Clear 5 1024 49 10000 5.51 28 17:28 02.12.2020
5104 Clear 5 1024 50 10000 5.61 26 15:37 02.12.2020
5105 Clear 6 1021 52 10000 3.6 33 12:50 02.12.2020
5106 Clear 13 1019 39 10000 1.15 175 10:47 02.12.2020
5107 Clear 14 1020 36 10000 1.37 189 10:21 02.12.2020
5108 Clear 14 1023 35 10000 0.33 30 06:53 02.12.2020
5109 Clear 5 1026 53 10000 5.11 29 23:20 01.12.2020
5110 Clear 6 1026 53 10000 5.15 28 22:20 01.12.2020
5111 Clear 6 1027 52 10000 4.8 28 19:36 01.12.2020
5112 Clear 7 1027 52 10000 4.76 27 18:45 01.12.2020
5113 Clear 7 1027 52 10000 4.62 28 16:47 01.12.2020
5114 Clear 8 1025 51 10000 3.83 30 14:21 01.12.2020
5115 Clouds 8 1024 50 10000 2.23 35 12:31 01.12.2020
5116 Clouds 14 1022 39 10000 1.3 183 11:28 01.12.2020
5117 Clouds 14 1022 39 10000 1.3 183 10:46 01.12.2020
5118 Clouds 15 1022 38 10000 1.74 187 10:26 01.12.2020
5119 Clouds 15 1025 36 10000 0.99 224 07:26 01.12.2020
5120 Clouds 8 1026 47 10000 4.46 27 02:57 01.12.2020
5121 Clouds 8 1026 47 10000 4.46 27 02:57 01.12.2020
5122 Clouds 8 1025 47 10000 4.23 26 00:57 01.12.2020
5123 Clouds 8 1025 46 10000 4.38 27 00:29 01.12.2020
5124 Clouds 8 1025 46 10000 4.28 26 23:20 30.11.2020
5125 Clouds 8 1025 46 10000 4.28 26 22:40 30.11.2020
5126 Clouds 8 1025 46 10000 4.55 28 22:22 30.11.2020
5127 Clouds 8 1026 48 10000 4.75 29 19:46 30.11.2020
5128 Clouds 8 1027 49 10000 4.6 29 18:54 30.11.2020
5129 Clouds 8 1027 49 10000 4.46 27 18:21 30.11.2020
5130 Clouds 8 1027 49 10000 4.46 27 17:45 30.11.2020
5131 Clear 7 1027 50 10000 4.76 31 16:52 30.11.2020
5132 Clear 7 1026 50 10000 4.39 29 14:48 30.11.2020
5133 Clear 8 1025 51 10000 4.18 28 13:55 30.11.2020
5134 Clear 8 1024 50 10000 2.88 34 12:59 30.11.2020
5135 Clear 11 1022 44 10000 0.77 68 12:25 30.11.2020
5136 Clear 11 1022 44 10000 0.77 68 11:34 30.11.2020
5137 Clear 15 1021 40 10000 0.16 154 10:24 30.11.2020
5138 Clear 15 1022 38 10000 0.49 204 08:52 30.11.2020
5139 Clouds 7 1025 52 10000 4.94 29 01:27 30.11.2020
5140 Clouds 7 1024 52 10000 4.51 29 23:28 29.11.2020
5141 Clouds 7 1024 51 10000 4.54 30 21:44 29.11.2020
5142 Clouds 7 1024 51 10000 4.54 30 21:44 29.11.2020
5143 Clouds 8 1024 51 10000 4.38 29 21:26 29.11.2020
5144 Clouds 8 1024 51 10000 4.38 29 21:26 29.11.2020
5145 Clouds 9 1025 49 10000 3.95 31 19:19 29.11.2020
5146 Clouds 9 1025 48 10000 4.14 28 17:34 29.11.2020
5147 Clouds 10 1024 47 10000 3.48 17 14:22 29.11.2020
5148 Clouds 11 1023 45 10000 2.82 12 12:45 29.11.2020
5149 Clouds 12 1022 42 10000 1.29 5 11:37 29.11.2020
5150 Clouds 15 1023 40 10000 1.25 196 08:54 29.11.2020
5151 Clouds 15 1023 40 10000 1.25 196 08:34 29.11.2020
5152 Clouds 8 1027 46 10000 4.91 31 02:31 29.11.2020
5153 Clouds 8 1025 44 10000 4.5 29 22:59 28.11.2020
5154 Clouds 9 1025 44 10000 4.51 32 22:27 28.11.2020
5155 Clouds 8 1026 44 10000 4.63 31 19:59 28.11.2020
5156 Clouds 8 1027 45 10000 4.8 29 19:28 28.11.2020
5157 Clouds 8 1027 45 10000 4.8 29 18:57 28.11.2020
5158 Clouds 8 1026 45 10000 4.68 29 18:21 28.11.2020
5159 Clouds 8 1027 45 10000 4.94 30 16:57 28.11.2020
5160 Clouds 8 1027 46 10000 4.5 27 14:59 28.11.2020
5161 Clear 8 1026 46 10000 4.48 27 13:54 28.11.2020
5162 Clouds 13 1024 48 10000 0.66 199 11:27 28.11.2020
5163 Clouds 15 1024 50 10000 0.42 221 09:26 28.11.2020
5164 Clear 8 1030 46 10000 5.49 27 03:44 28.11.2020
5165 Clear 5 1031 49 10000 6.08 27 01:53 28.11.2020
5166 Clear 5 1031 50 10000 6.12 28 23:22 27.11.2020
5167 Clear 5 1031 50 10000 6.12 28 22:38 27.11.2020
5168 Clear 5 1032 50 10000 5.97 28 20:40 27.11.2020
5169 Clear 5 1033 51 10000 5.98 29 19:34 27.11.2020
5170 Clear 4 1033 51 10000 5.68 29 18:58 27.11.2020
5171 Clear 4 1033 53 10000 5.88 29 16:55 27.11.2020
5172 Clear 4 1033 53 10000 5.88 29 16:55 27.11.2020
5173 Clear 4 1033 53 10000 5.88 29 16:55 27.11.2020
5174 Clear 4 1032 54 10000 5.66 29 14:45 27.11.2020
5175 Clear 5 1029 55 10000 4.52 27 13:21 27.11.2020
5176 Clear 5 1029 55 10000 4.52 27 12:47 27.11.2020
5177 Clear 7 1028 52 10000 1.54 32 11:34 27.11.2020
5178 Clear 11 1028 47 10000 0.32 2 10:45 27.11.2020
5179 Clear 12 1027 46 10000 0.1 346 09:53 27.11.2020
5180 Clear 6 1034 54 10000 4.49 30 04:32 27.11.2020
5181 Clear -1 1034 67 10000 6.73 29 22:26 26.11.2020
5182 Clear -1 1034 67 10000 6.73 29 21:56 26.11.2020
5183 Clear -1 1034 68 10000 6.58 29 20:49 26.11.2020
5184 Clear 0 1033 71 10000 5.82 29 18:37 26.11.2020
5185 Clear 0 1032 71 10000 5.57 28 17:41 26.11.2020
5186 Clouds 1 1029 72 10000 4.22 22 14:39 26.11.2020
5187 Clouds 2 1025 72 10000 2.76 32 13:19 26.11.2020
5188 Clouds 3 1024 71 10000 2.72 30 12:41 26.11.2020
5189 Clouds 6 1022 62 2358 0.42 149 11:29 26.11.2020
5190 Clouds 7 1021 61 1759 1.8 205 10:25 26.11.2020
5191 Clouds 7 1021 61 1759 1.8 205 09:39 26.11.2020
5192 Clouds 7 1022 60 230 2.51 208 09:18 26.11.2020
5193 Clouds 7 1022 60 230 2.51 208 08:34 26.11.2020
5194 Clouds 4 1023 69 85 0.58 208 02:19 26.11.2020
5195 Rain 4 1021 69 74 1.44 202 22:31 25.11.2020
5196 Clouds 5 1021 67 75 2.6 214 20:38 25.11.2020
5197 Rain 5 1021 67 59 2.46 201 19:29 25.11.2020
5198 Rain 5 1021 66 60 2.53 199 18:23 25.11.2020
5199 Rain 5 1021 66 105 0.77 236 15:56 25.11.2020
5200 Rain 5 1021 66 105 0.77 236 15:35 25.11.2020
5201 Rain 5 1019 65 255 0.63 188 13:56 25.11.2020
5202 Rain 5 1019 65 255 0.63 188 13:37 25.11.2020
5203 Rain 6 1018 62 367 2.74 205 11:44 25.11.2020
5204 Rain 7 1017 61 72 3.71 221 11:18 25.11.2020
5205 Clouds 7 1018 58 245 3.72 206 09:18 25.11.2020
5206 Rain 7 1018 58 245 3.72 206 08:40 25.11.2020
5207 Clouds 6 1022 63 1448 0.99 217 03:59 25.11.2020
5208 Rain 5 1022 66 856 1 175 01:52 25.11.2020
5209 Rain 5 1021 66 616 0.56 215 00:22 25.11.2020
5210 Clouds 5 1021 66 616 0.56 215 23:36 24.11.2020
5211 Clouds 5 1021 67 568 0.2 294 22:58 24.11.2020
5212 Clouds 5 1022 67 505 0.32 321 21:51 24.11.2020
5213 Clouds 5 1022 66 1300 0.66 48 21:29 24.11.2020
5214 Clouds 5 1022 66 1747 0.92 47 20:20 24.11.2020
5215 Clouds 5 1022 67 556 0.52 271 18:40 24.11.2020
5216 Clouds 5 1022 66 570 0.53 238 17:30 24.11.2020
5217 Clouds 5 1022 66 481 1.08 245 16:45 24.11.2020
5218 Clouds 5 1022 66 528 0.79 253 16:27 24.11.2020
5219 Clouds 5 1022 66 528 0.79 253 15:54 24.11.2020
5220 Clouds 5 1021 66 507 0.65 259 15:18 24.11.2020
5221 Clouds 5 1021 66 507 0.65 259 14:33 24.11.2020
5222 Clouds 6 1018 64 477 1.65 218 12:45 24.11.2020
5223 Clouds 6 1017 62 600 1.94 213 12:22 24.11.2020
5224 Clouds 6 1017 62 600 1.94 213 11:39 24.11.2020
5225 Clouds 6 1017 61 460 2.55 204 10:41 24.11.2020
5226 Clouds 7 1017 60 441 2.75 208 10:22 24.11.2020
5227 Rain 7 1017 60 441 2.75 208 09:35 24.11.2020
5228 Clouds 8 1020 57 1049 3.18 215 07:57 24.11.2020
5229 Clouds 5 1023 63 3103 1.73 37 04:21 24.11.2020
5230 Clouds 4 1022 68 703 0.43 85 22:34 23.11.2020
5231 Clouds 4 1022 68 475 0.27 102 21:37 23.11.2020
5232 Clouds 4 1022 69 100 0.48 201 20:54 23.11.2020
5233 Clouds 4 1022 68 94 1.09 182 20:27 23.11.2020
5234 Clouds 4 1022 68 89 1.23 203 19:24 23.11.2020
5235 Clouds 5 1022 66 89 1.76 196 17:26 23.11.2020
5236 Rain 5 1022 66 89 1.76 196 16:37 23.11.2020
5237 Clouds 5 1021 65 96 2.21 196 14:49 23.11.2020
5238 Clouds 5 1020 65 81 1.9 189 13:43 23.11.2020
5239 Clouds 5 1019 65 76 2.05 192 12:38 23.11.2020
5240 Clouds 6 1018 63 76 2.38 199 11:50 23.11.2020
5241 Clouds 7 1017 61 73 3.02 204 11:25 23.11.2020
5242 Clouds 7 1017 59 228 3 202 09:46 23.11.2020
5243 Clouds 7 1018 59 79 2.83 201 08:49 23.11.2020
5244 Clouds 7 1019 58 75 2.9 198 07:34 23.11.2020
5245 Clouds 5 1021 66 557 0.41 260 01:45 23.11.2020
5246 Clouds 5 1020 66 1748 0.44 22 23:43 22.11.2020
5247 Clouds 5 1021 65 2316 1.12 11 22:19 22.11.2020
5248 Clouds 5 1022 65 2456 1.09 349 21:24 22.11.2020
5249 Clouds 5 1022 65 2797 1.9 22 20:19 22.11.2020
5250 Clouds 4 1023 65 2567 2.8 23 18:59 22.11.2020
5251 Clouds 4 1022 65 1751 2.23 12 17:59 22.11.2020
5252 Clouds 5 1023 57 10000 1.69 29 16:25 22.11.2020
5253 Clouds 5 1022 55 10000 1.86 47 14:58 22.11.2020
5254 Clouds 6 1020 51 10000 1.23 110 13:23 22.11.2020
5255 Clouds 6 1020 51 10000 1.23 110 12:42 22.11.2020
5256 Clouds 8 1019 45 10000 1.15 183 11:39 22.11.2020
5257 Clouds 10 1019 40 10000 1.46 191 10:50 22.11.2020
5258 Clouds 10 1019 40 10000 1.46 191 10:32 22.11.2020
5259 Clouds 8 1022 40 10000 1.98 31 04:33 22.11.2020
5260 Clouds 0 1024 54 10000 5.31 27 23:56 21.11.2020
5261 Clouds 0 1024 55 10000 5.27 28 22:41 21.11.2020
5262 Clear 0 1025 55 10000 5.26 29 21:31 21.11.2020
5263 Clear 0 1025 56 10000 5.16 27 20:49 21.11.2020
5264 Clear 0 1025 56 10000 5.05 28 20:20 21.11.2020
5265 Clear 0 1025 56 10000 5.05 28 19:49 21.11.2020
5266 Clear 0 1024 57 10000 4.99 32 19:18 21.11.2020
5267 Clear 0 1024 59 10000 4.64 30 17:31 21.11.2020
5268 Clear 0 1024 60 10000 4.71 29 16:45 21.11.2020
5269 Clear 1 1023 62 10000 4.63 32 15:42 21.11.2020
5270 Clear 1 1022 63 10000 4.22 34 15:20 21.11.2020
5271 Clear 1 1022 63 10000 4.22 34 14:42 21.11.2020
5272 Clouds 2 1019 64 10000 1.2 73 12:59 21.11.2020
5273 Clouds 6 1017 50 10000 1.84 175 12:23 21.11.2020
5274 Clouds 6 1017 50 10000 1.84 175 11:50 21.11.2020
5275 Clouds 9 1016 39 10000 3.6 190 10:28 21.11.2020
5276 Clouds 10 1017 37 10000 3.76 192 09:22 21.11.2020
5277 Clouds 10 1017 37 10000 3.76 192 08:50 21.11.2020
5278 Clouds 9 1021 39 10000 0.66 238 05:42 21.11.2020
5279 Clouds 4 1024 51 10000 3.1 33 03:36 21.11.2020
5280 Clouds 0 1024 58 10000 4.38 27 00:22 21.11.2020
5281 Clouds 0 1024 58 10000 4.43 28 23:21 20.11.2020
5282 Clouds 0 1024 57 10000 4.45 28 21:46 20.11.2020
5283 Clear 0 1025 58 10000 4.59 27 21:26 20.11.2020
5284 Clear 0 1025 58 10000 4.59 27 20:42 20.11.2020
5285 Clear 1 1025 60 10000 4.71 28 19:37 20.11.2020
5286 Clear 1 1024 63 10000 4.51 30 18:28 20.11.2020
5287 Clear 1 1024 63 10000 4.51 30 17:32 20.11.2020
5288 Clear 1 1024 63 10000 4.62 31 16:48 20.11.2020
5289 Clear 1 1024 64 10000 4.6 29 16:29 20.11.2020
5290 Clear 1 1024 64 10000 4.6 29 15:47 20.11.2020
5291 Clear 1 1022 65 10000 3.92 38 14:23 20.11.2020
5292 Clear 2 1020 64 10000 1.83 60 13:29 20.11.2020
5293 Clear 2 1020 64 10000 1.83 60 12:59 20.11.2020
5294 Clear 6 1018 53 10000 1.67 173 12:25 20.11.2020
5295 Clear 6 1018 53 10000 1.67 173 11:36 20.11.2020
5296 Clear 10 1017 40 10000 2.99 191 09:56 20.11.2020
5297 Clear 10 1018 38 10000 2.79 192 08:35 20.11.2020
5298 Clear 10 1019 38 10000 1.98 205 07:52 20.11.2020
5299 Clear 6 1024 49 10000 2.74 22 05:20 20.11.2020
5300 Clear 3 1026 56 10000 4.25 26 03:42 20.11.2020
5301 Clouds 0 1025 72 10000 4.62 31 22:33 19.11.2020
5302 Clouds 0 1025 72 10000 4.24 31 21:54 19.11.2020
5303 Clouds 0 1025 72 10000 3.86 33 20:59 19.11.2020
5304 Clouds 0 1025 72 10000 3.86 33 20:30 19.11.2020
5305 Clouds 1 1024 72 10000 3.12 42 19:28 19.11.2020
5306 Clouds 1 1024 72 10000 3.12 42 18:55 19.11.2020
5307 Clouds 1 1024 72 10000 3.12 42 18:55 19.11.2020
5308 Clouds 2 1023 71 10000 2.83 40 17:38 19.11.2020
5309 Clouds 2 1022 71 10000 1.97 44 16:47 19.11.2020
5310 Clouds 2 1021 71 10000 0.67 44 15:31 19.11.2020
5311 Clouds 4 1018 66 6356 1.64 244 13:59 19.11.2020
5312 Clouds 4 1018 66 6356 1.64 244 13:39 19.11.2020
5313 Clouds 5 1015 66 5139 2.71 221 12:57 19.11.2020
5314 Clouds 5 1015 66 5139 2.71 221 12:34 19.11.2020
5315 Clouds 7 1014 55 3499 3.66 215 11:41 19.11.2020
5316 Clouds 8 1014 50 3647 4.32 214 11:22 19.11.2020
5317 Clouds 8 1014 50 3647 4.32 214 11:22 19.11.2020
5318 Clouds 8 1014 50 3647 4.32 214 11:22 19.11.2020
5319 Clouds 8 1014 50 3647 4.32 214 10:51 19.11.2020
5320 Clouds 9 1014 45 7345 4.96 207 09:54 19.11.2020
5321 Clouds 9 1014 45 7345 4.96 207 09:36 19.11.2020
5322 Clouds 10 1014 43 10000 5.1 205 09:18 19.11.2020
5323 Clouds 10 1015 42 10000 4.92 204 07:59 19.11.2020
5324 Clouds 2 1022 66 10000 3.17 38 01:50 19.11.2020
5325 Clouds 3 1021 65 10000 3.22 36 00:33 19.11.2020
5326 Clouds 3 1020 65 10000 3.03 37 23:47 18.11.2020
5327 Clouds 3 1021 65 10000 3.03 37 23:23 18.11.2020
5328 Clouds 3 1021 65 10000 3.03 37 22:30 18.11.2020
5329 Clouds 3 1021 65 10000 3.03 37 22:30 18.11.2020
5330 Clouds 3 1021 65 10000 2.94 36 21:45 18.11.2020
5331 Clouds 3 1021 64 10000 2.82 40 21:26 18.11.2020
5332 Clouds 3 1021 64 10000 2.82 40 20:40 18.11.2020
5333 Clouds 3 1021 63 10000 2.63 42 19:44 18.11.2020
5334 Clouds 4 1022 62 10000 2.79 43 19:24 18.11.2020
5335 Clouds 4 1022 62 10000 2.79 43 18:48 18.11.2020
5336 Clouds 3 1022 62 10000 2.79 38 17:52 18.11.2020
5337 Clouds 3 1022 62 10000 2.88 40 16:58 18.11.2020
5338 Clouds 3 1021 62 10000 2.84 38 16:21 18.11.2020
5339 Clouds 3 1020 62 10000 2.73 42 14:43 18.11.2020
5340 Clouds 3 1018 63 10000 2.2 53 14:25 18.11.2020
5341 Clouds 4 1017 62 10000 0.97 115 13:29 18.11.2020
5342 Clouds 4 1017 63 10000 0.91 110 12:44 18.11.2020
5343 Clouds 8 1016 49 10000 1.88 184 11:57 18.11.2020
5344 Clouds 10 1016 42 10000 2.64 193 11:22 18.11.2020
5345 Clouds 10 1016 42 10000 2.64 193 10:30 18.11.2020
5346 Clouds 12 1017 36 10000 2.83 196 08:43 18.11.2020
5347 Clear 11 1019 36 10000 1.33 217 07:29 18.11.2020
5348 Clear 8 1021 44 10000 1.63 42 04:47 18.11.2020
5349 Clear 1 1021 59 10000 4.64 29 00:22 18.11.2020
5350 Clear 1 1021 59 10000 4.64 29 23:30 17.11.2020
5351 Clear 1 1020 59 10000 4.6 28 22:45 17.11.2020
5352 Clear 2 1021 59 10000 4.56 28 22:27 17.11.2020
5353 Clear 2 1021 59 10000 4.56 28 21:48 17.11.2020
5354 Clear 2 1021 58 10000 4.56 28 21:28 17.11.2020
5355 Clear 2 1021 58 10000 4.56 28 20:43 17.11.2020
5356 Clear 2 1021 58 10000 4.54 28 20:23 17.11.2020
5357 Clear 2 1021 58 10000 4.54 28 19:44 17.11.2020
5358 Clear 2 1021 57 10000 4.87 29 18:23 17.11.2020
5359 Clear 2 1021 57 10000 4.87 29 17:31 17.11.2020
5360 Clear 2 1021 58 10000 4.82 28 16:36 17.11.2020
5361 Clear 2 1021 59 10000 4.71 29 15:58 17.11.2020
5362 Clear 2 1021 59 10000 4.71 29 15:38 17.11.2020
5363 Clear 2 1020 59 10000 4.39 34 15:20 17.11.2020
5364 Clear 2 1020 59 10000 4.39 34 14:30 17.11.2020
5365 Clear 3 1019 61 10000 4.07 37 13:45 17.11.2020
5366 Clear 3 1018 61 10000 2.34 52 13:21 17.11.2020
5367 Clear 3 1018 60 10000 2.36 52 12:42 17.11.2020
5368 Clear 7 1017 49 10000 1.14 143 11:45 17.11.2020
5369 Clear 10 1017 42 10000 1.75 174 11:21 17.11.2020
5370 Clear 10 1017 42 10000 1.75 174 10:39 17.11.2020
5371 Clear 11 1017 37 10000 2.13 178 09:53 17.11.2020
5372 Clear 11 1017 37 10000 2.13 178 09:34 17.11.2020
5373 Clear 11 1018 35 10000 1.71 189 08:26 17.11.2020
5374 Clear 11 1018 35 10000 1.71 189 07:57 17.11.2020
5375 Clear 11 1020 36 10000 0.63 208 07:28 17.11.2020
5376 Clear 7 1024 49 10000 2.67 25 04:30 17.11.2020
5377 Clear 1 1027 61 10000 5.47 29 03:22 17.11.2020
5378 Clear 0 1026 62 10000 5.63 29 02:29 17.11.2020
5379 Clear 0 1026 63 10000 5.56 30 00:56 17.11.2020
5380 Clear 0 1026 64 10000 5.37 29 23:53 16.11.2020
5381 Clear 0 1026 64 10000 5.37 29 23:31 16.11.2020
5382 Clear 0 1026 65 10000 5.41 29 22:55 16.11.2020
5383 Clear 0 1027 65 10000 5.4 29 22:23 16.11.2020
5384 Clear 0 1027 65 10000 5.4 29 21:56 16.11.2020
5385 Clear 0 1027 65 10000 5.4 29 21:37 16.11.2020
5386 Clear 0 1027 66 10000 5.51 29 21:18 16.11.2020
5387 Clear 0 1027 67 10000 5.52 29 20:26 16.11.2020
5388 Clear 0 1027 67 10000 5.52 29 19:51 16.11.2020
5389 Clouds 1 1028 69 10000 5.37 29 19:29 16.11.2020
5390 Clouds 1 1028 69 10000 5.38 29 18:50 16.11.2020
5391 Clouds 1 1027 70 10000 5.22 28 18:18 16.11.2020
5392 Clouds 1 1027 71 10000 4.96 28 17:27 16.11.2020
5393 Clouds 1 1027 71 10000 4.96 28 16:57 16.11.2020
5394 Clouds 1 1027 71 10000 4.96 28 16:39 16.11.2020
5395 Clouds 2 1026 70 10000 4.57 27 16:20 16.11.2020
5396 Clouds 2 1026 70 10000 4.57 27 15:43 16.11.2020
5397 Clouds 2 1025 70 10000 3.87 27 15:25 16.11.2020
5398 Clouds 2 1025 70 10000 3.87 27 14:47 16.11.2020
5399 Clouds 3 1024 70 10000 2.77 33 13:41 16.11.2020
5400 Clouds 3 1022 71 10000 1.06 29 12:51 16.11.2020
5401 Clouds 6 1020 60 7339 0.96 184 12:28 16.11.2020
5402 Clouds 6 1020 60 7339 0.96 184 11:39 16.11.2020
5403 Clouds 8 1019 54 5405 2.19 199 11:21 16.11.2020
5404 Clouds 8 1019 54 5405 2.19 199 10:44 16.11.2020
5405 Rain 9 1019 52 5685 2.71 202 10:25 16.11.2020
5406 Clouds 9 1019 52 5685 2.71 202 09:46 16.11.2020
5407 Clouds 9 1019 52 6312 3.19 202 09:23 16.11.2020
5408 Clouds 9 1019 52 6312 3.19 202 08:41 16.11.2020
5409 Clouds 9 1020 51 2665 2.88 196 07:45 16.11.2020
5410 Clouds 9 1021 52 3228 2.27 194 06:50 16.11.2020
5411 Clouds 9 1022 53 5747 2.03 193 06:29 16.11.2020
5412 Clouds 8 1021 55 10000 0.84 172 04:48 16.11.2020
5413 Clouds 6 1022 60 10000 1.55 20 03:45 16.11.2020
5414 Clouds 4 1020 67 5077 0.89 9 01:44 16.11.2020
5415 Clouds 4 1019 69 10000 0.89 59 23:58 15.11.2020
5416 Clouds 6 1019 63 5903 0.78 145 23:28 15.11.2020
5417 Clouds 6 1019 63 5903 0.78 145 22:51 15.11.2020
5418 Clouds 6 1019 63 515 2.31 199 22:22 15.11.2020
5419 Clouds 6 1019 63 515 2.31 199 21:47 15.11.2020
5420 Rain 6 1019 63 87 1.9 188 21:26 15.11.2020
5421 Clouds 6 1019 63 87 1.9 188 20:48 15.11.2020
5422 Clouds 6 1020 63 92 0.74 197 20:28 15.11.2020
5423 Rain 6 1020 63 92 0.74 197 19:49 15.11.2020
5424 Rain 6 1020 63 105 1.03 224 19:24 15.11.2020
5425 Rain 6 1020 63 105 1.03 224 18:59 15.11.2020
5426 Rain 6 1020 63 105 1.03 224 18:41 15.11.2020
5427 Rain 7 1021 60 366 1.92 216 18:21 15.11.2020
5428 Rain 7 1021 60 366 1.92 216 17:47 15.11.2020
5429 Clouds 7 1020 58 3330 1.06 231 17:25 15.11.2020
5430 Rain 7 1020 58 3330 1.06 231 16:52 15.11.2020
5431 Rain 7 1020 56 3977 1.69 255 16:23 15.11.2020
5432 Clouds 7 1020 56 3977 1.69 255 15:57 15.11.2020
5433 Clouds 7 1020 56 3977 1.69 255 15:39 15.11.2020
5434 Rain 8 1019 55 4304 0.72 277 15:20 15.11.2020
5435 Rain 8 1019 55 4304 0.72 277 14:41 15.11.2020
5436 Rain 8 1018 55 5344 1.2 336 14:21 15.11.2020
5437 Rain 8 1018 55 5344 1.2 336 13:40 15.11.2020
5438 Clouds 7 1017 57 3073 1.46 242 12:52 15.11.2020
5439 Rain 8 1016 53 2899 2.71 214 12:26 15.11.2020
5440 Rain 8 1016 53 2899 2.71 214 11:58 15.11.2020
5441 Rain 8 1016 53 2899 2.71 214 11:40 15.11.2020
5442 Clouds 9 1016 52 2271 3.29 214 11:18 15.11.2020
5443 Clouds 9 1016 52 2271 3.29 214 10:46 15.11.2020
5444 Rain 10 1017 48 3933 3.32 217 10:27 15.11.2020
5445 Clouds 10 1017 48 3933 3.32 217 09:45 15.11.2020
5446 Clouds 11 1018 43 4789 3.39 207 09:22 15.11.2020
5447 Clouds 11 1018 43 4789 3.39 207 08:53 15.11.2020
5448 Clouds 11 1018 43 4789 3.39 207 08:31 15.11.2020
5449 Clouds 12 1019 39 6348 3.3 206 07:43 15.11.2020
5450 Clouds 12 1021 37 8120 2.37 202 05:30 15.11.2020
5451 Clouds 12 1022 36 10000 1.89 174 04:50 15.11.2020
5452 Clouds 8 1020 44 10000 1.11 76 00:56 15.11.2020
5453 Clouds 9 1020 44 10000 0.88 89 00:29 15.11.2020
5454 Clouds 9 1020 44 10000 0.88 89 23:39 14.11.2020
5455 Clouds 9 1020 43 10000 0.71 97 22:51 14.11.2020
5456 Clouds 9 1020 43 10000 0.71 97 22:32 14.11.2020
5457 Clouds 9 1021 43 10000 0.75 100 21:44 14.11.2020
5458 Clouds 9 1021 42 10000 0.75 108 21:23 14.11.2020
5459 Clouds 9 1021 42 10000 0.75 108 20:59 14.11.2020
5460 Clouds 9 1021 42 10000 0.75 108 20:30 14.11.2020
5461 Clouds 9 1021 42 10000 0.75 108 20:30 14.11.2020
5462 Clouds 9 1021 42 10000 0.75 108 20:30 14.11.2020
5463 Clouds 9 1021 43 10000 1.03 92 19:55 14.11.2020
5464 Clouds 9 1021 43 10000 1.03 92 19:35 14.11.2020
5465 Clouds 9 1022 42 10000 1.58 64 18:55 14.11.2020
5466 Clouds 9 1022 42 10000 1.58 64 18:36 14.11.2020
5467 Clouds 9 1022 42 10000 1.84 59 18:18 14.11.2020
5468 Clouds 9 1022 42 10000 1.84 59 17:41 14.11.2020
5469 Clouds 9 1021 42 10000 1.97 55 17:20 14.11.2020
5470 Clouds 9 1021 42 10000 1.97 55 16:44 14.11.2020
5471 Clouds 9 1021 42 10000 2.41 48 16:24 14.11.2020
5472 Clouds 9 1021 42 10000 2.41 48 15:52 14.11.2020
5473 Clouds 9 1020 43 10000 2.59 43 15:29 14.11.2020
5474 Clouds 9 1020 43 10000 2.59 43 14:50 14.11.2020
5475 Clouds 8 1019 46 10000 2.14 54 14:26 14.11.2020
5476 Clouds 8 1019 46 10000 2.14 54 13:49 14.11.2020
5477 Clouds 9 1018 44 10000 1.05 57 13:27 14.11.2020
5478 Clouds 9 1018 44 10000 1.05 57 12:48 14.11.2020
5479 Clouds 9 1019 44 10000 1.13 55 12:30 14.11.2020
5480 Clouds 13 1018 36 10000 0.83 76 11:48 14.11.2020
5481 Clouds 13 1018 36 10000 0.83 76 11:30 14.11.2020
5482 Clouds 14 1018 32 9727 0.6 131 10:50 14.11.2020
5483 Clouds 15 1018 29 6894 1.77 190 10:27 14.11.2020
5484 Clouds 15 1018 29 6894 1.77 190 10:27 14.11.2020
5485 Clouds 15 1018 29 6894 1.77 190 09:58 14.11.2020
5486 Clouds 15 1018 29 6894 1.77 190 09:39 14.11.2020
5487 Clouds 16 1019 26 9760 2.55 191 09:21 14.11.2020
5488 Clouds 16 1019 26 9760 2.55 191 08:40 14.11.2020
5489 Clouds 16 1019 25 10000 2.86 193 07:55 14.11.2020
5490 Clouds 16 1019 25 10000 2.86 193 07:36 14.11.2020
5491 Clouds 16 1020 23 10000 2.16 200 06:38 14.11.2020
5492 Clouds 16 1021 23 10000 1.71 197 06:20 14.11.2020
5493 Clouds 15 1022 25 10000 0.64 144 04:39 14.11.2020
5494 Clouds 9 1021 34 10000 3.25 37 01:29 14.11.2020
5495 Clouds 9 1021 35 10000 3.1 42 00:24 14.11.2020
5496 Clouds 9 1021 35 10000 3.1 42 23:33 13.11.2020
5497 Clouds 9 1021 34 10000 2.87 38 22:58 13.11.2020
5498 Clouds 9 1021 34 10000 2.87 38 22:39 13.11.2020
5499 Clouds 9 1022 35 10000 3.33 38 22:20 13.11.2020
5500 Clouds 9 1022 35 10000 3.33 38 21:44 13.11.2020
5501 Clouds 9 1023 35 10000 3.41 40 21:23 13.11.2020
5502 Clouds 9 1023 35 10000 3.41 40 20:51 13.11.2020
5503 Clouds 9 1023 35 10000 3.41 40 20:32 13.11.2020
5504 Clouds 9 1023 35 10000 3.55 37 19:55 13.11.2020
5505 Clouds 9 1023 35 10000 3.55 37 19:36 13.11.2020
5506 Clouds 9 1023 35 10000 3.53 36 19:18 13.11.2020
5507 Clouds 9 1023 36 10000 3.25 39 18:32 13.11.2020
5508 Clouds 9 1023 36 10000 3.25 39 18:32 13.11.2020
5509 Clouds 9 1023 36 10000 3.21 40 17:44 13.11.2020
5510 Clouds 9 1023 36 10000 3.05 40 17:21 13.11.2020
5511 Clouds 9 1023 36 10000 3.05 40 16:57 13.11.2020
5512 Clouds 9 1023 36 10000 3.05 40 16:38 13.11.2020
5513 Clear 9 1023 37 10000 3.47 33 16:18 13.11.2020
5514 Clear 9 1023 37 10000 3.47 33 15:39 13.11.2020
5515 Clear 9 1023 38 10000 3.86 33 15:21 13.11.2020
5516 Clear 9 1023 38 10000 3.86 33 14:37 13.11.2020
5517 Clear 9 1022 41 10000 3.28 39 14:18 13.11.2020
5518 Clear 9 1022 41 10000 3.28 39 13:32 13.11.2020
5519 Clear 8 1020 47 10000 1.05 63 12:57 13.11.2020
5520 Clear 8 1020 47 10000 1.05 63 12:39 13.11.2020
5521 Clear 14 1020 32 10000 1.93 196 12:20 13.11.2020
5522 Clear 14 1020 32 10000 1.93 196 11:46 13.11.2020
5523 Clouds 16 1019 26 10000 2.95 187 11:21 13.11.2020
5524 Clouds 16 1019 26 10000 2.95 187 10:50 13.11.2020
5525 Clouds 16 1019 26 10000 2.95 187 10:32 13.11.2020
5526 Clouds 18 1019 23 10000 3.08 188 09:48 13.11.2020
5527 Clouds 18 1020 21 10000 2.82 187 09:29 13.11.2020
5528 Clouds 18 1020 21 10000 2.82 187 08:53 13.11.2020
5529 Clouds 18 1021 21 10000 2.51 188 08:27 13.11.2020
5530 Clouds 18 1021 21 10000 2.51 188 07:50 13.11.2020
5531 Clear 17 1022 21 10000 1.82 187 07:27 13.11.2020
5532 Clear 18 1023 21 10000 1.85 185 06:56 13.11.2020
5533 Clear 18 1023 21 10000 1.85 185 06:37 13.11.2020
5534 Clear 17 1024 22 10000 0.78 175 05:41 13.11.2020
5535 Clear 13 1025 28 10000 2.22 39 04:20 13.11.2020
5536 Clear 8 1025 31 10000 3.34 33 01:43 13.11.2020
5537 Clouds 9 1024 31 10000 3.63 37 00:37 13.11.2020
5538 Clouds 9 1024 31 10000 3.52 37 23:55 12.11.2020
5539 Clouds 9 1024 31 10000 3.69 36 23:21 12.11.2020
5540 Clouds 9 1024 31 10000 3.69 36 22:56 12.11.2020
5541 Clouds 9 1024 31 10000 3.69 36 22:38 12.11.2020
5542 Clouds 9 1024 31 10000 3.69 38 21:59 12.11.2020
5543 Clouds 9 1024 31 10000 3.69 38 21:41 12.11.2020
5544 Clouds 9 1025 32 10000 3.4 38 21:22 12.11.2020
5545 Clouds 9 1025 32 10000 3.4 38 20:42 12.11.2020
5546 Clouds 9 1025 32 10000 3.14 34 20:24 12.11.2020
5547 Clouds 9 1025 32 10000 3.14 34 19:57 12.11.2020
5548 Clouds 9 1025 32 10000 3.14 34 19:39 12.11.2020
5549 Clouds 10 1026 32 10000 3.38 41 19:21 12.11.2020
5550 Clouds 10 1026 32 10000 3.38 41 18:45 12.11.2020
5551 Clouds 9 1025 34 10000 2.97 42 18:20 12.11.2020
5552 Clouds 9 1025 34 10000 2.97 42 17:43 12.11.2020
5553 Clouds 9 1025 34 10000 2.98 36 17:24 12.11.2020
5554 Clouds 9 1025 34 10000 2.98 36 16:46 12.11.2020
5555 Clouds 10 1025 35 10000 3.2 31 16:24 12.11.2020
5556 Clouds 10 1025 35 10000 3.2 31 15:53 12.11.2020
5557 Clouds 10 1025 35 10000 3.2 31 15:30 12.11.2020
5558 Clouds 10 1024 37 10000 3.38 35 14:56 12.11.2020
5559 Clouds 10 1024 37 10000 3.38 35 14:38 12.11.2020
5560 Clouds 10 1024 40 10000 2.8 39 14:19 12.11.2020
5561 Clouds 10 1024 40 10000 2.8 39 13:45 12.11.2020
5562 Clouds 9 1023 44 10000 1.29 53 13:20 12.11.2020
5563 Clouds 9 1023 44 10000 1.29 53 12:49 12.11.2020
5564 Clouds 13 1022 35 10000 0.9 158 12:26 12.11.2020
5565 Clouds 13 1022 35 10000 0.9 158 11:58 12.11.2020
5566 Clouds 13 1022 35 10000 0.9 158 11:40 12.11.2020
5567 Clouds 15 1022 29 10000 1.89 182 10:58 12.11.2020
5568 Clouds 15 1022 29 10000 1.89 182 10:38 12.11.2020
5569 Clouds 16 1022 26 10000 2.9 185 10:19 12.11.2020
5570 Clouds 16 1022 26 10000 2.9 185 09:40 12.11.2020
5571 Clouds 17 1023 24 10000 3.06 190 09:18 12.11.2020
5572 Clouds 17 1023 24 10000 3.06 190 08:40 12.11.2020
5573 Clouds 17 1023 24 10000 3.06 190 08:40 12.11.2020
5574 Clouds 18 1024 22 10000 2.99 191 08:21 12.11.2020
5575 Clouds 18 1024 22 10000 2.99 191 07:56 12.11.2020
5576 Clouds 18 1024 22 10000 2.99 191 07:37 12.11.2020
5577 Clear 17 1025 22 10000 1.95 188 06:54 12.11.2020
5578 Clear 16 1026 22 10000 0.64 102 06:27 12.11.2020
5579 Clear 12 1028 29 10000 3 34 03:51 12.11.2020
5580 Clear 8 1028 34 10000 4.09 34 03:20 12.11.2020
5581 Clear 8 1027 38 10000 4.28 34 00:49 12.11.2020
5582 Clear 8 1026 39 10000 4.13 35 23:47 11.11.2020
5583 Clear 8 1027 40 10000 3.95 35 23:25 11.11.2020
5584 Clear 8 1027 40 10000 3.95 35 22:57 11.11.2020
5585 Clear 8 1027 40 10000 3.95 35 22:38 11.11.2020
5586 Clear 8 1027 40 10000 3.72 35 22:18 11.11.2020
5587 Clear 8 1027 40 10000 3.72 35 21:41 11.11.2020
5588 Clear 8 1027 40 10000 3.49 34 21:23 11.11.2020
5589 Clear 8 1027 40 10000 3.49 34 20:55 11.11.2020
5590 Clear 8 1027 40 10000 3.49 34 20:37 11.11.2020
5591 Clear 8 1027 40 10000 3.5 34 20:18 11.11.2020
5592 Clear 8 1027 40 10000 3.5 34 19:46 11.11.2020
5593 Clouds 8 1027 41 10000 3.59 34 19:28 11.11.2020
5594 Clouds 8 1027 41 10000 3.59 34 18:47 11.11.2020
5595 Clouds 8 1027 42 10000 3.62 34 18:27 11.11.2020
5596 Clouds 8 1027 42 10000 3.62 34 17:41 11.11.2020
5597 Clouds 9 1027 42 10000 3.64 33 17:22 11.11.2020
5598 Clouds 9 1027 42 10000 3.64 33 16:49 11.11.2020
5599 Clouds 9 1027 42 10000 3.64 33 16:31 11.11.2020
5600 Clouds 9 1026 43 10000 3.84 33 15:48 11.11.2020
5601 Clouds 8 1025 45 10000 3.52 34 15:26 11.11.2020
5602 Clouds 8 1025 45 10000 3.52 34 14:55 11.11.2020
5603 Clouds 8 1025 45 10000 3.52 34 14:35 11.11.2020
5604 Clouds 8 1024 48 10000 2.12 46 13:56 11.11.2020
5605 Clouds 8 1024 48 10000 2.12 46 13:33 11.11.2020
5606 Clear 8 1023 49 10000 0.81 119 12:44 11.11.2020
5607 Clear 14 1022 34 10000 2.21 186 12:20 11.11.2020
5608 Clear 14 1022 34 10000 2.21 186 11:49 11.11.2020
5609 Clear 14 1022 34 10000 2.21 186 11:30 11.11.2020
5610 Clear 16 1021 29 10000 2.83 186 10:42 11.11.2020
5611 Clear 17 1021 26 10000 2.94 185 10:24 11.11.2020
5612 Clear 17 1021 26 10000 2.94 185 09:48 11.11.2020
5613 Clear 17 1022 24 10000 2.58 183 09:28 11.11.2020
5614 Clear 17 1022 24 10000 2.58 183 08:47 11.11.2020
5615 Clear 17 1023 24 10000 2.16 181 08:28 11.11.2020
5616 Clear 17 1023 24 10000 2.16 181 07:54 11.11.2020
5617 Clear 17 1023 24 10000 2.16 181 07:36 11.11.2020
5618 Clear 16 1025 25 10000 0.81 174 06:29 11.11.2020
5619 Clear 14 1025 28 10000 0.8 60 04:47 11.11.2020
5620 Clear 7 1025 40 10000 3.6 37 01:33 11.11.2020
5621 Clouds 8 1024 40 10000 3.51 36 00:42 11.11.2020
5622 Clouds 8 1024 40 10000 3.4 39 23:57 10.11.2020
5623 Clouds 8 1024 40 10000 3.42 37 23:25 10.11.2020
5624 Clouds 8 1024 40 10000 3.42 37 22:58 10.11.2020
5625 Clouds 8 1024 40 10000 3.42 37 22:37 10.11.2020
5626 Clouds 8 1024 40 10000 3.33 38 22:19 10.11.2020
5627 Clouds 8 1024 40 10000 3.33 38 21:40 10.11.2020
5628 Clouds 8 1024 41 10000 3.3 40 21:21 10.11.2020
5629 Clouds 8 1024 41 10000 3.3 40 20:43 10.11.2020
5630 Clouds 8 1024 41 10000 3.3 40 20:23 10.11.2020
5631 Clouds 8 1024 41 10000 3.3 40 19:57 10.11.2020
5632 Clouds 8 1024 41 10000 3.3 40 19:39 10.11.2020
5633 Clouds 9 1024 42 10000 3.27 37 19:20 10.11.2020
5634 Clouds 9 1024 41 10000 3.18 37 18:41 10.11.2020
5635 Clouds 9 1024 42 10000 3.13 37 18:21 10.11.2020
5636 Clouds 9 1024 42 10000 3.13 37 17:47 10.11.2020
5637 Clouds 9 1024 42 10000 3.21 36 17:28 10.11.2020
5638 Clouds 9 1024 42 10000 3.21 36 16:58 10.11.2020
5639 Clouds 9 1024 42 10000 3.21 36 16:39 10.11.2020
5640 Clouds 9 1023 43 10000 3.2 34 16:21 10.11.2020
5641 Clouds 9 1023 43 10000 3.2 34 15:47 10.11.2020
5642 Clouds 9 1023 44 10000 2.84 34 15:27 10.11.2020
5643 Clouds 9 1023 44 10000 2.84 34 14:43 10.11.2020
5644 Clouds 9 1022 47 10000 1.97 45 14:24 10.11.2020
5645 Clouds 9 1022 47 10000 1.97 45 14:00 10.11.2020
5646 Clouds 9 1022 47 10000 1.97 45 13:38 10.11.2020
5647 Clouds 9 1021 47 10000 0.76 144 13:19 10.11.2020
5648 Clouds 9 1021 47 10000 0.76 144 12:45 10.11.2020
5649 Clouds 14 1020 34 10000 1.98 185 12:24 10.11.2020
5650 Clouds 14 1020 34 10000 1.98 185 11:43 10.11.2020
5651 Clouds 16 1019 30 10000 2.7 189 11:21 10.11.2020
5652 Clouds 16 1019 30 10000 2.7 189 11:21 10.11.2020
5653 Clouds 16 1019 30 10000 2.7 189 10:56 10.11.2020
5654 Clouds 16 1019 30 10000 2.7 189 10:37 10.11.2020
5655 Clouds 17 1019 27 10000 3.18 189 10:19 10.11.2020
5656 Clouds 17 1019 27 10000 3.18 189 09:42 10.11.2020
5657 Clouds 17 1019 26 10000 3.16 189 09:24 10.11.2020
5658 Clouds 17 1019 26 10000 3.16 189 08:52 10.11.2020
5659 Clouds 17 1020 25 10000 2.94 188 08:26 10.11.2020
5660 Clouds 17 1020 25 10000 2.94 188 07:44 10.11.2020
5661 Clouds 17 1021 24 10000 2.6 188 07:22 10.11.2020
5662 Clouds 17 1021 24 10000 2.61 192 06:40 10.11.2020
5663 Clouds 16 1022 25 10000 1.62 183 05:42 10.11.2020
5664 Clouds 15 1023 27 10000 0.6 97 04:54 10.11.2020
5665 Clouds 9 1022 37 10000 2.7 42 02:28 10.11.2020
5666 Clouds 9 1022 37 10000 3.02 40 01:29 10.11.2020
5667 Clouds 9 1021 37 10000 2.98 38 23:54 09.11.2020
5668 Clouds 9 1021 37 10000 2.98 38 23:30 09.11.2020
5669 Clouds 9 1022 37 10000 3.03 35 22:47 09.11.2020
5670 Clouds 9 1022 37 10000 3.12 40 22:24 09.11.2020
5671 Clouds 9 1022 37 10000 3.12 40 21:54 09.11.2020
5672 Clouds 9 1022 37 10000 3.12 40 21:36 09.11.2020
5673 Clouds 9 1022 37 10000 2.97 41 21:18 09.11.2020
5674 Clouds 9 1022 37 10000 2.97 41 20:37 09.11.2020
5675 Clouds 9 1022 38 10000 2.87 43 20:18 09.11.2020
5676 Clouds 9 1022 38 10000 2.87 43 19:41 09.11.2020
5677 Clouds 9 1022 38 10000 2.88 43 19:21 09.11.2020
5678 Clouds 9 1022 39 10000 2.83 44 18:41 09.11.2020
5679 Clouds 9 1023 38 10000 2.74 44 18:20 09.11.2020
5680 Clouds 9 1023 38 10000 2.74 44 17:52 09.11.2020
5681 Clouds 9 1023 38 10000 2.74 44 17:31 09.11.2020
5682 Clear 9 1023 38 10000 2.91 42 16:46 09.11.2020
5683 Clear 9 1023 39 10000 3.02 37 16:28 09.11.2020
5684 Clear 9 1023 39 10000 3.02 37 15:58 09.11.2020
5685 Clear 9 1023 39 10000 3.02 37 15:40 09.11.2020
5686 Clear 9 1022 41 10000 2.91 39 15:20 09.11.2020
5687 Clear 9 1022 41 10000 2.91 39 14:41 09.11.2020
5688 Clear 9 1021 44 10000 2.14 39 14:23 09.11.2020
5689 Clear 9 1021 44 10000 2.14 39 13:46 09.11.2020
5690 Clear 9 1019 47 10000 0.66 93 13:20 09.11.2020
5691 Clear 9 1019 47 10000 0.66 93 13:20 09.11.2020
5692 Clear 9 1019 47 10000 0.62 96 12:47 09.11.2020
5693 Clear 14 1018 33 10000 1.92 190 12:25 09.11.2020
5694 Clear 14 1018 33 10000 1.92 190 11:56 09.11.2020
5695 Clear 14 1018 33 10000 1.92 190 11:37 09.11.2020
5696 Clear 17 1018 27 10000 2.61 188 11:18 09.11.2020
5697 Clear 17 1018 27 10000 2.61 188 10:42 09.11.2020
5698 Clear 18 1018 25 10000 2.78 187 10:23 09.11.2020
5699 Clear 18 1018 25 10000 2.78 187 09:45 09.11.2020
5700 Clear 18 1019 23 10000 2.78 182 09:23 09.11.2020
5701 Clear 18 1019 23 10000 2.78 182 08:39 09.11.2020
5702 Clear 18 1020 22 10000 2.67 187 08:19 09.11.2020
5703 Clear 18 1020 22 10000 2.67 187 07:40 09.11.2020
5704 Clear 18 1020 21 10000 2.28 187 07:19 09.11.2020
5705 Clear 19 1020 21 10000 2.36 190 06:31 09.11.2020
5706 Clear 10 1023 31 10000 3.81 37 03:22 09.11.2020
5707 Clear 9 1023 32 10000 3.94 34 01:43 09.11.2020
5708 Clear 9 1022 33 10000 4.05 35 00:58 09.11.2020
5709 Clear 9 1023 33 10000 3.8 34 23:53 08.11.2020
5710 Clear 9 1023 33 10000 3.8 34 23:30 08.11.2020
5711 Clear 9 1023 33 10000 3.8 34 23:30 08.11.2020
5712 Clear 9 1023 33 10000 3.76 36 22:55 08.11.2020
5713 Clear 9 1023 33 10000 3.76 36 22:36 08.11.2020
5714 Clear 9 1024 33 10000 3.88 36 22:18 08.11.2020
5715 Clear 9 1024 33 10000 3.88 36 21:38 08.11.2020
5716 Clear 9 1024 34 10000 4.03 35 21:19 08.11.2020
5717 Clear 9 1024 34 10000 4.03 35 20:39 08.11.2020
5718 Clear 10 1025 34 10000 4.05 35 20:21 08.11.2020
5719 Clear 10 1025 34 10000 4.05 35 19:57 08.11.2020
5720 Clear 10 1025 34 10000 4.05 35 19:39 08.11.2020
5721 Clear 10 1025 34 10000 3.76 38 19:20 08.11.2020
5722 Clear 10 1025 34 10000 3.76 38 18:47 08.11.2020
5723 Clear 10 1025 35 10000 3.69 38 18:21 08.11.2020
5724 Clear 10 1025 35 10000 3.69 38 17:57 08.11.2020
5725 Clear 10 1025 35 10000 3.69 38 17:38 08.11.2020
5726 Clear 10 1026 35 10000 3.51 37 17:19 08.11.2020
5727 Clear 10 1026 35 10000 3.51 37 16:48 08.11.2020
5728 Clear 10 1025 35 10000 3.51 33 16:21 08.11.2020
5729 Clear 10 1025 35 10000 3.51 33 15:57 08.11.2020
5730 Clear 10 1025 35 10000 3.51 33 15:38 08.11.2020
5731 Clear 10 1025 36 10000 3.46 33 15:20 08.11.2020
5732 Clear 10 1025 36 10000 3.46 33 14:40 08.11.2020
5733 Clear 10 1024 39 10000 2.84 34 14:21 08.11.2020
5734 Clear 10 1024 39 10000 2.84 34 13:46 08.11.2020
5735 Clear 9 1022 45 10000 1.23 39 13:23 08.11.2020
5736 Clear 9 1022 45 10000 1.11 41 12:44 08.11.2020
5737 Clear 15 1021 31 10000 1.29 188 12:25 08.11.2020
5738 Clear 15 1021 31 10000 1.29 188 11:58 08.11.2020
5739 Clear 15 1021 31 10000 1.29 188 11:39 08.11.2020
5740 Clear 17 1021 26 10000 2.04 187 11:20 08.11.2020
5741 Clear 17 1021 26 10000 2.04 187 10:50 08.11.2020
5742 Clear 18 1022 23 10000 2.36 184 10:19 08.11.2020
5743 Clear 18 1022 23 10000 2.36 184 09:44 08.11.2020
5744 Clear 19 1022 22 10000 2.44 184 09:24 08.11.2020
5745 Clear 19 1022 22 10000 2.44 184 08:58 08.11.2020
5746 Clear 19 1022 22 10000 2.44 184 08:39 08.11.2020
5747 Clear 19 1022 22 10000 2.44 184 08:39 08.11.2020
5748 Clear 19 1023 21 10000 2.02 176 08:18 08.11.2020
5749 Clear 19 1023 21 10000 2.02 176 07:52 08.11.2020
5750 Clear 19 1024 22 10000 1.36 159 07:24 08.11.2020
5751 Clear 18 1025 22 10000 0.98 82 06:22 08.11.2020
5752 Clear 18 1025 22 10000 0.98 82 05:52 08.11.2020
5753 Clear 16 1026 25 10000 2.15 36 04:31 08.11.2020
5754 Clear 8 1026 35 10000 4.77 34 01:51 08.11.2020
5755 Clear 8 1025 35 10000 4.62 34 01:19 08.11.2020
5756 Clear 8 1025 35 10000 4.62 34 01:19 08.11.2020
5757 Clear 8 1025 35 10000 4.62 34 01:19 08.11.2020
5758 Clear 8 1025 35 10000 4.66 33 00:27 08.11.2020
5759 Clear 8 1025 35 10000 4.66 33 23:47 07.11.2020
5760 Clear 8 1025 35 10000 4.6 33 23:28 07.11.2020
5761 Clear 8 1025 35 10000 4.6 33 22:44 07.11.2020
5762 Clear 8 1026 35 10000 4.51 34 22:25 07.11.2020
5763 Clear 8 1026 35 10000 4.51 34 21:54 07.11.2020
5764 Clear 8 1026 35 10000 4.51 34 21:36 07.11.2020
5765 Clear 8 1026 35 10000 4.58 33 21:18 07.11.2020
5766 Clear 8 1026 35 10000 4.58 33 20:40 07.11.2020
5767 Clear 8 1026 35 10000 4.53 33 20:22 07.11.2020
5768 Clear 8 1026 35 10000 4.53 33 19:43 07.11.2020
5769 Clear 9 1026 35 10000 4.47 33 19:24 07.11.2020
5770 Clear 9 1026 35 10000 4.47 33 18:40 07.11.2020
5771 Clear 9 1025 36 10000 4.25 34 18:22 07.11.2020
5772 Clear 9 1025 36 10000 4.25 34 17:46 07.11.2020
5773 Clear 9 1026 36 10000 4.04 35 17:27 07.11.2020
5774 Clear 9 1026 36 10000 4.04 35 17:27 07.11.2020
5775 Clear 9 1026 36 10000 4.04 35 16:45 07.11.2020
5776 Clear 9 1025 36 10000 3.88 36 16:25 07.11.2020
5777 Clear 9 1025 36 10000 3.88 36 15:51 07.11.2020
5778 Clear 9 1025 38 10000 3.75 34 15:25 07.11.2020
5779 Clear 9 1025 38 10000 3.75 34 14:59 07.11.2020
5780 Clear 9 1025 38 10000 3.75 34 14:41 07.11.2020
5781 Clear 9 1024 42 10000 3.1 37 14:20 07.11.2020
5782 Clear 9 1024 42 10000 3.1 37 13:43 07.11.2020
5783 Clear 8 1022 47 10000 0.84 59 13:23 07.11.2020
5784 Clear 8 1022 47 10000 0.73 61 12:40 07.11.2020
5785 Clear 14 1021 32 10000 1.6 189 11:56 07.11.2020
5786 Clear 14 1021 32 10000 1.6 189 11:37 07.11.2020
5787 Clear 17 1021 27 10000 2.41 188 11:18 07.11.2020
5788 Clear 17 1021 27 10000 2.41 188 10:42 07.11.2020
5789 Clear 18 1022 24 10000 2.46 183 10:23 07.11.2020
5790 Clear 18 1022 24 10000 2.46 183 09:49 07.11.2020
5791 Clear 18 1022 22 10000 2.09 176 09:25 07.11.2020
5792 Clear 18 1022 22 10000 2.09 176 08:51 07.11.2020
5793 Clear 18 1022 22 10000 2.09 176 08:31 07.11.2020
5794 Clear 17 1023 22 10000 1.57 171 07:49 07.11.2020
5795 Clear 17 1024 22 10000 0.93 152 07:18 07.11.2020
5796 Clear 17 1024 22 10000 0.93 152 06:43 07.11.2020
5797 Clear 15 1025 22 10000 1.4 20 04:32 07.11.2020
5798 Clear 8 1026 33 10000 4.27 28 03:22 07.11.2020
5799 Clear 7 1025 36 10000 4.29 27 01:28 07.11.2020
5800 Clear 7 1025 36 10000 4.29 27 01:28 07.11.2020
5801 Clear 8 1025 37 10000 4.22 28 00:41 07.11.2020
5802 Clear 8 1025 37 10000 4.09 26 23:49 06.11.2020
5803 Clear 8 1024 38 10000 3.93 25 23:19 06.11.2020
5804 Clear 8 1024 38 10000 3.93 25 22:41 06.11.2020
5805 Clear 8 1025 38 10000 3.82 26 22:19 06.11.2020
5806 Clear 8 1025 38 10000 3.82 26 22:19 06.11.2020
5807 Clear 8 1025 38 10000 3.82 26 21:45 06.11.2020
5808 Clear 8 1025 39 10000 3.73 27 21:21 06.11.2020
5809 Clear 8 1025 39 10000 3.73 27 20:52 06.11.2020
5810 Clear 8 1025 39 10000 3.6 29 20:22 06.11.2020
5811 Clear 8 1025 39 10000 3.6 29 19:56 06.11.2020
5812 Clear 8 1025 39 10000 3.6 29 19:38 06.11.2020
5813 Clear 8 1026 39 10000 3.48 27 19:19 06.11.2020
5814 Clear 8 1026 39 10000 3.48 27 18:45 06.11.2020
5815 Clear 8 1026 40 10000 3.13 28 18:22 06.11.2020
5816 Clear 8 1026 40 10000 3.13 28 17:51 06.11.2020
5817 Clear 8 1026 41 10000 3.22 25 17:25 06.11.2020
5818 Clear 8 1026 41 10000 3.22 25 16:49 06.11.2020
5819 Clear 8 1025 42 10000 3.23 26 16:27 06.11.2020
5820 Clear 8 1025 42 10000 3.23 26 15:49 06.11.2020
5821 Clear 8 1024 44 10000 2.45 30 15:29 06.11.2020
5822 Clear 8 1024 44 10000 2.45 30 14:53 06.11.2020
5823 Clear 7 1023 48 10000 1.25 40 14:27 06.11.2020
5824 Clear 7 1023 48 10000 1.25 40 13:46 06.11.2020
5825 Clear 8 1022 48 10000 0.97 191 13:24 06.11.2020
5826 Clear 8 1022 48 10000 0.96 191 12:46 06.11.2020
5827 Clear 14 1021 31 10000 2.66 201 12:23 06.11.2020
5828 Clear 14 1021 31 10000 2.66 201 11:55 06.11.2020
5829 Clear 14 1021 31 10000 2.66 201 11:35 06.11.2020
5830 Clear 15 1020 27 10000 3.11 199 10:47 06.11.2020
5831 Clear 16 1020 25 10000 3.27 197 10:27 06.11.2020
5832 Clear 16 1020 25 10000 3.27 197 09:50 06.11.2020
5833 Clear 16 1021 24 10000 3.42 198 09:23 06.11.2020
5834 Clear 16 1021 24 10000 3.42 198 08:51 06.11.2020
5835 Clear 16 1021 24 10000 3.42 198 08:30 06.11.2020
5836 Clear 16 1021 23 10000 3.36 198 07:54 06.11.2020
5837 Clear 16 1021 23 10000 3.36 198 07:35 06.11.2020
5838 Clear 16 1022 22 10000 2.67 214 06:59 06.11.2020
5839 Clear 16 1022 22 10000 2.67 214 06:32 06.11.2020
5840 Clear 15 1023 21 10000 1.2 229 05:36 06.11.2020
5841 Clear 7 1024 40 10000 4.1 23 01:23 06.11.2020
5842 Clear 7 1023 41 10000 4.08 23 00:23 06.11.2020
5843 Clear 7 1023 41 10000 4.08 23 23:39 05.11.2020
5844 Clear 7 1023 42 10000 3.94 22 22:59 05.11.2020
5845 Clear 7 1023 42 10000 3.94 22 22:41 05.11.2020
5846 Clear 7 1023 44 10000 3.88 22 22:22 05.11.2020
5847 Clear 7 1023 44 10000 3.88 22 21:44 05.11.2020
5848 Clear 7 1024 45 10000 3.83 22 21:23 05.11.2020
5849 Clear 7 1024 45 10000 3.83 22 20:58 05.11.2020
5850 Clear 7 1024 45 10000 3.83 22 20:40 05.11.2020
5851 Clear 7 1024 47 10000 3.77 21 20:21 05.11.2020
5852 Clear 7 1024 47 10000 3.77 21 19:43 05.11.2020
5853 Clear 7 1024 49 10000 3.72 21 19:25 05.11.2020
5854 Clear 8 1024 48 10000 3.6 21 18:50 05.11.2020
5855 Clear 8 1024 48 10000 3.6 21 18:32 05.11.2020
5856 Clear 8 1024 49 10000 3.52 20 17:56 05.11.2020
5857 Clear 8 1024 49 10000 3.52 20 17:38 05.11.2020
5858 Clear 8 1023 50 10000 3.28 20 17:20 05.11.2020
5859 Clear 8 1023 50 10000 3.28 20 16:43 05.11.2020
5860 Clear 8 1023 50 10000 3.28 20 16:43 05.11.2020
5861 Clear 8 1023 51 10000 2.7 20 16:22 05.11.2020
5862 Clear 8 1023 51 10000 2.7 20 15:50 05.11.2020
5863 Clear 8 1022 51 10000 1.95 20 15:26 05.11.2020
5864 Clear 8 1022 51 10000 1.95 20 14:50 05.11.2020
5865 Clear 8 1022 51 10000 1.95 20 14:31 05.11.2020
5866 Clouds 8 1021 53 10000 0.88 16 13:51 05.11.2020
5867 Clouds 8 1021 53 10000 0.88 16 13:33 05.11.2020
5868 Clouds 9 1019 49 10000 1.1 223 12:54 05.11.2020
5869 Clouds 9 1019 48 10000 1.08 231 12:30 05.11.2020
5870 Clouds 13 1018 36 10000 2.9 215 11:58 05.11.2020
5871 Clouds 13 1018 36 10000 2.9 215 11:39 05.11.2020
5872 Clouds 14 1018 33 10000 3.9 212 11:21 05.11.2020
5873 Clouds 14 1018 33 10000 3.9 212 10:47 05.11.2020
5874 Clouds 15 1018 30 10000 4.1 202 10:26 05.11.2020
5875 Clouds 15 1018 30 10000 4.1 202 09:48 05.11.2020
5876 Clouds 16 1018 29 10000 3.9 198 09:24 05.11.2020
5877 Clouds 16 1018 29 10000 3.9 198 09:24 05.11.2020
5878 Clouds 16 1018 29 10000 3.9 198 08:48 05.11.2020
5879 Clouds 16 1018 28 10000 3.57 198 08:29 05.11.2020
5880 Clouds 16 1018 28 10000 3.57 198 07:42 05.11.2020
5881 Clear 16 1019 28 10000 3.02 201 07:23 05.11.2020
5882 Clear 15 1020 28 10000 3.03 206 06:42 05.11.2020
5883 Clear 15 1020 28 10000 3.03 206 06:42 05.11.2020
5884 Clear 14 1020 29 10000 2.23 211 05:55 05.11.2020
5885 Clear 7 1020 47 10000 3.27 26 01:41 05.11.2020
5886 Clear 7 1020 46 10000 3.28 26 00:35 05.11.2020
5887 Clear 7 1019 46 10000 3.32 25 23:47 04.11.2020
5888 Clear 8 1019 47 10000 3.33 25 23:27 04.11.2020
5889 Clear 8 1019 47 10000 3.33 25 22:55 04.11.2020
5890 Clear 8 1019 47 10000 3.33 25 22:36 04.11.2020
5891 Clear 8 1020 47 10000 3.25 27 22:18 04.11.2020
5892 Clear 8 1020 47 10000 3.25 27 21:43 04.11.2020
5893 Clear 8 1020 47 10000 3.1 27 21:24 04.11.2020
5894 Clear 8 1020 47 10000 3.1 27 20:46 04.11.2020
5895 Clear 8 1020 48 10000 2.96 29 20:28 04.11.2020
5896 Clear 8 1020 48 10000 2.96 29 19:50 04.11.2020
5897 Clear 8 1020 48 10000 2.96 29 19:30 04.11.2020
5898 Clouds 8 1020 48 10000 2.97 26 18:58 04.11.2020
5899 Clouds 8 1020 47 10000 3.08 25 18:39 04.11.2020
5900 Clouds 8 1020 48 10000 3.3 24 18:20 04.11.2020
5901 Clouds 8 1020 48 10000 3.3 24 17:45 04.11.2020
5902 Clouds 8 1020 49 10000 3.23 24 17:24 04.11.2020
5903 Clouds 8 1020 49 10000 3.23 24 16:44 04.11.2020
5904 Clouds 8 1020 49 10000 2.61 24 16:24 04.11.2020
5905 Clouds 8 1020 49 10000 2.61 24 15:55 04.11.2020
5906 Clouds 8 1020 49 10000 2.61 24 15:36 04.11.2020
5907 Clouds 8 1019 51 10000 1.76 30 15:18 04.11.2020
5908 Clouds 8 1019 51 10000 1.76 30 14:41 04.11.2020
5909 Clouds 8 1018 52 10000 0.96 27 14:23 04.11.2020
5910 Clouds 8 1018 52 10000 0.96 27 13:48 04.11.2020
5911 Clouds 9 1016 48 10000 0.86 238 13:21 04.11.2020
5912 Clouds 9 1016 48 10000 0.86 238 12:56 04.11.2020
5913 Clouds 9 1017 49 10000 0.86 238 12:38 04.11.2020
5914 Clouds 13 1016 36 10000 2.75 224 12:20 04.11.2020
5915 Clouds 13 1016 36 10000 2.75 224 11:44 04.11.2020
5916 Clouds 15 1015 32 10000 3.95 209 11:21 04.11.2020
5917 Clouds 15 1015 32 10000 3.95 209 10:48 04.11.2020
5918 Clouds 16 1015 29 10000 4 201 10:23 04.11.2020
5919 Clouds 16 1015 29 10000 4 201 09:55 04.11.2020
5920 Clear 16 1016 27 10000 4.06 199 09:27 04.11.2020
5921 Clear 16 1016 27 10000 4.06 199 08:47 04.11.2020
5922 Clear 16 1017 26 10000 3.56 200 08:23 04.11.2020
5923 Clear 16 1017 26 10000 3.56 200 07:57 04.11.2020
5924 Clear 16 1017 26 10000 3.56 200 07:31 04.11.2020
5925 Clear 16 1018 26 10000 2.96 201 06:58 04.11.2020
5926 Clear 16 1019 26 10000 3.1 202 06:38 04.11.2020
5927 Clear 14 1020 28 10000 0.82 205 04:46 04.11.2020
5928 Clear 9 1021 38 10000 3.27 28 02:31 04.11.2020
5929 Clear 8 1020 41 10000 3.5 30 01:32 04.11.2020
5930 Clear 8 1020 41 10000 3.4 28 23:56 03.11.2020
5931 Clear 8 1020 41 10000 3.42 28 23:25 03.11.2020
5932 Clear 8 1020 41 10000 3.42 28 22:54 03.11.2020
5933 Clear 8 1020 41 10000 3.42 28 22:36 03.11.2020
5934 Clear 9 1020 42 10000 3.46 29 22:18 03.11.2020
5935 Clear 9 1020 42 10000 3.46 29 21:41 03.11.2020
5936 Clear 9 1020 42 10000 3.44 29 21:23 03.11.2020
5937 Clear 9 1020 42 10000 3.44 29 20:48 03.11.2020
5938 Clear 9 1020 42 10000 3.47 30 20:26 03.11.2020
5939 Clear 9 1020 42 10000 3.47 30 19:49 03.11.2020
5940 Clear 9 1021 43 10000 3.52 29 19:29 03.11.2020
5941 Clear 9 1021 43 10000 3.52 29 18:58 03.11.2020
5942 Clear 9 1020 44 10000 3.41 27 18:40 03.11.2020
5943 Clear 9 1021 44 10000 3.51 25 18:18 03.11.2020
5944 Clear 9 1021 44 10000 3.51 25 17:44 03.11.2020
5945 Clear 9 1021 46 10000 3.47 24 17:26 03.11.2020
5946 Clear 9 1021 46 10000 3.47 24 16:45 03.11.2020
5947 Clear 9 1020 47 10000 3.09 25 16:27 03.11.2020
5948 Clear 9 1020 47 10000 3.09 25 15:53 03.11.2020
5949 Clear 9 1020 47 10000 3.09 25 15:30 03.11.2020
5950 Clear 9 1020 47 10000 3.09 25 15:30 03.11.2020
5951 Clear 9 1020 49 10000 2.23 29 14:54 03.11.2020
5952 Clear 9 1020 49 10000 2.23 29 14:33 03.11.2020
5953 Clear 8 1019 52 10000 0.8 63 13:59 03.11.2020
5954 Clear 8 1019 52 10000 0.8 63 13:40 03.11.2020
5955 Clear 10 1018 47 10000 1.69 188 13:20 03.11.2020
5956 Clear 10 1018 48 10000 1.57 187 12:44 03.11.2020
5957 Clear 15 1017 33 10000 3.54 195 12:21 03.11.2020
5958 Clear 15 1017 33 10000 3.54 195 11:46 03.11.2020
5959 Clear 16 1017 28 10000 4.01 201 11:23 03.11.2020
5960 Clear 16 1017 28 10000 4.01 201 10:55 03.11.2020
5961 Clear 16 1017 28 10000 4.01 201 10:55 03.11.2020
5962 Clear 16 1017 28 10000 4.01 201 10:36 03.11.2020
5963 Clear 17 1017 25 10000 4.15 204 10:18 03.11.2020
5964 Clear 17 1017 25 10000 4.15 204 09:44 03.11.2020
5965 Clear 18 1018 24 10000 4.23 206 09:20 03.11.2020
5966 Clear 18 1018 24 10000 4.23 206 08:45 03.11.2020
5967 Clear 18 1019 23 10000 3.78 207 08:26 03.11.2020
5968 Clear 18 1019 23 10000 3.78 207 07:41 03.11.2020
5969 Clear 17 1020 23 10000 3.06 209 07:19 03.11.2020
5970 Clear 17 1021 25 10000 1.93 212 06:21 03.11.2020
5971 Clear 15 1022 28 10000 0.21 198 04:34 03.11.2020
5972 Clear 9 1021 43 10000 3.78 32 00:44 03.11.2020
5973 Clear 9 1021 43 10000 3.72 31 00:20 03.11.2020
5974 Clear 9 1021 43 10000 3.72 31 23:43 02.11.2020
5975 Clear 9 1021 43 10000 3.54 31 23:20 02.11.2020
5976 Clear 9 1021 43 10000 3.54 31 22:43 02.11.2020
5977 Clear 9 1021 43 10000 3.44 33 22:24 02.11.2020
5978 Clear 9 1021 43 10000 3.44 33 21:39 02.11.2020
5979 Clear 9 1021 44 10000 3.32 34 21:21 02.11.2020
5980 Clear 9 1021 44 10000 3.32 34 20:56 02.11.2020
5981 Clear 9 1021 44 10000 3.32 34 20:38 02.11.2020
5982 Clear 9 1022 44 10000 3.32 33 20:18 02.11.2020
5983 Clear 9 1022 44 10000 3.32 33 19:43 02.11.2020
5984 Clouds 10 1022 44 10000 3.44 33 19:25 02.11.2020
5985 Clouds 10 1022 44 10000 3.44 33 18:43 02.11.2020
5986 Clouds 10 1022 44 10000 3.37 29 18:43 02.11.2020
5987 Clouds 10 1022 44 10000 3.47 28 18:22 02.11.2020
5988 Clouds 10 1022 44 10000 3.47 28 17:58 02.11.2020
5989 Clouds 10 1022 44 10000 3.47 28 17:40 02.11.2020
5990 Clouds 10 1022 45 10000 3.46 29 17:20 02.11.2020
5991 Clouds 10 1022 45 10000 3.46 29 16:43 02.11.2020
5992 Clouds 10 1022 45 10000 3.18 20 16:24 02.11.2020
5993 Clouds 10 1022 45 10000 3.18 20 15:46 02.11.2020
5994 Clouds 11 1021 45 10000 2.74 18 15:24 02.11.2020
5995 Clouds 11 1021 45 10000 2.74 18 14:58 02.11.2020
5996 Clouds 11 1021 45 10000 2.74 18 14:40 02.11.2020
5997 Clouds 10 1021 47 10000 1.69 35 14:18 02.11.2020
5998 Clouds 10 1021 47 10000 1.69 35 13:44 02.11.2020
5999 Clouds 11 1020 46 10000 0.99 116 13:21 02.11.2020
6000 Clouds 11 1020 46 10000 0.99 116 12:42 02.11.2020
6001 Rain 15 1019 35 10000 1.8 155 12:21 02.11.2020
6002 Clouds 15 1019 35 10000 1.8 155 11:45 02.11.2020
6003 Clouds 16 1019 32 9506 2.88 175 11:20 02.11.2020
6004 Clouds 16 1019 32 9506 2.88 175 10:45 02.11.2020
6005 Clouds 17 1019 30 7513 4.21 187 10:24 02.11.2020
6006 Clouds 17 1019 30 7513 4.21 187 09:55 02.11.2020
6007 Clouds 18 1020 27 10000 4.25 202 09:26 02.11.2020
6008 Clouds 18 1020 27 10000 4.25 202 08:46 02.11.2020
6009 Clouds 18 1021 26 10000 3.29 218 08:28 02.11.2020
6010 Clouds 18 1021 26 10000 3.29 218 07:55 02.11.2020
6011 Clouds 18 1021 26 10000 3.29 218 07:32 02.11.2020
6012 Clouds 18 1022 26 10000 2.71 219 06:44 02.11.2020
6013 Clouds 16 1023 28 10000 1.1 1 04:56 02.11.2020
6014 Clear 10 1022 41 10000 3.68 27 01:26 02.11.2020
6015 Clear 10 1022 42 10000 3.76 29 00:37 02.11.2020
6016 Clear 10 1021 42 10000 3.68 28 23:56 01.11.2020
6017 Clear 10 1021 42 10000 3.68 28 23:37 01.11.2020
6018 Clear 10 1021 41 10000 3.66 26 23:19 01.11.2020
6019 Clear 10 1021 41 10000 3.66 26 22:41 01.11.2020
6020 Clear 10 1021 41 10000 3.47 27 22:18 01.11.2020
6021 Clear 10 1021 41 10000 3.47 27 21:41 01.11.2020
6022 Clear 10 1022 41 10000 3.27 25 21:23 01.11.2020
6023 Clear 10 1022 41 10000 3.27 25 20:46 01.11.2020
6024 Clear 10 1022 41 10000 3.29 24 20:25 01.11.2020
6025 Clear 10 1022 41 10000 3.29 24 19:46 01.11.2020
6026 Clear 10 1022 42 10000 3.36 27 19:28 01.11.2020
6027 Clear 10 1021 42 10000 3.2 29 18:57 01.11.2020
6028 Clear 10 1022 42 10000 3.36 27 18:38 01.11.2020
6029 Clear 10 1021 42 10000 3.29 27 18:19 01.11.2020
6030 Clear 10 1021 42 10000 3.29 27 18:19 01.11.2020
6031 Clear 10 1021 42 10000 3.29 27 17:45 01.11.2020
6032 Clear 10 1021 44 10000 3.46 25 17:27 01.11.2020
6033 Clear 10 1021 44 10000 3.46 25 16:45 01.11.2020
6034 Clear 10 1021 44 10000 3.24 27 16:26 01.11.2020
6035 Clear 10 1021 44 10000 3.24 27 15:58 01.11.2020
6036 Clear 10 1021 44 10000 3.24 27 15:38 01.11.2020
6037 Clear 10 1021 46 10000 2.42 32 15:19 01.11.2020
6038 Clear 10 1021 46 10000 2.42 32 14:46 01.11.2020
6039 Clear 10 1020 49 10000 1.11 47 14:22 01.11.2020
6040 Clear 10 1020 49 10000 1.11 47 13:57 01.11.2020
6041 Clear 10 1020 49 10000 1.11 47 13:39 01.11.2020
6042 Clouds 11 1018 46 10000 1.24 181 13:21 01.11.2020
6043 Clouds 11 1018 45 10000 1.26 182 12:42 01.11.2020
6044 Clouds 16 1018 32 10000 2.74 198 12:19 01.11.2020
6045 Clouds 16 1018 32 10000 2.74 198 11:48 01.11.2020
6046 Clouds 17 1017 29 10000 3.51 206 11:18 01.11.2020
6047 Clouds 17 1017 29 10000 3.51 206 10:42 01.11.2020
6048 Clouds 18 1018 26 10000 3.91 210 10:24 01.11.2020
6049 Clouds 18 1018 26 10000 3.91 210 09:50 01.11.2020
6050 Clear 19 1019 24 10000 4.48 208 09:27 01.11.2020
6051 Clear 19 1019 24 10000 4.48 208 08:44 01.11.2020
6052 Clear 19 1020 22 10000 4.24 209 08:18 01.11.2020
6053 Clear 19 1020 22 10000 4.24 209 07:33 01.11.2020
6054 Clear 11 1024 35 10000 3.67 27 03:25 01.11.2020
6055 Clear 10 1023 38 10000 3.68 27 01:46 01.11.2020
6056 Clear 10 1021 39 10000 3.56 27 00:23 01.11.2020
6057 Clear 10 1022 40 10000 3.42 25 23:24 31.10.2020
6058 Clear 10 1022 40 10000 3.42 25 22:56 31.10.2020
6059 Clear 10 1022 40 10000 3.42 25 22:36 31.10.2020
6060 Clear 10 1022 40 10000 3.36 26 22:18 31.10.2020
6061 Clear 10 1022 40 10000 3.36 26 21:43 31.10.2020
6062 Clear 10 1023 40 10000 3.32 27 21:18 31.10.2020
6063 Clear 10 1023 40 10000 3.32 27 20:38 31.10.2020
6064 Clear 10 1023 40 10000 3.49 27 20:18 31.10.2020
6065 Clear 10 1023 40 10000 3.49 27 19:40 31.10.2020
6066 Clear 10 1022 41 10000 3.64 25 19:20 31.10.2020
6067 Clear 10 1022 41 10000 3.64 25 18:47 31.10.2020
6068 Clear 10 1022 41 10000 3.52 27 18:23 31.10.2020
6069 Clear 10 1022 41 10000 3.52 27 17:40 31.10.2020
6070 Clear 10 1022 42 10000 3.67 26 17:22 31.10.2020
6071 Clear 10 1022 42 10000 3.67 26 16:43 31.10.2020
6072 Clear 10 1022 42 10000 3.65 27 16:25 31.10.2020
6073 Clear 10 1022 42 10000 3.65 27 15:45 31.10.2020
6074 Clear 10 1021 44 10000 2.77 33 15:24 31.10.2020
6075 Clear 10 1021 44 10000 2.77 33 14:49 31.10.2020
6076 Clear 10 1021 44 10000 2.77 33 14:31 31.10.2020
6077 Clear 9 1020 47 10000 1.13 50 13:50 31.10.2020
6078 Clear 11 1019 44 10000 1.23 200 13:26 31.10.2020
6079 Clear 11 1019 45 10000 1.17 200 12:43 31.10.2020
6080 Clear 16 1018 30 10000 2.51 202 12:18 31.10.2020
6081 Clear 16 1018 30 10000 2.51 202 11:39 31.10.2020
6082 Clear 17 1018 27 10000 3.13 203 11:20 31.10.2020
6083 Clear 17 1018 27 10000 3.13 203 10:37 31.10.2020
6084 Clear 18 1018 25 10000 3.9 202 09:48 31.10.2020
6085 Clear 18 1019 23 10000 4.58 202 09:29 31.10.2020
6086 Clear 18 1019 23 10000 4.58 202 08:52 31.10.2020
6087 Clear 18 1020 23 10000 4.08 204 08:20 31.10.2020
6088 Clear 18 1021 23 10000 2.99 211 07:28 31.10.2020
6089 Clear 18 1021 22 10000 2.82 211 06:47 31.10.2020
6090 Clear 17 1022 24 10000 1.48 222 06:29 31.10.2020
6091 Clear 14 1024 30 10000 2.17 28 03:47 31.10.2020
6092 Clear 8 1024 43 10000 3.66 27 02:20 31.10.2020
6093 Clear 9 1023 43 10000 3.64 27 00:51 31.10.2020
6094 Clear 9 1022 42 10000 3.56 24 23:54 30.10.2020
6095 Clear 9 1022 43 10000 3.32 23 23:29 30.10.2020
6096 Clear 9 1022 43 10000 3.32 23 22:59 30.10.2020
6097 Clear 9 1022 43 10000 3.32 23 22:37 30.10.2020
6098 Clear 9 1023 43 10000 3.2 24 22:18 30.10.2020
6099 Clear 9 1023 43 10000 3.2 24 21:47 30.10.2020
6100 Clear 9 1023 43 10000 2.98 26 21:26 30.10.2020
6101 Clear 9 1023 43 10000 2.98 26 20:45 30.10.2020
6102 Clear 9 1023 43 10000 2.96 27 20:26 30.10.2020
6103 Clear 9 1023 43 10000 2.96 27 19:57 30.10.2020
6104 Clear 9 1023 43 10000 2.96 27 19:37 30.10.2020
6105 Clear 9 1023 44 10000 3.09 25 19:18 30.10.2020
6106 Clear 9 1023 44 10000 3 25 18:41 30.10.2020
6107 Clear 9 1023 44 10000 3.21 24 18:22 30.10.2020
6108 Clear 9 1023 44 10000 3.21 24 17:44 30.10.2020
6109 Clear 9 1023 45 10000 3.45 24 17:21 30.10.2020
6110 Clear 9 1023 45 10000 3.45 24 16:50 30.10.2020
6111 Clear 9 1022 46 10000 2.97 27 16:24 30.10.2020
6112 Clear 9 1022 46 10000 2.97 27 15:42 30.10.2020
6113 Clear 9 1021 48 10000 1.9 39 15:24 30.10.2020
6114 Clear 9 1021 48 10000 1.9 39 14:58 30.10.2020
6115 Clear 9 1021 48 10000 1.9 39 14:39 30.10.2020
6116 Clear 8 1020 49 10000 0.59 70 14:21 30.10.2020
6117 Clear 8 1020 49 10000 0.59 70 14:21 30.10.2020
6118 Clear 8 1020 49 10000 0.59 70 14:21 30.10.2020
6119 Clear 8 1020 49 10000 0.59 70 13:42 30.10.2020
6120 Clear 10 1019 45 10000 1.42 197 13:20 30.10.2020
6121 Clear 10 1019 45 10000 1.39 195 12:46 30.10.2020
6122 Clear 15 1018 31 10000 3.26 201 12:22 30.10.2020
6123 Clear 15 1018 31 10000 3.26 201 11:54 30.10.2020
6124 Clear 16 1018 27 10000 4.03 204 11:21 30.10.2020
6125 Clear 16 1018 27 10000 4.03 204 10:50 30.10.2020
6126 Clear 17 1018 25 10000 4.55 206 10:25 30.10.2020
6127 Clear 17 1018 25 10000 4.55 206 09:48 30.10.2020
6128 Clear 17 1019 23 10000 4.69 209 09:25 30.10.2020
6129 Clear 17 1019 23 10000 4.69 209 08:59 30.10.2020
6130 Clear 17 1019 23 10000 4.65 209 08:31 30.10.2020
6131 Clear 17 1020 22 10000 4.28 209 07:52 30.10.2020
6132 Clear 17 1020 22 10000 4.28 209 07:33 30.10.2020
6133 Clear 17 1021 22 10000 3.59 206 06:50 30.10.2020
6134 Clear 16 1022 23 10000 2.53 208 05:45 30.10.2020
6135 Clear 10 1024 37 10000 2.99 26 02:43 30.10.2020
6136 Clear 8 1022 43 10000 2.99 29 01:20 30.10.2020
6137 Clear 8 1022 43 10000 3.03 29 23:59 29.10.2020
6138 Clear 8 1022 43 10000 3.03 29 23:41 29.10.2020
6139 Clear 8 1022 44 10000 3 28 23:21 29.10.2020
6140 Clear 8 1022 44 10000 3 28 22:44 29.10.2020
6141 Clear 9 1023 44 10000 2.94 27 22:25 29.10.2020
6142 Clear 9 1023 44 10000 2.94 27 21:43 29.10.2020
6143 Clear 9 1023 45 10000 2.89 26 21:22 29.10.2020
6144 Clear 9 1023 45 10000 2.89 26 20:43 29.10.2020
6145 Clear 9 1023 46 10000 2.87 26 20:23 29.10.2020
6146 Clear 9 1023 46 10000 2.87 26 19:56 29.10.2020
6147 Clear 9 1023 46 10000 2.87 26 19:37 29.10.2020
6148 Clear 9 1023 46 10000 2.96 26 19:18 29.10.2020
6149 Clear 9 1023 46 10000 2.98 27 18:41 29.10.2020
6150 Clear 9 1023 47 10000 2.99 27 18:21 29.10.2020
6151 Clear 9 1023 47 10000 2.99 27 17:42 29.10.2020
6152 Clear 9 1023 47 10000 2.88 27 17:22 29.10.2020
6153 Clear 9 1023 47 10000 2.88 27 16:52 29.10.2020
6154 Clear 9 1023 48 10000 2.4 30 16:23 29.10.2020
6155 Clear 9 1023 48 10000 2.4 30 15:58 29.10.2020
6156 Clear 9 1023 48 10000 2.4 30 15:40 29.10.2020
6157 Clear 9 1022 50 10000 1.56 40 15:21 29.10.2020
6158 Clear 9 1022 50 10000 1.56 40 14:47 29.10.2020
6159 Clear 8 1021 50 10000 0.48 95 14:24 29.10.2020
6160 Clear 8 1021 50 10000 0.48 95 13:59 29.10.2020
6161 Clear 8 1021 50 10000 0.48 95 13:40 29.10.2020
6162 Clear 10 1020 45 10000 1.7 192 13:21 29.10.2020
6163 Clear 10 1020 45 10000 1.7 192 12:40 29.10.2020
6164 Clear 15 1018 33 10000 3.52 199 12:19 29.10.2020
6165 Clear 15 1018 33 10000 3.52 199 11:47 29.10.2020
6166 Clear 16 1018 29 10000 4.25 204 11:25 29.10.2020
6167 Clear 16 1018 29 10000 4.25 204 10:38 29.10.2020
6168 Clear 17 1018 27 10000 4.79 202 10:20 29.10.2020
6169 Clear 17 1018 27 10000 4.79 202 09:53 29.10.2020
6170 Clear 17 1018 25 10000 5.05 201 09:28 29.10.2020
6171 Clear 17 1018 25 10000 5.05 201 08:58 29.10.2020
6172 Clear 17 1018 25 10000 5.05 201 08:38 29.10.2020
6173 Clear 18 1019 24 10000 4.63 201 08:18 29.10.2020
6174 Clear 18 1019 24 10000 4.63 201 07:46 29.10.2020
6175 Clear 17 1020 25 10000 3.96 201 06:58 29.10.2020
6176 Clear 16 1021 26 10000 2.81 203 06:22 29.10.2020
6177 Clear 15 1022 28 10000 1.51 201 04:46 29.10.2020
6178 Clear 8 1022 45 10000 2.79 23 01:37 29.10.2020
6179 Clear 9 1021 45 10000 2.68 23 00:31 29.10.2020
6180 Clear 9 1021 45 10000 2.52 25 23:59 28.10.2020
6181 Clear 9 1021 45 10000 2.53 27 23:22 28.10.2020
6182 Clear 9 1021 45 10000 2.53 27 22:56 28.10.2020
6183 Clear 9 1021 45 10000 2.53 27 22:37 28.10.2020
6184 Clear 9 1021 45 10000 2.42 25 22:19 28.10.2020
6185 Clear 9 1021 45 10000 2.42 25 21:43 28.10.2020
6186 Clear 9 1021 45 10000 2.17 30 21:25 28.10.2020
6187 Clear 9 1021 45 10000 2.17 30 20:43 28.10.2020
6188 Clear 9 1022 45 10000 2.08 32 20:23 28.10.2020
6189 Clear 9 1022 45 10000 2.08 32 19:53 28.10.2020
6190 Clear 9 1022 45 10000 2.08 32 19:30 28.10.2020
6191 Clear 9 1021 45 10000 2.22 29 18:51 28.10.2020
6192 Clear 9 1021 44 10000 2.42 26 18:22 28.10.2020
6193 Clear 9 1021 44 10000 2.42 26 17:58 28.10.2020
6194 Clear 9 1021 44 10000 2.42 26 17:39 28.10.2020
6195 Clear 10 1021 45 10000 2.55 26 17:21 28.10.2020
6196 Clear 10 1021 45 10000 2.55 26 16:47 28.10.2020
6197 Clear 10 1020 45 10000 2.5 26 16:25 28.10.2020
6198 Clear 10 1020 45 10000 2.5 26 15:41 28.10.2020
6199 Clear 10 1020 46 10000 1.91 35 15:19 28.10.2020
6200 Clear 10 1020 46 10000 1.91 35 14:46 28.10.2020
6201 Clear 9 1019 48 10000 0.83 45 14:27 28.10.2020
6202 Clear 10 1017 44 10000 1.09 196 12:59 28.10.2020
6203 Clear 10 1017 44 10000 1.09 196 12:36 28.10.2020
6204 Clear 16 1015 30 10000 2.73 198 12:18 28.10.2020
6205 Clear 16 1015 30 10000 2.73 198 11:42 28.10.2020
6206 Clear 17 1015 27 10000 3.55 198 11:21 28.10.2020
6207 Clear 17 1015 27 10000 3.55 198 10:53 28.10.2020
6208 Clear 17 1015 27 10000 3.55 198 10:33 28.10.2020
6209 Clear 18 1015 24 10000 3.93 198 09:56 28.10.2020
6210 Clear 18 1015 24 10000 3.93 198 09:37 28.10.2020
6211 Clear 19 1016 23 10000 4.08 199 09:19 28.10.2020
6212 Clear 19 1016 23 10000 4.08 199 08:43 28.10.2020
6213 Clear 19 1017 22 10000 3.72 200 08:23 28.10.2020
6214 Clear 19 1017 22 10000 3.72 200 07:44 28.10.2020
6215 Clear 19 1018 21 10000 3.36 200 07:26 28.10.2020
6216 Clear 19 1018 22 10000 3.24 201 06:40 28.10.2020
6217 Clear 18 1019 22 10000 2.53 203 05:49 28.10.2020
6218 Clear 17 1020 23 10000 0.87 198 04:52 28.10.2020
6219 Clear 15 1020 25 10000 1.23 17 04:24 28.10.2020
6220 Clear 9 1020 33 10000 3.02 25 02:25 28.10.2020
6221 Clear 9 1019 34 10000 2.98 27 01:26 28.10.2020
6222 Clear 9 1019 35 10000 3 23 23:52 27.10.2020
6223 Clear 10 1019 35 10000 3.12 21 23:25 27.10.2020
6224 Clear 10 1019 35 10000 3.12 21 22:55 27.10.2020
6225 Clear 10 1019 35 10000 3.12 21 22:37 27.10.2020
6226 Clear 10 1020 36 10000 3.26 23 22:18 27.10.2020
6227 Clear 10 1020 36 10000 3.26 23 21:55 27.10.2020
6228 Clear 10 1020 36 10000 3.26 23 21:36 27.10.2020
6229 Clear 10 1020 36 10000 3.27 24 21:18 27.10.2020
6230 Clear 10 1020 36 10000 3.27 24 21:18 27.10.2020
6231 Clear 10 1020 36 10000 3.27 24 20:39 27.10.2020
6232 Clear 10 1021 37 10000 3 25 20:21 27.10.2020
6233 Clear 10 1021 37 10000 3 25 19:39 27.10.2020
6234 Clear 10 1021 37 10000 3.05 26 19:21 27.10.2020
6235 Clear 10 1021 37 10000 3.05 26 18:58 27.10.2020
6236 Clear 10 1021 37 10000 3.05 26 18:40 27.10.2020
6237 Clear 10 1021 38 10000 2.95 26 18:19 27.10.2020
6238 Clear 10 1021 38 10000 2.95 26 17:43 27.10.2020
6239 Clear 10 1021 38 10000 3.15 23 17:21 27.10.2020
6240 Clear 10 1021 38 10000 3.15 23 16:48 27.10.2020
6241 Clear 10 1021 39 10000 3.29 24 16:28 27.10.2020
6242 Clear 10 1021 39 10000 3.29 24 15:55 27.10.2020
6243 Clear 10 1021 39 10000 3.29 24 15:37 27.10.2020
6244 Clear 10 1020 41 10000 2.88 29 15:18 27.10.2020
6245 Clear 10 1020 41 10000 2.88 29 14:41 27.10.2020
6246 Clear 9 1019 46 10000 1.55 41 14:22 27.10.2020
6247 Clear 9 1019 46 10000 1.55 41 13:46 27.10.2020
6248 Clear 10 1018 44 10000 1 190 13:22 27.10.2020
6249 Clear 11 1018 43 10000 0.96 188 12:40 27.10.2020
6250 Clear 16 1016 28 10000 2.58 199 12:22 27.10.2020
6251 Clear 16 1016 28 10000 2.58 199 11:42 27.10.2020
6252 Clear 18 1016 24 10000 3.01 199 11:24 27.10.2020
6253 Clear 18 1016 24 10000 3.01 199 10:47 27.10.2020
6254 Clear 19 1016 23 10000 3.29 199 10:29 27.10.2020
6255 Clear 19 1016 23 10000 3.29 199 09:47 27.10.2020
6256 Clear 19 1017 21 10000 3.39 200 09:26 27.10.2020
6257 Clear 19 1017 21 10000 3.39 200 08:44 27.10.2020
6258 Clear 19 1017 21 10000 3.17 200 08:26 27.10.2020
6259 Clear 19 1017 21 10000 3.17 200 07:47 27.10.2020
6260 Clear 18 1018 20 10000 2.72 200 07:28 27.10.2020
6261 Clear 18 1018 21 10000 2.73 198 06:38 27.10.2020
6262 Clear 18 1019 21 10000 1.8 196 06:19 27.10.2020
6263 Clear 18 1019 21 10000 1.8 196 05:43 27.10.2020
6264 Clear 17 1020 21 10000 0.25 163 04:57 27.10.2020
6265 Clear 10 1020 31 10000 3.23 27 02:35 27.10.2020
6266 Clear 8 1019 35 10000 3.6 28 00:59 27.10.2020
6267 Clear 8 1019 35 10000 3.52 28 23:57 26.10.2020
6268 Clear 8 1019 35 10000 3.52 28 23:36 26.10.2020
6269 Clear 8 1019 35 10000 3.52 28 23:36 26.10.2020
6270 Clear 8 1019 36 10000 3.56 29 22:55 26.10.2020
6271 Clear 8 1019 37 10000 3.47 29 22:29 26.10.2020
6272 Clear 8 1019 37 10000 3.47 29 21:51 26.10.2020
6273 Clear 8 1020 37 10000 3.36 29 21:21 26.10.2020
6274 Clear 8 1020 37 10000 3.36 29 20:59 26.10.2020
6275 Clear 8 1020 37 10000 3.36 29 20:41 26.10.2020
6276 Clear 9 1021 38 10000 3.39 28 20:22 26.10.2020
6277 Clear 9 1021 38 10000 3.39 28 19:48 26.10.2020
6278 Clear 9 1021 39 10000 3.43 27 19:28 26.10.2020
6279 Clear 9 1021 39 10000 3.43 27 18:55 26.10.2020
6280 Clear 9 1021 38 10000 3.54 27 18:36 26.10.2020
6281 Clear 9 1021 38 10000 3.49 26 18:18 26.10.2020
6282 Clear 9 1021 38 10000 3.49 26 17:40 26.10.2020
6283 Clear 9 1021 39 10000 3.28 28 17:22 26.10.2020
6284 Clear 9 1021 39 10000 3.28 28 16:44 26.10.2020
6285 Clear 9 1021 41 10000 3 25 16:22 26.10.2020
6286 Clear 9 1021 41 10000 3 25 15:45 26.10.2020
6287 Clear 9 1020 43 10000 2.85 26 15:26 26.10.2020
6288 Clear 9 1020 43 10000 2.85 26 14:56 26.10.2020
6289 Clear 9 1020 43 10000 2.85 26 14:56 26.10.2020
6290 Clear 9 1020 43 10000 2.85 26 14:38 26.10.2020
6291 Clear 9 1020 47 10000 1.9 35 13:58 26.10.2020
6292 Clear 9 1020 47 10000 1.9 35 13:36 26.10.2020
6293 Clouds 9 1019 46 10000 0.46 182 13:18 26.10.2020
6294 Clouds 9 1019 46 10000 0.51 183 12:42 26.10.2020
6295 Clouds 15 1018 32 10000 2.02 203 12:23 26.10.2020
6296 Clouds 15 1018 32 10000 2.02 203 11:47 26.10.2020
6297 Clouds 15 1017 29 10000 2.23 204 11:23 26.10.2020
6298 Clouds 15 1017 29 10000 2.23 204 10:57 26.10.2020
6299 Clouds 15 1017 29 10000 2.23 204 10:38 26.10.2020
6300 Clouds 16 1018 28 10000 2.17 208 10:19 26.10.2020
6301 Clouds 16 1018 28 10000 2.17 208 09:39 26.10.2020
6302 Clouds 16 1019 28 10000 2.22 210 09:18 26.10.2020
6303 Clouds 15 1020 28 10000 1.96 201 08:28 26.10.2020
6304 Clouds 15 1020 28 10000 1.96 201 07:52 26.10.2020
6305 Clouds 15 1020 28 10000 1.96 201 07:33 26.10.2020
6306 Clear 14 1021 31 10000 0.15 257 06:19 26.10.2020
6307 Clear 11 1022 40 10000 2.33 21 04:21 26.10.2020
6308 Clear 8 1022 48 10000 3.49 28 03:21 26.10.2020
6309 Clear 8 1022 48 10000 3.49 28 03:21 26.10.2020
6310 Clear 8 1022 48 10000 3.49 28 03:21 26.10.2020
6311 Clear 6 1021 53 10000 3.65 29 01:37 26.10.2020
6312 Clear 7 1021 52 10000 3.68 27 00:44 26.10.2020
6313 Clear 7 1021 53 10000 3.53 28 00:25 26.10.2020
6314 Clear 7 1021 53 10000 3.53 28 23:38 25.10.2020
6315 Clear 7 1020 52 10000 3.44 27 23:19 25.10.2020
6316 Clear 7 1020 52 10000 3.44 27 22:40 25.10.2020
6317 Clear 7 1020 53 10000 3.34 28 22:20 25.10.2020
6318 Clear 7 1020 53 10000 3.34 28 21:40 25.10.2020
6319 Clear 8 1021 53 10000 2.95 29 21:21 25.10.2020
6320 Clear 8 1021 53 10000 2.95 29 20:46 25.10.2020
6321 Clear 8 1021 52 10000 2.34 32 20:27 25.10.2020
6322 Clear 8 1021 52 10000 2.34 32 19:59 25.10.2020
6323 Clear 8 1021 52 10000 2.34 32 19:41 25.10.2020
6324 Rain 8 1021 54 10000 1.3 33 19:21 25.10.2020
6325 Clouds 8 1021 54 10000 1.3 33 18:42 25.10.2020
6326 Rain 8 1020 53 10000 0.98 45 18:23 25.10.2020
6327 Clouds 8 1020 53 10000 0.98 45 17:59 25.10.2020
6328 Clouds 8 1020 53 10000 0.98 45 17:38 25.10.2020
6329 Rain 8 1020 52 10000 1.43 58 17:20 25.10.2020
6330 Clouds 8 1020 52 10000 1.43 58 16:55 25.10.2020
6331 Clouds 8 1020 52 10000 1.43 58 16:37 25.10.2020
6332 Rain 8 1019 52 10000 1.4 66 16:18 25.10.2020
6333 Clouds 8 1019 52 10000 1.4 66 15:41 25.10.2020
6334 Rain 9 1019 52 10000 0.78 85 15:23 25.10.2020
6335 Clouds 9 1019 52 10000 0.78 85 14:40 25.10.2020
6336 Clouds 9 1017 50 9190 0.7 176 14:21 25.10.2020
6337 Clouds 9 1017 50 9190 0.7 176 13:42 25.10.2020
6338 Rain 11 1016 46 8100 1.77 192 13:20 25.10.2020
6339 Clouds 11 1016 46 8068 1.54 186 12:46 25.10.2020
6340 Rain 13 1015 39 3477 3.15 197 12:26 25.10.2020
6341 Clouds 13 1015 39 3477 3.15 197 11:54 25.10.2020
6342 Clouds 13 1015 39 3477 3.15 197 11:36 25.10.2020
6343 Rain 15 1015 34 6127 4.25 201 11:18 25.10.2020
6344 Clouds 15 1015 34 6127 4.25 201 10:43 25.10.2020
6345 Rain 17 1015 29 10000 5 201 10:21 25.10.2020
6346 Clear 17 1015 29 10000 5 201 09:43 25.10.2020
6347 Clear 18 1015 26 10000 5.3 202 09:19 25.10.2020
6348 Clear 18 1015 26 10000 5.3 202 08:47 25.10.2020
6349 Clear 18 1016 25 10000 5.08 201 08:29 25.10.2020
6350 Clear 18 1016 25 10000 5.08 201 07:48 25.10.2020
6351 Clear 17 1018 25 10000 4.51 202 07:27 25.10.2020
6352 Clear 17 1018 26 10000 4.27 202 06:50 25.10.2020
6353 Clear 17 1019 27 10000 3.41 203 05:47 25.10.2020
6354 Clear 15 1019 28 10000 2.11 201 04:52 25.10.2020
6355 Clear 14 1019 31 10000 0.6 5 03:44 25.10.2020
6356 Clear 9 1019 47 10000 3.41 27 01:47 25.10.2020
6357 Clear 9 1018 47 10000 3.29 26 00:49 25.10.2020
6358 Clear 9 1018 48 10000 3.03 28 00:20 25.10.2020
6359 Clear 9 1018 48 10000 3.03 28 23:54 24.10.2020
6360 Clear 9 1018 48 10000 2.74 30 23:26 24.10.2020
6361 Clear 9 1018 48 10000 2.74 30 22:57 24.10.2020
6362 Clear 9 1018 48 10000 2.74 30 22:38 24.10.2020
6363 Clear 10 1018 47 10000 2.71 28 22:20 24.10.2020
6364 Clear 10 1018 47 10000 2.71 28 21:42 24.10.2020
6365 Clear 10 1018 47 10000 2.7 27 21:21 24.10.2020
6366 Clear 10 1018 47 10000 2.7 27 20:47 24.10.2020
6367 Clear 10 1018 47 10000 2.78 25 20:23 24.10.2020
6368 Clear 10 1018 47 10000 2.95 26 19:55 24.10.2020
6369 Clear 10 1018 47 10000 2.95 26 19:37 24.10.2020
6370 Clear 10 1018 47 10000 2.9 27 19:19 24.10.2020
6371 Clear 10 1018 47 10000 2.9 27 18:43 24.10.2020
6372 Clear 10 1018 47 10000 2.71 29 18:24 24.10.2020
6373 Clear 10 1018 47 10000 2.71 29 18:24 24.10.2020
6374 Clear 10 1018 47 10000 2.71 29 17:39 24.10.2020
6375 Clear 10 1017 47 10000 2.02 35 17:21 24.10.2020
6376 Clear 10 1017 47 10000 2.02 35 16:45 24.10.2020
6377 Clear 10 1016 49 10000 1.23 57 16:23 24.10.2020
6378 Clear 10 1016 49 10000 1.23 57 15:41 24.10.2020
6379 Clear 10 1015 49 10000 0.52 121 15:20 24.10.2020
6380 Clear 10 1015 49 10000 0.52 121 14:56 24.10.2020
6381 Clear 12 1014 41 10000 1.88 196 14:29 24.10.2020
6382 Clear 12 1014 41 10000 1.91 200 13:47 24.10.2020
6383 Clear 16 1013 30 10000 3.52 202 13:29 24.10.2020
6384 Clear 16 1013 30 10000 3.55 201 12:58 24.10.2020
6385 Clear 16 1013 30 10000 3.52 202 12:37 24.10.2020
6386 Clear 18 1012 26 10000 4.14 200 12:19 24.10.2020
6387 Clear 18 1012 26 10000 4.1 199 11:43 24.10.2020
6388 Clear 19 1012 23 10000 4.31 201 10:59 24.10.2020
6389 Clear 19 1012 23 10000 4.31 201 10:39 24.10.2020
6390 Clear 19 1013 22 10000 4.32 202 10:18 24.10.2020
6391 Clear 19 1013 22 10000 4.32 202 09:42 24.10.2020
6392 Clear 19 1014 22 10000 4.02 202 09:22 24.10.2020
6393 Clear 19 1014 22 10000 4.02 202 08:54 24.10.2020
6394 Clear 19 1015 22 10000 3.33 203 08:18 24.10.2020
6395 Clear 19 1015 22 10000 3.33 203 07:49 24.10.2020
6396 Clear 18 1016 23 10000 2.31 206 07:20 24.10.2020
6397 Clear 18 1016 23 10000 2.31 206 06:49 24.10.2020
6398 Clear 15 1017 28 10000 1.71 17 04:59 24.10.2020
6399 Clear 9 1016 40 10000 3.45 23 02:20 24.10.2020
6400 Clear 9 1016 41 10000 3.4 23 00:44 24.10.2020
6401 Clear 10 1016 41 10000 3.36 22 00:23 24.10.2020
6402 Clear 10 1016 41 10000 3.36 22 23:59 23.10.2020
6403 Clear 10 1016 41 10000 3.36 22 23:38 23.10.2020
6404 Clear 10 1016 42 10000 3.24 23 23:19 23.10.2020
6405 Clear 10 1016 42 10000 3.24 23 22:42 23.10.2020
6406 Clear 10 1016 42 10000 3.17 23 22:21 23.10.2020
6407 Clear 10 1016 42 10000 3.17 23 21:53 23.10.2020
6408 Clear 10 1016 42 10000 3.17 23 21:30 23.10.2020
6409 Clear 10 1017 42 10000 3.19 23 20:58 23.10.2020
6410 Clear 10 1017 42 10000 3.19 23 20:38 23.10.2020
6411 Clear 10 1017 43 10000 3.32 22 20:18 23.10.2020
6412 Clear 10 1017 43 10000 3.32 22 19:43 23.10.2020
6413 Clear 10 1016 44 10000 3.56 23 19:25 23.10.2020
6414 Clear 10 1016 44 10000 3.56 23 18:42 23.10.2020
6415 Clear 10 1016 45 10000 3.48 24 18:23 23.10.2020
6416 Clear 10 1016 45 10000 3.48 24 17:45 23.10.2020
6417 Clear 10 1016 45 10000 2.81 30 17:21 23.10.2020
6418 Clear 10 1016 45 10000 2.81 30 17:21 23.10.2020
6419 Clear 10 1016 45 10000 2.81 30 16:50 23.10.2020
6420 Clear 10 1016 45 10000 2.81 30 16:31 23.10.2020
6421 Clear 10 1015 47 10000 1.69 46 15:56 23.10.2020
6422 Clear 10 1015 47 10000 1.69 46 15:38 23.10.2020
6423 Clear 10 1014 48 10000 0.25 100 15:19 23.10.2020
6424 Clear 10 1014 48 10000 0.25 100 14:45 23.10.2020
6425 Clouds 13 1012 40 10000 1.96 201 14:27 23.10.2020
6426 Clouds 13 1012 40 10000 1.96 201 13:41 23.10.2020
6427 Clouds 16 1011 31 10000 3.49 200 13:23 23.10.2020
6428 Clouds 16 1011 31 10000 3.49 200 12:50 23.10.2020
6429 Clouds 16 1011 31 10000 3.49 200 12:30 23.10.2020
6430 Clouds 18 1010 28 10000 4.08 200 11:50 23.10.2020
6431 Clouds 19 1010 26 10000 4.41 199 11:26 23.10.2020
6432 Clouds 19 1010 26 10000 4.41 199 10:52 23.10.2020
6433 Clouds 19 1011 26 10000 4.13 201 10:26 23.10.2020
6434 Clouds 19 1011 26 10000 4.13 201 09:57 23.10.2020
6435 Clouds 19 1011 26 10000 4.13 201 09:38 23.10.2020
6436 Clouds 19 1012 26 10000 3.65 202 09:19 23.10.2020
6437 Clouds 19 1012 26 10000 3.65 202 08:49 23.10.2020
6438 Clear 18 1014 27 10000 3.08 202 08:23 23.10.2020
6439 Clear 17 1015 28 10000 2.49 204 07:26 23.10.2020
6440 Clear 17 1015 28 10000 2.49 204 06:46 23.10.2020
6441 Clear 16 1016 30 10000 1.53 208 06:19 23.10.2020
6442 Clear 12 1016 38 10000 2.58 25 03:37 23.10.2020
6443 Clear 10 1015 43 10000 2.51 33 02:26 23.10.2020
6444 Clear 10 1015 42 10000 2.27 35 00:49 23.10.2020
6445 Clear 10 1015 42 10000 2.21 36 00:21 23.10.2020
6446 Clear 10 1015 42 10000 2.21 36 23:37 22.10.2020
6447 Clear 10 1015 41 10000 2.18 36 23:18 22.10.2020
6448 Clear 10 1015 41 10000 2.18 36 22:42 22.10.2020
6449 Clear 10 1015 40 10000 2.33 32 22:21 22.10.2020
6450 Clear 10 1015 40 10000 2.33 32 21:47 22.10.2020
6451 Clear 10 1015 41 10000 2.39 30 21:28 22.10.2020
6452 Clear 10 1015 41 10000 2.39 30 20:58 22.10.2020
6453 Clear 10 1015 41 10000 2.39 30 20:40 22.10.2020
6454 Clear 10 1015 41 10000 2.41 24 20:20 22.10.2020
6455 Clear 10 1015 41 10000 2.41 24 19:41 22.10.2020
6456 Clear 10 1015 42 10000 2.4 19 19:20 22.10.2020
6457 Clear 10 1015 42 10000 2.4 19 18:43 22.10.2020
6458 Clear 10 1015 42 10000 2.75 17 18:21 22.10.2020
6459 Clear 10 1015 42 10000 2.75 17 17:47 22.10.2020
6460 Clear 10 1015 43 10000 2.85 24 17:26 22.10.2020
6461 Clear 10 1015 43 10000 2.85 24 16:58 22.10.2020
6462 Clear 10 1015 43 10000 2.85 24 16:40 22.10.2020
6463 Clear 10 1014 45 10000 2.37 37 16:22 22.10.2020
6464 Clear 10 1014 45 10000 2.37 37 15:44 22.10.2020
6465 Clear 10 1013 47 10000 1.04 55 15:25 22.10.2020
6466 Clear 10 1013 47 10000 1.04 55 14:49 22.10.2020
6467 Clear 10 1013 47 10000 1.04 55 14:49 22.10.2020
6468 Clouds 13 1012 40 10000 1.34 205 14:25 22.10.2020
6469 Clouds 13 1012 40 10000 1.34 205 13:49 22.10.2020
6470 Clouds 16 1011 32 10000 3.1 205 13:24 22.10.2020
6471 Clouds 16 1011 32 10000 3.1 205 12:54 22.10.2020
6472 Clouds 17 1011 29 10000 3.71 205 12:24 22.10.2020
6473 Clouds 17 1011 29 10000 3.71 205 11:50 22.10.2020
6474 Clouds 18 1012 28 10000 3.91 203 11:20 22.10.2020
6475 Clouds 18 1012 28 10000 3.91 203 10:52 22.10.2020
6476 Clouds 18 1012 28 10000 3.91 203 10:30 22.10.2020
6477 Clouds 18 1012 27 10000 3.86 203 09:56 22.10.2020
6478 Clouds 18 1012 27 10000 3.86 203 09:38 22.10.2020
6479 Clouds 18 1013 26 10000 3.35 202 08:56 22.10.2020
6480 Clouds 18 1013 26 10000 3.35 202 08:37 22.10.2020
6481 Clear 18 1014 27 10000 2.77 201 08:18 22.10.2020
6482 Clear 18 1014 26 10000 2.63 201 07:42 22.10.2020
6483 Clear 17 1015 28 10000 1.84 210 06:59 22.10.2020
6484 Clear 17 1015 28 10000 1.84 210 06:36 22.10.2020
6485 Clear 16 1016 30 10000 0.7 235 05:42 22.10.2020
6486 Clear 14 1017 33 10000 1.19 8 05:19 22.10.2020
6487 Clear 9 1015 46 10000 3.26 25 01:53 22.10.2020
6488 Clear 10 1015 47 10000 2.94 27 00:27 22.10.2020
6489 Clear 10 1015 47 10000 2.94 27 23:57 21.10.2020
6490 Clear 10 1015 47 10000 2.94 27 23:35 21.10.2020
6491 Clear 10 1015 47 10000 2.62 28 22:54 21.10.2020
6492 Clear 10 1015 47 10000 2.62 28 22:36 21.10.2020
6493 Clear 10 1016 47 10000 2.29 25 22:18 21.10.2020
6494 Clear 10 1016 47 10000 2.29 25 21:42 21.10.2020
6495 Clear 10 1016 46 10000 2.09 27 21:19 21.10.2020
6496 Clear 10 1016 46 10000 2.09 27 20:48 21.10.2020
6497 Clear 10 1015 46 10000 2.14 26 20:19 21.10.2020
6498 Clear 10 1015 46 10000 2.14 26 19:57 21.10.2020
6499 Clear 10 1015 44 10000 2.44 23 19:37 21.10.2020
6500 Clear 10 1015 44 10000 2.62 20 19:18 21.10.2020
6501 Clear 10 1015 44 10000 2.62 20 19:18 21.10.2020
6502 Clear 10 1015 44 10000 2.62 20 18:46 21.10.2020
6503 Clear 10 1015 44 10000 2.8 22 18:21 21.10.2020
6504 Clear 10 1015 44 10000 2.8 22 17:43 21.10.2020
6505 Clear 10 1015 44 10000 2.87 20 17:20 21.10.2020
6506 Clear 10 1015 44 10000 2.87 20 16:55 21.10.2020
6507 Clear 10 1015 44 10000 2.87 20 16:36 21.10.2020
6508 Clear 10 1015 45 10000 2.3 29 16:18 21.10.2020
6509 Clear 10 1015 45 10000 2.3 29 15:42 21.10.2020
6510 Clear 10 1014 47 10000 0.68 33 15:20 21.10.2020
6511 Clear 10 1014 47 10000 0.68 33 14:45 21.10.2020
6512 Clear 13 1013 40 10000 1.57 204 14:27 21.10.2020
6513 Clear 13 1012 40 10000 1.57 202 13:46 21.10.2020
6514 Clear 16 1012 31 10000 3.33 200 13:26 21.10.2020
6515 Clear 16 1012 31 10000 3.33 200 12:48 21.10.2020
6516 Clear 18 1012 28 10000 3.77 200 12:25 21.10.2020
6517 Clear 18 1012 28 10000 3.77 200 11:59 21.10.2020
6518 Clear 18 1012 28 10000 3.77 200 11:40 21.10.2020
6519 Clear 19 1012 26 10000 3.65 200 11:19 21.10.2020
6520 Clear 19 1012 26 10000 3.65 200 10:44 21.10.2020
6521 Clear 19 1013 25 10000 3.74 200 10:25 21.10.2020
6522 Clear 19 1013 25 10000 3.74 200 09:52 21.10.2020
6523 Clear 19 1013 25 10000 3.74 200 09:33 21.10.2020
6524 Clear 19 1015 24 10000 3.9 200 08:56 21.10.2020
6525 Clear 19 1015 24 10000 3.9 200 08:56 21.10.2020
6526 Clear 19 1015 24 10000 3.9 200 08:38 21.10.2020
6527 Clear 19 1016 24 10000 3.58 201 08:19 21.10.2020
6528 Clear 19 1016 24 10000 3.58 201 08:19 21.10.2020
6529 Clear 19 1016 24 10000 3.43 201 07:37 21.10.2020
6530 Clear 18 1017 24 10000 2.6 203 06:52 21.10.2020
6531 Clear 17 1018 25 10000 1.52 201 06:27 21.10.2020
6532 Clear 16 1018 27 10000 0.9 18 04:47 21.10.2020
6533 Clear 10 1017 41 10000 2.66 27 00:51 21.10.2020
6534 Clear 10 1016 40 10000 2.47 26 23:49 20.10.2020
6535 Clear 11 1016 40 10000 2.52 23 22:54 20.10.2020
6536 Clear 11 1017 39 10000 2.65 20 22:28 20.10.2020
6537 Clear 11 1017 39 10000 2.65 20 21:50 20.10.2020
6538 Clear 11 1016 39 10000 2.71 20 21:21 20.10.2020
6539 Clear 11 1016 39 10000 2.71 20 20:56 20.10.2020
6540 Clear 11 1016 39 10000 2.71 20 20:36 20.10.2020
6541 Clear 11 1016 39 10000 2.68 21 20:18 20.10.2020
6542 Clear 11 1016 38 10000 2.56 24 19:42 20.10.2020
6543 Clear 11 1016 38 10000 2.66 23 19:22 20.10.2020
6544 Clear 11 1016 38 10000 2.66 23 18:52 20.10.2020
6545 Clear 11 1016 38 10000 2.66 23 18:34 20.10.2020
6546 Clear 12 1016 38 10000 2.77 20 17:48 20.10.2020
6547 Clear 12 1016 39 10000 2.93 22 17:29 20.10.2020
6548 Clear 12 1016 39 10000 2.93 22 16:48 20.10.2020
6549 Clear 12 1015 40 10000 2.69 26 16:28 20.10.2020
6550 Clear 12 1015 40 10000 2.69 26 15:57 20.10.2020
6551 Clear 12 1015 40 10000 2.69 26 15:38 20.10.2020
6552 Clear 11 1014 43 10000 1.26 37 15:19 20.10.2020
6553 Clear 11 1014 43 10000 1.26 37 14:41 20.10.2020
6554 Clear 14 1012 38 10000 1.38 196 14:22 20.10.2020
6555 Clear 14 1012 38 10000 1.38 196 13:44 20.10.2020
6556 Clear 18 1011 28 10000 3.24 199 13:24 20.10.2020
6557 Clear 18 1011 28 10000 3.24 199 12:59 20.10.2020
6558 Clear 18 1011 28 10000 3.24 199 12:40 20.10.2020
6559 Clear 20 1011 25 10000 3.59 199 12:22 20.10.2020
6560 Clear 20 1011 25 10000 3.59 199 11:45 20.10.2020
6561 Clear 21 1011 23 10000 3.49 200 11:27 20.10.2020
6562 Clear 21 1011 23 10000 3.49 200 10:38 20.10.2020
6563 Clear 21 1012 22 10000 3.5 201 10:19 20.10.2020
6564 Clear 21 1012 22 10000 3.5 201 09:43 20.10.2020
6565 Clear 21 1013 21 10000 3.54 201 09:19 20.10.2020
6566 Clear 21 1013 21 10000 3.54 201 08:39 20.10.2020
6567 Clear 21 1013 21 10000 3.27 201 07:54 20.10.2020
6568 Clear 20 1014 21 10000 2.46 201 07:26 20.10.2020
6569 Clear 20 1014 21 10000 2.46 201 06:34 20.10.2020
6570 Clear 19 1015 22 10000 1.12 200 05:53 20.10.2020
6571 Clear 13 1015 29 10000 2.79 22 03:58 20.10.2020
6572 Clear 11 1015 31 10000 3.01 24 02:30 20.10.2020
6573 Clear 11 1014 31 10000 3.02 24 01:20 20.10.2020
6574 Clear 11 1014 31 10000 3.02 24 00:50 20.10.2020
6575 Clear 11 1014 31 10000 2.85 24 00:23 20.10.2020
6576 Clear 11 1014 31 10000 2.85 24 23:47 19.10.2020
6577 Clear 11 1014 31 10000 2.85 24 23:47 19.10.2020
6578 Clear 11 1014 31 10000 2.75 24 23:24 19.10.2020
6579 Clear 11 1014 31 10000 2.75 24 22:47 19.10.2020
6580 Clear 12 1014 31 10000 2.85 24 22:25 19.10.2020
6581 Clear 12 1014 31 10000 2.85 24 22:25 19.10.2020
6582 Clear 12 1014 31 10000 2.85 24 21:50 19.10.2020
6583 Clear 12 1014 31 10000 2.91 26 21:23 19.10.2020
6584 Clear 12 1014 31 10000 2.91 26 20:54 19.10.2020
6585 Clear 12 1014 31 10000 2.91 26 20:36 19.10.2020
6586 Clear 12 1015 31 10000 2.96 25 19:59 19.10.2020
6587 Clear 12 1015 32 10000 2.73 27 19:41 19.10.2020
6588 Clear 12 1015 32 10000 2.8 24 19:19 19.10.2020
6589 Clear 12 1015 32 10000 2.8 24 18:43 19.10.2020
6590 Clear 12 1015 33 10000 2.89 21 18:19 19.10.2020
6591 Clear 12 1015 33 10000 2.89 21 17:46 19.10.2020
6592 Clear 12 1015 34 10000 3.14 23 17:26 19.10.2020
6593 Clear 12 1015 34 10000 3.14 23 16:52 19.10.2020
6594 Clear 12 1015 36 10000 3.1 27 16:29 19.10.2020
6595 Clear 12 1015 36 10000 3.1 27 15:46 19.10.2020
6596 Clear 12 1014 40 10000 1.67 39 15:25 19.10.2020
6597 Clear 12 1014 40 10000 1.67 39 14:57 19.10.2020
6598 Clear 14 1013 37 10000 0.98 188 14:28 19.10.2020
6599 Clear 14 1013 37 10000 0.98 188 13:59 19.10.2020
6600 Clear 14 1013 37 10000 0.98 187 13:41 19.10.2020
6601 Clear 19 1012 26 10000 2.89 195 13:22 19.10.2020
6602 Clear 19 1012 26 10000 2.89 195 12:43 19.10.2020
6603 Clear 20 1012 23 10000 3.56 197 12:25 19.10.2020
6604 Clear 20 1012 23 10000 3.56 197 11:42 19.10.2020
6605 Clear 21 1013 20 10000 3.72 197 11:21 19.10.2020
6606 Clear 21 1013 20 10000 3.72 197 10:44 19.10.2020
6607 Clear 22 1014 19 10000 3.86 197 10:23 19.10.2020
6608 Clear 22 1014 19 10000 3.86 197 09:56 19.10.2020
6609 Clear 22 1015 17 10000 3.8 198 09:24 19.10.2020
6610 Clear 22 1015 17 10000 3.8 198 08:49 19.10.2020
6611 Clear 22 1016 17 10000 3.56 199 08:24 19.10.2020
6612 Clear 22 1016 17 10000 3.57 199 07:56 19.10.2020
6613 Clear 21 1016 17 10000 2.6 201 07:20 19.10.2020
6614 Clear 21 1017 17 10000 0.6 198 06:23 19.10.2020
6615 Clear 19 1017 20 10000 1.76 22 04:47 19.10.2020
6616 Clear 14 1017 26 10000 3.23 24 03:44 19.10.2020
6617 Clear 12 1017 25 10000 3.43 27 01:33 19.10.2020
6618 Clear 12 1016 24 10000 3.41 27 00:28 19.10.2020
6619 Clear 12 1016 24 10000 3.41 27 23:56 18.10.2020
6620 Clear 12 1016 24 10000 3.41 27 23:37 18.10.2020
6621 Clear 12 1016 25 10000 3.42 27 23:18 18.10.2020
6622 Clear 12 1016 25 10000 3.42 27 22:43 18.10.2020
6623 Clear 12 1016 26 10000 3.59 28 22:18 18.10.2020
6624 Clear 12 1016 26 10000 3.59 28 21:38 18.10.2020
6625 Clear 13 1017 27 10000 3.76 28 21:20 18.10.2020
6626 Clear 13 1017 27 10000 3.76 28 20:43 18.10.2020
6627 Clear 13 1017 28 10000 3.92 27 20:23 18.10.2020
6628 Clear 13 1017 28 10000 3.92 27 19:50 18.10.2020
6629 Clear 13 1017 29 10000 3.57 27 19:27 18.10.2020
6630 Clear 13 1017 29 10000 3.57 27 18:51 18.10.2020
6631 Clear 13 1017 29 10000 3.57 27 18:30 18.10.2020
6632 Clear 13 1017 30 10000 3.66 26 17:59 18.10.2020
6633 Clear 13 1017 30 10000 3.66 26 17:41 18.10.2020
6634 Clear 13 1017 30 10000 3.66 26 17:41 18.10.2020
6635 Clear 13 1017 32 10000 3.65 26 17:21 18.10.2020
6636 Clear 13 1017 32 10000 3.65 26 16:43 18.10.2020
6637 Clear 13 1017 36 10000 2.64 30 16:24 18.10.2020
6638 Clear 13 1017 36 10000 2.64 30 15:43 18.10.2020
6639 Clear 12 1016 40 10000 1.26 46 15:21 18.10.2020
6640 Clear 12 1016 40 10000 1.26 46 14:58 18.10.2020
6641 Clear 12 1016 40 10000 1.26 46 14:37 18.10.2020
6642 Clear 14 1014 36 10000 0.95 191 14:18 18.10.2020
6643 Clear 15 1014 36 10000 1.03 194 13:41 18.10.2020
6644 Clear 20 1013 25 10000 2.58 199 13:23 18.10.2020
6645 Clear 20 1013 25 10000 2.58 199 12:43 18.10.2020
6646 Clear 21 1013 21 10000 3.28 198 12:24 18.10.2020
6647 Clear 21 1013 21 10000 3.28 198 11:55 18.10.2020
6648 Clear 21 1013 21 10000 3.28 198 11:37 18.10.2020
6649 Clear 22 1013 19 10000 3.78 198 11:18 18.10.2020
6650 Clear 22 1013 19 10000 3.78 198 10:39 18.10.2020
6651 Clear 23 1014 18 10000 4.05 199 10:19 18.10.2020
6652 Clear 23 1014 18 10000 4.05 199 09:47 18.10.2020
6653 Clear 23 1015 17 10000 3.89 200 09:21 18.10.2020
6654 Clear 23 1015 17 10000 3.89 200 08:52 18.10.2020
6655 Clear 23 1016 16 10000 3.49 200 08:26 18.10.2020
6656 Clear 23 1016 16 10000 3.49 200 07:56 18.10.2020
6657 Clear 21 1017 16 10000 0.29 218 05:59 18.10.2020
6658 Clear 14 1018 24 10000 3.07 22 03:58 18.10.2020
6659 Clear 12 1018 23 10000 3.33 23 02:54 18.10.2020
6660 Clear 12 1017 23 10000 3.12 25 01:36 18.10.2020
6661 Clear 12 1017 24 10000 3.15 23 00:46 18.10.2020
6662 Clear 12 1017 24 10000 3.15 24 00:24 18.10.2020
6663 Clear 12 1017 24 10000 3.15 24 23:42 17.10.2020
6664 Clear 13 1017 24 10000 3.25 25 23:21 17.10.2020
6665 Clear 13 1017 24 10000 3.25 25 22:59 17.10.2020
6666 Clear 13 1017 24 10000 3.25 25 22:39 17.10.2020
6667 Clear 13 1017 26 10000 3.36 25 22:19 17.10.2020
6668 Clear 13 1017 26 10000 3.36 25 21:43 17.10.2020
6669 Clear 13 1018 25 10000 3.49 26 21:21 17.10.2020
6670 Clear 13 1018 25 10000 3.49 26 20:48 17.10.2020
6671 Clear 13 1018 27 10000 3.48 26 20:21 17.10.2020
6672 Clear 13 1018 27 10000 3.48 26 20:21 17.10.2020
6673 Clear 13 1018 27 10000 3.48 26 19:47 17.10.2020
6674 Clear 13 1018 28 10000 3.59 25 19:25 17.10.2020
6675 Clear 13 1018 28 10000 3.59 25 18:59 17.10.2020
6676 Clear 13 1018 28 10000 3.59 25 18:41 17.10.2020
6677 Clear 13 1017 31 10000 3.84 22 18:18 17.10.2020
6678 Clear 13 1017 31 10000 3.84 22 17:42 17.10.2020
6679 Clear 13 1017 33 10000 4.02 21 17:20 17.10.2020
6680 Clear 13 1017 33 10000 4.02 21 16:48 17.10.2020
6681 Clear 13 1017 35 10000 3.22 26 16:22 17.10.2020